<?xml version="1.0" encoding="UTF-8" standalone="no" ?>
<gpx xmlns="http://www.topografix.com/GPX/1/1" xmlns:xsi="http://www.w3.org/2001/XMLSchema-instance" xsi:schemaLocation="http://www.topografix.com/GPX/1/1 http://www.topografix.com/GPX/1/1/gpx.xsd" version="1.1" creator="VisuGPX - https://www.visugpx.com">
  <metadata>
    <name>Pornichet 23/02/2020</name>
    <desc><![CDATA[Sortie VTT du dimanche 23 février 2020
]]></desc>
  </metadata>
  <trk>
    <name><![CDATA[Pornichet Cyclisme]]></name>
    <trkseg>
      <trkpt lat="47.26413" lon="-2.3156">
        <ele>8.1999998092651</ele>
        <time>2020-02-23T07:55:58.000Z</time>
      </trkpt>
      <trkpt lat="47.26411" lon="-2.31569">
        <ele>8.1999998092651</ele>
        <time>2020-02-23T07:56:00.000Z</time>
      </trkpt>
      <trkpt lat="47.2641" lon="-2.31578">
        <ele>8.1999998092651</ele>
        <time>2020-02-23T07:56:02.000Z</time>
      </trkpt>
      <trkpt lat="47.2641" lon="-2.31583">
        <ele>9</ele>
        <time>2020-02-23T07:56:03.000Z</time>
      </trkpt>
      <trkpt lat="47.26411" lon="-2.31626">
        <ele>9</ele>
        <time>2020-02-23T07:56:11.000Z</time>
      </trkpt>
      <trkpt lat="47.26412" lon="-2.31662">
        <ele>9</ele>
        <time>2020-02-23T07:56:18.000Z</time>
      </trkpt>
      <trkpt lat="47.2641" lon="-2.31664">
        <ele>9</ele>
        <time>2020-02-23T07:56:19.000Z</time>
      </trkpt>
      <trkpt lat="47.26405" lon="-2.31669">
        <ele>9</ele>
        <time>2020-02-23T07:56:21.000Z</time>
      </trkpt>
      <trkpt lat="47.26399" lon="-2.31673">
        <ele>8.6000003814697</ele>
        <time>2020-02-23T07:56:23.000Z</time>
      </trkpt>
      <trkpt lat="47.26396" lon="-2.31675">
        <ele>8.1999998092651</ele>
        <time>2020-02-23T07:56:24.000Z</time>
      </trkpt>
      <trkpt lat="47.26391" lon="-2.31677">
        <ele>7.8000001907349</ele>
        <time>2020-02-23T07:56:25.000Z</time>
      </trkpt>
      <trkpt lat="47.26386" lon="-2.3168">
        <ele>7.4000000953674</ele>
        <time>2020-02-23T07:56:26.000Z</time>
      </trkpt>
      <trkpt lat="47.26382" lon="-2.31683">
        <ele>7</ele>
        <time>2020-02-23T07:56:27.000Z</time>
      </trkpt>
      <trkpt lat="47.26363" lon="-2.31693">
        <ele>7</ele>
        <time>2020-02-23T07:56:31.000Z</time>
      </trkpt>
      <trkpt lat="47.26338" lon="-2.31706">
        <ele>7</ele>
        <time>2020-02-23T07:56:36.000Z</time>
      </trkpt>
      <trkpt lat="47.26314" lon="-2.31717">
        <ele>6.5999999046326</ele>
        <time>2020-02-23T07:56:41.000Z</time>
      </trkpt>
      <trkpt lat="47.2631" lon="-2.31717">
        <ele>6</ele>
        <time>2020-02-23T07:56:42.000Z</time>
      </trkpt>
      <trkpt lat="47.26308" lon="-2.31716">
        <ele>5.5999999046326</ele>
        <time>2020-02-23T07:56:43.000Z</time>
      </trkpt>
      <trkpt lat="47.26306" lon="-2.31714">
        <ele>5</ele>
        <time>2020-02-23T07:56:44.000Z</time>
      </trkpt>
      <trkpt lat="47.26303" lon="-2.3171">
        <ele>4.5999999046326</ele>
        <time>2020-02-23T07:56:45.000Z</time>
      </trkpt>
      <trkpt lat="47.26293" lon="-2.31692">
        <ele>4.5999999046326</ele>
        <time>2020-02-23T07:56:49.000Z</time>
      </trkpt>
      <trkpt lat="47.26278" lon="-2.31662">
        <ele>4.5999999046326</ele>
        <time>2020-02-23T07:56:56.000Z</time>
      </trkpt>
      <trkpt lat="47.26262" lon="-2.31635">
        <ele>4.5999999046326</ele>
        <time>2020-02-23T07:57:02.000Z</time>
      </trkpt>
      <trkpt lat="47.26253" lon="-2.31622">
        <ele>4.5999999046326</ele>
        <time>2020-02-23T07:57:05.000Z</time>
      </trkpt>
      <trkpt lat="47.26245" lon="-2.31615">
        <ele>4.5999999046326</ele>
        <time>2020-02-23T07:57:07.000Z</time>
      </trkpt>
      <trkpt lat="47.26224" lon="-2.31601">
        <ele>4.5999999046326</ele>
        <time>2020-02-23T07:57:12.000Z</time>
      </trkpt>
      <trkpt lat="47.26212" lon="-2.31598">
        <ele>4.5999999046326</ele>
        <time>2020-02-23T07:57:15.000Z</time>
      </trkpt>
      <trkpt lat="47.26208" lon="-2.31598">
        <ele>4.5999999046326</ele>
        <time>2020-02-23T07:57:16.000Z</time>
      </trkpt>
      <trkpt lat="47.26178" lon="-2.31606">
        <ele>4.5999999046326</ele>
        <time>2020-02-23T07:57:23.000Z</time>
      </trkpt>
      <trkpt lat="47.26148" lon="-2.31614">
        <ele>4.5999999046326</ele>
        <time>2020-02-23T07:57:30.000Z</time>
      </trkpt>
      <trkpt lat="47.26144" lon="-2.31614">
        <ele>4.5999999046326</ele>
        <time>2020-02-23T07:57:31.000Z</time>
      </trkpt>
      <trkpt lat="47.26123" lon="-2.31616">
        <ele>4.5999999046326</ele>
        <time>2020-02-23T07:57:36.000Z</time>
      </trkpt>
      <trkpt lat="47.26107" lon="-2.31613">
        <ele>4.5999999046326</ele>
        <time>2020-02-23T07:57:40.000Z</time>
      </trkpt>
      <trkpt lat="47.26101" lon="-2.31608">
        <ele>4.5999999046326</ele>
        <time>2020-02-23T07:57:42.000Z</time>
      </trkpt>
      <trkpt lat="47.26096" lon="-2.316">
        <ele>4.5999999046326</ele>
        <time>2020-02-23T07:57:44.000Z</time>
      </trkpt>
      <trkpt lat="47.26087" lon="-2.31587">
        <ele>4.5999999046326</ele>
        <time>2020-02-23T07:57:48.000Z</time>
      </trkpt>
      <trkpt lat="47.26078" lon="-2.31597">
        <ele>4.5999999046326</ele>
        <time>2020-02-23T07:57:51.000Z</time>
      </trkpt>
      <trkpt lat="47.26051" lon="-2.31632">
        <ele>4.5999999046326</ele>
        <time>2020-02-23T07:58:00.000Z</time>
      </trkpt>
      <trkpt lat="47.26031" lon="-2.31654">
        <ele>4.5999999046326</ele>
        <time>2020-02-23T07:58:06.000Z</time>
      </trkpt>
      <trkpt lat="47.26023" lon="-2.31659">
        <ele>4.5999999046326</ele>
        <time>2020-02-23T07:58:08.000Z</time>
      </trkpt>
      <trkpt lat="47.25996" lon="-2.31678">
        <ele>4.5999999046326</ele>
        <time>2020-02-23T07:58:15.000Z</time>
      </trkpt>
      <trkpt lat="47.25992" lon="-2.3168">
        <ele>5</ele>
        <time>2020-02-23T07:58:16.000Z</time>
      </trkpt>
      <trkpt lat="47.25988" lon="-2.31681">
        <ele>5.4000000953674</ele>
        <time>2020-02-23T07:58:17.000Z</time>
      </trkpt>
      <trkpt lat="47.25984" lon="-2.31683">
        <ele>5.8000001907349</ele>
        <time>2020-02-23T07:58:18.000Z</time>
      </trkpt>
      <trkpt lat="47.2598" lon="-2.31686">
        <ele>6.1999998092651</ele>
        <time>2020-02-23T07:58:19.000Z</time>
      </trkpt>
      <trkpt lat="47.25976" lon="-2.31688">
        <ele>6.5999999046326</ele>
        <time>2020-02-23T07:58:20.000Z</time>
      </trkpt>
      <trkpt lat="47.25969" lon="-2.31693">
        <ele>6.5999999046326</ele>
        <time>2020-02-23T07:58:22.000Z</time>
      </trkpt>
      <trkpt lat="47.25955" lon="-2.31706">
        <ele>6.5999999046326</ele>
        <time>2020-02-23T07:58:26.000Z</time>
      </trkpt>
      <trkpt lat="47.25948" lon="-2.31715">
        <ele>6.5999999046326</ele>
        <time>2020-02-23T07:58:28.000Z</time>
      </trkpt>
      <trkpt lat="47.25927" lon="-2.31751">
        <ele>6.5999999046326</ele>
        <time>2020-02-23T07:58:35.000Z</time>
      </trkpt>
      <trkpt lat="47.25903" lon="-2.31803">
        <ele>6.5999999046326</ele>
        <time>2020-02-23T07:58:44.000Z</time>
      </trkpt>
      <trkpt lat="47.25883" lon="-2.31846">
        <ele>6.5999999046326</ele>
        <time>2020-02-23T07:58:52.000Z</time>
      </trkpt>
      <trkpt lat="47.2587" lon="-2.31871">
        <ele>6.5999999046326</ele>
        <time>2020-02-23T07:58:57.000Z</time>
      </trkpt>
      <trkpt lat="47.25863" lon="-2.31879">
        <ele>6.5999999046326</ele>
        <time>2020-02-23T07:58:59.000Z</time>
      </trkpt>
      <trkpt lat="47.25856" lon="-2.31886">
        <ele>6.5999999046326</ele>
        <time>2020-02-23T07:59:01.000Z</time>
      </trkpt>
      <trkpt lat="47.25852" lon="-2.31889">
        <ele>6.5999999046326</ele>
        <time>2020-02-23T07:59:02.000Z</time>
      </trkpt>
      <trkpt lat="47.2584" lon="-2.31897">
        <ele>6.5999999046326</ele>
        <time>2020-02-23T07:59:05.000Z</time>
      </trkpt>
      <trkpt lat="47.2583" lon="-2.31907">
        <ele>6.5999999046326</ele>
        <time>2020-02-23T07:59:08.000Z</time>
      </trkpt>
      <trkpt lat="47.25826" lon="-2.31918">
        <ele>6.5999999046326</ele>
        <time>2020-02-23T07:59:10.000Z</time>
      </trkpt>
      <trkpt lat="47.25829" lon="-2.31942">
        <ele>6.5999999046326</ele>
        <time>2020-02-23T07:59:14.000Z</time>
      </trkpt>
      <trkpt lat="47.25839" lon="-2.31978">
        <ele>6.5999999046326</ele>
        <time>2020-02-23T07:59:20.000Z</time>
      </trkpt>
      <trkpt lat="47.25843" lon="-2.3199">
        <ele>6.5999999046326</ele>
        <time>2020-02-23T07:59:22.000Z</time>
      </trkpt>
      <trkpt lat="47.25857" lon="-2.32029">
        <ele>6.5999999046326</ele>
        <time>2020-02-23T07:59:30.000Z</time>
      </trkpt>
      <trkpt lat="47.25864" lon="-2.32049">
        <ele>6.5999999046326</ele>
        <time>2020-02-23T07:59:34.000Z</time>
      </trkpt>
      <trkpt lat="47.25865" lon="-2.32055">
        <ele>7</ele>
        <time>2020-02-23T07:59:35.000Z</time>
      </trkpt>
      <trkpt lat="47.25867" lon="-2.32061">
        <ele>7.4000000953674</ele>
        <time>2020-02-23T07:59:36.000Z</time>
      </trkpt>
      <trkpt lat="47.25868" lon="-2.32068">
        <ele>7.8000001907349</ele>
        <time>2020-02-23T07:59:37.000Z</time>
      </trkpt>
      <trkpt lat="47.25868" lon="-2.32074">
        <ele>8.1999998092651</ele>
        <time>2020-02-23T07:59:38.000Z</time>
      </trkpt>
      <trkpt lat="47.25868" lon="-2.3208">
        <ele>8.6000003814697</ele>
        <time>2020-02-23T07:59:39.000Z</time>
      </trkpt>
      <trkpt lat="47.25866" lon="-2.32085">
        <ele>8.6000003814697</ele>
        <time>2020-02-23T07:59:40.000Z</time>
      </trkpt>
      <trkpt lat="47.25863" lon="-2.32091">
        <ele>8.6000003814697</ele>
        <time>2020-02-23T07:59:41.000Z</time>
      </trkpt>
      <trkpt lat="47.25852" lon="-2.3211">
        <ele>8.6000003814697</ele>
        <time>2020-02-23T07:59:45.000Z</time>
      </trkpt>
      <trkpt lat="47.25828" lon="-2.32142">
        <ele>8.6000003814697</ele>
        <time>2020-02-23T07:59:53.000Z</time>
      </trkpt>
      <trkpt lat="47.25823" lon="-2.32152">
        <ele>8.6000003814697</ele>
        <time>2020-02-23T07:59:55.000Z</time>
      </trkpt>
      <trkpt lat="47.25815" lon="-2.32176">
        <ele>8.6000003814697</ele>
        <time>2020-02-23T07:59:59.000Z</time>
      </trkpt>
      <trkpt lat="47.25801" lon="-2.32227">
        <ele>8.6000003814697</ele>
        <time>2020-02-23T08:00:07.000Z</time>
      </trkpt>
      <trkpt lat="47.25796" lon="-2.32279">
        <ele>8.6000003814697</ele>
        <time>2020-02-23T08:00:15.000Z</time>
      </trkpt>
      <trkpt lat="47.25789" lon="-2.32347">
        <ele>8.6000003814697</ele>
        <time>2020-02-23T08:00:23.000Z</time>
      </trkpt>
      <trkpt lat="47.25788" lon="-2.32361">
        <ele>8.1999998092651</ele>
        <time>2020-02-23T08:00:25.000Z</time>
      </trkpt>
      <trkpt lat="47.25786" lon="-2.32366">
        <ele>7.8000001907349</ele>
        <time>2020-02-23T08:00:26.000Z</time>
      </trkpt>
      <trkpt lat="47.25785" lon="-2.32371">
        <ele>7.4000000953674</ele>
        <time>2020-02-23T08:00:27.000Z</time>
      </trkpt>
      <trkpt lat="47.25784" lon="-2.32376">
        <ele>6.8000001907349</ele>
        <time>2020-02-23T08:00:28.000Z</time>
      </trkpt>
      <trkpt lat="47.25784" lon="-2.32382">
        <ele>6.4000000953674</ele>
        <time>2020-02-23T08:00:29.000Z</time>
      </trkpt>
      <trkpt lat="47.25784" lon="-2.32387">
        <ele>6.4000000953674</ele>
        <time>2020-02-23T08:00:30.000Z</time>
      </trkpt>
      <trkpt lat="47.25784" lon="-2.32392">
        <ele>6.4000000953674</ele>
        <time>2020-02-23T08:00:31.000Z</time>
      </trkpt>
      <trkpt lat="47.25783" lon="-2.32395">
        <ele>6.4000000953674</ele>
        <time>2020-02-23T08:00:32.000Z</time>
      </trkpt>
      <trkpt lat="47.25778" lon="-2.32398">
        <ele>6</ele>
        <time>2020-02-23T08:00:34.000Z</time>
      </trkpt>
      <trkpt lat="47.25776" lon="-2.324">
        <ele>5.5999999046326</ele>
        <time>2020-02-23T08:00:35.000Z</time>
      </trkpt>
      <trkpt lat="47.25773" lon="-2.32404">
        <ele>5.1999998092651</ele>
        <time>2020-02-23T08:00:36.000Z</time>
      </trkpt>
      <trkpt lat="47.25771" lon="-2.32409">
        <ele>4.8000001907349</ele>
        <time>2020-02-23T08:00:37.000Z</time>
      </trkpt>
      <trkpt lat="47.25768" lon="-2.32414">
        <ele>4.4000000953674</ele>
        <time>2020-02-23T08:00:38.000Z</time>
      </trkpt>
      <trkpt lat="47.25766" lon="-2.32418">
        <ele>4.4000000953674</ele>
        <time>2020-02-23T08:00:39.000Z</time>
      </trkpt>
      <trkpt lat="47.25761" lon="-2.32425">
        <ele>4.4000000953674</ele>
        <time>2020-02-23T08:00:41.000Z</time>
      </trkpt>
      <trkpt lat="47.25756" lon="-2.32427">
        <ele>4.4000000953674</ele>
        <time>2020-02-23T08:00:42.000Z</time>
      </trkpt>
      <trkpt lat="47.25725" lon="-2.32428">
        <ele>4.4000000953674</ele>
        <time>2020-02-23T08:00:47.000Z</time>
      </trkpt>
      <trkpt lat="47.25694" lon="-2.32423">
        <ele>4</ele>
        <time>2020-02-23T08:00:53.000Z</time>
      </trkpt>
      <trkpt lat="47.2569" lon="-2.32423">
        <ele>3.5999999046326</ele>
        <time>2020-02-23T08:00:54.000Z</time>
      </trkpt>
      <trkpt lat="47.25684" lon="-2.32422">
        <ele>3.2000000476837</ele>
        <time>2020-02-23T08:00:55.000Z</time>
      </trkpt>
      <trkpt lat="47.2568" lon="-2.32422">
        <ele>2.7999999523163</ele>
        <time>2020-02-23T08:00:56.000Z</time>
      </trkpt>
      <trkpt lat="47.25675" lon="-2.32423">
        <ele>2.4000000953674</ele>
        <time>2020-02-23T08:00:57.000Z</time>
      </trkpt>
      <trkpt lat="47.25672" lon="-2.32427">
        <ele>2.4000000953674</ele>
        <time>2020-02-23T08:00:58.000Z</time>
      </trkpt>
      <trkpt lat="47.2567" lon="-2.32444">
        <ele>2.4000000953674</ele>
        <time>2020-02-23T08:01:01.000Z</time>
      </trkpt>
      <trkpt lat="47.25671" lon="-2.32451">
        <ele>2.4000000953674</ele>
        <time>2020-02-23T08:01:02.000Z</time>
      </trkpt>
      <trkpt lat="47.25681" lon="-2.32488">
        <ele>2.4000000953674</ele>
        <time>2020-02-23T08:01:08.000Z</time>
      </trkpt>
      <trkpt lat="47.25684" lon="-2.32501">
        <ele>2.7999999523163</ele>
        <time>2020-02-23T08:01:10.000Z</time>
      </trkpt>
      <trkpt lat="47.25686" lon="-2.32507">
        <ele>3.2000000476837</ele>
        <time>2020-02-23T08:01:11.000Z</time>
      </trkpt>
      <trkpt lat="47.25689" lon="-2.32512">
        <ele>3.5999999046326</ele>
        <time>2020-02-23T08:01:12.000Z</time>
      </trkpt>
      <trkpt lat="47.2569" lon="-2.32518">
        <ele>4.1999998092651</ele>
        <time>2020-02-23T08:01:13.000Z</time>
      </trkpt>
      <trkpt lat="47.25692" lon="-2.32523">
        <ele>4.5999999046326</ele>
        <time>2020-02-23T08:01:14.000Z</time>
      </trkpt>
      <trkpt lat="47.25694" lon="-2.32529">
        <ele>4.5999999046326</ele>
        <time>2020-02-23T08:01:15.000Z</time>
      </trkpt>
      <trkpt lat="47.25703" lon="-2.32563">
        <ele>5</ele>
        <time>2020-02-23T08:01:21.000Z</time>
      </trkpt>
      <trkpt lat="47.25705" lon="-2.32568">
        <ele>5.4000000953674</ele>
        <time>2020-02-23T08:01:22.000Z</time>
      </trkpt>
      <trkpt lat="47.25706" lon="-2.32574">
        <ele>5.8000001907349</ele>
        <time>2020-02-23T08:01:23.000Z</time>
      </trkpt>
      <trkpt lat="47.25708" lon="-2.32579">
        <ele>6.1999998092651</ele>
        <time>2020-02-23T08:01:24.000Z</time>
      </trkpt>
      <trkpt lat="47.2571" lon="-2.32584">
        <ele>6.5999999046326</ele>
        <time>2020-02-23T08:01:25.000Z</time>
      </trkpt>
      <trkpt lat="47.25714" lon="-2.32613">
        <ele>6.5999999046326</ele>
        <time>2020-02-23T08:01:30.000Z</time>
      </trkpt>
      <trkpt lat="47.25708" lon="-2.32624">
        <ele>6.5999999046326</ele>
        <time>2020-02-23T08:01:33.000Z</time>
      </trkpt>
      <trkpt lat="47.25705" lon="-2.32626">
        <ele>7</ele>
        <time>2020-02-23T08:01:34.000Z</time>
      </trkpt>
      <trkpt lat="47.25701" lon="-2.32628">
        <ele>7.5999999046326</ele>
        <time>2020-02-23T08:01:35.000Z</time>
      </trkpt>
      <trkpt lat="47.25698" lon="-2.3263">
        <ele>8</ele>
        <time>2020-02-23T08:01:36.000Z</time>
      </trkpt>
      <trkpt lat="47.25694" lon="-2.32631">
        <ele>8.6000003814697</ele>
        <time>2020-02-23T08:01:37.000Z</time>
      </trkpt>
      <trkpt lat="47.2569" lon="-2.32633">
        <ele>9</ele>
        <time>2020-02-23T08:01:38.000Z</time>
      </trkpt>
      <trkpt lat="47.25662" lon="-2.32646">
        <ele>9</ele>
        <time>2020-02-23T08:01:45.000Z</time>
      </trkpt>
      <trkpt lat="47.25639" lon="-2.32656">
        <ele>9</ele>
        <time>2020-02-23T08:01:51.000Z</time>
      </trkpt>
      <trkpt lat="47.25617" lon="-2.32663">
        <ele>9</ele>
        <time>2020-02-23T08:01:57.000Z</time>
      </trkpt>
      <trkpt lat="47.25596" lon="-2.32674">
        <ele>9</ele>
        <time>2020-02-23T08:02:03.000Z</time>
      </trkpt>
      <trkpt lat="47.25587" lon="-2.32678">
        <ele>9.3999996185303</ele>
        <time>2020-02-23T08:02:05.000Z</time>
      </trkpt>
      <trkpt lat="47.25583" lon="-2.32679">
        <ele>9.8000001907349</ele>
        <time>2020-02-23T08:02:06.000Z</time>
      </trkpt>
      <trkpt lat="47.25579" lon="-2.32681">
        <ele>10.199999809265</ele>
        <time>2020-02-23T08:02:07.000Z</time>
      </trkpt>
      <trkpt lat="47.25575" lon="-2.32683">
        <ele>10.60000038147</ele>
        <time>2020-02-23T08:02:08.000Z</time>
      </trkpt>
      <trkpt lat="47.25572" lon="-2.32685">
        <ele>11</ele>
        <time>2020-02-23T08:02:09.000Z</time>
      </trkpt>
      <trkpt lat="47.2556" lon="-2.32689">
        <ele>11</ele>
        <time>2020-02-23T08:02:12.000Z</time>
      </trkpt>
      <trkpt lat="47.25537" lon="-2.32701">
        <ele>11</ele>
        <time>2020-02-23T08:02:18.000Z</time>
      </trkpt>
      <trkpt lat="47.25533" lon="-2.32702">
        <ele>11</ele>
        <time>2020-02-23T08:02:19.000Z</time>
      </trkpt>
      <trkpt lat="47.25505" lon="-2.32705">
        <ele>11</ele>
        <time>2020-02-23T08:02:25.000Z</time>
      </trkpt>
      <trkpt lat="47.25495" lon="-2.32707">
        <ele>11</ele>
        <time>2020-02-23T08:02:27.000Z</time>
      </trkpt>
      <trkpt lat="47.2549" lon="-2.32709">
        <ele>11</ele>
        <time>2020-02-23T08:02:28.000Z</time>
      </trkpt>
      <trkpt lat="47.25478" lon="-2.32719">
        <ele>11</ele>
        <time>2020-02-23T08:02:31.000Z</time>
      </trkpt>
      <trkpt lat="47.25446" lon="-2.32758">
        <ele>11</ele>
        <time>2020-02-23T08:02:40.000Z</time>
      </trkpt>
      <trkpt lat="47.25437" lon="-2.32773">
        <ele>11</ele>
        <time>2020-02-23T08:02:43.000Z</time>
      </trkpt>
      <trkpt lat="47.25431" lon="-2.32789">
        <ele>11</ele>
        <time>2020-02-23T08:02:46.000Z</time>
      </trkpt>
      <trkpt lat="47.25408" lon="-2.32822">
        <ele>11</ele>
        <time>2020-02-23T08:02:53.000Z</time>
      </trkpt>
      <trkpt lat="47.25382" lon="-2.32853">
        <ele>10.60000038147</ele>
        <time>2020-02-23T08:03:00.000Z</time>
      </trkpt>
      <trkpt lat="47.25379" lon="-2.32857">
        <ele>10.199999809265</ele>
        <time>2020-02-23T08:03:01.000Z</time>
      </trkpt>
      <trkpt lat="47.25375" lon="-2.32861">
        <ele>9.8000001907349</ele>
        <time>2020-02-23T08:03:02.000Z</time>
      </trkpt>
      <trkpt lat="47.2537" lon="-2.32865">
        <ele>9.1999998092651</ele>
        <time>2020-02-23T08:03:03.000Z</time>
      </trkpt>
      <trkpt lat="47.25366" lon="-2.32869">
        <ele>8.8000001907349</ele>
        <time>2020-02-23T08:03:04.000Z</time>
      </trkpt>
      <trkpt lat="47.25358" lon="-2.32876">
        <ele>8.8000001907349</ele>
        <time>2020-02-23T08:03:06.000Z</time>
      </trkpt>
      <trkpt lat="47.25334" lon="-2.32902">
        <ele>8.8000001907349</ele>
        <time>2020-02-23T08:03:13.000Z</time>
      </trkpt>
      <trkpt lat="47.25316" lon="-2.3292">
        <ele>8.8000001907349</ele>
        <time>2020-02-23T08:03:18.000Z</time>
      </trkpt>
      <trkpt lat="47.2531" lon="-2.3293">
        <ele>8.8000001907349</ele>
        <time>2020-02-23T08:03:20.000Z</time>
      </trkpt>
      <trkpt lat="47.25309" lon="-2.32948">
        <ele>8.8000001907349</ele>
        <time>2020-02-23T08:03:23.000Z</time>
      </trkpt>
      <trkpt lat="47.25314" lon="-2.32965">
        <ele>8.8000001907349</ele>
        <time>2020-02-23T08:03:26.000Z</time>
      </trkpt>
      <trkpt lat="47.2532" lon="-2.32983">
        <ele>8.8000001907349</ele>
        <time>2020-02-23T08:03:29.000Z</time>
      </trkpt>
      <trkpt lat="47.25325" lon="-2.33">
        <ele>8.8000001907349</ele>
        <time>2020-02-23T08:03:32.000Z</time>
      </trkpt>
      <trkpt lat="47.25331" lon="-2.33016">
        <ele>8.8000001907349</ele>
        <time>2020-02-23T08:03:35.000Z</time>
      </trkpt>
      <trkpt lat="47.25338" lon="-2.33032">
        <ele>8.3999996185303</ele>
        <time>2020-02-23T08:03:38.000Z</time>
      </trkpt>
      <trkpt lat="47.2534" lon="-2.33038">
        <ele>8</ele>
        <time>2020-02-23T08:03:39.000Z</time>
      </trkpt>
      <trkpt lat="47.25342" lon="-2.33043">
        <ele>7.5999999046326</ele>
        <time>2020-02-23T08:03:40.000Z</time>
      </trkpt>
      <trkpt lat="47.25344" lon="-2.33048">
        <ele>7.1999998092651</ele>
        <time>2020-02-23T08:03:41.000Z</time>
      </trkpt>
      <trkpt lat="47.25346" lon="-2.33054">
        <ele>6.8000001907349</ele>
        <time>2020-02-23T08:03:42.000Z</time>
      </trkpt>
      <trkpt lat="47.25347" lon="-2.3306">
        <ele>6.8000001907349</ele>
        <time>2020-02-23T08:03:43.000Z</time>
      </trkpt>
      <trkpt lat="47.25364" lon="-2.33097">
        <ele>6.8000001907349</ele>
        <time>2020-02-23T08:03:50.000Z</time>
      </trkpt>
      <trkpt lat="47.25371" lon="-2.3311">
        <ele>6.8000001907349</ele>
        <time>2020-02-23T08:03:54.000Z</time>
      </trkpt>
      <trkpt lat="47.25372" lon="-2.33111">
        <ele>6.8000001907349</ele>
        <time>2020-02-23T08:03:57.000Z</time>
      </trkpt>
      <trkpt lat="47.25376" lon="-2.33119">
        <ele>6.8000001907349</ele>
        <time>2020-02-23T08:08:26.000Z</time>
      </trkpt>
      <trkpt lat="47.25385" lon="-2.33135">
        <ele>6.8000001907349</ele>
        <time>2020-02-23T08:08:32.000Z</time>
      </trkpt>
      <trkpt lat="47.25394" lon="-2.33151">
        <ele>6.8000001907349</ele>
        <time>2020-02-23T08:08:37.000Z</time>
      </trkpt>
      <trkpt lat="47.25407" lon="-2.33181">
        <ele>6.8000001907349</ele>
        <time>2020-02-23T08:08:44.000Z</time>
      </trkpt>
      <trkpt lat="47.25419" lon="-2.33212">
        <ele>6.8000001907349</ele>
        <time>2020-02-23T08:08:51.000Z</time>
      </trkpt>
      <trkpt lat="47.25435" lon="-2.33247">
        <ele>6.8000001907349</ele>
        <time>2020-02-23T08:08:59.000Z</time>
      </trkpt>
      <trkpt lat="47.25449" lon="-2.33289">
        <ele>6.8000001907349</ele>
        <time>2020-02-23T08:09:08.000Z</time>
      </trkpt>
      <trkpt lat="47.25446" lon="-2.33316">
        <ele>6.8000001907349</ele>
        <time>2020-02-23T08:09:13.000Z</time>
      </trkpt>
      <trkpt lat="47.25434" lon="-2.33348">
        <ele>6.8000001907349</ele>
        <time>2020-02-23T08:09:19.000Z</time>
      </trkpt>
      <trkpt lat="47.25433" lon="-2.33354">
        <ele>6.8000001907349</ele>
        <time>2020-02-23T08:09:20.000Z</time>
      </trkpt>
      <trkpt lat="47.25432" lon="-2.33386">
        <ele>6.8000001907349</ele>
        <time>2020-02-23T08:09:25.000Z</time>
      </trkpt>
      <trkpt lat="47.25433" lon="-2.33454">
        <ele>6.8000001907349</ele>
        <time>2020-02-23T08:09:35.000Z</time>
      </trkpt>
      <trkpt lat="47.25441" lon="-2.33492">
        <ele>6.8000001907349</ele>
        <time>2020-02-23T08:09:41.000Z</time>
      </trkpt>
      <trkpt lat="47.2545" lon="-2.33527">
        <ele>6.8000001907349</ele>
        <time>2020-02-23T08:09:47.000Z</time>
      </trkpt>
      <trkpt lat="47.25452" lon="-2.33533">
        <ele>6.8000001907349</ele>
        <time>2020-02-23T08:09:48.000Z</time>
      </trkpt>
      <trkpt lat="47.25457" lon="-2.3356">
        <ele>6.8000001907349</ele>
        <time>2020-02-23T08:09:52.000Z</time>
      </trkpt>
      <trkpt lat="47.25458" lon="-2.33571">
        <ele>6.4000000953674</ele>
        <time>2020-02-23T08:09:54.000Z</time>
      </trkpt>
      <trkpt lat="47.25457" lon="-2.33576">
        <ele>6</ele>
        <time>2020-02-23T08:09:55.000Z</time>
      </trkpt>
      <trkpt lat="47.25456" lon="-2.33578">
        <ele>5.5999999046326</ele>
        <time>2020-02-23T08:09:56.000Z</time>
      </trkpt>
      <trkpt lat="47.25453" lon="-2.3358">
        <ele>5</ele>
        <time>2020-02-23T08:09:57.000Z</time>
      </trkpt>
      <trkpt lat="47.2545" lon="-2.33581">
        <ele>4.5999999046326</ele>
        <time>2020-02-23T08:09:58.000Z</time>
      </trkpt>
      <trkpt lat="47.25446" lon="-2.33584">
        <ele>4.5999999046326</ele>
        <time>2020-02-23T08:09:59.000Z</time>
      </trkpt>
      <trkpt lat="47.25441" lon="-2.33592">
        <ele>4.5999999046326</ele>
        <time>2020-02-23T08:10:01.000Z</time>
      </trkpt>
      <trkpt lat="47.2544" lon="-2.33596">
        <ele>4.5999999046326</ele>
        <time>2020-02-23T08:10:02.000Z</time>
      </trkpt>
      <trkpt lat="47.2544" lon="-2.33602">
        <ele>4.5999999046326</ele>
        <time>2020-02-23T08:10:03.000Z</time>
      </trkpt>
      <trkpt lat="47.25443" lon="-2.33643">
        <ele>4.5999999046326</ele>
        <time>2020-02-23T08:10:10.000Z</time>
      </trkpt>
      <trkpt lat="47.25449" lon="-2.33688">
        <ele>4.5999999046326</ele>
        <time>2020-02-23T08:10:17.000Z</time>
      </trkpt>
      <trkpt lat="47.25454" lon="-2.33726">
        <ele>4.5999999046326</ele>
        <time>2020-02-23T08:10:23.000Z</time>
      </trkpt>
      <trkpt lat="47.25455" lon="-2.33732">
        <ele>4.5999999046326</ele>
        <time>2020-02-23T08:10:24.000Z</time>
      </trkpt>
      <trkpt lat="47.25467" lon="-2.33743">
        <ele>4.5999999046326</ele>
        <time>2020-02-23T08:10:27.000Z</time>
      </trkpt>
      <trkpt lat="47.25481" lon="-2.33748">
        <ele>4.5999999046326</ele>
        <time>2020-02-23T08:10:30.000Z</time>
      </trkpt>
      <trkpt lat="47.25495" lon="-2.33751">
        <ele>4.5999999046326</ele>
        <time>2020-02-23T08:10:33.000Z</time>
      </trkpt>
      <trkpt lat="47.25531" lon="-2.33753">
        <ele>4.5999999046326</ele>
        <time>2020-02-23T08:10:41.000Z</time>
      </trkpt>
      <trkpt lat="47.25566" lon="-2.33753">
        <ele>4.5999999046326</ele>
        <time>2020-02-23T08:10:49.000Z</time>
      </trkpt>
      <trkpt lat="47.25597" lon="-2.33755">
        <ele>4.5999999046326</ele>
        <time>2020-02-23T08:10:56.000Z</time>
      </trkpt>
      <trkpt lat="47.25626" lon="-2.33766">
        <ele>4.5999999046326</ele>
        <time>2020-02-23T08:11:03.000Z</time>
      </trkpt>
      <trkpt lat="47.2565" lon="-2.33778">
        <ele>4.5999999046326</ele>
        <time>2020-02-23T08:11:08.000Z</time>
      </trkpt>
      <trkpt lat="47.25686" lon="-2.3379">
        <ele>4.5999999046326</ele>
        <time>2020-02-23T08:11:14.000Z</time>
      </trkpt>
      <trkpt lat="47.25698" lon="-2.33796">
        <ele>4.1999998092651</ele>
        <time>2020-02-23T08:11:16.000Z</time>
      </trkpt>
      <trkpt lat="47.25704" lon="-2.33798">
        <ele>3.7999999523163</ele>
        <time>2020-02-23T08:11:17.000Z</time>
      </trkpt>
      <trkpt lat="47.2571" lon="-2.338">
        <ele>3.4000000953674</ele>
        <time>2020-02-23T08:11:18.000Z</time>
      </trkpt>
      <trkpt lat="47.25716" lon="-2.33803">
        <ele>3</ele>
        <time>2020-02-23T08:11:19.000Z</time>
      </trkpt>
      <trkpt lat="47.25721" lon="-2.33805">
        <ele>2.5999999046326</ele>
        <time>2020-02-23T08:11:20.000Z</time>
      </trkpt>
      <trkpt lat="47.2575" lon="-2.33817">
        <ele>2.5999999046326</ele>
        <time>2020-02-23T08:11:26.000Z</time>
      </trkpt>
      <trkpt lat="47.25787" lon="-2.33833">
        <ele>2.5999999046326</ele>
        <time>2020-02-23T08:11:34.000Z</time>
      </trkpt>
      <trkpt lat="47.25824" lon="-2.3385">
        <ele>2.5999999046326</ele>
        <time>2020-02-23T08:11:41.000Z</time>
      </trkpt>
      <trkpt lat="47.25854" lon="-2.33862">
        <ele>2.5999999046326</ele>
        <time>2020-02-23T08:11:47.000Z</time>
      </trkpt>
      <trkpt lat="47.25895" lon="-2.33878">
        <ele>2.5999999046326</ele>
        <time>2020-02-23T08:11:55.000Z</time>
      </trkpt>
      <trkpt lat="47.259" lon="-2.3388">
        <ele>2.2000000476837</ele>
        <time>2020-02-23T08:11:56.000Z</time>
      </trkpt>
      <trkpt lat="47.25905" lon="-2.33883">
        <ele>1.7999999523163</ele>
        <time>2020-02-23T08:11:57.000Z</time>
      </trkpt>
      <trkpt lat="47.25918" lon="-2.33889">
        <ele>0.60000002384186</ele>
        <time>2020-02-23T08:11:58.000Z</time>
      </trkpt>
      <trkpt lat="47.25927" lon="-2.33894">
        <ele>0.60000002384186</ele>
        <time>2020-02-23T08:12:03.000Z</time>
      </trkpt>
      <trkpt lat="47.25943" lon="-2.33903">
        <ele>0.60000002384186</ele>
        <time>2020-02-23T08:12:07.000Z</time>
      </trkpt>
      <trkpt lat="47.25948" lon="-2.33902">
        <ele>0.60000002384186</ele>
        <time>2020-02-23T08:12:08.000Z</time>
      </trkpt>
      <trkpt lat="47.2596" lon="-2.33899">
        <ele>0.60000002384186</ele>
        <time>2020-02-23T08:12:11.000Z</time>
      </trkpt>
      <trkpt lat="47.25964" lon="-2.33901">
        <ele>0.60000002384186</ele>
        <time>2020-02-23T08:12:12.000Z</time>
      </trkpt>
      <trkpt lat="47.25976" lon="-2.33912">
        <ele>0.60000002384186</ele>
        <time>2020-02-23T08:12:15.000Z</time>
      </trkpt>
      <trkpt lat="47.25981" lon="-2.33914">
        <ele>0.60000002384186</ele>
        <time>2020-02-23T08:12:16.000Z</time>
      </trkpt>
      <trkpt lat="47.25987" lon="-2.33916">
        <ele>0.60000002384186</ele>
        <time>2020-02-23T08:12:17.000Z</time>
      </trkpt>
      <trkpt lat="47.26025" lon="-2.33929">
        <ele>0.60000002384186</ele>
        <time>2020-02-23T08:12:24.000Z</time>
      </trkpt>
      <trkpt lat="47.26053" lon="-2.33935">
        <ele>0.60000002384186</ele>
        <time>2020-02-23T08:12:29.000Z</time>
      </trkpt>
      <trkpt lat="47.26085" lon="-2.33943">
        <ele>0.60000002384186</ele>
        <time>2020-02-23T08:12:35.000Z</time>
      </trkpt>
      <trkpt lat="47.26121" lon="-2.33952">
        <ele>0.60000002384186</ele>
        <time>2020-02-23T08:12:42.000Z</time>
      </trkpt>
      <trkpt lat="47.26159" lon="-2.33961">
        <ele>0.60000002384186</ele>
        <time>2020-02-23T08:12:49.000Z</time>
      </trkpt>
      <trkpt lat="47.26188" lon="-2.33968">
        <ele>0.60000002384186</ele>
        <time>2020-02-23T08:12:55.000Z</time>
      </trkpt>
      <trkpt lat="47.26224" lon="-2.33975">
        <ele>0.60000002384186</ele>
        <time>2020-02-23T08:13:02.000Z</time>
      </trkpt>
      <trkpt lat="47.26264" lon="-2.33984">
        <ele>1</ele>
        <time>2020-02-23T08:13:10.000Z</time>
      </trkpt>
      <trkpt lat="47.26268" lon="-2.33985">
        <ele>1.3999999761581</ele>
        <time>2020-02-23T08:13:11.000Z</time>
      </trkpt>
      <trkpt lat="47.26273" lon="-2.33986">
        <ele>2</ele>
        <time>2020-02-23T08:13:12.000Z</time>
      </trkpt>
      <trkpt lat="47.26277" lon="-2.33987">
        <ele>2.4000000953674</ele>
        <time>2020-02-23T08:13:13.000Z</time>
      </trkpt>
      <trkpt lat="47.26282" lon="-2.33989">
        <ele>2.7999999523163</ele>
        <time>2020-02-23T08:13:14.000Z</time>
      </trkpt>
      <trkpt lat="47.26296" lon="-2.3399">
        <ele>2.7999999523163</ele>
        <time>2020-02-23T08:13:17.000Z</time>
      </trkpt>
      <trkpt lat="47.26305" lon="-2.33991">
        <ele>3.2000000476837</ele>
        <time>2020-02-23T08:13:19.000Z</time>
      </trkpt>
      <trkpt lat="47.26309" lon="-2.33992">
        <ele>3.5999999046326</ele>
        <time>2020-02-23T08:13:20.000Z</time>
      </trkpt>
      <trkpt lat="47.26314" lon="-2.33992">
        <ele>4</ele>
        <time>2020-02-23T08:13:21.000Z</time>
      </trkpt>
      <trkpt lat="47.26319" lon="-2.33993">
        <ele>4.4000000953674</ele>
        <time>2020-02-23T08:13:22.000Z</time>
      </trkpt>
      <trkpt lat="47.26324" lon="-2.33994">
        <ele>5</ele>
        <time>2020-02-23T08:13:23.000Z</time>
      </trkpt>
      <trkpt lat="47.26329" lon="-2.33995">
        <ele>5</ele>
        <time>2020-02-23T08:13:24.000Z</time>
      </trkpt>
      <trkpt lat="47.26369" lon="-2.34007">
        <ele>5</ele>
        <time>2020-02-23T08:13:32.000Z</time>
      </trkpt>
      <trkpt lat="47.26397" lon="-2.34014">
        <ele>5</ele>
        <time>2020-02-23T08:13:38.000Z</time>
      </trkpt>
      <trkpt lat="47.26441" lon="-2.34023">
        <ele>5</ele>
        <time>2020-02-23T08:13:47.000Z</time>
      </trkpt>
      <trkpt lat="47.26451" lon="-2.34025">
        <ele>5</ele>
        <time>2020-02-23T08:13:49.000Z</time>
      </trkpt>
      <trkpt lat="47.26472" lon="-2.3403">
        <ele>5</ele>
        <time>2020-02-23T08:13:53.000Z</time>
      </trkpt>
      <trkpt lat="47.26516" lon="-2.34038">
        <ele>5</ele>
        <time>2020-02-23T08:14:02.000Z</time>
      </trkpt>
      <trkpt lat="47.26526" lon="-2.34039">
        <ele>5</ele>
        <time>2020-02-23T08:14:04.000Z</time>
      </trkpt>
      <trkpt lat="47.26541" lon="-2.34042">
        <ele>5</ele>
        <time>2020-02-23T08:14:07.000Z</time>
      </trkpt>
      <trkpt lat="47.26557" lon="-2.34048">
        <ele>5</ele>
        <time>2020-02-23T08:14:11.000Z</time>
      </trkpt>
      <trkpt lat="47.26594" lon="-2.34065">
        <ele>5</ele>
        <time>2020-02-23T08:14:19.000Z</time>
      </trkpt>
      <trkpt lat="47.26616" lon="-2.3408">
        <ele>5.4000000953674</ele>
        <time>2020-02-23T08:14:24.000Z</time>
      </trkpt>
      <trkpt lat="47.2662" lon="-2.34083">
        <ele>5.8000001907349</ele>
        <time>2020-02-23T08:14:25.000Z</time>
      </trkpt>
      <trkpt lat="47.26624" lon="-2.34086">
        <ele>6.1999998092651</ele>
        <time>2020-02-23T08:14:26.000Z</time>
      </trkpt>
      <trkpt lat="47.26628" lon="-2.34089">
        <ele>6.5999999046326</ele>
        <time>2020-02-23T08:14:27.000Z</time>
      </trkpt>
      <trkpt lat="47.26632" lon="-2.34092">
        <ele>7.1999998092651</ele>
        <time>2020-02-23T08:14:28.000Z</time>
      </trkpt>
      <trkpt lat="47.26659" lon="-2.34113">
        <ele>7.1999998092651</ele>
        <time>2020-02-23T08:14:34.000Z</time>
      </trkpt>
      <trkpt lat="47.26699" lon="-2.34142">
        <ele>7.1999998092651</ele>
        <time>2020-02-23T08:14:43.000Z</time>
      </trkpt>
      <trkpt lat="47.26728" lon="-2.3416">
        <ele>7.1999998092651</ele>
        <time>2020-02-23T08:14:49.000Z</time>
      </trkpt>
      <trkpt lat="47.26751" lon="-2.34175">
        <ele>7.1999998092651</ele>
        <time>2020-02-23T08:14:54.000Z</time>
      </trkpt>
      <trkpt lat="47.26756" lon="-2.34176">
        <ele>7.1999998092651</ele>
        <time>2020-02-23T08:14:55.000Z</time>
      </trkpt>
      <trkpt lat="47.26778" lon="-2.34193">
        <ele>7.1999998092651</ele>
        <time>2020-02-23T08:15:00.000Z</time>
      </trkpt>
      <trkpt lat="47.26798" lon="-2.34207">
        <ele>7.1999998092651</ele>
        <time>2020-02-23T08:15:05.000Z</time>
      </trkpt>
      <trkpt lat="47.26819" lon="-2.34222">
        <ele>7.1999998092651</ele>
        <time>2020-02-23T08:15:11.000Z</time>
      </trkpt>
      <trkpt lat="47.26852" lon="-2.34248">
        <ele>7.1999998092651</ele>
        <time>2020-02-23T08:15:19.000Z</time>
      </trkpt>
      <trkpt lat="47.2687" lon="-2.3426">
        <ele>7.1999998092651</ele>
        <time>2020-02-23T08:15:23.000Z</time>
      </trkpt>
      <trkpt lat="47.26883" lon="-2.34268">
        <ele>7.1999998092651</ele>
        <time>2020-02-23T08:15:26.000Z</time>
      </trkpt>
      <trkpt lat="47.26907" lon="-2.34286">
        <ele>7.1999998092651</ele>
        <time>2020-02-23T08:15:32.000Z</time>
      </trkpt>
      <trkpt lat="47.26914" lon="-2.34294">
        <ele>7.1999998092651</ele>
        <time>2020-02-23T08:15:34.000Z</time>
      </trkpt>
      <trkpt lat="47.2692" lon="-2.34302">
        <ele>7.1999998092651</ele>
        <time>2020-02-23T08:15:36.000Z</time>
      </trkpt>
      <trkpt lat="47.26934" lon="-2.34307">
        <ele>7.1999998092651</ele>
        <time>2020-02-23T08:15:39.000Z</time>
      </trkpt>
      <trkpt lat="47.26954" lon="-2.34307">
        <ele>7.1999998092651</ele>
        <time>2020-02-23T08:15:44.000Z</time>
      </trkpt>
      <trkpt lat="47.26981" lon="-2.34314">
        <ele>7.1999998092651</ele>
        <time>2020-02-23T08:15:50.000Z</time>
      </trkpt>
      <trkpt lat="47.27008" lon="-2.34318">
        <ele>7.1999998092651</ele>
        <time>2020-02-23T08:15:56.000Z</time>
      </trkpt>
      <trkpt lat="47.2703" lon="-2.34319">
        <ele>7.1999998092651</ele>
        <time>2020-02-23T08:16:02.000Z</time>
      </trkpt>
      <trkpt lat="47.27059" lon="-2.34319">
        <ele>7.1999998092651</ele>
        <time>2020-02-23T08:16:10.000Z</time>
      </trkpt>
      <trkpt lat="47.2708" lon="-2.34319">
        <ele>7.1999998092651</ele>
        <time>2020-02-23T08:16:17.000Z</time>
      </trkpt>
      <trkpt lat="47.27097" lon="-2.34318">
        <ele>7.1999998092651</ele>
        <time>2020-02-23T08:16:23.000Z</time>
      </trkpt>
      <trkpt lat="47.27117" lon="-2.3432">
        <ele>7.1999998092651</ele>
        <time>2020-02-23T08:16:29.000Z</time>
      </trkpt>
      <trkpt lat="47.2712" lon="-2.34321">
        <ele>7.5999999046326</ele>
        <time>2020-02-23T08:16:30.000Z</time>
      </trkpt>
      <trkpt lat="47.27122" lon="-2.34324">
        <ele>8</ele>
        <time>2020-02-23T08:16:31.000Z</time>
      </trkpt>
      <trkpt lat="47.27125" lon="-2.34327">
        <ele>8.3999996185303</ele>
        <time>2020-02-23T08:16:32.000Z</time>
      </trkpt>
      <trkpt lat="47.27127" lon="-2.3433">
        <ele>8.8000001907349</ele>
        <time>2020-02-23T08:16:33.000Z</time>
      </trkpt>
      <trkpt lat="47.27129" lon="-2.34333">
        <ele>9.1999998092651</ele>
        <time>2020-02-23T08:16:34.000Z</time>
      </trkpt>
      <trkpt lat="47.2714" lon="-2.34342">
        <ele>9.1999998092651</ele>
        <time>2020-02-23T08:16:39.000Z</time>
      </trkpt>
      <trkpt lat="47.2715" lon="-2.34352">
        <ele>9.1999998092651</ele>
        <time>2020-02-23T08:16:43.000Z</time>
      </trkpt>
      <trkpt lat="47.2716" lon="-2.34381">
        <ele>9.1999998092651</ele>
        <time>2020-02-23T08:16:48.000Z</time>
      </trkpt>
      <trkpt lat="47.27162" lon="-2.34387">
        <ele>9.1999998092651</ele>
        <time>2020-02-23T08:16:49.000Z</time>
      </trkpt>
      <trkpt lat="47.27164" lon="-2.34393">
        <ele>9.6000003814697</ele>
        <time>2020-02-23T08:16:50.000Z</time>
      </trkpt>
      <trkpt lat="47.27165" lon="-2.34399">
        <ele>10</ele>
        <time>2020-02-23T08:16:51.000Z</time>
      </trkpt>
      <trkpt lat="47.27167" lon="-2.34405">
        <ele>10.39999961853</ele>
        <time>2020-02-23T08:16:52.000Z</time>
      </trkpt>
      <trkpt lat="47.27169" lon="-2.34411">
        <ele>10.800000190735</ele>
        <time>2020-02-23T08:16:53.000Z</time>
      </trkpt>
      <trkpt lat="47.2717" lon="-2.34418">
        <ele>11.199999809265</ele>
        <time>2020-02-23T08:16:54.000Z</time>
      </trkpt>
      <trkpt lat="47.27171" lon="-2.34423">
        <ele>11.199999809265</ele>
        <time>2020-02-23T08:16:55.000Z</time>
      </trkpt>
      <trkpt lat="47.27175" lon="-2.34455">
        <ele>11.199999809265</ele>
        <time>2020-02-23T08:17:01.000Z</time>
      </trkpt>
      <trkpt lat="47.27184" lon="-2.34458">
        <ele>11.199999809265</ele>
        <time>2020-02-23T08:17:04.000Z</time>
      </trkpt>
      <trkpt lat="47.27191" lon="-2.34458">
        <ele>11.199999809265</ele>
        <time>2020-02-23T08:17:06.000Z</time>
      </trkpt>
      <trkpt lat="47.27202" lon="-2.34458">
        <ele>11.199999809265</ele>
        <time>2020-02-23T08:17:09.000Z</time>
      </trkpt>
      <trkpt lat="47.27208" lon="-2.34458">
        <ele>11.60000038147</ele>
        <time>2020-02-23T08:17:11.000Z</time>
      </trkpt>
      <trkpt lat="47.27211" lon="-2.34457">
        <ele>12</ele>
        <time>2020-02-23T08:17:12.000Z</time>
      </trkpt>
      <trkpt lat="47.27214" lon="-2.34456">
        <ele>12.39999961853</ele>
        <time>2020-02-23T08:17:13.000Z</time>
      </trkpt>
      <trkpt lat="47.27217" lon="-2.34456">
        <ele>12.800000190735</ele>
        <time>2020-02-23T08:17:14.000Z</time>
      </trkpt>
      <trkpt lat="47.27221" lon="-2.34456">
        <ele>13.199999809265</ele>
        <time>2020-02-23T08:17:15.000Z</time>
      </trkpt>
      <trkpt lat="47.27232" lon="-2.34456">
        <ele>13.60000038147</ele>
        <time>2020-02-23T08:17:18.000Z</time>
      </trkpt>
      <trkpt lat="47.27236" lon="-2.34456">
        <ele>14</ele>
        <time>2020-02-23T08:17:19.000Z</time>
      </trkpt>
      <trkpt lat="47.2724" lon="-2.34457">
        <ele>14.39999961853</ele>
        <time>2020-02-23T08:17:20.000Z</time>
      </trkpt>
      <trkpt lat="47.27243" lon="-2.34457">
        <ele>14.800000190735</ele>
        <time>2020-02-23T08:17:21.000Z</time>
      </trkpt>
      <trkpt lat="47.27247" lon="-2.34458">
        <ele>15.39999961853</ele>
        <time>2020-02-23T08:17:22.000Z</time>
      </trkpt>
      <trkpt lat="47.27254" lon="-2.34457">
        <ele>15.39999961853</ele>
        <time>2020-02-23T08:17:24.000Z</time>
      </trkpt>
      <trkpt lat="47.27267" lon="-2.34457">
        <ele>15.800000190735</ele>
        <time>2020-02-23T08:17:28.000Z</time>
      </trkpt>
      <trkpt lat="47.2727" lon="-2.34457">
        <ele>16.200000762939</ele>
        <time>2020-02-23T08:17:29.000Z</time>
      </trkpt>
      <trkpt lat="47.27274" lon="-2.34458">
        <ele>16.60000038147</ele>
        <time>2020-02-23T08:17:30.000Z</time>
      </trkpt>
      <trkpt lat="47.27278" lon="-2.34458">
        <ele>17</ele>
        <time>2020-02-23T08:17:31.000Z</time>
      </trkpt>
      <trkpt lat="47.27281" lon="-2.3446">
        <ele>17.60000038147</ele>
        <time>2020-02-23T08:17:32.000Z</time>
      </trkpt>
      <trkpt lat="47.27289" lon="-2.3447">
        <ele>17.60000038147</ele>
        <time>2020-02-23T08:17:35.000Z</time>
      </trkpt>
      <trkpt lat="47.27292" lon="-2.34481">
        <ele>18</ele>
        <time>2020-02-23T08:17:37.000Z</time>
      </trkpt>
      <trkpt lat="47.27292" lon="-2.34486">
        <ele>18.39999961853</ele>
        <time>2020-02-23T08:17:38.000Z</time>
      </trkpt>
      <trkpt lat="47.27293" lon="-2.34492">
        <ele>19</ele>
        <time>2020-02-23T08:17:39.000Z</time>
      </trkpt>
      <trkpt lat="47.27294" lon="-2.34497">
        <ele>19.39999961853</ele>
        <time>2020-02-23T08:17:40.000Z</time>
      </trkpt>
      <trkpt lat="47.27295" lon="-2.34502">
        <ele>19.799999237061</ele>
        <time>2020-02-23T08:17:41.000Z</time>
      </trkpt>
      <trkpt lat="47.27299" lon="-2.3453">
        <ele>19.799999237061</ele>
        <time>2020-02-23T08:17:46.000Z</time>
      </trkpt>
      <trkpt lat="47.27305" lon="-2.34558">
        <ele>19.799999237061</ele>
        <time>2020-02-23T08:17:51.000Z</time>
      </trkpt>
      <trkpt lat="47.27311" lon="-2.34592">
        <ele>19.799999237061</ele>
        <time>2020-02-23T08:17:57.000Z</time>
      </trkpt>
      <trkpt lat="47.27322" lon="-2.34643">
        <ele>19.799999237061</ele>
        <time>2020-02-23T08:18:06.000Z</time>
      </trkpt>
      <trkpt lat="47.27326" lon="-2.34667">
        <ele>19.799999237061</ele>
        <time>2020-02-23T08:18:12.000Z</time>
      </trkpt>
      <trkpt lat="47.27333" lon="-2.34699">
        <ele>19.799999237061</ele>
        <time>2020-02-23T08:18:19.000Z</time>
      </trkpt>
      <trkpt lat="47.27341" lon="-2.34731">
        <ele>19.799999237061</ele>
        <time>2020-02-23T08:18:26.000Z</time>
      </trkpt>
      <trkpt lat="47.27347" lon="-2.34754">
        <ele>19.799999237061</ele>
        <time>2020-02-23T08:18:32.000Z</time>
      </trkpt>
      <trkpt lat="47.27353" lon="-2.3479">
        <ele>19.799999237061</ele>
        <time>2020-02-23T08:18:37.000Z</time>
      </trkpt>
      <trkpt lat="47.27361" lon="-2.34832">
        <ele>19.799999237061</ele>
        <time>2020-02-23T08:18:43.000Z</time>
      </trkpt>
      <trkpt lat="47.27368" lon="-2.34885">
        <ele>19.799999237061</ele>
        <time>2020-02-23T08:18:50.000Z</time>
      </trkpt>
      <trkpt lat="47.27369" lon="-2.34894">
        <ele>19.39999961853</ele>
        <time>2020-02-23T08:18:51.000Z</time>
      </trkpt>
      <trkpt lat="47.27369" lon="-2.34903">
        <ele>18.799999237061</ele>
        <time>2020-02-23T08:18:52.000Z</time>
      </trkpt>
      <trkpt lat="47.2737" lon="-2.34913">
        <ele>18.39999961853</ele>
        <time>2020-02-23T08:18:53.000Z</time>
      </trkpt>
      <trkpt lat="47.27371" lon="-2.34922">
        <ele>18</ele>
        <time>2020-02-23T08:18:54.000Z</time>
      </trkpt>
      <trkpt lat="47.27372" lon="-2.34931">
        <ele>17.39999961853</ele>
        <time>2020-02-23T08:18:55.000Z</time>
      </trkpt>
      <trkpt lat="47.27373" lon="-2.3494">
        <ele>17.39999961853</ele>
        <time>2020-02-23T08:18:56.000Z</time>
      </trkpt>
      <trkpt lat="47.27377" lon="-2.34965">
        <ele>17.39999961853</ele>
        <time>2020-02-23T08:18:59.000Z</time>
      </trkpt>
      <trkpt lat="47.27381" lon="-2.34978">
        <ele>17.39999961853</ele>
        <time>2020-02-23T08:19:01.000Z</time>
      </trkpt>
      <trkpt lat="47.27392" lon="-2.35026">
        <ele>17.39999961853</ele>
        <time>2020-02-23T08:19:08.000Z</time>
      </trkpt>
      <trkpt lat="47.27404" lon="-2.35085">
        <ele>17.39999961853</ele>
        <time>2020-02-23T08:19:17.000Z</time>
      </trkpt>
      <trkpt lat="47.27405" lon="-2.35091">
        <ele>17.39999961853</ele>
        <time>2020-02-23T08:19:18.000Z</time>
      </trkpt>
      <trkpt lat="47.27414" lon="-2.3513">
        <ele>17.39999961853</ele>
        <time>2020-02-23T08:19:24.000Z</time>
      </trkpt>
      <trkpt lat="47.27428" lon="-2.35172">
        <ele>17.39999961853</ele>
        <time>2020-02-23T08:19:32.000Z</time>
      </trkpt>
      <trkpt lat="47.2744" lon="-2.35165">
        <ele>17.39999961853</ele>
        <time>2020-02-23T08:19:35.000Z</time>
      </trkpt>
      <trkpt lat="47.27456" lon="-2.35156">
        <ele>17.39999961853</ele>
        <time>2020-02-23T08:19:39.000Z</time>
      </trkpt>
      <trkpt lat="47.27468" lon="-2.35149">
        <ele>17.39999961853</ele>
        <time>2020-02-23T08:19:42.000Z</time>
      </trkpt>
      <trkpt lat="47.27476" lon="-2.35146">
        <ele>17.39999961853</ele>
        <time>2020-02-23T08:19:44.000Z</time>
      </trkpt>
      <trkpt lat="47.2749" lon="-2.35138">
        <ele>17.39999961853</ele>
        <time>2020-02-23T08:19:48.000Z</time>
      </trkpt>
      <trkpt lat="47.27503" lon="-2.35127">
        <ele>17.39999961853</ele>
        <time>2020-02-23T08:19:53.000Z</time>
      </trkpt>
      <trkpt lat="47.27507" lon="-2.35127">
        <ele>17.799999237061</ele>
        <time>2020-02-23T08:19:54.000Z</time>
      </trkpt>
      <trkpt lat="47.27511" lon="-2.35128">
        <ele>18.39999961853</ele>
        <time>2020-02-23T08:19:55.000Z</time>
      </trkpt>
      <trkpt lat="47.27516" lon="-2.35129">
        <ele>18.799999237061</ele>
        <time>2020-02-23T08:19:56.000Z</time>
      </trkpt>
      <trkpt lat="47.27519" lon="-2.35131">
        <ele>19.200000762939</ele>
        <time>2020-02-23T08:19:57.000Z</time>
      </trkpt>
      <trkpt lat="47.27523" lon="-2.35133">
        <ele>19.60000038147</ele>
        <time>2020-02-23T08:19:58.000Z</time>
      </trkpt>
      <trkpt lat="47.27539" lon="-2.35136">
        <ele>19.60000038147</ele>
        <time>2020-02-23T08:20:02.000Z</time>
      </trkpt>
      <trkpt lat="47.27543" lon="-2.35136">
        <ele>19.60000038147</ele>
        <time>2020-02-23T08:20:03.000Z</time>
      </trkpt>
      <trkpt lat="47.27548" lon="-2.35135">
        <ele>19.60000038147</ele>
        <time>2020-02-23T08:20:04.000Z</time>
      </trkpt>
      <trkpt lat="47.27566" lon="-2.35133">
        <ele>19.60000038147</ele>
        <time>2020-02-23T08:20:08.000Z</time>
      </trkpt>
      <trkpt lat="47.27595" lon="-2.35131">
        <ele>19.60000038147</ele>
        <time>2020-02-23T08:20:14.000Z</time>
      </trkpt>
      <trkpt lat="47.27599" lon="-2.35132">
        <ele>19.60000038147</ele>
        <time>2020-02-23T08:20:15.000Z</time>
      </trkpt>
      <trkpt lat="47.27613" lon="-2.35138">
        <ele>19.60000038147</ele>
        <time>2020-02-23T08:20:18.000Z</time>
      </trkpt>
      <trkpt lat="47.27624" lon="-2.35143">
        <ele>19.60000038147</ele>
        <time>2020-02-23T08:20:21.000Z</time>
      </trkpt>
      <trkpt lat="47.27628" lon="-2.35145">
        <ele>19.60000038147</ele>
        <time>2020-02-23T08:20:22.000Z</time>
      </trkpt>
      <trkpt lat="47.27639" lon="-2.35146">
        <ele>19.60000038147</ele>
        <time>2020-02-23T08:20:25.000Z</time>
      </trkpt>
      <trkpt lat="47.27647" lon="-2.35145">
        <ele>19.60000038147</ele>
        <time>2020-02-23T08:20:27.000Z</time>
      </trkpt>
      <trkpt lat="47.27654" lon="-2.35151">
        <ele>19.60000038147</ele>
        <time>2020-02-23T08:20:29.000Z</time>
      </trkpt>
      <trkpt lat="47.27662" lon="-2.35155">
        <ele>19.60000038147</ele>
        <time>2020-02-23T08:20:31.000Z</time>
      </trkpt>
      <trkpt lat="47.27674" lon="-2.35168">
        <ele>19.60000038147</ele>
        <time>2020-02-23T08:20:35.000Z</time>
      </trkpt>
      <trkpt lat="47.27684" lon="-2.35184">
        <ele>19.60000038147</ele>
        <time>2020-02-23T08:20:39.000Z</time>
      </trkpt>
      <trkpt lat="47.27686" lon="-2.35198">
        <ele>19.60000038147</ele>
        <time>2020-02-23T08:20:41.000Z</time>
      </trkpt>
      <trkpt lat="47.27685" lon="-2.3521">
        <ele>19</ele>
        <time>2020-02-23T08:20:43.000Z</time>
      </trkpt>
      <trkpt lat="47.27686" lon="-2.35214">
        <ele>18.60000038147</ele>
        <time>2020-02-23T08:20:44.000Z</time>
      </trkpt>
      <trkpt lat="47.27687" lon="-2.35216">
        <ele>18</ele>
        <time>2020-02-23T08:20:45.000Z</time>
      </trkpt>
      <trkpt lat="47.2769" lon="-2.35216">
        <ele>17.60000038147</ele>
        <time>2020-02-23T08:20:46.000Z</time>
      </trkpt>
      <trkpt lat="47.27693" lon="-2.35215">
        <ele>17.200000762939</ele>
        <time>2020-02-23T08:20:47.000Z</time>
      </trkpt>
      <trkpt lat="47.27697" lon="-2.35214">
        <ele>17.200000762939</ele>
        <time>2020-02-23T08:20:48.000Z</time>
      </trkpt>
      <trkpt lat="47.277" lon="-2.35213">
        <ele>16.799999237061</ele>
        <time>2020-02-23T08:20:49.000Z</time>
      </trkpt>
      <trkpt lat="47.27705" lon="-2.35211">
        <ele>16.39999961853</ele>
        <time>2020-02-23T08:20:50.000Z</time>
      </trkpt>
      <trkpt lat="47.27709" lon="-2.35209">
        <ele>16</ele>
        <time>2020-02-23T08:20:51.000Z</time>
      </trkpt>
      <trkpt lat="47.27714" lon="-2.35207">
        <ele>15.60000038147</ele>
        <time>2020-02-23T08:20:52.000Z</time>
      </trkpt>
      <trkpt lat="47.27719" lon="-2.35205">
        <ele>15.199999809265</ele>
        <time>2020-02-23T08:20:53.000Z</time>
      </trkpt>
      <trkpt lat="47.27752" lon="-2.35198">
        <ele>15.199999809265</ele>
        <time>2020-02-23T08:20:59.000Z</time>
      </trkpt>
      <trkpt lat="47.27767" lon="-2.35198">
        <ele>14.60000038147</ele>
        <time>2020-02-23T08:21:02.000Z</time>
      </trkpt>
      <trkpt lat="47.2777" lon="-2.35202">
        <ele>14.199999809265</ele>
        <time>2020-02-23T08:21:03.000Z</time>
      </trkpt>
      <trkpt lat="47.27773" lon="-2.35207">
        <ele>13.800000190735</ele>
        <time>2020-02-23T08:21:04.000Z</time>
      </trkpt>
      <trkpt lat="47.27775" lon="-2.35213">
        <ele>13.199999809265</ele>
        <time>2020-02-23T08:21:05.000Z</time>
      </trkpt>
      <trkpt lat="47.27777" lon="-2.3522">
        <ele>12.800000190735</ele>
        <time>2020-02-23T08:21:06.000Z</time>
      </trkpt>
      <trkpt lat="47.27779" lon="-2.35227">
        <ele>12.800000190735</ele>
        <time>2020-02-23T08:21:07.000Z</time>
      </trkpt>
      <trkpt lat="47.2778" lon="-2.35234">
        <ele>12.800000190735</ele>
        <time>2020-02-23T08:21:08.000Z</time>
      </trkpt>
      <trkpt lat="47.2779" lon="-2.35279">
        <ele>12.800000190735</ele>
        <time>2020-02-23T08:21:14.000Z</time>
      </trkpt>
      <trkpt lat="47.27801" lon="-2.35337">
        <ele>12.800000190735</ele>
        <time>2020-02-23T08:21:22.000Z</time>
      </trkpt>
      <trkpt lat="47.27805" lon="-2.35352">
        <ele>12.800000190735</ele>
        <time>2020-02-23T08:21:24.000Z</time>
      </trkpt>
      <trkpt lat="47.27813" lon="-2.3536">
        <ele>12.800000190735</ele>
        <time>2020-02-23T08:21:26.000Z</time>
      </trkpt>
      <trkpt lat="47.27829" lon="-2.35361">
        <ele>12.800000190735</ele>
        <time>2020-02-23T08:21:29.000Z</time>
      </trkpt>
      <trkpt lat="47.27835" lon="-2.3536">
        <ele>12.800000190735</ele>
        <time>2020-02-23T08:21:30.000Z</time>
      </trkpt>
      <trkpt lat="47.2787" lon="-2.35359">
        <ele>12.800000190735</ele>
        <time>2020-02-23T08:21:37.000Z</time>
      </trkpt>
      <trkpt lat="47.27888" lon="-2.35374">
        <ele>12.800000190735</ele>
        <time>2020-02-23T08:21:41.000Z</time>
      </trkpt>
      <trkpt lat="47.27895" lon="-2.35384">
        <ele>13.39999961853</ele>
        <time>2020-02-23T08:21:43.000Z</time>
      </trkpt>
      <trkpt lat="47.27899" lon="-2.35389">
        <ele>13.800000190735</ele>
        <time>2020-02-23T08:21:44.000Z</time>
      </trkpt>
      <trkpt lat="47.27902" lon="-2.35394">
        <ele>14.199999809265</ele>
        <time>2020-02-23T08:21:45.000Z</time>
      </trkpt>
      <trkpt lat="47.27906" lon="-2.35399">
        <ele>14.800000190735</ele>
        <time>2020-02-23T08:21:46.000Z</time>
      </trkpt>
      <trkpt lat="47.27909" lon="-2.35404">
        <ele>15.199999809265</ele>
        <time>2020-02-23T08:21:47.000Z</time>
      </trkpt>
      <trkpt lat="47.27913" lon="-2.35409">
        <ele>15.60000038147</ele>
        <time>2020-02-23T08:21:48.000Z</time>
      </trkpt>
      <trkpt lat="47.27917" lon="-2.35414">
        <ele>16.200000762939</ele>
        <time>2020-02-23T08:21:49.000Z</time>
      </trkpt>
      <trkpt lat="47.2792" lon="-2.35418">
        <ele>16.60000038147</ele>
        <time>2020-02-23T08:21:50.000Z</time>
      </trkpt>
      <trkpt lat="47.27924" lon="-2.35424">
        <ele>17</ele>
        <time>2020-02-23T08:21:51.000Z</time>
      </trkpt>
      <trkpt lat="47.27927" lon="-2.35429">
        <ele>17.39999961853</ele>
        <time>2020-02-23T08:21:52.000Z</time>
      </trkpt>
      <trkpt lat="47.27931" lon="-2.35434">
        <ele>17</ele>
        <time>2020-02-23T08:21:53.000Z</time>
      </trkpt>
      <trkpt lat="47.27935" lon="-2.35439">
        <ele>16.60000038147</ele>
        <time>2020-02-23T08:21:54.000Z</time>
      </trkpt>
      <trkpt lat="47.27939" lon="-2.35444">
        <ele>16.200000762939</ele>
        <time>2020-02-23T08:21:55.000Z</time>
      </trkpt>
      <trkpt lat="47.27943" lon="-2.35448">
        <ele>15.800000190735</ele>
        <time>2020-02-23T08:21:56.000Z</time>
      </trkpt>
      <trkpt lat="47.27948" lon="-2.35452">
        <ele>15.39999961853</ele>
        <time>2020-02-23T08:21:57.000Z</time>
      </trkpt>
      <trkpt lat="47.27968" lon="-2.35462">
        <ele>15.39999961853</ele>
        <time>2020-02-23T08:22:01.000Z</time>
      </trkpt>
      <trkpt lat="47.27988" lon="-2.35459">
        <ele>15.39999961853</ele>
        <time>2020-02-23T08:22:05.000Z</time>
      </trkpt>
      <trkpt lat="47.28002" lon="-2.35457">
        <ele>15.39999961853</ele>
        <time>2020-02-23T08:22:08.000Z</time>
      </trkpt>
      <trkpt lat="47.28015" lon="-2.35459">
        <ele>15.39999961853</ele>
        <time>2020-02-23T08:22:11.000Z</time>
      </trkpt>
      <trkpt lat="47.28032" lon="-2.35468">
        <ele>15.39999961853</ele>
        <time>2020-02-23T08:22:15.000Z</time>
      </trkpt>
      <trkpt lat="47.28037" lon="-2.35471">
        <ele>15.39999961853</ele>
        <time>2020-02-23T08:22:16.000Z</time>
      </trkpt>
      <trkpt lat="47.2806" lon="-2.35485">
        <ele>15.39999961853</ele>
        <time>2020-02-23T08:22:21.000Z</time>
      </trkpt>
      <trkpt lat="47.28071" lon="-2.35487">
        <ele>15.39999961853</ele>
        <time>2020-02-23T08:22:23.000Z</time>
      </trkpt>
      <trkpt lat="47.28081" lon="-2.35488">
        <ele>15.39999961853</ele>
        <time>2020-02-23T08:22:25.000Z</time>
      </trkpt>
      <trkpt lat="47.28098" lon="-2.35483">
        <ele>15.39999961853</ele>
        <time>2020-02-23T08:22:28.000Z</time>
      </trkpt>
      <trkpt lat="47.28131" lon="-2.35468">
        <ele>15.39999961853</ele>
        <time>2020-02-23T08:22:35.000Z</time>
      </trkpt>
      <trkpt lat="47.28144" lon="-2.35463">
        <ele>15.39999961853</ele>
        <time>2020-02-23T08:22:38.000Z</time>
      </trkpt>
      <trkpt lat="47.28152" lon="-2.3546">
        <ele>15.800000190735</ele>
        <time>2020-02-23T08:22:40.000Z</time>
      </trkpt>
      <trkpt lat="47.28157" lon="-2.35458">
        <ele>16.200000762939</ele>
        <time>2020-02-23T08:22:41.000Z</time>
      </trkpt>
      <trkpt lat="47.28161" lon="-2.35457">
        <ele>16.60000038147</ele>
        <time>2020-02-23T08:22:42.000Z</time>
      </trkpt>
      <trkpt lat="47.28166" lon="-2.35455">
        <ele>17</ele>
        <time>2020-02-23T08:22:43.000Z</time>
      </trkpt>
      <trkpt lat="47.2817" lon="-2.35454">
        <ele>17.60000038147</ele>
        <time>2020-02-23T08:22:44.000Z</time>
      </trkpt>
      <trkpt lat="47.28191" lon="-2.35445">
        <ele>17.60000038147</ele>
        <time>2020-02-23T08:22:49.000Z</time>
      </trkpt>
      <trkpt lat="47.28213" lon="-2.35433">
        <ele>17.60000038147</ele>
        <time>2020-02-23T08:22:55.000Z</time>
      </trkpt>
      <trkpt lat="47.28229" lon="-2.35415">
        <ele>18</ele>
        <time>2020-02-23T08:23:00.000Z</time>
      </trkpt>
      <trkpt lat="47.28232" lon="-2.35412">
        <ele>18.39999961853</ele>
        <time>2020-02-23T08:23:01.000Z</time>
      </trkpt>
      <trkpt lat="47.28235" lon="-2.3541">
        <ele>18.799999237061</ele>
        <time>2020-02-23T08:23:02.000Z</time>
      </trkpt>
      <trkpt lat="47.28239" lon="-2.35406">
        <ele>19.200000762939</ele>
        <time>2020-02-23T08:23:03.000Z</time>
      </trkpt>
      <trkpt lat="47.28241" lon="-2.35403">
        <ele>19.60000038147</ele>
        <time>2020-02-23T08:23:04.000Z</time>
      </trkpt>
      <trkpt lat="47.2825" lon="-2.35401">
        <ele>19.60000038147</ele>
        <time>2020-02-23T08:23:07.000Z</time>
      </trkpt>
      <trkpt lat="47.28258" lon="-2.3541">
        <ele>19.60000038147</ele>
        <time>2020-02-23T08:23:11.000Z</time>
      </trkpt>
      <trkpt lat="47.28261" lon="-2.3541">
        <ele>19.60000038147</ele>
        <time>2020-02-23T08:23:12.000Z</time>
      </trkpt>
      <trkpt lat="47.28268" lon="-2.35407">
        <ele>19.60000038147</ele>
        <time>2020-02-23T08:23:15.000Z</time>
      </trkpt>
      <trkpt lat="47.28275" lon="-2.35403">
        <ele>19.60000038147</ele>
        <time>2020-02-23T08:23:18.000Z</time>
      </trkpt>
      <trkpt lat="47.28281" lon="-2.35395">
        <ele>19.60000038147</ele>
        <time>2020-02-23T08:23:21.000Z</time>
      </trkpt>
      <trkpt lat="47.28293" lon="-2.35376">
        <ele>19.60000038147</ele>
        <time>2020-02-23T08:23:27.000Z</time>
      </trkpt>
      <trkpt lat="47.28311" lon="-2.35362">
        <ele>19.60000038147</ele>
        <time>2020-02-23T08:23:33.000Z</time>
      </trkpt>
      <trkpt lat="47.28329" lon="-2.3535">
        <ele>19.60000038147</ele>
        <time>2020-02-23T08:23:39.000Z</time>
      </trkpt>
      <trkpt lat="47.28337" lon="-2.35346">
        <ele>19.60000038147</ele>
        <time>2020-02-23T08:23:41.000Z</time>
      </trkpt>
      <trkpt lat="47.28345" lon="-2.35339">
        <ele>19.60000038147</ele>
        <time>2020-02-23T08:23:44.000Z</time>
      </trkpt>
      <trkpt lat="47.28353" lon="-2.35335">
        <ele>19.60000038147</ele>
        <time>2020-02-23T08:23:49.000Z</time>
      </trkpt>
      <trkpt lat="47.28359" lon="-2.35343">
        <ele>19.60000038147</ele>
        <time>2020-02-23T08:23:53.000Z</time>
      </trkpt>
      <trkpt lat="47.28359" lon="-2.35344">
        <ele>19.60000038147</ele>
        <time>2020-02-23T08:23:54.000Z</time>
      </trkpt>
      <trkpt lat="47.28359" lon="-2.35351">
        <ele>19.60000038147</ele>
        <time>2020-02-23T08:23:58.000Z</time>
      </trkpt>
      <trkpt lat="47.28361" lon="-2.35353">
        <ele>20</ele>
        <time>2020-02-23T08:24:01.000Z</time>
      </trkpt>
      <trkpt lat="47.28361" lon="-2.35354">
        <ele>20.39999961853</ele>
        <time>2020-02-23T08:24:02.000Z</time>
      </trkpt>
      <trkpt lat="47.28361" lon="-2.35356">
        <ele>20.799999237061</ele>
        <time>2020-02-23T08:24:03.000Z</time>
      </trkpt>
      <trkpt lat="47.28363" lon="-2.35358">
        <ele>21.200000762939</ele>
        <time>2020-02-23T08:24:04.000Z</time>
      </trkpt>
      <trkpt lat="47.28364" lon="-2.35361">
        <ele>21.60000038147</ele>
        <time>2020-02-23T08:24:05.000Z</time>
      </trkpt>
      <trkpt lat="47.28366" lon="-2.3537">
        <ele>21.60000038147</ele>
        <time>2020-02-23T08:24:08.000Z</time>
      </trkpt>
      <trkpt lat="47.28367" lon="-2.35373">
        <ele>22</ele>
        <time>2020-02-23T08:24:10.000Z</time>
      </trkpt>
      <trkpt lat="47.28369" lon="-2.35374">
        <ele>22.39999961853</ele>
        <time>2020-02-23T08:24:11.000Z</time>
      </trkpt>
      <trkpt lat="47.28369" lon="-2.35376">
        <ele>22.799999237061</ele>
        <time>2020-02-23T08:24:12.000Z</time>
      </trkpt>
      <trkpt lat="47.28369" lon="-2.35379">
        <ele>23.200000762939</ele>
        <time>2020-02-23T08:24:13.000Z</time>
      </trkpt>
      <trkpt lat="47.2837" lon="-2.35381">
        <ele>23.60000038147</ele>
        <time>2020-02-23T08:24:14.000Z</time>
      </trkpt>
      <trkpt lat="47.28372" lon="-2.35386">
        <ele>24.200000762939</ele>
        <time>2020-02-23T08:24:17.000Z</time>
      </trkpt>
      <trkpt lat="47.28372" lon="-2.35388">
        <ele>24.60000038147</ele>
        <time>2020-02-23T08:24:18.000Z</time>
      </trkpt>
      <trkpt lat="47.28371" lon="-2.3539">
        <ele>25</ele>
        <time>2020-02-23T08:24:19.000Z</time>
      </trkpt>
      <trkpt lat="47.28372" lon="-2.3539">
        <ele>25.39999961853</ele>
        <time>2020-02-23T08:24:20.000Z</time>
      </trkpt>
      <trkpt lat="47.28372" lon="-2.35392">
        <ele>25.799999237061</ele>
        <time>2020-02-23T08:24:21.000Z</time>
      </trkpt>
      <trkpt lat="47.28372" lon="-2.35394">
        <ele>26.200000762939</ele>
        <time>2020-02-23T08:24:22.000Z</time>
      </trkpt>
      <trkpt lat="47.28375" lon="-2.35397">
        <ele>26.60000038147</ele>
        <time>2020-02-23T08:24:23.000Z</time>
      </trkpt>
      <trkpt lat="47.28377" lon="-2.354">
        <ele>27</ele>
        <time>2020-02-23T08:24:24.000Z</time>
      </trkpt>
      <trkpt lat="47.28378" lon="-2.35402">
        <ele>27.60000038147</ele>
        <time>2020-02-23T08:24:25.000Z</time>
      </trkpt>
      <trkpt lat="47.28379" lon="-2.35404">
        <ele>28</ele>
        <time>2020-02-23T08:24:26.000Z</time>
      </trkpt>
      <trkpt lat="47.28382" lon="-2.3541">
        <ele>28</ele>
        <time>2020-02-23T08:24:28.000Z</time>
      </trkpt>
      <trkpt lat="47.28391" lon="-2.3542">
        <ele>28</ele>
        <time>2020-02-23T08:24:35.000Z</time>
      </trkpt>
      <trkpt lat="47.28392" lon="-2.3542">
        <ele>28</ele>
        <time>2020-02-23T08:24:37.000Z</time>
      </trkpt>
      <trkpt lat="47.28403" lon="-2.35429">
        <ele>30</ele>
        <time>2020-02-23T08:26:00.000Z</time>
      </trkpt>
      <trkpt lat="47.28408" lon="-2.35427">
        <ele>30</ele>
        <time>2020-02-23T08:26:02.000Z</time>
      </trkpt>
      <trkpt lat="47.28418" lon="-2.35415">
        <ele>30</ele>
        <time>2020-02-23T08:26:08.000Z</time>
      </trkpt>
      <trkpt lat="47.28425" lon="-2.3541">
        <ele>30</ele>
        <time>2020-02-23T08:26:14.000Z</time>
      </trkpt>
      <trkpt lat="47.28431" lon="-2.35409">
        <ele>30</ele>
        <time>2020-02-23T08:26:17.000Z</time>
      </trkpt>
      <trkpt lat="47.28437" lon="-2.35406">
        <ele>30</ele>
        <time>2020-02-23T08:26:19.000Z</time>
      </trkpt>
      <trkpt lat="47.28445" lon="-2.35397">
        <ele>30</ele>
        <time>2020-02-23T08:26:22.000Z</time>
      </trkpt>
      <trkpt lat="47.28447" lon="-2.35386">
        <ele>30</ele>
        <time>2020-02-23T08:26:24.000Z</time>
      </trkpt>
      <trkpt lat="47.28447" lon="-2.35381">
        <ele>29.39999961853</ele>
        <time>2020-02-23T08:26:25.000Z</time>
      </trkpt>
      <trkpt lat="47.28449" lon="-2.35376">
        <ele>29</ele>
        <time>2020-02-23T08:26:26.000Z</time>
      </trkpt>
      <trkpt lat="47.2845" lon="-2.35369">
        <ele>28.39999961853</ele>
        <time>2020-02-23T08:26:27.000Z</time>
      </trkpt>
      <trkpt lat="47.28451" lon="-2.35364">
        <ele>27.799999237061</ele>
        <time>2020-02-23T08:26:28.000Z</time>
      </trkpt>
      <trkpt lat="47.28451" lon="-2.3536">
        <ele>27.200000762939</ele>
        <time>2020-02-23T08:26:29.000Z</time>
      </trkpt>
      <trkpt lat="47.28453" lon="-2.35356">
        <ele>26.799999237061</ele>
        <time>2020-02-23T08:26:30.000Z</time>
      </trkpt>
      <trkpt lat="47.28455" lon="-2.35351">
        <ele>26.200000762939</ele>
        <time>2020-02-23T08:26:31.000Z</time>
      </trkpt>
      <trkpt lat="47.28458" lon="-2.35347">
        <ele>25.60000038147</ele>
        <time>2020-02-23T08:26:32.000Z</time>
      </trkpt>
      <trkpt lat="47.2846" lon="-2.35346">
        <ele>25</ele>
        <time>2020-02-23T08:26:33.000Z</time>
      </trkpt>
      <trkpt lat="47.28462" lon="-2.35347">
        <ele>24.39999961853</ele>
        <time>2020-02-23T08:26:34.000Z</time>
      </trkpt>
      <trkpt lat="47.28464" lon="-2.35348">
        <ele>23.200000762939</ele>
        <time>2020-02-23T08:26:35.000Z</time>
      </trkpt>
      <trkpt lat="47.28466" lon="-2.3535">
        <ele>22.60000038147</ele>
        <time>2020-02-23T08:26:36.000Z</time>
      </trkpt>
      <trkpt lat="47.28473" lon="-2.3536">
        <ele>22.60000038147</ele>
        <time>2020-02-23T08:26:39.000Z</time>
      </trkpt>
      <trkpt lat="47.28476" lon="-2.35378">
        <ele>22.60000038147</ele>
        <time>2020-02-23T08:26:42.000Z</time>
      </trkpt>
      <trkpt lat="47.28477" lon="-2.35385">
        <ele>22.60000038147</ele>
        <time>2020-02-23T08:26:43.000Z</time>
      </trkpt>
      <trkpt lat="47.28484" lon="-2.35413">
        <ele>22.60000038147</ele>
        <time>2020-02-23T08:26:49.000Z</time>
      </trkpt>
      <trkpt lat="47.28484" lon="-2.35428">
        <ele>22.60000038147</ele>
        <time>2020-02-23T08:26:53.000Z</time>
      </trkpt>
      <trkpt lat="47.28483" lon="-2.35431">
        <ele>23</ele>
        <time>2020-02-23T08:26:54.000Z</time>
      </trkpt>
      <trkpt lat="47.28481" lon="-2.35433">
        <ele>23.39999961853</ele>
        <time>2020-02-23T08:26:55.000Z</time>
      </trkpt>
      <trkpt lat="47.2848" lon="-2.35434">
        <ele>24</ele>
        <time>2020-02-23T08:26:56.000Z</time>
      </trkpt>
      <trkpt lat="47.28478" lon="-2.35437">
        <ele>24.39999961853</ele>
        <time>2020-02-23T08:26:57.000Z</time>
      </trkpt>
      <trkpt lat="47.28477" lon="-2.35439">
        <ele>24.799999237061</ele>
        <time>2020-02-23T08:26:58.000Z</time>
      </trkpt>
      <trkpt lat="47.28475" lon="-2.35441">
        <ele>25.200000762939</ele>
        <time>2020-02-23T08:27:00.000Z</time>
      </trkpt>
      <trkpt lat="47.28473" lon="-2.35441">
        <ele>25.799999237061</ele>
        <time>2020-02-23T08:27:01.000Z</time>
      </trkpt>
      <trkpt lat="47.28472" lon="-2.3544">
        <ele>26.200000762939</ele>
        <time>2020-02-23T08:27:02.000Z</time>
      </trkpt>
      <trkpt lat="47.2847" lon="-2.35439">
        <ele>26.60000038147</ele>
        <time>2020-02-23T08:27:03.000Z</time>
      </trkpt>
      <trkpt lat="47.28469" lon="-2.35438">
        <ele>27</ele>
        <time>2020-02-23T08:27:04.000Z</time>
      </trkpt>
      <trkpt lat="47.28467" lon="-2.35435">
        <ele>27</ele>
        <time>2020-02-23T08:27:06.000Z</time>
      </trkpt>
      <trkpt lat="47.28465" lon="-2.35434">
        <ele>27.39999961853</ele>
        <time>2020-02-23T08:27:07.000Z</time>
      </trkpt>
      <trkpt lat="47.28465" lon="-2.35432">
        <ele>28</ele>
        <time>2020-02-23T08:27:08.000Z</time>
      </trkpt>
      <trkpt lat="47.28464" lon="-2.3543">
        <ele>28.39999961853</ele>
        <time>2020-02-23T08:27:09.000Z</time>
      </trkpt>
      <trkpt lat="47.28462" lon="-2.35428">
        <ele>28.799999237061</ele>
        <time>2020-02-23T08:27:10.000Z</time>
      </trkpt>
      <trkpt lat="47.2846" lon="-2.35428">
        <ele>29.200000762939</ele>
        <time>2020-02-23T08:27:11.000Z</time>
      </trkpt>
      <trkpt lat="47.28458" lon="-2.35428">
        <ele>29.200000762939</ele>
        <time>2020-02-23T08:27:12.000Z</time>
      </trkpt>
      <trkpt lat="47.28446" lon="-2.35434">
        <ele>29.200000762939</ele>
        <time>2020-02-23T08:27:20.000Z</time>
      </trkpt>
      <trkpt lat="47.28449" lon="-2.3544">
        <ele>29.60000038147</ele>
        <time>2020-02-23T08:27:23.000Z</time>
      </trkpt>
      <trkpt lat="47.2845" lon="-2.35442">
        <ele>30.60000038147</ele>
        <time>2020-02-23T08:27:24.000Z</time>
      </trkpt>
      <trkpt lat="47.28451" lon="-2.35444">
        <ele>31</ele>
        <time>2020-02-23T08:27:25.000Z</time>
      </trkpt>
      <trkpt lat="47.28452" lon="-2.35447">
        <ele>31.39999961853</ele>
        <time>2020-02-23T08:27:26.000Z</time>
      </trkpt>
      <trkpt lat="47.28453" lon="-2.35449">
        <ele>31.39999961853</ele>
        <time>2020-02-23T08:27:27.000Z</time>
      </trkpt>
      <trkpt lat="47.28454" lon="-2.35453">
        <ele>31.799999237061</ele>
        <time>2020-02-23T08:27:29.000Z</time>
      </trkpt>
      <trkpt lat="47.28454" lon="-2.35456">
        <ele>32.200000762939</ele>
        <time>2020-02-23T08:27:30.000Z</time>
      </trkpt>
      <trkpt lat="47.28453" lon="-2.35459">
        <ele>32.599998474121</ele>
        <time>2020-02-23T08:27:31.000Z</time>
      </trkpt>
      <trkpt lat="47.28453" lon="-2.35461">
        <ele>33</ele>
        <time>2020-02-23T08:27:32.000Z</time>
      </trkpt>
      <trkpt lat="47.28453" lon="-2.35464">
        <ele>33.400001525879</ele>
        <time>2020-02-23T08:27:33.000Z</time>
      </trkpt>
      <trkpt lat="47.28457" lon="-2.35475">
        <ele>33.400001525879</ele>
        <time>2020-02-23T08:27:38.000Z</time>
      </trkpt>
      <trkpt lat="47.28459" lon="-2.3548">
        <ele>33.400001525879</ele>
        <time>2020-02-23T08:27:40.000Z</time>
      </trkpt>
      <trkpt lat="47.28461" lon="-2.35485">
        <ele>34</ele>
        <time>2020-02-23T08:27:42.000Z</time>
      </trkpt>
      <trkpt lat="47.28463" lon="-2.35487">
        <ele>34.400001525879</ele>
        <time>2020-02-23T08:27:43.000Z</time>
      </trkpt>
      <trkpt lat="47.28464" lon="-2.35489">
        <ele>34.799999237061</ele>
        <time>2020-02-23T08:27:44.000Z</time>
      </trkpt>
      <trkpt lat="47.28465" lon="-2.35491">
        <ele>35.200000762939</ele>
        <time>2020-02-23T08:27:45.000Z</time>
      </trkpt>
      <trkpt lat="47.28467" lon="-2.35494">
        <ele>35.599998474121</ele>
        <time>2020-02-23T08:27:46.000Z</time>
      </trkpt>
      <trkpt lat="47.28468" lon="-2.35498">
        <ele>35.599998474121</ele>
        <time>2020-02-23T08:27:48.000Z</time>
      </trkpt>
      <trkpt lat="47.28469" lon="-2.35499">
        <ele>36.200000762939</ele>
        <time>2020-02-23T08:27:49.000Z</time>
      </trkpt>
      <trkpt lat="47.28469" lon="-2.355">
        <ele>36.599998474121</ele>
        <time>2020-02-23T08:27:50.000Z</time>
      </trkpt>
      <trkpt lat="47.28469" lon="-2.35502">
        <ele>37</ele>
        <time>2020-02-23T08:27:51.000Z</time>
      </trkpt>
      <trkpt lat="47.2847" lon="-2.35503">
        <ele>37.400001525879</ele>
        <time>2020-02-23T08:27:52.000Z</time>
      </trkpt>
      <trkpt lat="47.2847" lon="-2.35504">
        <ele>37.799999237061</ele>
        <time>2020-02-23T08:27:53.000Z</time>
      </trkpt>
      <trkpt lat="47.2847" lon="-2.35507">
        <ele>37.799999237061</ele>
        <time>2020-02-23T08:27:55.000Z</time>
      </trkpt>
      <trkpt lat="47.28473" lon="-2.35518">
        <ele>37.799999237061</ele>
        <time>2020-02-23T08:28:25.000Z</time>
      </trkpt>
      <trkpt lat="47.28477" lon="-2.35529">
        <ele>37.799999237061</ele>
        <time>2020-02-23T08:28:28.000Z</time>
      </trkpt>
      <trkpt lat="47.2848" lon="-2.35543">
        <ele>37.799999237061</ele>
        <time>2020-02-23T08:28:31.000Z</time>
      </trkpt>
      <trkpt lat="47.28484" lon="-2.35556">
        <ele>37.799999237061</ele>
        <time>2020-02-23T08:28:34.000Z</time>
      </trkpt>
      <trkpt lat="47.28496" lon="-2.35578">
        <ele>37.799999237061</ele>
        <time>2020-02-23T08:28:39.000Z</time>
      </trkpt>
      <trkpt lat="47.28502" lon="-2.35598">
        <ele>37.400001525879</ele>
        <time>2020-02-23T08:28:43.000Z</time>
      </trkpt>
      <trkpt lat="47.28504" lon="-2.35602">
        <ele>36.799999237061</ele>
        <time>2020-02-23T08:28:44.000Z</time>
      </trkpt>
      <trkpt lat="47.28508" lon="-2.35603">
        <ele>36.400001525879</ele>
        <time>2020-02-23T08:28:45.000Z</time>
      </trkpt>
      <trkpt lat="47.2851" lon="-2.35604">
        <ele>36</ele>
        <time>2020-02-23T08:28:46.000Z</time>
      </trkpt>
      <trkpt lat="47.28513" lon="-2.35604">
        <ele>35.599998474121</ele>
        <time>2020-02-23T08:28:47.000Z</time>
      </trkpt>
      <trkpt lat="47.2852" lon="-2.35607">
        <ele>35.200000762939</ele>
        <time>2020-02-23T08:28:49.000Z</time>
      </trkpt>
      <trkpt lat="47.28524" lon="-2.35608">
        <ele>34.599998474121</ele>
        <time>2020-02-23T08:28:50.000Z</time>
      </trkpt>
      <trkpt lat="47.28527" lon="-2.3561">
        <ele>34.200000762939</ele>
        <time>2020-02-23T08:28:51.000Z</time>
      </trkpt>
      <trkpt lat="47.28529" lon="-2.3561">
        <ele>33.799999237061</ele>
        <time>2020-02-23T08:28:52.000Z</time>
      </trkpt>
      <trkpt lat="47.28532" lon="-2.3561">
        <ele>33.400001525879</ele>
        <time>2020-02-23T08:28:53.000Z</time>
      </trkpt>
      <trkpt lat="47.28543" lon="-2.35612">
        <ele>33.400001525879</ele>
        <time>2020-02-23T08:28:58.000Z</time>
      </trkpt>
      <trkpt lat="47.28546" lon="-2.35618">
        <ele>33.400001525879</ele>
        <time>2020-02-23T08:29:00.000Z</time>
      </trkpt>
      <trkpt lat="47.28546" lon="-2.35625">
        <ele>33.400001525879</ele>
        <time>2020-02-23T08:29:02.000Z</time>
      </trkpt>
      <trkpt lat="47.28546" lon="-2.35629">
        <ele>32.599998474121</ele>
        <time>2020-02-23T08:29:03.000Z</time>
      </trkpt>
      <trkpt lat="47.28546" lon="-2.35634">
        <ele>32</ele>
        <time>2020-02-23T08:29:04.000Z</time>
      </trkpt>
      <trkpt lat="47.28545" lon="-2.3564">
        <ele>31.60000038147</ele>
        <time>2020-02-23T08:29:05.000Z</time>
      </trkpt>
      <trkpt lat="47.28544" lon="-2.35649">
        <ele>31.200000762939</ele>
        <time>2020-02-23T08:29:06.000Z</time>
      </trkpt>
      <trkpt lat="47.28543" lon="-2.35656">
        <ele>30.60000038147</ele>
        <time>2020-02-23T08:29:07.000Z</time>
      </trkpt>
      <trkpt lat="47.28543" lon="-2.35666">
        <ele>30.200000762939</ele>
        <time>2020-02-23T08:29:08.000Z</time>
      </trkpt>
      <trkpt lat="47.28544" lon="-2.35674">
        <ele>29.60000038147</ele>
        <time>2020-02-23T08:29:09.000Z</time>
      </trkpt>
      <trkpt lat="47.28543" lon="-2.35681">
        <ele>29</ele>
        <time>2020-02-23T08:29:10.000Z</time>
      </trkpt>
      <trkpt lat="47.28542" lon="-2.35686">
        <ele>28.39999961853</ele>
        <time>2020-02-23T08:29:11.000Z</time>
      </trkpt>
      <trkpt lat="47.28542" lon="-2.35691">
        <ele>27.799999237061</ele>
        <time>2020-02-23T08:29:12.000Z</time>
      </trkpt>
      <trkpt lat="47.28541" lon="-2.35695">
        <ele>27.200000762939</ele>
        <time>2020-02-23T08:29:13.000Z</time>
      </trkpt>
      <trkpt lat="47.2854" lon="-2.35697">
        <ele>26.60000038147</ele>
        <time>2020-02-23T08:29:14.000Z</time>
      </trkpt>
      <trkpt lat="47.28539" lon="-2.35699">
        <ele>26.60000038147</ele>
        <time>2020-02-23T08:29:15.000Z</time>
      </trkpt>
      <trkpt lat="47.28538" lon="-2.35705">
        <ele>26.60000038147</ele>
        <time>2020-02-23T08:29:19.000Z</time>
      </trkpt>
      <trkpt lat="47.28527" lon="-2.35715">
        <ele>26.60000038147</ele>
        <time>2020-02-23T08:29:39.000Z</time>
      </trkpt>
      <trkpt lat="47.28526" lon="-2.35715">
        <ele>26.60000038147</ele>
        <time>2020-02-23T08:29:40.000Z</time>
      </trkpt>
      <trkpt lat="47.2852" lon="-2.35711">
        <ele>26.60000038147</ele>
        <time>2020-02-23T08:29:47.000Z</time>
      </trkpt>
      <trkpt lat="47.28506" lon="-2.35721">
        <ele>26.60000038147</ele>
        <time>2020-02-23T08:29:53.000Z</time>
      </trkpt>
      <trkpt lat="47.28493" lon="-2.3574">
        <ele>26.60000038147</ele>
        <time>2020-02-23T08:29:58.000Z</time>
      </trkpt>
      <trkpt lat="47.28486" lon="-2.35752">
        <ele>26.60000038147</ele>
        <time>2020-02-23T08:30:02.000Z</time>
      </trkpt>
      <trkpt lat="47.28479" lon="-2.35765">
        <ele>26.60000038147</ele>
        <time>2020-02-23T08:30:06.000Z</time>
      </trkpt>
      <trkpt lat="47.28478" lon="-2.3577">
        <ele>26.60000038147</ele>
        <time>2020-02-23T08:30:07.000Z</time>
      </trkpt>
      <trkpt lat="47.28481" lon="-2.35798">
        <ele>26.60000038147</ele>
        <time>2020-02-23T08:30:14.000Z</time>
      </trkpt>
      <trkpt lat="47.2848" lon="-2.35805">
        <ele>26.60000038147</ele>
        <time>2020-02-23T08:30:16.000Z</time>
      </trkpt>
      <trkpt lat="47.28477" lon="-2.35814">
        <ele>26.60000038147</ele>
        <time>2020-02-23T08:30:19.000Z</time>
      </trkpt>
      <trkpt lat="47.28464" lon="-2.35823">
        <ele>26.60000038147</ele>
        <time>2020-02-23T08:30:23.000Z</time>
      </trkpt>
      <trkpt lat="47.28443" lon="-2.35833">
        <ele>26.60000038147</ele>
        <time>2020-02-23T08:30:28.000Z</time>
      </trkpt>
      <trkpt lat="47.28434" lon="-2.35835">
        <ele>26.60000038147</ele>
        <time>2020-02-23T08:30:30.000Z</time>
      </trkpt>
      <trkpt lat="47.28416" lon="-2.35837">
        <ele>26.60000038147</ele>
        <time>2020-02-23T08:30:35.000Z</time>
      </trkpt>
      <trkpt lat="47.28414" lon="-2.35839">
        <ele>26.60000038147</ele>
        <time>2020-02-23T08:30:36.000Z</time>
      </trkpt>
      <trkpt lat="47.28407" lon="-2.35846">
        <ele>26.60000038147</ele>
        <time>2020-02-23T08:30:39.000Z</time>
      </trkpt>
      <trkpt lat="47.28399" lon="-2.35851">
        <ele>26.60000038147</ele>
        <time>2020-02-23T08:30:41.000Z</time>
      </trkpt>
      <trkpt lat="47.28389" lon="-2.35857">
        <ele>26.60000038147</ele>
        <time>2020-02-23T08:30:44.000Z</time>
      </trkpt>
      <trkpt lat="47.28374" lon="-2.35857">
        <ele>26.60000038147</ele>
        <time>2020-02-23T08:30:48.000Z</time>
      </trkpt>
      <trkpt lat="47.2835" lon="-2.35862">
        <ele>26.60000038147</ele>
        <time>2020-02-23T08:30:54.000Z</time>
      </trkpt>
      <trkpt lat="47.2834" lon="-2.35874">
        <ele>26.200000762939</ele>
        <time>2020-02-23T08:30:59.000Z</time>
      </trkpt>
      <trkpt lat="47.28339" lon="-2.35876">
        <ele>25.799999237061</ele>
        <time>2020-02-23T08:31:00.000Z</time>
      </trkpt>
      <trkpt lat="47.28336" lon="-2.35879">
        <ele>25.39999961853</ele>
        <time>2020-02-23T08:31:01.000Z</time>
      </trkpt>
      <trkpt lat="47.28333" lon="-2.35879">
        <ele>25</ele>
        <time>2020-02-23T08:31:02.000Z</time>
      </trkpt>
      <trkpt lat="47.28331" lon="-2.35877">
        <ele>24.60000038147</ele>
        <time>2020-02-23T08:31:03.000Z</time>
      </trkpt>
      <trkpt lat="47.28319" lon="-2.35874">
        <ele>24.60000038147</ele>
        <time>2020-02-23T08:31:06.000Z</time>
      </trkpt>
      <trkpt lat="47.28308" lon="-2.35869">
        <ele>24.60000038147</ele>
        <time>2020-02-23T08:31:10.000Z</time>
      </trkpt>
      <trkpt lat="47.28293" lon="-2.35867">
        <ele>24.200000762939</ele>
        <time>2020-02-23T08:31:16.000Z</time>
      </trkpt>
      <trkpt lat="47.28292" lon="-2.35867">
        <ele>23.799999237061</ele>
        <time>2020-02-23T08:31:17.000Z</time>
      </trkpt>
      <trkpt lat="47.2829" lon="-2.35867">
        <ele>23.39999961853</ele>
        <time>2020-02-23T08:31:18.000Z</time>
      </trkpt>
      <trkpt lat="47.28289" lon="-2.35868">
        <ele>23</ele>
        <time>2020-02-23T08:31:19.000Z</time>
      </trkpt>
      <trkpt lat="47.28287" lon="-2.35869">
        <ele>22.60000038147</ele>
        <time>2020-02-23T08:31:20.000Z</time>
      </trkpt>
      <trkpt lat="47.2828" lon="-2.35873">
        <ele>22.60000038147</ele>
        <time>2020-02-23T08:31:24.000Z</time>
      </trkpt>
      <trkpt lat="47.28268" lon="-2.35883">
        <ele>22.60000038147</ele>
        <time>2020-02-23T08:31:29.000Z</time>
      </trkpt>
      <trkpt lat="47.28255" lon="-2.35902">
        <ele>22.60000038147</ele>
        <time>2020-02-23T08:31:35.000Z</time>
      </trkpt>
      <trkpt lat="47.28253" lon="-2.3591">
        <ele>22.60000038147</ele>
        <time>2020-02-23T08:31:40.000Z</time>
      </trkpt>
      <trkpt lat="47.28254" lon="-2.35919">
        <ele>22.60000038147</ele>
        <time>2020-02-23T08:31:44.000Z</time>
      </trkpt>
      <trkpt lat="47.28256" lon="-2.35927">
        <ele>22.60000038147</ele>
        <time>2020-02-23T08:31:50.000Z</time>
      </trkpt>
      <trkpt lat="47.28267" lon="-2.35949">
        <ele>21.60000038147</ele>
        <time>2020-02-23T08:31:56.000Z</time>
      </trkpt>
      <trkpt lat="47.28269" lon="-2.35953">
        <ele>21.200000762939</ele>
        <time>2020-02-23T08:31:57.000Z</time>
      </trkpt>
      <trkpt lat="47.28271" lon="-2.35956">
        <ele>20.799999237061</ele>
        <time>2020-02-23T08:31:58.000Z</time>
      </trkpt>
      <trkpt lat="47.28272" lon="-2.3596">
        <ele>20.39999961853</ele>
        <time>2020-02-23T08:31:59.000Z</time>
      </trkpt>
      <trkpt lat="47.28275" lon="-2.3597">
        <ele>20.39999961853</ele>
        <time>2020-02-23T08:32:02.000Z</time>
      </trkpt>
      <trkpt lat="47.2828" lon="-2.3598">
        <ele>20.39999961853</ele>
        <time>2020-02-23T08:32:08.000Z</time>
      </trkpt>
      <trkpt lat="47.28283" lon="-2.3598">
        <ele>20.39999961853</ele>
        <time>2020-02-23T08:32:10.000Z</time>
      </trkpt>
      <trkpt lat="47.28292" lon="-2.35974">
        <ele>20.39999961853</ele>
        <time>2020-02-23T08:32:13.000Z</time>
      </trkpt>
      <trkpt lat="47.28297" lon="-2.35969">
        <ele>20.39999961853</ele>
        <time>2020-02-23T08:32:15.000Z</time>
      </trkpt>
      <trkpt lat="47.28306" lon="-2.35956">
        <ele>20.39999961853</ele>
        <time>2020-02-23T08:32:19.000Z</time>
      </trkpt>
      <trkpt lat="47.2832" lon="-2.35937">
        <ele>20.39999961853</ele>
        <time>2020-02-23T08:32:25.000Z</time>
      </trkpt>
      <trkpt lat="47.28331" lon="-2.35926">
        <ele>20.799999237061</ele>
        <time>2020-02-23T08:32:30.000Z</time>
      </trkpt>
      <trkpt lat="47.28334" lon="-2.35924">
        <ele>21.200000762939</ele>
        <time>2020-02-23T08:32:31.000Z</time>
      </trkpt>
      <trkpt lat="47.28337" lon="-2.35922">
        <ele>21.799999237061</ele>
        <time>2020-02-23T08:32:32.000Z</time>
      </trkpt>
      <trkpt lat="47.2834" lon="-2.35921">
        <ele>22.200000762939</ele>
        <time>2020-02-23T08:32:33.000Z</time>
      </trkpt>
      <trkpt lat="47.28342" lon="-2.35919">
        <ele>22.60000038147</ele>
        <time>2020-02-23T08:32:34.000Z</time>
      </trkpt>
      <trkpt lat="47.28352" lon="-2.35913">
        <ele>22.60000038147</ele>
        <time>2020-02-23T08:32:37.000Z</time>
      </trkpt>
      <trkpt lat="47.28369" lon="-2.359">
        <ele>22.60000038147</ele>
        <time>2020-02-23T08:32:42.000Z</time>
      </trkpt>
      <trkpt lat="47.28385" lon="-2.35887">
        <ele>23</ele>
        <time>2020-02-23T08:32:47.000Z</time>
      </trkpt>
      <trkpt lat="47.28389" lon="-2.35884">
        <ele>23.39999961853</ele>
        <time>2020-02-23T08:32:48.000Z</time>
      </trkpt>
      <trkpt lat="47.28392" lon="-2.35883">
        <ele>23.799999237061</ele>
        <time>2020-02-23T08:32:49.000Z</time>
      </trkpt>
      <trkpt lat="47.28395" lon="-2.35881">
        <ele>24.200000762939</ele>
        <time>2020-02-23T08:32:50.000Z</time>
      </trkpt>
      <trkpt lat="47.28398" lon="-2.3588">
        <ele>24.799999237061</ele>
        <time>2020-02-23T08:32:51.000Z</time>
      </trkpt>
      <trkpt lat="47.28401" lon="-2.35878">
        <ele>24.799999237061</ele>
        <time>2020-02-23T08:32:52.000Z</time>
      </trkpt>
      <trkpt lat="47.28416" lon="-2.35866">
        <ele>24.799999237061</ele>
        <time>2020-02-23T08:32:57.000Z</time>
      </trkpt>
      <trkpt lat="47.28433" lon="-2.35857">
        <ele>24.799999237061</ele>
        <time>2020-02-23T08:33:02.000Z</time>
      </trkpt>
      <trkpt lat="47.28452" lon="-2.35845">
        <ele>24.799999237061</ele>
        <time>2020-02-23T08:33:08.000Z</time>
      </trkpt>
      <trkpt lat="47.28467" lon="-2.35834">
        <ele>24.799999237061</ele>
        <time>2020-02-23T08:33:14.000Z</time>
      </trkpt>
      <trkpt lat="47.28473" lon="-2.3583">
        <ele>24.799999237061</ele>
        <time>2020-02-23T08:33:18.000Z</time>
      </trkpt>
      <trkpt lat="47.28474" lon="-2.35827">
        <ele>24.799999237061</ele>
        <time>2020-02-23T08:33:19.000Z</time>
      </trkpt>
      <trkpt lat="47.28469" lon="-2.3582">
        <ele>24.799999237061</ele>
        <time>2020-02-23T08:33:23.000Z</time>
      </trkpt>
      <trkpt lat="47.28453" lon="-2.35812">
        <ele>24.799999237061</ele>
        <time>2020-02-23T08:33:29.000Z</time>
      </trkpt>
      <trkpt lat="47.28435" lon="-2.358">
        <ele>24.799999237061</ele>
        <time>2020-02-23T08:33:37.000Z</time>
      </trkpt>
      <trkpt lat="47.28422" lon="-2.35793">
        <ele>24.799999237061</ele>
        <time>2020-02-23T08:33:46.000Z</time>
      </trkpt>
      <trkpt lat="47.28411" lon="-2.35788">
        <ele>24.799999237061</ele>
        <time>2020-02-23T08:33:52.000Z</time>
      </trkpt>
      <trkpt lat="47.28395" lon="-2.35782">
        <ele>24.799999237061</ele>
        <time>2020-02-23T08:33:58.000Z</time>
      </trkpt>
      <trkpt lat="47.28377" lon="-2.35776">
        <ele>24.799999237061</ele>
        <time>2020-02-23T08:34:06.000Z</time>
      </trkpt>
      <trkpt lat="47.28367" lon="-2.35772">
        <ele>24.799999237061</ele>
        <time>2020-02-23T08:34:12.000Z</time>
      </trkpt>
      <trkpt lat="47.28358" lon="-2.35767">
        <ele>24.799999237061</ele>
        <time>2020-02-23T08:34:19.000Z</time>
      </trkpt>
      <trkpt lat="47.28346" lon="-2.3576">
        <ele>24.799999237061</ele>
        <time>2020-02-23T08:34:24.000Z</time>
      </trkpt>
      <trkpt lat="47.28342" lon="-2.35759">
        <ele>24.799999237061</ele>
        <time>2020-02-23T08:34:26.000Z</time>
      </trkpt>
      <trkpt lat="47.28334" lon="-2.35756">
        <ele>24.799999237061</ele>
        <time>2020-02-23T08:34:29.000Z</time>
      </trkpt>
      <trkpt lat="47.28325" lon="-2.35751">
        <ele>24.799999237061</ele>
        <time>2020-02-23T08:34:33.000Z</time>
      </trkpt>
      <trkpt lat="47.28307" lon="-2.35737">
        <ele>24.799999237061</ele>
        <time>2020-02-23T08:34:41.000Z</time>
      </trkpt>
      <trkpt lat="47.2829" lon="-2.35722">
        <ele>24.799999237061</ele>
        <time>2020-02-23T08:34:49.000Z</time>
      </trkpt>
      <trkpt lat="47.28275" lon="-2.35707">
        <ele>24.799999237061</ele>
        <time>2020-02-23T08:34:56.000Z</time>
      </trkpt>
      <trkpt lat="47.2826" lon="-2.35688">
        <ele>24.799999237061</ele>
        <time>2020-02-23T08:35:03.000Z</time>
      </trkpt>
      <trkpt lat="47.28254" lon="-2.35685">
        <ele>24.799999237061</ele>
        <time>2020-02-23T08:35:06.000Z</time>
      </trkpt>
      <trkpt lat="47.28252" lon="-2.35687">
        <ele>24.799999237061</ele>
        <time>2020-02-23T08:35:08.000Z</time>
      </trkpt>
      <trkpt lat="47.28253" lon="-2.35691">
        <ele>24.799999237061</ele>
        <time>2020-02-23T08:35:13.000Z</time>
      </trkpt>
      <trkpt lat="47.28254" lon="-2.35692">
        <ele>24.799999237061</ele>
        <time>2020-02-23T08:35:14.000Z</time>
      </trkpt>
      <trkpt lat="47.28252" lon="-2.35687">
        <ele>23.39999961853</ele>
        <time>2020-02-23T08:35:21.000Z</time>
      </trkpt>
      <trkpt lat="47.28251" lon="-2.35687">
        <ele>23</ele>
        <time>2020-02-23T08:35:22.000Z</time>
      </trkpt>
      <trkpt lat="47.2825" lon="-2.35688">
        <ele>22.60000038147</ele>
        <time>2020-02-23T08:35:23.000Z</time>
      </trkpt>
      <trkpt lat="47.28249" lon="-2.35687">
        <ele>22.60000038147</ele>
        <time>2020-02-23T08:35:27.000Z</time>
      </trkpt>
      <trkpt lat="47.28247" lon="-2.35665">
        <ele>22.60000038147</ele>
        <time>2020-02-23T08:36:13.000Z</time>
      </trkpt>
      <trkpt lat="47.28253" lon="-2.35672">
        <ele>22.60000038147</ele>
        <time>2020-02-23T08:36:18.000Z</time>
      </trkpt>
      <trkpt lat="47.28256" lon="-2.35676">
        <ele>22.60000038147</ele>
        <time>2020-02-23T08:36:20.000Z</time>
      </trkpt>
      <trkpt lat="47.28269" lon="-2.35696">
        <ele>22.60000038147</ele>
        <time>2020-02-23T08:36:26.000Z</time>
      </trkpt>
      <trkpt lat="47.28296" lon="-2.35725">
        <ele>22.60000038147</ele>
        <time>2020-02-23T08:36:35.000Z</time>
      </trkpt>
      <trkpt lat="47.28317" lon="-2.35745">
        <ele>22.60000038147</ele>
        <time>2020-02-23T08:36:42.000Z</time>
      </trkpt>
      <trkpt lat="47.28331" lon="-2.35755">
        <ele>23</ele>
        <time>2020-02-23T08:36:46.000Z</time>
      </trkpt>
      <trkpt lat="47.28335" lon="-2.35758">
        <ele>23.39999961853</ele>
        <time>2020-02-23T08:36:47.000Z</time>
      </trkpt>
      <trkpt lat="47.28338" lon="-2.3576">
        <ele>23.799999237061</ele>
        <time>2020-02-23T08:36:48.000Z</time>
      </trkpt>
      <trkpt lat="47.28341" lon="-2.35762">
        <ele>24.200000762939</ele>
        <time>2020-02-23T08:36:49.000Z</time>
      </trkpt>
      <trkpt lat="47.28345" lon="-2.35764">
        <ele>24.60000038147</ele>
        <time>2020-02-23T08:36:50.000Z</time>
      </trkpt>
      <trkpt lat="47.28361" lon="-2.3577">
        <ele>24.60000038147</ele>
        <time>2020-02-23T08:36:54.000Z</time>
      </trkpt>
      <trkpt lat="47.28374" lon="-2.35776">
        <ele>24.60000038147</ele>
        <time>2020-02-23T08:36:57.000Z</time>
      </trkpt>
      <trkpt lat="47.28386" lon="-2.35783">
        <ele>24.60000038147</ele>
        <time>2020-02-23T08:37:00.000Z</time>
      </trkpt>
      <trkpt lat="47.28405" lon="-2.35791">
        <ele>24.60000038147</ele>
        <time>2020-02-23T08:37:05.000Z</time>
      </trkpt>
      <trkpt lat="47.28433" lon="-2.35798">
        <ele>24.60000038147</ele>
        <time>2020-02-23T08:37:12.000Z</time>
      </trkpt>
      <trkpt lat="47.28453" lon="-2.3581">
        <ele>24.60000038147</ele>
        <time>2020-02-23T08:37:18.000Z</time>
      </trkpt>
      <trkpt lat="47.28464" lon="-2.35815">
        <ele>24.60000038147</ele>
        <time>2020-02-23T08:37:23.000Z</time>
      </trkpt>
      <trkpt lat="47.28468" lon="-2.35821">
        <ele>24.60000038147</ele>
        <time>2020-02-23T08:37:28.000Z</time>
      </trkpt>
      <trkpt lat="47.28468" lon="-2.35823">
        <ele>24.60000038147</ele>
        <time>2020-02-23T08:37:30.000Z</time>
      </trkpt>
      <trkpt lat="47.28472" lon="-2.35821">
        <ele>24.60000038147</ele>
        <time>2020-02-23T08:40:07.000Z</time>
      </trkpt>
      <trkpt lat="47.28475" lon="-2.35821">
        <ele>24.60000038147</ele>
        <time>2020-02-23T08:40:08.000Z</time>
      </trkpt>
      <trkpt lat="47.2848" lon="-2.35817">
        <ele>24.60000038147</ele>
        <time>2020-02-23T08:40:11.000Z</time>
      </trkpt>
      <trkpt lat="47.28484" lon="-2.35815">
        <ele>24.60000038147</ele>
        <time>2020-02-23T08:40:13.000Z</time>
      </trkpt>
      <trkpt lat="47.28486" lon="-2.35815">
        <ele>24.60000038147</ele>
        <time>2020-02-23T08:40:14.000Z</time>
      </trkpt>
      <trkpt lat="47.28497" lon="-2.3582">
        <ele>24.60000038147</ele>
        <time>2020-02-23T08:40:17.000Z</time>
      </trkpt>
      <trkpt lat="47.28505" lon="-2.35823">
        <ele>25</ele>
        <time>2020-02-23T08:40:19.000Z</time>
      </trkpt>
      <trkpt lat="47.2851" lon="-2.35825">
        <ele>25.60000038147</ele>
        <time>2020-02-23T08:40:20.000Z</time>
      </trkpt>
      <trkpt lat="47.28514" lon="-2.35826">
        <ele>26</ele>
        <time>2020-02-23T08:40:21.000Z</time>
      </trkpt>
      <trkpt lat="47.28519" lon="-2.35827">
        <ele>26.39999961853</ele>
        <time>2020-02-23T08:40:22.000Z</time>
      </trkpt>
      <trkpt lat="47.28523" lon="-2.35829">
        <ele>26.799999237061</ele>
        <time>2020-02-23T08:40:23.000Z</time>
      </trkpt>
      <trkpt lat="47.28527" lon="-2.35832">
        <ele>26.799999237061</ele>
        <time>2020-02-23T08:40:24.000Z</time>
      </trkpt>
      <trkpt lat="47.28541" lon="-2.3584">
        <ele>26.799999237061</ele>
        <time>2020-02-23T08:40:27.000Z</time>
      </trkpt>
      <trkpt lat="47.28555" lon="-2.3585">
        <ele>26.799999237061</ele>
        <time>2020-02-23T08:40:30.000Z</time>
      </trkpt>
      <trkpt lat="47.28565" lon="-2.35865">
        <ele>26.799999237061</ele>
        <time>2020-02-23T08:40:33.000Z</time>
      </trkpt>
      <trkpt lat="47.28568" lon="-2.35871">
        <ele>26.799999237061</ele>
        <time>2020-02-23T08:40:34.000Z</time>
      </trkpt>
      <trkpt lat="47.28582" lon="-2.359">
        <ele>27.200000762939</ele>
        <time>2020-02-23T08:40:39.000Z</time>
      </trkpt>
      <trkpt lat="47.28585" lon="-2.35907">
        <ele>27.60000038147</ele>
        <time>2020-02-23T08:40:40.000Z</time>
      </trkpt>
      <trkpt lat="47.28587" lon="-2.35913">
        <ele>28</ele>
        <time>2020-02-23T08:40:41.000Z</time>
      </trkpt>
      <trkpt lat="47.2859" lon="-2.35919">
        <ele>28.39999961853</ele>
        <time>2020-02-23T08:40:42.000Z</time>
      </trkpt>
      <trkpt lat="47.28593" lon="-2.35924">
        <ele>29</ele>
        <time>2020-02-23T08:40:43.000Z</time>
      </trkpt>
      <trkpt lat="47.28607" lon="-2.35944">
        <ele>29</ele>
        <time>2020-02-23T08:40:47.000Z</time>
      </trkpt>
      <trkpt lat="47.28612" lon="-2.35948">
        <ele>29</ele>
        <time>2020-02-23T08:40:48.000Z</time>
      </trkpt>
      <trkpt lat="47.28632" lon="-2.35957">
        <ele>29</ele>
        <time>2020-02-23T08:40:52.000Z</time>
      </trkpt>
      <trkpt lat="47.28637" lon="-2.35957">
        <ele>29</ele>
        <time>2020-02-23T08:40:53.000Z</time>
      </trkpt>
      <trkpt lat="47.2866" lon="-2.35961">
        <ele>29.39999961853</ele>
        <time>2020-02-23T08:40:58.000Z</time>
      </trkpt>
      <trkpt lat="47.28665" lon="-2.35962">
        <ele>29.799999237061</ele>
        <time>2020-02-23T08:40:59.000Z</time>
      </trkpt>
      <trkpt lat="47.28669" lon="-2.35962">
        <ele>30.200000762939</ele>
        <time>2020-02-23T08:41:00.000Z</time>
      </trkpt>
      <trkpt lat="47.28673" lon="-2.35965">
        <ele>31</ele>
        <time>2020-02-23T08:41:01.000Z</time>
      </trkpt>
      <trkpt lat="47.2868" lon="-2.35975">
        <ele>31</ele>
        <time>2020-02-23T08:41:03.000Z</time>
      </trkpt>
      <trkpt lat="47.28689" lon="-2.35993">
        <ele>31</ele>
        <time>2020-02-23T08:41:06.000Z</time>
      </trkpt>
      <trkpt lat="47.28695" lon="-2.36012">
        <ele>31</ele>
        <time>2020-02-23T08:41:09.000Z</time>
      </trkpt>
      <trkpt lat="47.28717" lon="-2.36068">
        <ele>31</ele>
        <time>2020-02-23T08:41:18.000Z</time>
      </trkpt>
      <trkpt lat="47.28733" lon="-2.36115">
        <ele>31</ele>
        <time>2020-02-23T08:41:25.000Z</time>
      </trkpt>
      <trkpt lat="47.28744" lon="-2.36167">
        <ele>31</ele>
        <time>2020-02-23T08:41:32.000Z</time>
      </trkpt>
      <trkpt lat="47.28748" lon="-2.36187">
        <ele>31</ele>
        <time>2020-02-23T08:41:35.000Z</time>
      </trkpt>
      <trkpt lat="47.28748" lon="-2.36197">
        <ele>31</ele>
        <time>2020-02-23T08:41:37.000Z</time>
      </trkpt>
      <trkpt lat="47.28751" lon="-2.36219">
        <ele>31</ele>
        <time>2020-02-23T08:41:43.000Z</time>
      </trkpt>
      <trkpt lat="47.28749" lon="-2.36224">
        <ele>31</ele>
        <time>2020-02-23T08:41:47.000Z</time>
      </trkpt>
      <trkpt lat="47.28746" lon="-2.36227">
        <ele>31</ele>
        <time>2020-02-23T08:41:52.000Z</time>
      </trkpt>
      <trkpt lat="47.28746" lon="-2.36225">
        <ele>31</ele>
        <time>2020-02-23T08:42:36.000Z</time>
      </trkpt>
      <trkpt lat="47.28752" lon="-2.3622">
        <ele>31</ele>
        <time>2020-02-23T08:42:40.000Z</time>
      </trkpt>
      <trkpt lat="47.28754" lon="-2.36218">
        <ele>31</ele>
        <time>2020-02-23T08:42:41.000Z</time>
      </trkpt>
      <trkpt lat="47.28768" lon="-2.36207">
        <ele>31</ele>
        <time>2020-02-23T08:42:45.000Z</time>
      </trkpt>
      <trkpt lat="47.28793" lon="-2.3619">
        <ele>31</ele>
        <time>2020-02-23T08:42:50.000Z</time>
      </trkpt>
      <trkpt lat="47.28819" lon="-2.3617">
        <ele>31</ele>
        <time>2020-02-23T08:42:55.000Z</time>
      </trkpt>
      <trkpt lat="47.28823" lon="-2.36165">
        <ele>31</ele>
        <time>2020-02-23T08:42:56.000Z</time>
      </trkpt>
      <trkpt lat="47.28845" lon="-2.36136">
        <ele>31</ele>
        <time>2020-02-23T08:43:01.000Z</time>
      </trkpt>
      <trkpt lat="47.28874" lon="-2.36106">
        <ele>31</ele>
        <time>2020-02-23T08:43:07.000Z</time>
      </trkpt>
      <trkpt lat="47.28917" lon="-2.36066">
        <ele>31</ele>
        <time>2020-02-23T08:43:16.000Z</time>
      </trkpt>
      <trkpt lat="47.28946" lon="-2.36048">
        <ele>31</ele>
        <time>2020-02-23T08:43:22.000Z</time>
      </trkpt>
      <trkpt lat="47.28977" lon="-2.36021">
        <ele>31</ele>
        <time>2020-02-23T08:43:29.000Z</time>
      </trkpt>
      <trkpt lat="47.29014" lon="-2.35988">
        <ele>31</ele>
        <time>2020-02-23T08:43:37.000Z</time>
      </trkpt>
      <trkpt lat="47.29045" lon="-2.35954">
        <ele>31</ele>
        <time>2020-02-23T08:43:44.000Z</time>
      </trkpt>
      <trkpt lat="47.29054" lon="-2.35943">
        <ele>31</ele>
        <time>2020-02-23T08:43:46.000Z</time>
      </trkpt>
      <trkpt lat="47.29072" lon="-2.35923">
        <ele>31</ele>
        <time>2020-02-23T08:43:50.000Z</time>
      </trkpt>
      <trkpt lat="47.29107" lon="-2.35881">
        <ele>31</ele>
        <time>2020-02-23T08:43:58.000Z</time>
      </trkpt>
      <trkpt lat="47.2914" lon="-2.35844">
        <ele>31</ele>
        <time>2020-02-23T08:44:06.000Z</time>
      </trkpt>
      <trkpt lat="47.29167" lon="-2.35819">
        <ele>31</ele>
        <time>2020-02-23T08:44:12.000Z</time>
      </trkpt>
      <trkpt lat="47.29177" lon="-2.35813">
        <ele>31</ele>
        <time>2020-02-23T08:44:14.000Z</time>
      </trkpt>
      <trkpt lat="47.29212" lon="-2.35787">
        <ele>31</ele>
        <time>2020-02-23T08:44:21.000Z</time>
      </trkpt>
      <trkpt lat="47.29239" lon="-2.35759">
        <ele>31</ele>
        <time>2020-02-23T08:44:27.000Z</time>
      </trkpt>
      <trkpt lat="47.29252" lon="-2.3574">
        <ele>31</ele>
        <time>2020-02-23T08:44:31.000Z</time>
      </trkpt>
      <trkpt lat="47.29253" lon="-2.35735">
        <ele>31</ele>
        <time>2020-02-23T08:44:32.000Z</time>
      </trkpt>
      <trkpt lat="47.29255" lon="-2.35731">
        <ele>31</ele>
        <time>2020-02-23T08:44:35.000Z</time>
      </trkpt>
      <trkpt lat="47.29256" lon="-2.3573">
        <ele>31</ele>
        <time>2020-02-23T08:44:43.000Z</time>
      </trkpt>
      <trkpt lat="47.29262" lon="-2.35731">
        <ele>31</ele>
        <time>2020-02-23T08:44:46.000Z</time>
      </trkpt>
      <trkpt lat="47.29269" lon="-2.35737">
        <ele>31</ele>
        <time>2020-02-23T08:44:48.000Z</time>
      </trkpt>
      <trkpt lat="47.29277" lon="-2.35744">
        <ele>31</ele>
        <time>2020-02-23T08:44:50.000Z</time>
      </trkpt>
      <trkpt lat="47.29308" lon="-2.35773">
        <ele>31</ele>
        <time>2020-02-23T08:44:57.000Z</time>
      </trkpt>
      <trkpt lat="47.29312" lon="-2.35777">
        <ele>31</ele>
        <time>2020-02-23T08:44:58.000Z</time>
      </trkpt>
      <trkpt lat="47.29346" lon="-2.35807">
        <ele>31</ele>
        <time>2020-02-23T08:45:05.000Z</time>
      </trkpt>
      <trkpt lat="47.29392" lon="-2.3585">
        <ele>31</ele>
        <time>2020-02-23T08:45:15.000Z</time>
      </trkpt>
      <trkpt lat="47.29418" lon="-2.35881">
        <ele>31</ele>
        <time>2020-02-23T08:45:21.000Z</time>
      </trkpt>
      <trkpt lat="47.29435" lon="-2.359">
        <ele>31</ele>
        <time>2020-02-23T08:45:25.000Z</time>
      </trkpt>
      <trkpt lat="47.29444" lon="-2.35904">
        <ele>31</ele>
        <time>2020-02-23T08:45:27.000Z</time>
      </trkpt>
      <trkpt lat="47.29454" lon="-2.35902">
        <ele>31</ele>
        <time>2020-02-23T08:45:29.000Z</time>
      </trkpt>
      <trkpt lat="47.29459" lon="-2.35902">
        <ele>31</ele>
        <time>2020-02-23T08:45:30.000Z</time>
      </trkpt>
      <trkpt lat="47.29467" lon="-2.35901">
        <ele>31</ele>
        <time>2020-02-23T08:45:32.000Z</time>
      </trkpt>
      <trkpt lat="47.2948" lon="-2.359">
        <ele>31</ele>
        <time>2020-02-23T08:45:35.000Z</time>
      </trkpt>
      <trkpt lat="47.29484" lon="-2.35899">
        <ele>31</ele>
        <time>2020-02-23T08:45:36.000Z</time>
      </trkpt>
      <trkpt lat="47.29492" lon="-2.35897">
        <ele>31</ele>
        <time>2020-02-23T08:45:38.000Z</time>
      </trkpt>
      <trkpt lat="47.29504" lon="-2.35903">
        <ele>31</ele>
        <time>2020-02-23T08:45:41.000Z</time>
      </trkpt>
      <trkpt lat="47.29514" lon="-2.35931">
        <ele>31</ele>
        <time>2020-02-23T08:45:46.000Z</time>
      </trkpt>
      <trkpt lat="47.29519" lon="-2.35937">
        <ele>31</ele>
        <time>2020-02-23T08:45:48.000Z</time>
      </trkpt>
      <trkpt lat="47.29522" lon="-2.35937">
        <ele>31</ele>
        <time>2020-02-23T08:45:49.000Z</time>
      </trkpt>
      <trkpt lat="47.29539" lon="-2.35927">
        <ele>31</ele>
        <time>2020-02-23T08:45:53.000Z</time>
      </trkpt>
      <trkpt lat="47.29544" lon="-2.35925">
        <ele>31</ele>
        <time>2020-02-23T08:45:54.000Z</time>
      </trkpt>
      <trkpt lat="47.2958" lon="-2.35905">
        <ele>31</ele>
        <time>2020-02-23T08:46:01.000Z</time>
      </trkpt>
      <trkpt lat="47.2962" lon="-2.3588">
        <ele>31</ele>
        <time>2020-02-23T08:46:09.000Z</time>
      </trkpt>
      <trkpt lat="47.29639" lon="-2.35868">
        <ele>31</ele>
        <time>2020-02-23T08:46:13.000Z</time>
      </trkpt>
      <trkpt lat="47.29651" lon="-2.35854">
        <ele>31</ele>
        <time>2020-02-23T08:46:16.000Z</time>
      </trkpt>
      <trkpt lat="47.29656" lon="-2.35841">
        <ele>31</ele>
        <time>2020-02-23T08:46:18.000Z</time>
      </trkpt>
      <trkpt lat="47.29659" lon="-2.35837">
        <ele>31</ele>
        <time>2020-02-23T08:46:19.000Z</time>
      </trkpt>
      <trkpt lat="47.29662" lon="-2.35835">
        <ele>31</ele>
        <time>2020-02-23T08:46:20.000Z</time>
      </trkpt>
      <trkpt lat="47.29678" lon="-2.35837">
        <ele>31</ele>
        <time>2020-02-23T08:46:23.000Z</time>
      </trkpt>
      <trkpt lat="47.29698" lon="-2.35835">
        <ele>31</ele>
        <time>2020-02-23T08:46:26.000Z</time>
      </trkpt>
      <trkpt lat="47.29704" lon="-2.35832">
        <ele>31</ele>
        <time>2020-02-23T08:46:27.000Z</time>
      </trkpt>
      <trkpt lat="47.29737" lon="-2.35814">
        <ele>31</ele>
        <time>2020-02-23T08:46:33.000Z</time>
      </trkpt>
      <trkpt lat="47.29742" lon="-2.35811">
        <ele>31.60000038147</ele>
        <time>2020-02-23T08:46:34.000Z</time>
      </trkpt>
      <trkpt lat="47.29747" lon="-2.35808">
        <ele>32</ele>
        <time>2020-02-23T08:46:35.000Z</time>
      </trkpt>
      <trkpt lat="47.29752" lon="-2.35806">
        <ele>32.400001525879</ele>
        <time>2020-02-23T08:46:36.000Z</time>
      </trkpt>
      <trkpt lat="47.29757" lon="-2.35804">
        <ele>32.799999237061</ele>
        <time>2020-02-23T08:46:37.000Z</time>
      </trkpt>
      <trkpt lat="47.29762" lon="-2.35802">
        <ele>33.200000762939</ele>
        <time>2020-02-23T08:46:38.000Z</time>
      </trkpt>
      <trkpt lat="47.29772" lon="-2.35799">
        <ele>33.200000762939</ele>
        <time>2020-02-23T08:46:40.000Z</time>
      </trkpt>
      <trkpt lat="47.29777" lon="-2.35797">
        <ele>33.799999237061</ele>
        <time>2020-02-23T08:46:41.000Z</time>
      </trkpt>
      <trkpt lat="47.29782" lon="-2.35795">
        <ele>34.200000762939</ele>
        <time>2020-02-23T08:46:42.000Z</time>
      </trkpt>
      <trkpt lat="47.29787" lon="-2.35793">
        <ele>34.599998474121</ele>
        <time>2020-02-23T08:46:43.000Z</time>
      </trkpt>
      <trkpt lat="47.29792" lon="-2.35792">
        <ele>35</ele>
        <time>2020-02-23T08:46:44.000Z</time>
      </trkpt>
      <trkpt lat="47.29796" lon="-2.3579">
        <ele>35.400001525879</ele>
        <time>2020-02-23T08:46:45.000Z</time>
      </trkpt>
      <trkpt lat="47.29804" lon="-2.35788">
        <ele>35.400001525879</ele>
        <time>2020-02-23T08:46:47.000Z</time>
      </trkpt>
      <trkpt lat="47.29824" lon="-2.35782">
        <ele>35.400001525879</ele>
        <time>2020-02-23T08:46:52.000Z</time>
      </trkpt>
      <trkpt lat="47.29852" lon="-2.35773">
        <ele>35.400001525879</ele>
        <time>2020-02-23T08:46:57.000Z</time>
      </trkpt>
      <trkpt lat="47.29858" lon="-2.35771">
        <ele>35</ele>
        <time>2020-02-23T08:46:58.000Z</time>
      </trkpt>
      <trkpt lat="47.29864" lon="-2.35769">
        <ele>34.599998474121</ele>
        <time>2020-02-23T08:46:59.000Z</time>
      </trkpt>
      <trkpt lat="47.29869" lon="-2.35767">
        <ele>34.200000762939</ele>
        <time>2020-02-23T08:47:00.000Z</time>
      </trkpt>
      <trkpt lat="47.29875" lon="-2.35765">
        <ele>33.599998474121</ele>
        <time>2020-02-23T08:47:01.000Z</time>
      </trkpt>
      <trkpt lat="47.2988" lon="-2.35763">
        <ele>33.200000762939</ele>
        <time>2020-02-23T08:47:02.000Z</time>
      </trkpt>
      <trkpt lat="47.29891" lon="-2.35758">
        <ele>33.200000762939</ele>
        <time>2020-02-23T08:47:05.000Z</time>
      </trkpt>
      <trkpt lat="47.29894" lon="-2.35755">
        <ele>33.200000762939</ele>
        <time>2020-02-23T08:47:06.000Z</time>
      </trkpt>
      <trkpt lat="47.29898" lon="-2.35747">
        <ele>33.200000762939</ele>
        <time>2020-02-23T08:47:08.000Z</time>
      </trkpt>
      <trkpt lat="47.29893" lon="-2.35729">
        <ele>33.200000762939</ele>
        <time>2020-02-23T08:47:11.000Z</time>
      </trkpt>
      <trkpt lat="47.29883" lon="-2.35683">
        <ele>33.200000762939</ele>
        <time>2020-02-23T08:47:17.000Z</time>
      </trkpt>
      <trkpt lat="47.29872" lon="-2.3562">
        <ele>33.200000762939</ele>
        <time>2020-02-23T08:47:24.000Z</time>
      </trkpt>
      <trkpt lat="47.29857" lon="-2.35569">
        <ele>33.200000762939</ele>
        <time>2020-02-23T08:47:30.000Z</time>
      </trkpt>
      <trkpt lat="47.2984" lon="-2.35506">
        <ele>32.799999237061</ele>
        <time>2020-02-23T08:47:38.000Z</time>
      </trkpt>
      <trkpt lat="47.29837" lon="-2.35499">
        <ele>32.400001525879</ele>
        <time>2020-02-23T08:47:39.000Z</time>
      </trkpt>
      <trkpt lat="47.29836" lon="-2.35492">
        <ele>32</ele>
        <time>2020-02-23T08:47:40.000Z</time>
      </trkpt>
      <trkpt lat="47.29834" lon="-2.35485">
        <ele>31.60000038147</ele>
        <time>2020-02-23T08:47:41.000Z</time>
      </trkpt>
      <trkpt lat="47.29832" lon="-2.35479">
        <ele>31.200000762939</ele>
        <time>2020-02-23T08:47:42.000Z</time>
      </trkpt>
      <trkpt lat="47.29831" lon="-2.35472">
        <ele>31.200000762939</ele>
        <time>2020-02-23T08:47:43.000Z</time>
      </trkpt>
      <trkpt lat="47.2983" lon="-2.35466">
        <ele>31.200000762939</ele>
        <time>2020-02-23T08:47:44.000Z</time>
      </trkpt>
      <trkpt lat="47.29836" lon="-2.35446">
        <ele>31.200000762939</ele>
        <time>2020-02-23T08:47:47.000Z</time>
      </trkpt>
      <trkpt lat="47.2985" lon="-2.35431">
        <ele>31.200000762939</ele>
        <time>2020-02-23T08:47:50.000Z</time>
      </trkpt>
      <trkpt lat="47.29855" lon="-2.35426">
        <ele>31.200000762939</ele>
        <time>2020-02-23T08:47:51.000Z</time>
      </trkpt>
      <trkpt lat="47.29875" lon="-2.35406">
        <ele>30.799999237061</ele>
        <time>2020-02-23T08:47:56.000Z</time>
      </trkpt>
      <trkpt lat="47.29878" lon="-2.35402">
        <ele>30.39999961853</ele>
        <time>2020-02-23T08:47:57.000Z</time>
      </trkpt>
      <trkpt lat="47.29882" lon="-2.35398">
        <ele>29.799999237061</ele>
        <time>2020-02-23T08:47:58.000Z</time>
      </trkpt>
      <trkpt lat="47.29886" lon="-2.35395">
        <ele>29.39999961853</ele>
        <time>2020-02-23T08:47:59.000Z</time>
      </trkpt>
      <trkpt lat="47.2989" lon="-2.35391">
        <ele>29</ele>
        <time>2020-02-23T08:48:00.000Z</time>
      </trkpt>
      <trkpt lat="47.29902" lon="-2.35381">
        <ele>29</ele>
        <time>2020-02-23T08:48:03.000Z</time>
      </trkpt>
      <trkpt lat="47.29921" lon="-2.35359">
        <ele>29</ele>
        <time>2020-02-23T08:48:09.000Z</time>
      </trkpt>
      <trkpt lat="47.29941" lon="-2.35334">
        <ele>29</ele>
        <time>2020-02-23T08:48:15.000Z</time>
      </trkpt>
      <trkpt lat="47.2997" lon="-2.35295">
        <ele>29</ele>
        <time>2020-02-23T08:48:23.000Z</time>
      </trkpt>
      <trkpt lat="47.29977" lon="-2.35285">
        <ele>29</ele>
        <time>2020-02-23T08:48:25.000Z</time>
      </trkpt>
      <trkpt lat="47.29994" lon="-2.35266">
        <ele>29</ele>
        <time>2020-02-23T08:48:29.000Z</time>
      </trkpt>
      <trkpt lat="47.29998" lon="-2.35262">
        <ele>29</ele>
        <time>2020-02-23T08:48:30.000Z</time>
      </trkpt>
      <trkpt lat="47.30006" lon="-2.35256">
        <ele>29</ele>
        <time>2020-02-23T08:48:32.000Z</time>
      </trkpt>
      <trkpt lat="47.30013" lon="-2.35252">
        <ele>29</ele>
        <time>2020-02-23T08:48:34.000Z</time>
      </trkpt>
      <trkpt lat="47.30024" lon="-2.35246">
        <ele>29</ele>
        <time>2020-02-23T08:48:38.000Z</time>
      </trkpt>
      <trkpt lat="47.30032" lon="-2.35243">
        <ele>29</ele>
        <time>2020-02-23T08:48:43.000Z</time>
      </trkpt>
      <trkpt lat="47.30046" lon="-2.35232">
        <ele>29</ele>
        <time>2020-02-23T08:48:48.000Z</time>
      </trkpt>
      <trkpt lat="47.30051" lon="-2.3523">
        <ele>29</ele>
        <time>2020-02-23T08:48:49.000Z</time>
      </trkpt>
      <trkpt lat="47.30066" lon="-2.35223">
        <ele>29</ele>
        <time>2020-02-23T08:48:53.000Z</time>
      </trkpt>
      <trkpt lat="47.30083" lon="-2.35214">
        <ele>29</ele>
        <time>2020-02-23T08:48:58.000Z</time>
      </trkpt>
      <trkpt lat="47.30103" lon="-2.35206">
        <ele>29</ele>
        <time>2020-02-23T08:49:04.000Z</time>
      </trkpt>
      <trkpt lat="47.3012" lon="-2.35196">
        <ele>29</ele>
        <time>2020-02-23T08:49:09.000Z</time>
      </trkpt>
      <trkpt lat="47.30131" lon="-2.35195">
        <ele>29</ele>
        <time>2020-02-23T08:49:13.000Z</time>
      </trkpt>
      <trkpt lat="47.30137" lon="-2.35194">
        <ele>29</ele>
        <time>2020-02-23T08:49:18.000Z</time>
      </trkpt>
      <trkpt lat="47.30138" lon="-2.35193">
        <ele>29</ele>
        <time>2020-02-23T08:49:20.000Z</time>
      </trkpt>
      <trkpt lat="47.30166" lon="-2.35185">
        <ele>30.60000038147</ele>
        <time>2020-02-23T08:50:25.000Z</time>
      </trkpt>
      <trkpt lat="47.30169" lon="-2.35182">
        <ele>30.60000038147</ele>
        <time>2020-02-23T08:50:28.000Z</time>
      </trkpt>
      <trkpt lat="47.30175" lon="-2.35176">
        <ele>30.60000038147</ele>
        <time>2020-02-23T08:50:33.000Z</time>
      </trkpt>
      <trkpt lat="47.3018" lon="-2.35175">
        <ele>30.60000038147</ele>
        <time>2020-02-23T08:50:36.000Z</time>
      </trkpt>
      <trkpt lat="47.30183" lon="-2.35173">
        <ele>30.60000038147</ele>
        <time>2020-02-23T08:50:38.000Z</time>
      </trkpt>
      <trkpt lat="47.30187" lon="-2.35172">
        <ele>30.60000038147</ele>
        <time>2020-02-23T08:50:40.000Z</time>
      </trkpt>
      <trkpt lat="47.30194" lon="-2.3517">
        <ele>30.60000038147</ele>
        <time>2020-02-23T08:50:43.000Z</time>
      </trkpt>
      <trkpt lat="47.30203" lon="-2.35164">
        <ele>30.60000038147</ele>
        <time>2020-02-23T08:50:46.000Z</time>
      </trkpt>
      <trkpt lat="47.30205" lon="-2.35159">
        <ele>30.60000038147</ele>
        <time>2020-02-23T08:50:47.000Z</time>
      </trkpt>
      <trkpt lat="47.30206" lon="-2.35136">
        <ele>30.60000038147</ele>
        <time>2020-02-23T08:50:51.000Z</time>
      </trkpt>
      <trkpt lat="47.30208" lon="-2.35094">
        <ele>30.60000038147</ele>
        <time>2020-02-23T08:50:58.000Z</time>
      </trkpt>
      <trkpt lat="47.30208" lon="-2.35052">
        <ele>30.60000038147</ele>
        <time>2020-02-23T08:51:06.000Z</time>
      </trkpt>
      <trkpt lat="47.30209" lon="-2.35036">
        <ele>30.60000038147</ele>
        <time>2020-02-23T08:51:11.000Z</time>
      </trkpt>
      <trkpt lat="47.30208" lon="-2.35016">
        <ele>30.60000038147</ele>
        <time>2020-02-23T08:51:17.000Z</time>
      </trkpt>
      <trkpt lat="47.30207" lon="-2.35012">
        <ele>30.60000038147</ele>
        <time>2020-02-23T08:51:18.000Z</time>
      </trkpt>
      <trkpt lat="47.30207" lon="-2.34989">
        <ele>31</ele>
        <time>2020-02-23T08:51:23.000Z</time>
      </trkpt>
      <trkpt lat="47.30207" lon="-2.34984">
        <ele>31.39999961853</ele>
        <time>2020-02-23T08:51:24.000Z</time>
      </trkpt>
      <trkpt lat="47.30207" lon="-2.34979">
        <ele>31.799999237061</ele>
        <time>2020-02-23T08:51:25.000Z</time>
      </trkpt>
      <trkpt lat="47.30207" lon="-2.34974">
        <ele>32.200000762939</ele>
        <time>2020-02-23T08:51:26.000Z</time>
      </trkpt>
      <trkpt lat="47.30208" lon="-2.34969">
        <ele>32.599998474121</ele>
        <time>2020-02-23T08:51:27.000Z</time>
      </trkpt>
      <trkpt lat="47.30208" lon="-2.34941">
        <ele>32.599998474121</ele>
        <time>2020-02-23T08:51:32.000Z</time>
      </trkpt>
      <trkpt lat="47.30209" lon="-2.34912">
        <ele>32.599998474121</ele>
        <time>2020-02-23T08:51:38.000Z</time>
      </trkpt>
      <trkpt lat="47.30218" lon="-2.34895">
        <ele>32.599998474121</ele>
        <time>2020-02-23T08:51:43.000Z</time>
      </trkpt>
      <trkpt lat="47.30222" lon="-2.34892">
        <ele>33</ele>
        <time>2020-02-23T08:51:44.000Z</time>
      </trkpt>
      <trkpt lat="47.30225" lon="-2.3489">
        <ele>34</ele>
        <time>2020-02-23T08:51:45.000Z</time>
      </trkpt>
      <trkpt lat="47.30227" lon="-2.34887">
        <ele>34.400001525879</ele>
        <time>2020-02-23T08:51:46.000Z</time>
      </trkpt>
      <trkpt lat="47.30229" lon="-2.34884">
        <ele>34.799999237061</ele>
        <time>2020-02-23T08:51:47.000Z</time>
      </trkpt>
      <trkpt lat="47.30231" lon="-2.34882">
        <ele>34.799999237061</ele>
        <time>2020-02-23T08:51:48.000Z</time>
      </trkpt>
      <trkpt lat="47.30233" lon="-2.34882">
        <ele>34.799999237061</ele>
        <time>2020-02-23T08:51:49.000Z</time>
      </trkpt>
      <trkpt lat="47.3024" lon="-2.34877">
        <ele>34.799999237061</ele>
        <time>2020-02-23T08:51:52.000Z</time>
      </trkpt>
      <trkpt lat="47.30242" lon="-2.34876">
        <ele>34.799999237061</ele>
        <time>2020-02-23T08:51:53.000Z</time>
      </trkpt>
      <trkpt lat="47.30257" lon="-2.34869">
        <ele>34.799999237061</ele>
        <time>2020-02-23T08:51:59.000Z</time>
      </trkpt>
      <trkpt lat="47.30271" lon="-2.34861">
        <ele>34.799999237061</ele>
        <time>2020-02-23T08:52:04.000Z</time>
      </trkpt>
      <trkpt lat="47.30288" lon="-2.34851">
        <ele>34.799999237061</ele>
        <time>2020-02-23T08:52:11.000Z</time>
      </trkpt>
      <trkpt lat="47.303" lon="-2.34836">
        <ele>34.799999237061</ele>
        <time>2020-02-23T08:52:16.000Z</time>
      </trkpt>
      <trkpt lat="47.30312" lon="-2.34821">
        <ele>34.799999237061</ele>
        <time>2020-02-23T08:52:22.000Z</time>
      </trkpt>
      <trkpt lat="47.30326" lon="-2.34798">
        <ele>34.799999237061</ele>
        <time>2020-02-23T08:52:29.000Z</time>
      </trkpt>
      <trkpt lat="47.30342" lon="-2.34774">
        <ele>34.799999237061</ele>
        <time>2020-02-23T08:52:35.000Z</time>
      </trkpt>
      <trkpt lat="47.30363" lon="-2.34762">
        <ele>34.799999237061</ele>
        <time>2020-02-23T08:52:41.000Z</time>
      </trkpt>
      <trkpt lat="47.30381" lon="-2.34748">
        <ele>34.799999237061</ele>
        <time>2020-02-23T08:52:47.000Z</time>
      </trkpt>
      <trkpt lat="47.30396" lon="-2.3474">
        <ele>34.799999237061</ele>
        <time>2020-02-23T08:52:53.000Z</time>
      </trkpt>
      <trkpt lat="47.3041" lon="-2.34731">
        <ele>34.799999237061</ele>
        <time>2020-02-23T08:52:59.000Z</time>
      </trkpt>
      <trkpt lat="47.30424" lon="-2.34722">
        <ele>34.799999237061</ele>
        <time>2020-02-23T08:53:04.000Z</time>
      </trkpt>
      <trkpt lat="47.30443" lon="-2.34698">
        <ele>34.799999237061</ele>
        <time>2020-02-23T08:53:10.000Z</time>
      </trkpt>
      <trkpt lat="47.30467" lon="-2.3468">
        <ele>34.799999237061</ele>
        <time>2020-02-23T08:53:16.000Z</time>
      </trkpt>
      <trkpt lat="47.30484" lon="-2.34664">
        <ele>34.799999237061</ele>
        <time>2020-02-23T08:53:22.000Z</time>
      </trkpt>
      <trkpt lat="47.30493" lon="-2.3465">
        <ele>34.799999237061</ele>
        <time>2020-02-23T08:53:27.000Z</time>
      </trkpt>
      <trkpt lat="47.30507" lon="-2.34625">
        <ele>34.799999237061</ele>
        <time>2020-02-23T08:53:33.000Z</time>
      </trkpt>
      <trkpt lat="47.3052" lon="-2.34608">
        <ele>34.799999237061</ele>
        <time>2020-02-23T08:53:38.000Z</time>
      </trkpt>
      <trkpt lat="47.30541" lon="-2.34582">
        <ele>34.799999237061</ele>
        <time>2020-02-23T08:53:45.000Z</time>
      </trkpt>
      <trkpt lat="47.30552" lon="-2.34562">
        <ele>34.799999237061</ele>
        <time>2020-02-23T08:53:51.000Z</time>
      </trkpt>
      <trkpt lat="47.30561" lon="-2.3455">
        <ele>34.799999237061</ele>
        <time>2020-02-23T08:53:56.000Z</time>
      </trkpt>
      <trkpt lat="47.30564" lon="-2.34536">
        <ele>34.799999237061</ele>
        <time>2020-02-23T08:54:02.000Z</time>
      </trkpt>
      <trkpt lat="47.30556" lon="-2.34521">
        <ele>34.799999237061</ele>
        <time>2020-02-23T08:54:09.000Z</time>
      </trkpt>
      <trkpt lat="47.30548" lon="-2.34505">
        <ele>34.799999237061</ele>
        <time>2020-02-23T08:54:14.000Z</time>
      </trkpt>
      <trkpt lat="47.3054" lon="-2.34496">
        <ele>35.200000762939</ele>
        <time>2020-02-23T08:54:18.000Z</time>
      </trkpt>
      <trkpt lat="47.30538" lon="-2.34493">
        <ele>35.599998474121</ele>
        <time>2020-02-23T08:54:19.000Z</time>
      </trkpt>
      <trkpt lat="47.30535" lon="-2.34489">
        <ele>36</ele>
        <time>2020-02-23T08:54:20.000Z</time>
      </trkpt>
      <trkpt lat="47.30531" lon="-2.34488">
        <ele>36.400001525879</ele>
        <time>2020-02-23T08:54:21.000Z</time>
      </trkpt>
      <trkpt lat="47.30527" lon="-2.34485">
        <ele>36.799999237061</ele>
        <time>2020-02-23T08:54:22.000Z</time>
      </trkpt>
      <trkpt lat="47.30521" lon="-2.34482">
        <ele>36.799999237061</ele>
        <time>2020-02-23T08:54:24.000Z</time>
      </trkpt>
      <trkpt lat="47.3051" lon="-2.34467">
        <ele>36.799999237061</ele>
        <time>2020-02-23T08:54:29.000Z</time>
      </trkpt>
      <trkpt lat="47.30509" lon="-2.34462">
        <ele>36.799999237061</ele>
        <time>2020-02-23T08:54:30.000Z</time>
      </trkpt>
      <trkpt lat="47.30507" lon="-2.34449">
        <ele>36.799999237061</ele>
        <time>2020-02-23T08:54:33.000Z</time>
      </trkpt>
      <trkpt lat="47.30504" lon="-2.34439">
        <ele>36.799999237061</ele>
        <time>2020-02-23T08:54:36.000Z</time>
      </trkpt>
      <trkpt lat="47.30505" lon="-2.34417">
        <ele>36.799999237061</ele>
        <time>2020-02-23T08:54:41.000Z</time>
      </trkpt>
      <trkpt lat="47.30511" lon="-2.34396">
        <ele>36.799999237061</ele>
        <time>2020-02-23T08:54:45.000Z</time>
      </trkpt>
      <trkpt lat="47.30515" lon="-2.34351">
        <ele>36.799999237061</ele>
        <time>2020-02-23T08:54:53.000Z</time>
      </trkpt>
      <trkpt lat="47.30511" lon="-2.34321">
        <ele>36.799999237061</ele>
        <time>2020-02-23T08:54:59.000Z</time>
      </trkpt>
      <trkpt lat="47.30501" lon="-2.34301">
        <ele>36.799999237061</ele>
        <time>2020-02-23T08:55:04.000Z</time>
      </trkpt>
      <trkpt lat="47.30489" lon="-2.34266">
        <ele>36.799999237061</ele>
        <time>2020-02-23T08:55:12.000Z</time>
      </trkpt>
      <trkpt lat="47.3049" lon="-2.34256">
        <ele>36.799999237061</ele>
        <time>2020-02-23T08:55:14.000Z</time>
      </trkpt>
      <trkpt lat="47.30494" lon="-2.34248">
        <ele>36.799999237061</ele>
        <time>2020-02-23T08:55:16.000Z</time>
      </trkpt>
      <trkpt lat="47.30497" lon="-2.34238">
        <ele>36.400001525879</ele>
        <time>2020-02-23T08:55:18.000Z</time>
      </trkpt>
      <trkpt lat="47.30499" lon="-2.34233">
        <ele>36</ele>
        <time>2020-02-23T08:55:19.000Z</time>
      </trkpt>
      <trkpt lat="47.305" lon="-2.34228">
        <ele>35.599998474121</ele>
        <time>2020-02-23T08:55:20.000Z</time>
      </trkpt>
      <trkpt lat="47.30503" lon="-2.34222">
        <ele>35.200000762939</ele>
        <time>2020-02-23T08:55:21.000Z</time>
      </trkpt>
      <trkpt lat="47.30505" lon="-2.34216">
        <ele>34.799999237061</ele>
        <time>2020-02-23T08:55:22.000Z</time>
      </trkpt>
      <trkpt lat="47.30519" lon="-2.34185">
        <ele>34.799999237061</ele>
        <time>2020-02-23T08:55:28.000Z</time>
      </trkpt>
      <trkpt lat="47.30527" lon="-2.34182">
        <ele>34.799999237061</ele>
        <time>2020-02-23T08:55:30.000Z</time>
      </trkpt>
      <trkpt lat="47.30534" lon="-2.34179">
        <ele>34.799999237061</ele>
        <time>2020-02-23T08:55:32.000Z</time>
      </trkpt>
      <trkpt lat="47.30545" lon="-2.3417">
        <ele>34.799999237061</ele>
        <time>2020-02-23T08:55:35.000Z</time>
      </trkpt>
      <trkpt lat="47.3055" lon="-2.34164">
        <ele>34.799999237061</ele>
        <time>2020-02-23T08:55:37.000Z</time>
      </trkpt>
      <trkpt lat="47.30566" lon="-2.34144">
        <ele>34.799999237061</ele>
        <time>2020-02-23T08:55:42.000Z</time>
      </trkpt>
      <trkpt lat="47.30579" lon="-2.34133">
        <ele>34.799999237061</ele>
        <time>2020-02-23T08:55:47.000Z</time>
      </trkpt>
      <trkpt lat="47.3059" lon="-2.34118">
        <ele>34.400001525879</ele>
        <time>2020-02-23T08:55:52.000Z</time>
      </trkpt>
      <trkpt lat="47.30592" lon="-2.34115">
        <ele>34</ele>
        <time>2020-02-23T08:55:53.000Z</time>
      </trkpt>
      <trkpt lat="47.30593" lon="-2.34112">
        <ele>33.599998474121</ele>
        <time>2020-02-23T08:55:54.000Z</time>
      </trkpt>
      <trkpt lat="47.30594" lon="-2.34107">
        <ele>33.200000762939</ele>
        <time>2020-02-23T08:55:55.000Z</time>
      </trkpt>
      <trkpt lat="47.30596" lon="-2.34103">
        <ele>32.799999237061</ele>
        <time>2020-02-23T08:55:56.000Z</time>
      </trkpt>
      <trkpt lat="47.30599" lon="-2.34093">
        <ele>32.799999237061</ele>
        <time>2020-02-23T08:55:59.000Z</time>
      </trkpt>
      <trkpt lat="47.30614" lon="-2.34075">
        <ele>32.799999237061</ele>
        <time>2020-02-23T08:56:06.000Z</time>
      </trkpt>
      <trkpt lat="47.30621" lon="-2.34068">
        <ele>32.799999237061</ele>
        <time>2020-02-23T08:56:11.000Z</time>
      </trkpt>
      <trkpt lat="47.30631" lon="-2.34061">
        <ele>32.799999237061</ele>
        <time>2020-02-23T08:56:18.000Z</time>
      </trkpt>
      <trkpt lat="47.30647" lon="-2.34054">
        <ele>32.799999237061</ele>
        <time>2020-02-23T08:56:24.000Z</time>
      </trkpt>
      <trkpt lat="47.30657" lon="-2.34048">
        <ele>32.799999237061</ele>
        <time>2020-02-23T08:56:29.000Z</time>
      </trkpt>
      <trkpt lat="47.30662" lon="-2.34043">
        <ele>32.799999237061</ele>
        <time>2020-02-23T08:56:34.000Z</time>
      </trkpt>
      <trkpt lat="47.30672" lon="-2.34032">
        <ele>32.799999237061</ele>
        <time>2020-02-23T08:56:41.000Z</time>
      </trkpt>
      <trkpt lat="47.3068" lon="-2.34025">
        <ele>32.799999237061</ele>
        <time>2020-02-23T08:56:47.000Z</time>
      </trkpt>
      <trkpt lat="47.30691" lon="-2.34022">
        <ele>32.799999237061</ele>
        <time>2020-02-23T08:56:53.000Z</time>
      </trkpt>
      <trkpt lat="47.307" lon="-2.34021">
        <ele>32.799999237061</ele>
        <time>2020-02-23T08:56:58.000Z</time>
      </trkpt>
      <trkpt lat="47.30711" lon="-2.34019">
        <ele>32.799999237061</ele>
        <time>2020-02-23T08:57:04.000Z</time>
      </trkpt>
      <trkpt lat="47.30714" lon="-2.34019">
        <ele>32.799999237061</ele>
        <time>2020-02-23T08:57:07.000Z</time>
      </trkpt>
      <trkpt lat="47.30717" lon="-2.34016">
        <ele>32.799999237061</ele>
        <time>2020-02-23T08:57:09.000Z</time>
      </trkpt>
      <trkpt lat="47.30718" lon="-2.34005">
        <ele>32.799999237061</ele>
        <time>2020-02-23T08:57:13.000Z</time>
      </trkpt>
      <trkpt lat="47.30722" lon="-2.33989">
        <ele>32.799999237061</ele>
        <time>2020-02-23T08:57:18.000Z</time>
      </trkpt>
      <trkpt lat="47.30737" lon="-2.33981">
        <ele>32.799999237061</ele>
        <time>2020-02-23T08:57:23.000Z</time>
      </trkpt>
      <trkpt lat="47.30762" lon="-2.33974">
        <ele>32.799999237061</ele>
        <time>2020-02-23T08:57:31.000Z</time>
      </trkpt>
      <trkpt lat="47.30788" lon="-2.33969">
        <ele>32.799999237061</ele>
        <time>2020-02-23T08:57:39.000Z</time>
      </trkpt>
      <trkpt lat="47.30807" lon="-2.33959">
        <ele>32.799999237061</ele>
        <time>2020-02-23T08:57:46.000Z</time>
      </trkpt>
      <trkpt lat="47.30826" lon="-2.33955">
        <ele>32.799999237061</ele>
        <time>2020-02-23T08:57:53.000Z</time>
      </trkpt>
      <trkpt lat="47.30848" lon="-2.33949">
        <ele>32.799999237061</ele>
        <time>2020-02-23T08:58:01.000Z</time>
      </trkpt>
      <trkpt lat="47.3087" lon="-2.33947">
        <ele>32.799999237061</ele>
        <time>2020-02-23T08:58:08.000Z</time>
      </trkpt>
      <trkpt lat="47.30892" lon="-2.33945">
        <ele>32.799999237061</ele>
        <time>2020-02-23T08:58:16.000Z</time>
      </trkpt>
      <trkpt lat="47.30916" lon="-2.33944">
        <ele>32.799999237061</ele>
        <time>2020-02-23T08:58:24.000Z</time>
      </trkpt>
      <trkpt lat="47.30939" lon="-2.33946">
        <ele>32.799999237061</ele>
        <time>2020-02-23T08:58:32.000Z</time>
      </trkpt>
      <trkpt lat="47.30965" lon="-2.33953">
        <ele>32.799999237061</ele>
        <time>2020-02-23T08:58:40.000Z</time>
      </trkpt>
      <trkpt lat="47.30995" lon="-2.33952">
        <ele>32.799999237061</ele>
        <time>2020-02-23T08:58:49.000Z</time>
      </trkpt>
      <trkpt lat="47.31014" lon="-2.33949">
        <ele>32.799999237061</ele>
        <time>2020-02-23T08:58:55.000Z</time>
      </trkpt>
      <trkpt lat="47.31047" lon="-2.33944">
        <ele>32.799999237061</ele>
        <time>2020-02-23T08:59:03.000Z</time>
      </trkpt>
      <trkpt lat="47.31063" lon="-2.33937">
        <ele>32.799999237061</ele>
        <time>2020-02-23T08:59:08.000Z</time>
      </trkpt>
      <trkpt lat="47.31066" lon="-2.33924">
        <ele>32.799999237061</ele>
        <time>2020-02-23T08:59:11.000Z</time>
      </trkpt>
      <trkpt lat="47.31064" lon="-2.33886">
        <ele>32.799999237061</ele>
        <time>2020-02-23T08:59:18.000Z</time>
      </trkpt>
      <trkpt lat="47.31066" lon="-2.33843">
        <ele>32.799999237061</ele>
        <time>2020-02-23T08:59:26.000Z</time>
      </trkpt>
      <trkpt lat="47.31069" lon="-2.33803">
        <ele>32.799999237061</ele>
        <time>2020-02-23T08:59:33.000Z</time>
      </trkpt>
      <trkpt lat="47.31071" lon="-2.33798">
        <ele>32.799999237061</ele>
        <time>2020-02-23T08:59:34.000Z</time>
      </trkpt>
      <trkpt lat="47.31087" lon="-2.33762">
        <ele>32.799999237061</ele>
        <time>2020-02-23T08:59:41.000Z</time>
      </trkpt>
      <trkpt lat="47.31093" lon="-2.33741">
        <ele>32.400001525879</ele>
        <time>2020-02-23T08:59:45.000Z</time>
      </trkpt>
      <trkpt lat="47.31094" lon="-2.33735">
        <ele>32</ele>
        <time>2020-02-23T08:59:46.000Z</time>
      </trkpt>
      <trkpt lat="47.31095" lon="-2.33729">
        <ele>31.60000038147</ele>
        <time>2020-02-23T08:59:47.000Z</time>
      </trkpt>
      <trkpt lat="47.31095" lon="-2.33723">
        <ele>31.200000762939</ele>
        <time>2020-02-23T08:59:48.000Z</time>
      </trkpt>
      <trkpt lat="47.31096" lon="-2.33717">
        <ele>30.799999237061</ele>
        <time>2020-02-23T08:59:49.000Z</time>
      </trkpt>
      <trkpt lat="47.31101" lon="-2.33683">
        <ele>30.799999237061</ele>
        <time>2020-02-23T08:59:55.000Z</time>
      </trkpt>
      <trkpt lat="47.31105" lon="-2.33651">
        <ele>30.799999237061</ele>
        <time>2020-02-23T09:00:01.000Z</time>
      </trkpt>
      <trkpt lat="47.31112" lon="-2.33613">
        <ele>30.799999237061</ele>
        <time>2020-02-23T09:00:08.000Z</time>
      </trkpt>
      <trkpt lat="47.31113" lon="-2.33579">
        <ele>30.799999237061</ele>
        <time>2020-02-23T09:00:14.000Z</time>
      </trkpt>
      <trkpt lat="47.3111" lon="-2.33549">
        <ele>30.799999237061</ele>
        <time>2020-02-23T09:00:20.000Z</time>
      </trkpt>
      <trkpt lat="47.31106" lon="-2.33532">
        <ele>30.799999237061</ele>
        <time>2020-02-23T09:00:23.000Z</time>
      </trkpt>
      <trkpt lat="47.31103" lon="-2.3352">
        <ele>30.799999237061</ele>
        <time>2020-02-23T09:00:25.000Z</time>
      </trkpt>
      <trkpt lat="47.31096" lon="-2.33479">
        <ele>30.799999237061</ele>
        <time>2020-02-23T09:00:31.000Z</time>
      </trkpt>
      <trkpt lat="47.31094" lon="-2.3342">
        <ele>30.799999237061</ele>
        <time>2020-02-23T09:00:39.000Z</time>
      </trkpt>
      <trkpt lat="47.31094" lon="-2.33375">
        <ele>30.39999961853</ele>
        <time>2020-02-23T09:00:46.000Z</time>
      </trkpt>
      <trkpt lat="47.31094" lon="-2.33369">
        <ele>29.799999237061</ele>
        <time>2020-02-23T09:00:47.000Z</time>
      </trkpt>
      <trkpt lat="47.31094" lon="-2.33362">
        <ele>29.39999961853</ele>
        <time>2020-02-23T09:00:48.000Z</time>
      </trkpt>
      <trkpt lat="47.31094" lon="-2.33356">
        <ele>28.60000038147</ele>
        <time>2020-02-23T09:00:49.000Z</time>
      </trkpt>
      <trkpt lat="47.31096" lon="-2.33328">
        <ele>28.60000038147</ele>
        <time>2020-02-23T09:00:53.000Z</time>
      </trkpt>
      <trkpt lat="47.31099" lon="-2.33269">
        <ele>28.60000038147</ele>
        <time>2020-02-23T09:01:01.000Z</time>
      </trkpt>
      <trkpt lat="47.311" lon="-2.33248">
        <ele>28.60000038147</ele>
        <time>2020-02-23T09:01:04.000Z</time>
      </trkpt>
      <trkpt lat="47.31102" lon="-2.33226">
        <ele>28.60000038147</ele>
        <time>2020-02-23T09:01:07.000Z</time>
      </trkpt>
      <trkpt lat="47.31105" lon="-2.33212">
        <ele>28.60000038147</ele>
        <time>2020-02-23T09:01:09.000Z</time>
      </trkpt>
      <trkpt lat="47.31111" lon="-2.33203">
        <ele>28.60000038147</ele>
        <time>2020-02-23T09:01:11.000Z</time>
      </trkpt>
      <trkpt lat="47.31114" lon="-2.332">
        <ele>28.200000762939</ele>
        <time>2020-02-23T09:01:12.000Z</time>
      </trkpt>
      <trkpt lat="47.31118" lon="-2.33198">
        <ele>27.39999961853</ele>
        <time>2020-02-23T09:01:13.000Z</time>
      </trkpt>
      <trkpt lat="47.31122" lon="-2.33196">
        <ele>27</ele>
        <time>2020-02-23T09:01:14.000Z</time>
      </trkpt>
      <trkpt lat="47.31126" lon="-2.33194">
        <ele>26.60000038147</ele>
        <time>2020-02-23T09:01:15.000Z</time>
      </trkpt>
      <trkpt lat="47.31161" lon="-2.33177">
        <ele>26.60000038147</ele>
        <time>2020-02-23T09:01:23.000Z</time>
      </trkpt>
      <trkpt lat="47.31183" lon="-2.33161">
        <ele>26.60000038147</ele>
        <time>2020-02-23T09:01:29.000Z</time>
      </trkpt>
      <trkpt lat="47.31213" lon="-2.3315">
        <ele>26.60000038147</ele>
        <time>2020-02-23T09:01:35.000Z</time>
      </trkpt>
      <trkpt lat="47.3124" lon="-2.33149">
        <ele>26.60000038147</ele>
        <time>2020-02-23T09:01:41.000Z</time>
      </trkpt>
      <trkpt lat="47.31267" lon="-2.33155">
        <ele>26.60000038147</ele>
        <time>2020-02-23T09:01:48.000Z</time>
      </trkpt>
      <trkpt lat="47.31289" lon="-2.33169">
        <ele>26.60000038147</ele>
        <time>2020-02-23T09:01:54.000Z</time>
      </trkpt>
      <trkpt lat="47.31313" lon="-2.33189">
        <ele>26.60000038147</ele>
        <time>2020-02-23T09:02:01.000Z</time>
      </trkpt>
      <trkpt lat="47.3134" lon="-2.33216">
        <ele>26.60000038147</ele>
        <time>2020-02-23T09:02:09.000Z</time>
      </trkpt>
      <trkpt lat="47.31366" lon="-2.33234">
        <ele>26.60000038147</ele>
        <time>2020-02-23T09:02:16.000Z</time>
      </trkpt>
      <trkpt lat="47.31388" lon="-2.33249">
        <ele>26.60000038147</ele>
        <time>2020-02-23T09:02:22.000Z</time>
      </trkpt>
      <trkpt lat="47.31415" lon="-2.33268">
        <ele>26.60000038147</ele>
        <time>2020-02-23T09:02:29.000Z</time>
      </trkpt>
      <trkpt lat="47.3144" lon="-2.33295">
        <ele>26.60000038147</ele>
        <time>2020-02-23T09:02:37.000Z</time>
      </trkpt>
      <trkpt lat="47.31456" lon="-2.33322">
        <ele>26.60000038147</ele>
        <time>2020-02-23T09:02:43.000Z</time>
      </trkpt>
      <trkpt lat="47.31475" lon="-2.33362">
        <ele>26.60000038147</ele>
        <time>2020-02-23T09:02:51.000Z</time>
      </trkpt>
      <trkpt lat="47.31478" lon="-2.33366">
        <ele>27.39999961853</ele>
        <time>2020-02-23T09:02:52.000Z</time>
      </trkpt>
      <trkpt lat="47.31481" lon="-2.33369">
        <ele>27.799999237061</ele>
        <time>2020-02-23T09:02:53.000Z</time>
      </trkpt>
      <trkpt lat="47.31486" lon="-2.3337">
        <ele>28.200000762939</ele>
        <time>2020-02-23T09:02:54.000Z</time>
      </trkpt>
      <trkpt lat="47.31491" lon="-2.33368">
        <ele>28.60000038147</ele>
        <time>2020-02-23T09:02:55.000Z</time>
      </trkpt>
      <trkpt lat="47.31503" lon="-2.33359">
        <ele>28.60000038147</ele>
        <time>2020-02-23T09:02:58.000Z</time>
      </trkpt>
      <trkpt lat="47.31508" lon="-2.33357">
        <ele>28.60000038147</ele>
        <time>2020-02-23T09:02:59.000Z</time>
      </trkpt>
      <trkpt lat="47.31542" lon="-2.33337">
        <ele>28.60000038147</ele>
        <time>2020-02-23T09:03:07.000Z</time>
      </trkpt>
      <trkpt lat="47.31579" lon="-2.33322">
        <ele>28.60000038147</ele>
        <time>2020-02-23T09:03:15.000Z</time>
      </trkpt>
      <trkpt lat="47.31607" lon="-2.33305">
        <ele>28.60000038147</ele>
        <time>2020-02-23T09:03:22.000Z</time>
      </trkpt>
      <trkpt lat="47.31624" lon="-2.33297">
        <ele>28.60000038147</ele>
        <time>2020-02-23T09:03:26.000Z</time>
      </trkpt>
      <trkpt lat="47.31635" lon="-2.3329">
        <ele>28.60000038147</ele>
        <time>2020-02-23T09:03:29.000Z</time>
      </trkpt>
      <trkpt lat="47.31664" lon="-2.33276">
        <ele>28.60000038147</ele>
        <time>2020-02-23T09:03:35.000Z</time>
      </trkpt>
      <trkpt lat="47.31685" lon="-2.33267">
        <ele>28.60000038147</ele>
        <time>2020-02-23T09:03:41.000Z</time>
      </trkpt>
      <trkpt lat="47.31703" lon="-2.33257">
        <ele>28.200000762939</ele>
        <time>2020-02-23T09:03:47.000Z</time>
      </trkpt>
      <trkpt lat="47.31705" lon="-2.33256">
        <ele>27.799999237061</ele>
        <time>2020-02-23T09:03:48.000Z</time>
      </trkpt>
      <trkpt lat="47.31705" lon="-2.33256">
        <ele>27.39999961853</ele>
        <time>2020-02-23T09:03:49.000Z</time>
      </trkpt>
      <trkpt lat="47.31705" lon="-2.33255">
        <ele>27</ele>
        <time>2020-02-23T09:03:50.000Z</time>
      </trkpt>
      <trkpt lat="47.31708" lon="-2.33255">
        <ele>26.60000038147</ele>
        <time>2020-02-23T09:03:51.000Z</time>
      </trkpt>
      <trkpt lat="47.3171" lon="-2.33254">
        <ele>26.60000038147</ele>
        <time>2020-02-23T09:03:52.000Z</time>
      </trkpt>
      <trkpt lat="47.31714" lon="-2.33253">
        <ele>26.200000762939</ele>
        <time>2020-02-23T09:03:54.000Z</time>
      </trkpt>
      <trkpt lat="47.31716" lon="-2.33253">
        <ele>25.799999237061</ele>
        <time>2020-02-23T09:03:55.000Z</time>
      </trkpt>
      <trkpt lat="47.31718" lon="-2.33253">
        <ele>25.39999961853</ele>
        <time>2020-02-23T09:03:56.000Z</time>
      </trkpt>
      <trkpt lat="47.3172" lon="-2.33252">
        <ele>25</ele>
        <time>2020-02-23T09:03:57.000Z</time>
      </trkpt>
      <trkpt lat="47.31722" lon="-2.33252">
        <ele>24.60000038147</ele>
        <time>2020-02-23T09:03:58.000Z</time>
      </trkpt>
      <trkpt lat="47.31738" lon="-2.3325">
        <ele>24.60000038147</ele>
        <time>2020-02-23T09:04:04.000Z</time>
      </trkpt>
      <trkpt lat="47.31742" lon="-2.33257">
        <ele>24.60000038147</ele>
        <time>2020-02-23T09:04:06.000Z</time>
      </trkpt>
      <trkpt lat="47.31745" lon="-2.33265">
        <ele>24.60000038147</ele>
        <time>2020-02-23T09:04:08.000Z</time>
      </trkpt>
      <trkpt lat="47.31752" lon="-2.33294">
        <ele>24.60000038147</ele>
        <time>2020-02-23T09:04:14.000Z</time>
      </trkpt>
      <trkpt lat="47.31763" lon="-2.33322">
        <ele>24.60000038147</ele>
        <time>2020-02-23T09:04:20.000Z</time>
      </trkpt>
      <trkpt lat="47.31766" lon="-2.33326">
        <ele>24.200000762939</ele>
        <time>2020-02-23T09:04:21.000Z</time>
      </trkpt>
      <trkpt lat="47.31767" lon="-2.33329">
        <ele>23.60000038147</ele>
        <time>2020-02-23T09:04:22.000Z</time>
      </trkpt>
      <trkpt lat="47.31769" lon="-2.3333">
        <ele>23.200000762939</ele>
        <time>2020-02-23T09:04:23.000Z</time>
      </trkpt>
      <trkpt lat="47.31771" lon="-2.33331">
        <ele>22.799999237061</ele>
        <time>2020-02-23T09:04:24.000Z</time>
      </trkpt>
      <trkpt lat="47.31772" lon="-2.33331">
        <ele>22.39999961853</ele>
        <time>2020-02-23T09:04:25.000Z</time>
      </trkpt>
      <trkpt lat="47.31774" lon="-2.3333">
        <ele>22.39999961853</ele>
        <time>2020-02-23T09:04:26.000Z</time>
      </trkpt>
      <trkpt lat="47.3178" lon="-2.33326">
        <ele>22.39999961853</ele>
        <time>2020-02-23T09:04:29.000Z</time>
      </trkpt>
      <trkpt lat="47.31784" lon="-2.33324">
        <ele>21.60000038147</ele>
        <time>2020-02-23T09:04:31.000Z</time>
      </trkpt>
      <trkpt lat="47.31787" lon="-2.33322">
        <ele>21.200000762939</ele>
        <time>2020-02-23T09:04:32.000Z</time>
      </trkpt>
      <trkpt lat="47.31791" lon="-2.3332">
        <ele>20.799999237061</ele>
        <time>2020-02-23T09:04:33.000Z</time>
      </trkpt>
      <trkpt lat="47.31794" lon="-2.33317">
        <ele>20.39999961853</ele>
        <time>2020-02-23T09:04:34.000Z</time>
      </trkpt>
      <trkpt lat="47.31805" lon="-2.33307">
        <ele>20</ele>
        <time>2020-02-23T09:04:38.000Z</time>
      </trkpt>
      <trkpt lat="47.31807" lon="-2.33304">
        <ele>19.39999961853</ele>
        <time>2020-02-23T09:04:39.000Z</time>
      </trkpt>
      <trkpt lat="47.31811" lon="-2.33301">
        <ele>19</ele>
        <time>2020-02-23T09:04:40.000Z</time>
      </trkpt>
      <trkpt lat="47.31814" lon="-2.33299">
        <ele>18.60000038147</ele>
        <time>2020-02-23T09:04:41.000Z</time>
      </trkpt>
      <trkpt lat="47.31818" lon="-2.33296">
        <ele>18.200000762939</ele>
        <time>2020-02-23T09:04:42.000Z</time>
      </trkpt>
      <trkpt lat="47.31827" lon="-2.3329">
        <ele>18.200000762939</ele>
        <time>2020-02-23T09:04:46.000Z</time>
      </trkpt>
      <trkpt lat="47.31829" lon="-2.33287">
        <ele>17.799999237061</ele>
        <time>2020-02-23T09:04:47.000Z</time>
      </trkpt>
      <trkpt lat="47.31831" lon="-2.33284">
        <ele>17.39999961853</ele>
        <time>2020-02-23T09:04:48.000Z</time>
      </trkpt>
      <trkpt lat="47.31833" lon="-2.33282">
        <ele>17</ele>
        <time>2020-02-23T09:04:49.000Z</time>
      </trkpt>
      <trkpt lat="47.31834" lon="-2.33279">
        <ele>16.60000038147</ele>
        <time>2020-02-23T09:04:50.000Z</time>
      </trkpt>
      <trkpt lat="47.31835" lon="-2.33278">
        <ele>16</ele>
        <time>2020-02-23T09:04:51.000Z</time>
      </trkpt>
      <trkpt lat="47.31837" lon="-2.33276">
        <ele>16</ele>
        <time>2020-02-23T09:04:53.000Z</time>
      </trkpt>
      <trkpt lat="47.31845" lon="-2.33264">
        <ele>16</ele>
        <time>2020-02-23T09:05:00.000Z</time>
      </trkpt>
      <trkpt lat="47.31853" lon="-2.3325">
        <ele>16</ele>
        <time>2020-02-23T09:05:07.000Z</time>
      </trkpt>
      <trkpt lat="47.31858" lon="-2.33229">
        <ele>16</ele>
        <time>2020-02-23T09:05:11.000Z</time>
      </trkpt>
      <trkpt lat="47.31863" lon="-2.332">
        <ele>16</ele>
        <time>2020-02-23T09:05:17.000Z</time>
      </trkpt>
      <trkpt lat="47.31865" lon="-2.33184">
        <ele>15.60000038147</ele>
        <time>2020-02-23T09:05:20.000Z</time>
      </trkpt>
      <trkpt lat="47.31865" lon="-2.33181">
        <ele>15.199999809265</ele>
        <time>2020-02-23T09:05:21.000Z</time>
      </trkpt>
      <trkpt lat="47.31866" lon="-2.33177">
        <ele>14.800000190735</ele>
        <time>2020-02-23T09:05:22.000Z</time>
      </trkpt>
      <trkpt lat="47.31867" lon="-2.33172">
        <ele>14.39999961853</ele>
        <time>2020-02-23T09:05:23.000Z</time>
      </trkpt>
      <trkpt lat="47.31868" lon="-2.33166">
        <ele>14</ele>
        <time>2020-02-23T09:05:24.000Z</time>
      </trkpt>
      <trkpt lat="47.31869" lon="-2.33161">
        <ele>14</ele>
        <time>2020-02-23T09:05:25.000Z</time>
      </trkpt>
      <trkpt lat="47.31873" lon="-2.33128">
        <ele>14</ele>
        <time>2020-02-23T09:05:30.000Z</time>
      </trkpt>
      <trkpt lat="47.31874" lon="-2.33115">
        <ele>13.60000038147</ele>
        <time>2020-02-23T09:05:32.000Z</time>
      </trkpt>
      <trkpt lat="47.31875" lon="-2.33108">
        <ele>13.199999809265</ele>
        <time>2020-02-23T09:05:33.000Z</time>
      </trkpt>
      <trkpt lat="47.31877" lon="-2.33101">
        <ele>12.800000190735</ele>
        <time>2020-02-23T09:05:34.000Z</time>
      </trkpt>
      <trkpt lat="47.31878" lon="-2.33094">
        <ele>12.39999961853</ele>
        <time>2020-02-23T09:05:35.000Z</time>
      </trkpt>
      <trkpt lat="47.31878" lon="-2.33088">
        <ele>11.800000190735</ele>
        <time>2020-02-23T09:05:36.000Z</time>
      </trkpt>
      <trkpt lat="47.31878" lon="-2.33052">
        <ele>11.800000190735</ele>
        <time>2020-02-23T09:05:43.000Z</time>
      </trkpt>
      <trkpt lat="47.3188" lon="-2.33021">
        <ele>11.800000190735</ele>
        <time>2020-02-23T09:05:48.000Z</time>
      </trkpt>
      <trkpt lat="47.31878" lon="-2.33007">
        <ele>11.800000190735</ele>
        <time>2020-02-23T09:05:50.000Z</time>
      </trkpt>
      <trkpt lat="47.31877" lon="-2.32989">
        <ele>11.800000190735</ele>
        <time>2020-02-23T09:05:53.000Z</time>
      </trkpt>
      <trkpt lat="47.31881" lon="-2.32964">
        <ele>11.800000190735</ele>
        <time>2020-02-23T09:05:58.000Z</time>
      </trkpt>
      <trkpt lat="47.31883" lon="-2.32941">
        <ele>11.800000190735</ele>
        <time>2020-02-23T09:06:03.000Z</time>
      </trkpt>
      <trkpt lat="47.31883" lon="-2.32925">
        <ele>11.800000190735</ele>
        <time>2020-02-23T09:06:07.000Z</time>
      </trkpt>
      <trkpt lat="47.31884" lon="-2.32905">
        <ele>11.800000190735</ele>
        <time>2020-02-23T09:06:12.000Z</time>
      </trkpt>
      <trkpt lat="47.31885" lon="-2.32895">
        <ele>11.800000190735</ele>
        <time>2020-02-23T09:06:15.000Z</time>
      </trkpt>
      <trkpt lat="47.31887" lon="-2.32882">
        <ele>11.800000190735</ele>
        <time>2020-02-23T09:06:18.000Z</time>
      </trkpt>
      <trkpt lat="47.31894" lon="-2.32839">
        <ele>11.800000190735</ele>
        <time>2020-02-23T09:06:27.000Z</time>
      </trkpt>
      <trkpt lat="47.3189" lon="-2.32821">
        <ele>11.800000190735</ele>
        <time>2020-02-23T09:06:32.000Z</time>
      </trkpt>
      <trkpt lat="47.31884" lon="-2.32791">
        <ele>11.800000190735</ele>
        <time>2020-02-23T09:06:39.000Z</time>
      </trkpt>
      <trkpt lat="47.3188" lon="-2.32763">
        <ele>11.800000190735</ele>
        <time>2020-02-23T09:06:46.000Z</time>
      </trkpt>
      <trkpt lat="47.31871" lon="-2.32741">
        <ele>11.800000190735</ele>
        <time>2020-02-23T09:06:52.000Z</time>
      </trkpt>
      <trkpt lat="47.3186" lon="-2.32715">
        <ele>11.800000190735</ele>
        <time>2020-02-23T09:06:59.000Z</time>
      </trkpt>
      <trkpt lat="47.31851" lon="-2.32692">
        <ele>11.800000190735</ele>
        <time>2020-02-23T09:07:05.000Z</time>
      </trkpt>
      <trkpt lat="47.31849" lon="-2.32688">
        <ele>12.39999961853</ele>
        <time>2020-02-23T09:07:06.000Z</time>
      </trkpt>
      <trkpt lat="47.31846" lon="-2.32683">
        <ele>12.800000190735</ele>
        <time>2020-02-23T09:07:07.000Z</time>
      </trkpt>
      <trkpt lat="47.31844" lon="-2.32677">
        <ele>13.199999809265</ele>
        <time>2020-02-23T09:07:08.000Z</time>
      </trkpt>
      <trkpt lat="47.31842" lon="-2.32671">
        <ele>13.60000038147</ele>
        <time>2020-02-23T09:07:09.000Z</time>
      </trkpt>
      <trkpt lat="47.3184" lon="-2.32664">
        <ele>14</ele>
        <time>2020-02-23T09:07:10.000Z</time>
      </trkpt>
      <trkpt lat="47.31829" lon="-2.32621">
        <ele>14</ele>
        <time>2020-02-23T09:07:17.000Z</time>
      </trkpt>
      <trkpt lat="47.31821" lon="-2.32587">
        <ele>14</ele>
        <time>2020-02-23T09:07:23.000Z</time>
      </trkpt>
      <trkpt lat="47.31816" lon="-2.32568">
        <ele>14.39999961853</ele>
        <time>2020-02-23T09:07:27.000Z</time>
      </trkpt>
      <trkpt lat="47.31815" lon="-2.32563">
        <ele>14.800000190735</ele>
        <time>2020-02-23T09:07:28.000Z</time>
      </trkpt>
      <trkpt lat="47.31814" lon="-2.32558">
        <ele>15.39999961853</ele>
        <time>2020-02-23T09:07:29.000Z</time>
      </trkpt>
      <trkpt lat="47.31813" lon="-2.32553">
        <ele>15.800000190735</ele>
        <time>2020-02-23T09:07:30.000Z</time>
      </trkpt>
      <trkpt lat="47.31811" lon="-2.32547">
        <ele>16.200000762939</ele>
        <time>2020-02-23T09:07:31.000Z</time>
      </trkpt>
      <trkpt lat="47.31807" lon="-2.32525">
        <ele>16.200000762939</ele>
        <time>2020-02-23T09:07:36.000Z</time>
      </trkpt>
      <trkpt lat="47.318" lon="-2.32498">
        <ele>16.60000038147</ele>
        <time>2020-02-23T09:07:42.000Z</time>
      </trkpt>
      <trkpt lat="47.31798" lon="-2.32494">
        <ele>17</ele>
        <time>2020-02-23T09:07:43.000Z</time>
      </trkpt>
      <trkpt lat="47.31798" lon="-2.3249">
        <ele>17.39999961853</ele>
        <time>2020-02-23T09:07:44.000Z</time>
      </trkpt>
      <trkpt lat="47.31797" lon="-2.32486">
        <ele>17.799999237061</ele>
        <time>2020-02-23T09:07:45.000Z</time>
      </trkpt>
      <trkpt lat="47.31797" lon="-2.32482">
        <ele>18.200000762939</ele>
        <time>2020-02-23T09:07:46.000Z</time>
      </trkpt>
      <trkpt lat="47.31796" lon="-2.32475">
        <ele>18.200000762939</ele>
        <time>2020-02-23T09:07:48.000Z</time>
      </trkpt>
      <trkpt lat="47.31791" lon="-2.32462">
        <ele>18.60000038147</ele>
        <time>2020-02-23T09:07:52.000Z</time>
      </trkpt>
      <trkpt lat="47.3179" lon="-2.3246">
        <ele>19</ele>
        <time>2020-02-23T09:07:53.000Z</time>
      </trkpt>
      <trkpt lat="47.31789" lon="-2.32457">
        <ele>19.39999961853</ele>
        <time>2020-02-23T09:07:54.000Z</time>
      </trkpt>
      <trkpt lat="47.31788" lon="-2.32452">
        <ele>19.799999237061</ele>
        <time>2020-02-23T09:07:55.000Z</time>
      </trkpt>
      <trkpt lat="47.31788" lon="-2.32447">
        <ele>20.200000762939</ele>
        <time>2020-02-23T09:07:56.000Z</time>
      </trkpt>
      <trkpt lat="47.31786" lon="-2.32429">
        <ele>20.200000762939</ele>
        <time>2020-02-23T09:07:59.000Z</time>
      </trkpt>
      <trkpt lat="47.31783" lon="-2.32409">
        <ele>20.60000038147</ele>
        <time>2020-02-23T09:08:03.000Z</time>
      </trkpt>
      <trkpt lat="47.31782" lon="-2.32404">
        <ele>21</ele>
        <time>2020-02-23T09:08:04.000Z</time>
      </trkpt>
      <trkpt lat="47.31781" lon="-2.324">
        <ele>21.39999961853</ele>
        <time>2020-02-23T09:08:05.000Z</time>
      </trkpt>
      <trkpt lat="47.3178" lon="-2.32395">
        <ele>21.799999237061</ele>
        <time>2020-02-23T09:08:06.000Z</time>
      </trkpt>
      <trkpt lat="47.31779" lon="-2.3239">
        <ele>22.200000762939</ele>
        <time>2020-02-23T09:08:07.000Z</time>
      </trkpt>
      <trkpt lat="47.31775" lon="-2.3237">
        <ele>22.200000762939</ele>
        <time>2020-02-23T09:08:11.000Z</time>
      </trkpt>
      <trkpt lat="47.31765" lon="-2.32326">
        <ele>22.200000762939</ele>
        <time>2020-02-23T09:08:19.000Z</time>
      </trkpt>
      <trkpt lat="47.31762" lon="-2.32309">
        <ele>22.60000038147</ele>
        <time>2020-02-23T09:08:22.000Z</time>
      </trkpt>
      <trkpt lat="47.31761" lon="-2.32303">
        <ele>23.200000762939</ele>
        <time>2020-02-23T09:08:23.000Z</time>
      </trkpt>
      <trkpt lat="47.3176" lon="-2.32297">
        <ele>23.60000038147</ele>
        <time>2020-02-23T09:08:24.000Z</time>
      </trkpt>
      <trkpt lat="47.31759" lon="-2.32291">
        <ele>24</ele>
        <time>2020-02-23T09:08:25.000Z</time>
      </trkpt>
      <trkpt lat="47.31757" lon="-2.32286">
        <ele>24.39999961853</ele>
        <time>2020-02-23T09:08:26.000Z</time>
      </trkpt>
      <trkpt lat="47.31756" lon="-2.3228">
        <ele>24.39999961853</ele>
        <time>2020-02-23T09:08:27.000Z</time>
      </trkpt>
      <trkpt lat="47.3175" lon="-2.32246">
        <ele>24.39999961853</ele>
        <time>2020-02-23T09:08:33.000Z</time>
      </trkpt>
      <trkpt lat="47.31749" lon="-2.32237">
        <ele>24.39999961853</ele>
        <time>2020-02-23T09:08:35.000Z</time>
      </trkpt>
      <trkpt lat="47.31751" lon="-2.32232">
        <ele>24.39999961853</ele>
        <time>2020-02-23T09:08:37.000Z</time>
      </trkpt>
      <trkpt lat="47.31756" lon="-2.3223">
        <ele>24.39999961853</ele>
        <time>2020-02-23T09:08:39.000Z</time>
      </trkpt>
      <trkpt lat="47.31766" lon="-2.3223">
        <ele>24.39999961853</ele>
        <time>2020-02-23T09:08:41.000Z</time>
      </trkpt>
      <trkpt lat="47.31799" lon="-2.32227">
        <ele>24.39999961853</ele>
        <time>2020-02-23T09:08:47.000Z</time>
      </trkpt>
      <trkpt lat="47.3184" lon="-2.32221">
        <ele>24.39999961853</ele>
        <time>2020-02-23T09:08:54.000Z</time>
      </trkpt>
      <trkpt lat="47.31859" lon="-2.32214">
        <ele>24</ele>
        <time>2020-02-23T09:08:57.000Z</time>
      </trkpt>
      <trkpt lat="47.31866" lon="-2.32212">
        <ele>23.39999961853</ele>
        <time>2020-02-23T09:08:58.000Z</time>
      </trkpt>
      <trkpt lat="47.31873" lon="-2.32209">
        <ele>23</ele>
        <time>2020-02-23T09:08:59.000Z</time>
      </trkpt>
      <trkpt lat="47.31881" lon="-2.32207">
        <ele>22.60000038147</ele>
        <time>2020-02-23T09:09:00.000Z</time>
      </trkpt>
      <trkpt lat="47.31888" lon="-2.32205">
        <ele>22</ele>
        <time>2020-02-23T09:09:01.000Z</time>
      </trkpt>
      <trkpt lat="47.31894" lon="-2.32204">
        <ele>21.200000762939</ele>
        <time>2020-02-23T09:09:02.000Z</time>
      </trkpt>
      <trkpt lat="47.31901" lon="-2.32203">
        <ele>20.799999237061</ele>
        <time>2020-02-23T09:09:03.000Z</time>
      </trkpt>
      <trkpt lat="47.31908" lon="-2.32203">
        <ele>20.39999961853</ele>
        <time>2020-02-23T09:09:04.000Z</time>
      </trkpt>
      <trkpt lat="47.31915" lon="-2.32203">
        <ele>20</ele>
        <time>2020-02-23T09:09:05.000Z</time>
      </trkpt>
      <trkpt lat="47.31938" lon="-2.32208">
        <ele>19.60000038147</ele>
        <time>2020-02-23T09:09:08.000Z</time>
      </trkpt>
      <trkpt lat="47.31945" lon="-2.3221">
        <ele>19.200000762939</ele>
        <time>2020-02-23T09:09:09.000Z</time>
      </trkpt>
      <trkpt lat="47.31952" lon="-2.32212">
        <ele>18.799999237061</ele>
        <time>2020-02-23T09:09:10.000Z</time>
      </trkpt>
      <trkpt lat="47.31955" lon="-2.32216">
        <ele>18</ele>
        <time>2020-02-23T09:09:11.000Z</time>
      </trkpt>
      <trkpt lat="47.31957" lon="-2.3222">
        <ele>17.39999961853</ele>
        <time>2020-02-23T09:09:12.000Z</time>
      </trkpt>
      <trkpt lat="47.31958" lon="-2.32224">
        <ele>16.799999237061</ele>
        <time>2020-02-23T09:09:13.000Z</time>
      </trkpt>
      <trkpt lat="47.31957" lon="-2.32229">
        <ele>16</ele>
        <time>2020-02-23T09:09:14.000Z</time>
      </trkpt>
      <trkpt lat="47.31955" lon="-2.32234">
        <ele>15.39999961853</ele>
        <time>2020-02-23T09:09:15.000Z</time>
      </trkpt>
      <trkpt lat="47.31952" lon="-2.32244">
        <ele>15.39999961853</ele>
        <time>2020-02-23T09:09:17.000Z</time>
      </trkpt>
      <trkpt lat="47.31951" lon="-2.32259">
        <ele>15.39999961853</ele>
        <time>2020-02-23T09:09:20.000Z</time>
      </trkpt>
      <trkpt lat="47.31952" lon="-2.32263">
        <ele>15.39999961853</ele>
        <time>2020-02-23T09:09:21.000Z</time>
      </trkpt>
      <trkpt lat="47.31955" lon="-2.32264">
        <ele>14.800000190735</ele>
        <time>2020-02-23T09:09:22.000Z</time>
      </trkpt>
      <trkpt lat="47.31958" lon="-2.32262">
        <ele>14.39999961853</ele>
        <time>2020-02-23T09:09:23.000Z</time>
      </trkpt>
      <trkpt lat="47.31961" lon="-2.32257">
        <ele>14</ele>
        <time>2020-02-23T09:09:24.000Z</time>
      </trkpt>
      <trkpt lat="47.31963" lon="-2.32251">
        <ele>13.39999961853</ele>
        <time>2020-02-23T09:09:25.000Z</time>
      </trkpt>
      <trkpt lat="47.31966" lon="-2.32245">
        <ele>13</ele>
        <time>2020-02-23T09:09:26.000Z</time>
      </trkpt>
      <trkpt lat="47.31969" lon="-2.32239">
        <ele>12.39999961853</ele>
        <time>2020-02-23T09:09:27.000Z</time>
      </trkpt>
      <trkpt lat="47.31973" lon="-2.32232">
        <ele>11.39999961853</ele>
        <time>2020-02-23T09:09:28.000Z</time>
      </trkpt>
      <trkpt lat="47.31977" lon="-2.32225">
        <ele>10.800000190735</ele>
        <time>2020-02-23T09:09:29.000Z</time>
      </trkpt>
      <trkpt lat="47.31982" lon="-2.32219">
        <ele>10.800000190735</ele>
        <time>2020-02-23T09:09:30.000Z</time>
      </trkpt>
      <trkpt lat="47.31991" lon="-2.32207">
        <ele>10.39999961853</ele>
        <time>2020-02-23T09:09:32.000Z</time>
      </trkpt>
      <trkpt lat="47.31996" lon="-2.32202">
        <ele>10</ele>
        <time>2020-02-23T09:09:33.000Z</time>
      </trkpt>
      <trkpt lat="47.3202" lon="-2.32187">
        <ele>8.8000001907349</ele>
        <time>2020-02-23T09:09:37.000Z</time>
      </trkpt>
      <trkpt lat="47.3206" lon="-2.32183">
        <ele>8.8000001907349</ele>
        <time>2020-02-23T09:09:42.000Z</time>
      </trkpt>
      <trkpt lat="47.32098" lon="-2.3218">
        <ele>8.3999996185303</ele>
        <time>2020-02-23T09:09:47.000Z</time>
      </trkpt>
      <trkpt lat="47.32105" lon="-2.32179">
        <ele>8</ele>
        <time>2020-02-23T09:09:48.000Z</time>
      </trkpt>
      <trkpt lat="47.32112" lon="-2.32177">
        <ele>7.4000000953674</ele>
        <time>2020-02-23T09:09:49.000Z</time>
      </trkpt>
      <trkpt lat="47.3212" lon="-2.32175">
        <ele>7</ele>
        <time>2020-02-23T09:09:50.000Z</time>
      </trkpt>
      <trkpt lat="47.32126" lon="-2.32172">
        <ele>6.5999999046326</ele>
        <time>2020-02-23T09:09:51.000Z</time>
      </trkpt>
      <trkpt lat="47.32139" lon="-2.32162">
        <ele>6.5999999046326</ele>
        <time>2020-02-23T09:09:53.000Z</time>
      </trkpt>
      <trkpt lat="47.32177" lon="-2.32129">
        <ele>6.5999999046326</ele>
        <time>2020-02-23T09:10:00.000Z</time>
      </trkpt>
      <trkpt lat="47.32197" lon="-2.32116">
        <ele>6.5999999046326</ele>
        <time>2020-02-23T09:10:04.000Z</time>
      </trkpt>
      <trkpt lat="47.32207" lon="-2.32113">
        <ele>6.5999999046326</ele>
        <time>2020-02-23T09:10:06.000Z</time>
      </trkpt>
      <trkpt lat="47.32241" lon="-2.32106">
        <ele>6.5999999046326</ele>
        <time>2020-02-23T09:10:13.000Z</time>
      </trkpt>
      <trkpt lat="47.32279" lon="-2.32101">
        <ele>6.5999999046326</ele>
        <time>2020-02-23T09:10:20.000Z</time>
      </trkpt>
      <trkpt lat="47.32299" lon="-2.32098">
        <ele>6.5999999046326</ele>
        <time>2020-02-23T09:10:24.000Z</time>
      </trkpt>
      <trkpt lat="47.32313" lon="-2.32099">
        <ele>6.5999999046326</ele>
        <time>2020-02-23T09:10:27.000Z</time>
      </trkpt>
      <trkpt lat="47.32336" lon="-2.32104">
        <ele>6.5999999046326</ele>
        <time>2020-02-23T09:10:32.000Z</time>
      </trkpt>
      <trkpt lat="47.32344" lon="-2.32104">
        <ele>6.5999999046326</ele>
        <time>2020-02-23T09:10:34.000Z</time>
      </trkpt>
      <trkpt lat="47.32347" lon="-2.32104">
        <ele>6.5999999046326</ele>
        <time>2020-02-23T09:10:36.000Z</time>
      </trkpt>
      <trkpt lat="47.32348" lon="-2.32104">
        <ele>6.5999999046326</ele>
        <time>2020-02-23T09:10:39.000Z</time>
      </trkpt>
      <trkpt lat="47.32351" lon="-2.32105">
        <ele>6.5999999046326</ele>
        <time>2020-02-23T09:10:44.000Z</time>
      </trkpt>
      <trkpt lat="47.32352" lon="-2.32106">
        <ele>6.5999999046326</ele>
        <time>2020-02-23T09:10:45.000Z</time>
      </trkpt>
      <trkpt lat="47.32366" lon="-2.32107">
        <ele>6.5999999046326</ele>
        <time>2020-02-23T09:10:53.000Z</time>
      </trkpt>
      <trkpt lat="47.32378" lon="-2.32106">
        <ele>6.5999999046326</ele>
        <time>2020-02-23T09:11:00.000Z</time>
      </trkpt>
      <trkpt lat="47.3239" lon="-2.32103">
        <ele>6.5999999046326</ele>
        <time>2020-02-23T09:11:08.000Z</time>
      </trkpt>
      <trkpt lat="47.32402" lon="-2.32102">
        <ele>6.5999999046326</ele>
        <time>2020-02-23T09:11:16.000Z</time>
      </trkpt>
      <trkpt lat="47.3241" lon="-2.32103">
        <ele>6.5999999046326</ele>
        <time>2020-02-23T09:11:21.000Z</time>
      </trkpt>
      <trkpt lat="47.32412" lon="-2.32102">
        <ele>6.5999999046326</ele>
        <time>2020-02-23T09:11:22.000Z</time>
      </trkpt>
      <trkpt lat="47.32426" lon="-2.32103">
        <ele>6.5999999046326</ele>
        <time>2020-02-23T09:11:31.000Z</time>
      </trkpt>
      <trkpt lat="47.32438" lon="-2.32102">
        <ele>6.5999999046326</ele>
        <time>2020-02-23T09:11:36.000Z</time>
      </trkpt>
      <trkpt lat="47.3245" lon="-2.32102">
        <ele>6.5999999046326</ele>
        <time>2020-02-23T09:11:39.000Z</time>
      </trkpt>
      <trkpt lat="47.32459" lon="-2.32102">
        <ele>6.5999999046326</ele>
        <time>2020-02-23T09:11:41.000Z</time>
      </trkpt>
      <trkpt lat="47.32497" lon="-2.321">
        <ele>6.5999999046326</ele>
        <time>2020-02-23T09:11:49.000Z</time>
      </trkpt>
      <trkpt lat="47.32528" lon="-2.32097">
        <ele>6.5999999046326</ele>
        <time>2020-02-23T09:11:55.000Z</time>
      </trkpt>
      <trkpt lat="47.32557" lon="-2.32097">
        <ele>6.5999999046326</ele>
        <time>2020-02-23T09:12:01.000Z</time>
      </trkpt>
      <trkpt lat="47.32566" lon="-2.32096">
        <ele>6.5999999046326</ele>
        <time>2020-02-23T09:12:03.000Z</time>
      </trkpt>
      <trkpt lat="47.32584" lon="-2.32096">
        <ele>6.5999999046326</ele>
        <time>2020-02-23T09:12:08.000Z</time>
      </trkpt>
      <trkpt lat="47.32591" lon="-2.32103">
        <ele>6.5999999046326</ele>
        <time>2020-02-23T09:12:12.000Z</time>
      </trkpt>
      <trkpt lat="47.3259" lon="-2.32121">
        <ele>6.5999999046326</ele>
        <time>2020-02-23T09:12:15.000Z</time>
      </trkpt>
      <trkpt lat="47.32588" lon="-2.32128">
        <ele>6.5999999046326</ele>
        <time>2020-02-23T09:12:16.000Z</time>
      </trkpt>
      <trkpt lat="47.32575" lon="-2.32166">
        <ele>6.5999999046326</ele>
        <time>2020-02-23T09:12:21.000Z</time>
      </trkpt>
      <trkpt lat="47.32573" lon="-2.32175">
        <ele>6.1999998092651</ele>
        <time>2020-02-23T09:12:22.000Z</time>
      </trkpt>
      <trkpt lat="47.3257" lon="-2.32184">
        <ele>5.8000001907349</ele>
        <time>2020-02-23T09:12:23.000Z</time>
      </trkpt>
      <trkpt lat="47.32568" lon="-2.32192">
        <ele>5.4000000953674</ele>
        <time>2020-02-23T09:12:24.000Z</time>
      </trkpt>
      <trkpt lat="47.32565" lon="-2.32202">
        <ele>5</ele>
        <time>2020-02-23T09:12:25.000Z</time>
      </trkpt>
      <trkpt lat="47.32563" lon="-2.3221">
        <ele>4.5999999046326</ele>
        <time>2020-02-23T09:12:26.000Z</time>
      </trkpt>
      <trkpt lat="47.32555" lon="-2.32236">
        <ele>4.5999999046326</ele>
        <time>2020-02-23T09:12:29.000Z</time>
      </trkpt>
      <trkpt lat="47.32539" lon="-2.32282">
        <ele>4.5999999046326</ele>
        <time>2020-02-23T09:12:35.000Z</time>
      </trkpt>
      <trkpt lat="47.32534" lon="-2.32302">
        <ele>4.5999999046326</ele>
        <time>2020-02-23T09:12:38.000Z</time>
      </trkpt>
      <trkpt lat="47.32534" lon="-2.32313">
        <ele>4.5999999046326</ele>
        <time>2020-02-23T09:12:40.000Z</time>
      </trkpt>
      <trkpt lat="47.32545" lon="-2.32319">
        <ele>4.5999999046326</ele>
        <time>2020-02-23T09:12:43.000Z</time>
      </trkpt>
      <trkpt lat="47.32549" lon="-2.32318">
        <ele>5</ele>
        <time>2020-02-23T09:12:44.000Z</time>
      </trkpt>
      <trkpt lat="47.32555" lon="-2.32317">
        <ele>5.4000000953674</ele>
        <time>2020-02-23T09:12:45.000Z</time>
      </trkpt>
      <trkpt lat="47.32562" lon="-2.32315">
        <ele>5.8000001907349</ele>
        <time>2020-02-23T09:12:46.000Z</time>
      </trkpt>
      <trkpt lat="47.32568" lon="-2.32313">
        <ele>6.1999998092651</ele>
        <time>2020-02-23T09:12:47.000Z</time>
      </trkpt>
      <trkpt lat="47.32575" lon="-2.32312">
        <ele>6.5999999046326</ele>
        <time>2020-02-23T09:12:48.000Z</time>
      </trkpt>
      <trkpt lat="47.32608" lon="-2.32308">
        <ele>6.5999999046326</ele>
        <time>2020-02-23T09:12:53.000Z</time>
      </trkpt>
      <trkpt lat="47.32614" lon="-2.32308">
        <ele>6.5999999046326</ele>
        <time>2020-02-23T09:12:54.000Z</time>
      </trkpt>
      <trkpt lat="47.3264" lon="-2.3231">
        <ele>6.5999999046326</ele>
        <time>2020-02-23T09:12:58.000Z</time>
      </trkpt>
      <trkpt lat="47.32658" lon="-2.32312">
        <ele>6.5999999046326</ele>
        <time>2020-02-23T09:13:01.000Z</time>
      </trkpt>
      <trkpt lat="47.32673" lon="-2.32316">
        <ele>6.5999999046326</ele>
        <time>2020-02-23T09:13:03.000Z</time>
      </trkpt>
      <trkpt lat="47.32713" lon="-2.32332">
        <ele>6.5999999046326</ele>
        <time>2020-02-23T09:13:09.000Z</time>
      </trkpt>
      <trkpt lat="47.32746" lon="-2.32352">
        <ele>6.1999998092651</ele>
        <time>2020-02-23T09:13:14.000Z</time>
      </trkpt>
      <trkpt lat="47.32753" lon="-2.32357">
        <ele>5.8000001907349</ele>
        <time>2020-02-23T09:13:15.000Z</time>
      </trkpt>
      <trkpt lat="47.3276" lon="-2.32361">
        <ele>5.4000000953674</ele>
        <time>2020-02-23T09:13:16.000Z</time>
      </trkpt>
      <trkpt lat="47.32767" lon="-2.32365">
        <ele>5</ele>
        <time>2020-02-23T09:13:17.000Z</time>
      </trkpt>
      <trkpt lat="47.32775" lon="-2.32369">
        <ele>4.5999999046326</ele>
        <time>2020-02-23T09:13:18.000Z</time>
      </trkpt>
      <trkpt lat="47.32801" lon="-2.32388">
        <ele>4.5999999046326</ele>
        <time>2020-02-23T09:13:22.000Z</time>
      </trkpt>
      <trkpt lat="47.32812" lon="-2.32399">
        <ele>4.1999998092651</ele>
        <time>2020-02-23T09:13:24.000Z</time>
      </trkpt>
      <trkpt lat="47.32817" lon="-2.32405">
        <ele>3.7999999523163</ele>
        <time>2020-02-23T09:13:25.000Z</time>
      </trkpt>
      <trkpt lat="47.32823" lon="-2.3241">
        <ele>3.4000000953674</ele>
        <time>2020-02-23T09:13:26.000Z</time>
      </trkpt>
      <trkpt lat="47.32828" lon="-2.32415">
        <ele>3</ele>
        <time>2020-02-23T09:13:27.000Z</time>
      </trkpt>
      <trkpt lat="47.32834" lon="-2.32419">
        <ele>2.5999999046326</ele>
        <time>2020-02-23T09:13:28.000Z</time>
      </trkpt>
      <trkpt lat="47.32867" lon="-2.32443">
        <ele>2.5999999046326</ele>
        <time>2020-02-23T09:13:34.000Z</time>
      </trkpt>
      <trkpt lat="47.32889" lon="-2.32457">
        <ele>2.5999999046326</ele>
        <time>2020-02-23T09:13:38.000Z</time>
      </trkpt>
      <trkpt lat="47.32893" lon="-2.32462">
        <ele>2.5999999046326</ele>
        <time>2020-02-23T09:13:39.000Z</time>
      </trkpt>
      <trkpt lat="47.32903" lon="-2.32492">
        <ele>2.5999999046326</ele>
        <time>2020-02-23T09:13:43.000Z</time>
      </trkpt>
      <trkpt lat="47.3291" lon="-2.32516">
        <ele>2.5999999046326</ele>
        <time>2020-02-23T09:13:46.000Z</time>
      </trkpt>
      <trkpt lat="47.32915" lon="-2.32542">
        <ele>2.5999999046326</ele>
        <time>2020-02-23T09:13:49.000Z</time>
      </trkpt>
      <trkpt lat="47.32915" lon="-2.32551">
        <ele>2.5999999046326</ele>
        <time>2020-02-23T09:13:50.000Z</time>
      </trkpt>
      <trkpt lat="47.32916" lon="-2.32587">
        <ele>2.5999999046326</ele>
        <time>2020-02-23T09:13:54.000Z</time>
      </trkpt>
      <trkpt lat="47.32916" lon="-2.3262">
        <ele>2.5999999046326</ele>
        <time>2020-02-23T09:13:58.000Z</time>
      </trkpt>
      <trkpt lat="47.32918" lon="-2.32626">
        <ele>2.5999999046326</ele>
        <time>2020-02-23T09:13:59.000Z</time>
      </trkpt>
      <trkpt lat="47.32925" lon="-2.32636">
        <ele>2.5999999046326</ele>
        <time>2020-02-23T09:14:02.000Z</time>
      </trkpt>
      <trkpt lat="47.32944" lon="-2.3264">
        <ele>2.5999999046326</ele>
        <time>2020-02-23T09:14:06.000Z</time>
      </trkpt>
      <trkpt lat="47.32972" lon="-2.32631">
        <ele>2.5999999046326</ele>
        <time>2020-02-23T09:14:11.000Z</time>
      </trkpt>
      <trkpt lat="47.32977" lon="-2.32628">
        <ele>2.5999999046326</ele>
        <time>2020-02-23T09:14:12.000Z</time>
      </trkpt>
      <trkpt lat="47.3299" lon="-2.32624">
        <ele>2.2000000476837</ele>
        <time>2020-02-23T09:14:14.000Z</time>
      </trkpt>
      <trkpt lat="47.32996" lon="-2.32624">
        <ele>1.7999999523163</ele>
        <time>2020-02-23T09:14:15.000Z</time>
      </trkpt>
      <trkpt lat="47.33002" lon="-2.32626">
        <ele>1.3999999761581</ele>
        <time>2020-02-23T09:14:16.000Z</time>
      </trkpt>
      <trkpt lat="47.33008" lon="-2.32629">
        <ele>0.80000001192093</ele>
        <time>2020-02-23T09:14:17.000Z</time>
      </trkpt>
      <trkpt lat="47.33013" lon="-2.32632">
        <ele>0.40000000596046</ele>
        <time>2020-02-23T09:14:18.000Z</time>
      </trkpt>
      <trkpt lat="47.33019" lon="-2.32634">
        <ele>0.40000000596046</ele>
        <time>2020-02-23T09:14:19.000Z</time>
      </trkpt>
      <trkpt lat="47.33035" lon="-2.32629">
        <ele>0.40000000596046</ele>
        <time>2020-02-23T09:14:22.000Z</time>
      </trkpt>
      <trkpt lat="47.33045" lon="-2.3262">
        <ele>0.40000000596046</ele>
        <time>2020-02-23T09:14:24.000Z</time>
      </trkpt>
      <trkpt lat="47.33065" lon="-2.32604">
        <ele>0.40000000596046</ele>
        <time>2020-02-23T09:14:28.000Z</time>
      </trkpt>
      <trkpt lat="47.33095" lon="-2.3258">
        <ele>0.80000001192093</ele>
        <time>2020-02-23T09:14:34.000Z</time>
      </trkpt>
      <trkpt lat="47.331" lon="-2.32574">
        <ele>1.3999999761581</ele>
        <time>2020-02-23T09:14:35.000Z</time>
      </trkpt>
      <trkpt lat="47.33106" lon="-2.32569">
        <ele>1.7999999523163</ele>
        <time>2020-02-23T09:14:36.000Z</time>
      </trkpt>
      <trkpt lat="47.33111" lon="-2.32565">
        <ele>2.2000000476837</ele>
        <time>2020-02-23T09:14:37.000Z</time>
      </trkpt>
      <trkpt lat="47.33117" lon="-2.3256">
        <ele>2.5999999046326</ele>
        <time>2020-02-23T09:14:38.000Z</time>
      </trkpt>
      <trkpt lat="47.33128" lon="-2.32552">
        <ele>2.5999999046326</ele>
        <time>2020-02-23T09:14:40.000Z</time>
      </trkpt>
      <trkpt lat="47.33162" lon="-2.32526">
        <ele>2.5999999046326</ele>
        <time>2020-02-23T09:14:46.000Z</time>
      </trkpt>
      <trkpt lat="47.33173" lon="-2.32521">
        <ele>2.5999999046326</ele>
        <time>2020-02-23T09:14:48.000Z</time>
      </trkpt>
      <trkpt lat="47.33191" lon="-2.32513">
        <ele>2.5999999046326</ele>
        <time>2020-02-23T09:14:51.000Z</time>
      </trkpt>
      <trkpt lat="47.33215" lon="-2.32505">
        <ele>3</ele>
        <time>2020-02-23T09:14:55.000Z</time>
      </trkpt>
      <trkpt lat="47.33221" lon="-2.32502">
        <ele>3.4000000953674</ele>
        <time>2020-02-23T09:14:56.000Z</time>
      </trkpt>
      <trkpt lat="47.33227" lon="-2.32499">
        <ele>3.7999999523163</ele>
        <time>2020-02-23T09:14:57.000Z</time>
      </trkpt>
      <trkpt lat="47.33233" lon="-2.32497">
        <ele>4.1999998092651</ele>
        <time>2020-02-23T09:14:58.000Z</time>
      </trkpt>
      <trkpt lat="47.33239" lon="-2.32495">
        <ele>4.5999999046326</ele>
        <time>2020-02-23T09:14:59.000Z</time>
      </trkpt>
      <trkpt lat="47.33262" lon="-2.32483">
        <ele>4.5999999046326</ele>
        <time>2020-02-23T09:15:03.000Z</time>
      </trkpt>
      <trkpt lat="47.33301" lon="-2.32464">
        <ele>4.5999999046326</ele>
        <time>2020-02-23T09:15:10.000Z</time>
      </trkpt>
      <trkpt lat="47.33311" lon="-2.32459">
        <ele>4.5999999046326</ele>
        <time>2020-02-23T09:15:12.000Z</time>
      </trkpt>
      <trkpt lat="47.33326" lon="-2.32454">
        <ele>4.5999999046326</ele>
        <time>2020-02-23T09:15:15.000Z</time>
      </trkpt>
      <trkpt lat="47.3333" lon="-2.32452">
        <ele>4.5999999046326</ele>
        <time>2020-02-23T09:15:16.000Z</time>
      </trkpt>
      <trkpt lat="47.33343" lon="-2.32437">
        <ele>4.1999998092651</ele>
        <time>2020-02-23T09:15:19.000Z</time>
      </trkpt>
      <trkpt lat="47.33347" lon="-2.3243">
        <ele>3.7999999523163</ele>
        <time>2020-02-23T09:15:20.000Z</time>
      </trkpt>
      <trkpt lat="47.33352" lon="-2.32423">
        <ele>3.4000000953674</ele>
        <time>2020-02-23T09:15:21.000Z</time>
      </trkpt>
      <trkpt lat="47.33356" lon="-2.32417">
        <ele>3</ele>
        <time>2020-02-23T09:15:22.000Z</time>
      </trkpt>
      <trkpt lat="47.33361" lon="-2.32411">
        <ele>2.5999999046326</ele>
        <time>2020-02-23T09:15:23.000Z</time>
      </trkpt>
      <trkpt lat="47.33368" lon="-2.32406">
        <ele>2.5999999046326</ele>
        <time>2020-02-23T09:15:24.000Z</time>
      </trkpt>
      <trkpt lat="47.33411" lon="-2.32367">
        <ele>2.5999999046326</ele>
        <time>2020-02-23T09:15:31.000Z</time>
      </trkpt>
      <trkpt lat="47.33457" lon="-2.32335">
        <ele>2.5999999046326</ele>
        <time>2020-02-23T09:15:38.000Z</time>
      </trkpt>
      <trkpt lat="47.33498" lon="-2.32315">
        <ele>2.5999999046326</ele>
        <time>2020-02-23T09:15:44.000Z</time>
      </trkpt>
      <trkpt lat="47.33515" lon="-2.32305">
        <ele>2.5999999046326</ele>
        <time>2020-02-23T09:15:47.000Z</time>
      </trkpt>
      <trkpt lat="47.33528" lon="-2.32302">
        <ele>2.5999999046326</ele>
        <time>2020-02-23T09:15:49.000Z</time>
      </trkpt>
      <trkpt lat="47.33554" lon="-2.323">
        <ele>2.5999999046326</ele>
        <time>2020-02-23T09:15:53.000Z</time>
      </trkpt>
      <trkpt lat="47.33591" lon="-2.32289">
        <ele>2.5999999046326</ele>
        <time>2020-02-23T09:15:59.000Z</time>
      </trkpt>
      <trkpt lat="47.33603" lon="-2.32288">
        <ele>3.4000000953674</ele>
        <time>2020-02-23T09:16:01.000Z</time>
      </trkpt>
      <trkpt lat="47.33609" lon="-2.32287">
        <ele>3.7999999523163</ele>
        <time>2020-02-23T09:16:02.000Z</time>
      </trkpt>
      <trkpt lat="47.33616" lon="-2.32286">
        <ele>4.1999998092651</ele>
        <time>2020-02-23T09:16:03.000Z</time>
      </trkpt>
      <trkpt lat="47.33621" lon="-2.32285">
        <ele>4.5999999046326</ele>
        <time>2020-02-23T09:16:04.000Z</time>
      </trkpt>
      <trkpt lat="47.33657" lon="-2.32274">
        <ele>4.5999999046326</ele>
        <time>2020-02-23T09:16:10.000Z</time>
      </trkpt>
      <trkpt lat="47.33695" lon="-2.32254">
        <ele>4.5999999046326</ele>
        <time>2020-02-23T09:16:16.000Z</time>
      </trkpt>
      <trkpt lat="47.33741" lon="-2.32223">
        <ele>4.5999999046326</ele>
        <time>2020-02-23T09:16:24.000Z</time>
      </trkpt>
      <trkpt lat="47.33781" lon="-2.32206">
        <ele>4.5999999046326</ele>
        <time>2020-02-23T09:16:30.000Z</time>
      </trkpt>
      <trkpt lat="47.33819" lon="-2.32201">
        <ele>4.5999999046326</ele>
        <time>2020-02-23T09:16:36.000Z</time>
      </trkpt>
      <trkpt lat="47.33863" lon="-2.32193">
        <ele>4.5999999046326</ele>
        <time>2020-02-23T09:16:43.000Z</time>
      </trkpt>
      <trkpt lat="47.33875" lon="-2.32194">
        <ele>4.5999999046326</ele>
        <time>2020-02-23T09:16:45.000Z</time>
      </trkpt>
      <trkpt lat="47.33894" lon="-2.32197">
        <ele>4.5999999046326</ele>
        <time>2020-02-23T09:16:48.000Z</time>
      </trkpt>
      <trkpt lat="47.33905" lon="-2.32198">
        <ele>4.1999998092651</ele>
        <time>2020-02-23T09:16:50.000Z</time>
      </trkpt>
      <trkpt lat="47.33911" lon="-2.32197">
        <ele>3.7999999523163</ele>
        <time>2020-02-23T09:16:51.000Z</time>
      </trkpt>
      <trkpt lat="47.33918" lon="-2.32196">
        <ele>3.4000000953674</ele>
        <time>2020-02-23T09:16:52.000Z</time>
      </trkpt>
      <trkpt lat="47.33924" lon="-2.32196">
        <ele>3</ele>
        <time>2020-02-23T09:16:53.000Z</time>
      </trkpt>
      <trkpt lat="47.3393" lon="-2.32197">
        <ele>2.5999999046326</ele>
        <time>2020-02-23T09:16:54.000Z</time>
      </trkpt>
      <trkpt lat="47.33954" lon="-2.32212">
        <ele>2.5999999046326</ele>
        <time>2020-02-23T09:16:58.000Z</time>
      </trkpt>
      <trkpt lat="47.33974" lon="-2.32215">
        <ele>2.5999999046326</ele>
        <time>2020-02-23T09:17:01.000Z</time>
      </trkpt>
      <trkpt lat="47.33981" lon="-2.32215">
        <ele>2.5999999046326</ele>
        <time>2020-02-23T09:17:02.000Z</time>
      </trkpt>
      <trkpt lat="47.3402" lon="-2.32217">
        <ele>2.5999999046326</ele>
        <time>2020-02-23T09:17:08.000Z</time>
      </trkpt>
      <trkpt lat="47.34064" lon="-2.32222">
        <ele>2.5999999046326</ele>
        <time>2020-02-23T09:17:15.000Z</time>
      </trkpt>
      <trkpt lat="47.34083" lon="-2.32242">
        <ele>2.5999999046326</ele>
        <time>2020-02-23T09:17:19.000Z</time>
      </trkpt>
      <trkpt lat="47.34089" lon="-2.32258">
        <ele>3</ele>
        <time>2020-02-23T09:17:21.000Z</time>
      </trkpt>
      <trkpt lat="47.34091" lon="-2.32266">
        <ele>3.4000000953674</ele>
        <time>2020-02-23T09:17:22.000Z</time>
      </trkpt>
      <trkpt lat="47.34093" lon="-2.32274">
        <ele>3.7999999523163</ele>
        <time>2020-02-23T09:17:23.000Z</time>
      </trkpt>
      <trkpt lat="47.34095" lon="-2.32283">
        <ele>4.1999998092651</ele>
        <time>2020-02-23T09:17:24.000Z</time>
      </trkpt>
      <trkpt lat="47.34098" lon="-2.3229">
        <ele>4.5999999046326</ele>
        <time>2020-02-23T09:17:25.000Z</time>
      </trkpt>
      <trkpt lat="47.34107" lon="-2.32329">
        <ele>4.5999999046326</ele>
        <time>2020-02-23T09:17:30.000Z</time>
      </trkpt>
      <trkpt lat="47.34114" lon="-2.3235">
        <ele>5</ele>
        <time>2020-02-23T09:17:33.000Z</time>
      </trkpt>
      <trkpt lat="47.34116" lon="-2.32358">
        <ele>5.4000000953674</ele>
        <time>2020-02-23T09:17:34.000Z</time>
      </trkpt>
      <trkpt lat="47.34119" lon="-2.32365">
        <ele>6</ele>
        <time>2020-02-23T09:17:35.000Z</time>
      </trkpt>
      <trkpt lat="47.34121" lon="-2.32372">
        <ele>6.4000000953674</ele>
        <time>2020-02-23T09:17:36.000Z</time>
      </trkpt>
      <trkpt lat="47.34123" lon="-2.3238">
        <ele>6.8000001907349</ele>
        <time>2020-02-23T09:17:37.000Z</time>
      </trkpt>
      <trkpt lat="47.34139" lon="-2.32434">
        <ele>6.8000001907349</ele>
        <time>2020-02-23T09:17:44.000Z</time>
      </trkpt>
      <trkpt lat="47.34149" lon="-2.32476">
        <ele>6.8000001907349</ele>
        <time>2020-02-23T09:17:49.000Z</time>
      </trkpt>
      <trkpt lat="47.34153" lon="-2.32515">
        <ele>6.8000001907349</ele>
        <time>2020-02-23T09:17:54.000Z</time>
      </trkpt>
      <trkpt lat="47.34153" lon="-2.32522">
        <ele>6.8000001907349</ele>
        <time>2020-02-23T09:17:55.000Z</time>
      </trkpt>
      <trkpt lat="47.34157" lon="-2.32559">
        <ele>6.8000001907349</ele>
        <time>2020-02-23T09:18:01.000Z</time>
      </trkpt>
      <trkpt lat="47.34157" lon="-2.3258">
        <ele>6.8000001907349</ele>
        <time>2020-02-23T09:18:06.000Z</time>
      </trkpt>
      <trkpt lat="47.34156" lon="-2.32585">
        <ele>6.8000001907349</ele>
        <time>2020-02-23T09:18:08.000Z</time>
      </trkpt>
      <trkpt lat="47.34152" lon="-2.3259">
        <ele>6.8000001907349</ele>
        <time>2020-02-23T09:18:11.000Z</time>
      </trkpt>
      <trkpt lat="47.34149" lon="-2.32589">
        <ele>6.8000001907349</ele>
        <time>2020-02-23T09:18:14.000Z</time>
      </trkpt>
      <trkpt lat="47.34148" lon="-2.32585">
        <ele>6.8000001907349</ele>
        <time>2020-02-23T09:18:16.000Z</time>
      </trkpt>
      <trkpt lat="47.34155" lon="-2.32579">
        <ele>6.8000001907349</ele>
        <time>2020-02-23T09:18:21.000Z</time>
      </trkpt>
      <trkpt lat="47.34157" lon="-2.32579">
        <ele>6.8000001907349</ele>
        <time>2020-02-23T09:18:24.000Z</time>
      </trkpt>
      <trkpt lat="47.34159" lon="-2.32578">
        <ele>6.8000001907349</ele>
        <time>2020-02-23T09:19:23.000Z</time>
      </trkpt>
      <trkpt lat="47.34161" lon="-2.32578">
        <ele>6.8000001907349</ele>
        <time>2020-02-23T09:19:24.000Z</time>
      </trkpt>
      <trkpt lat="47.34176" lon="-2.32577">
        <ele>6.8000001907349</ele>
        <time>2020-02-23T09:19:29.000Z</time>
      </trkpt>
      <trkpt lat="47.34195" lon="-2.32573">
        <ele>6.8000001907349</ele>
        <time>2020-02-23T09:19:34.000Z</time>
      </trkpt>
      <trkpt lat="47.34223" lon="-2.32567">
        <ele>6.8000001907349</ele>
        <time>2020-02-23T09:19:41.000Z</time>
      </trkpt>
      <trkpt lat="47.34254" lon="-2.3256">
        <ele>6.8000001907349</ele>
        <time>2020-02-23T09:19:49.000Z</time>
      </trkpt>
      <trkpt lat="47.34282" lon="-2.32554">
        <ele>6.8000001907349</ele>
        <time>2020-02-23T09:19:55.000Z</time>
      </trkpt>
      <trkpt lat="47.34316" lon="-2.32545">
        <ele>6.8000001907349</ele>
        <time>2020-02-23T09:20:02.000Z</time>
      </trkpt>
      <trkpt lat="47.34334" lon="-2.32532">
        <ele>6.8000001907349</ele>
        <time>2020-02-23T09:20:06.000Z</time>
      </trkpt>
      <trkpt lat="47.34342" lon="-2.32523">
        <ele>6.8000001907349</ele>
        <time>2020-02-23T09:20:08.000Z</time>
      </trkpt>
      <trkpt lat="47.34349" lon="-2.32513">
        <ele>6.8000001907349</ele>
        <time>2020-02-23T09:20:10.000Z</time>
      </trkpt>
      <trkpt lat="47.34362" lon="-2.32491">
        <ele>6.8000001907349</ele>
        <time>2020-02-23T09:20:14.000Z</time>
      </trkpt>
      <trkpt lat="47.3437" lon="-2.32474">
        <ele>6.4000000953674</ele>
        <time>2020-02-23T09:20:17.000Z</time>
      </trkpt>
      <trkpt lat="47.34373" lon="-2.32468">
        <ele>6</ele>
        <time>2020-02-23T09:20:18.000Z</time>
      </trkpt>
      <trkpt lat="47.34376" lon="-2.32463">
        <ele>5.5999999046326</ele>
        <time>2020-02-23T09:20:19.000Z</time>
      </trkpt>
      <trkpt lat="47.34379" lon="-2.32458">
        <ele>5.1999998092651</ele>
        <time>2020-02-23T09:20:20.000Z</time>
      </trkpt>
      <trkpt lat="47.34381" lon="-2.32451">
        <ele>4.8000001907349</ele>
        <time>2020-02-23T09:20:21.000Z</time>
      </trkpt>
      <trkpt lat="47.34394" lon="-2.32424">
        <ele>4.8000001907349</ele>
        <time>2020-02-23T09:20:26.000Z</time>
      </trkpt>
      <trkpt lat="47.34412" lon="-2.32398">
        <ele>4.8000001907349</ele>
        <time>2020-02-23T09:20:32.000Z</time>
      </trkpt>
      <trkpt lat="47.3442" lon="-2.32388">
        <ele>4.8000001907349</ele>
        <time>2020-02-23T09:20:34.000Z</time>
      </trkpt>
      <trkpt lat="47.34434" lon="-2.32372">
        <ele>4.8000001907349</ele>
        <time>2020-02-23T09:20:38.000Z</time>
      </trkpt>
      <trkpt lat="47.34461" lon="-2.32346">
        <ele>4.8000001907349</ele>
        <time>2020-02-23T09:20:45.000Z</time>
      </trkpt>
      <trkpt lat="47.34485" lon="-2.32318">
        <ele>4.8000001907349</ele>
        <time>2020-02-23T09:20:52.000Z</time>
      </trkpt>
      <trkpt lat="47.34515" lon="-2.32289">
        <ele>4.8000001907349</ele>
        <time>2020-02-23T09:20:59.000Z</time>
      </trkpt>
      <trkpt lat="47.34542" lon="-2.32265">
        <ele>4.8000001907349</ele>
        <time>2020-02-23T09:21:04.000Z</time>
      </trkpt>
      <trkpt lat="47.34586" lon="-2.32229">
        <ele>4.8000001907349</ele>
        <time>2020-02-23T09:21:11.000Z</time>
      </trkpt>
      <trkpt lat="47.34622" lon="-2.32199">
        <ele>4.1999998092651</ele>
        <time>2020-02-23T09:21:17.000Z</time>
      </trkpt>
      <trkpt lat="47.34628" lon="-2.32193">
        <ele>3.7999999523163</ele>
        <time>2020-02-23T09:21:18.000Z</time>
      </trkpt>
      <trkpt lat="47.34634" lon="-2.32188">
        <ele>2.7999999523163</ele>
        <time>2020-02-23T09:21:19.000Z</time>
      </trkpt>
      <trkpt lat="47.3464" lon="-2.32182">
        <ele>2.4000000953674</ele>
        <time>2020-02-23T09:21:20.000Z</time>
      </trkpt>
      <trkpt lat="47.34666" lon="-2.32159">
        <ele>2.4000000953674</ele>
        <time>2020-02-23T09:21:24.000Z</time>
      </trkpt>
      <trkpt lat="47.34709" lon="-2.32121">
        <ele>2.4000000953674</ele>
        <time>2020-02-23T09:21:31.000Z</time>
      </trkpt>
      <trkpt lat="47.34731" lon="-2.32106">
        <ele>2</ele>
        <time>2020-02-23T09:21:35.000Z</time>
      </trkpt>
      <trkpt lat="47.34737" lon="-2.32106">
        <ele>1.6000000238419</ele>
        <time>2020-02-23T09:21:36.000Z</time>
      </trkpt>
      <trkpt lat="47.34742" lon="-2.32108">
        <ele>1</ele>
        <time>2020-02-23T09:21:37.000Z</time>
      </trkpt>
      <trkpt lat="47.34747" lon="-2.32113">
        <ele>0.60000002384186</ele>
        <time>2020-02-23T09:21:38.000Z</time>
      </trkpt>
      <trkpt lat="47.34751" lon="-2.32119">
        <ele>0.20000000298023</ele>
        <time>2020-02-23T09:21:39.000Z</time>
      </trkpt>
      <trkpt lat="47.34762" lon="-2.32142">
        <ele>0.20000000298023</ele>
        <time>2020-02-23T09:21:42.000Z</time>
      </trkpt>
      <trkpt lat="47.34766" lon="-2.32151">
        <ele>0.20000000298023</ele>
        <time>2020-02-23T09:21:43.000Z</time>
      </trkpt>
      <trkpt lat="47.34776" lon="-2.32184">
        <ele>0.20000000298023</ele>
        <time>2020-02-23T09:21:47.000Z</time>
      </trkpt>
      <trkpt lat="47.34777" lon="-2.32193">
        <ele>0.20000000298023</ele>
        <time>2020-02-23T09:21:48.000Z</time>
      </trkpt>
      <trkpt lat="47.34776" lon="-2.32224">
        <ele>0.20000000298023</ele>
        <time>2020-02-23T09:21:52.000Z</time>
      </trkpt>
      <trkpt lat="47.34774" lon="-2.3223">
        <ele>0.20000000298023</ele>
        <time>2020-02-23T09:21:53.000Z</time>
      </trkpt>
      <trkpt lat="47.34757" lon="-2.3226">
        <ele>0.20000000298023</ele>
        <time>2020-02-23T09:21:57.000Z</time>
      </trkpt>
      <trkpt lat="47.34734" lon="-2.32312">
        <ele>0.20000000298023</ele>
        <time>2020-02-23T09:22:04.000Z</time>
      </trkpt>
      <trkpt lat="47.3472" lon="-2.32347">
        <ele>0.60000002384186</ele>
        <time>2020-02-23T09:22:10.000Z</time>
      </trkpt>
      <trkpt lat="47.34718" lon="-2.32352">
        <ele>1</ele>
        <time>2020-02-23T09:22:11.000Z</time>
      </trkpt>
      <trkpt lat="47.34716" lon="-2.32358">
        <ele>1.3999999761581</ele>
        <time>2020-02-23T09:22:12.000Z</time>
      </trkpt>
      <trkpt lat="47.34714" lon="-2.32364">
        <ele>2</ele>
        <time>2020-02-23T09:22:13.000Z</time>
      </trkpt>
      <trkpt lat="47.34712" lon="-2.3237">
        <ele>2.4000000953674</ele>
        <time>2020-02-23T09:22:14.000Z</time>
      </trkpt>
      <trkpt lat="47.34708" lon="-2.32383">
        <ele>2.4000000953674</ele>
        <time>2020-02-23T09:22:16.000Z</time>
      </trkpt>
      <trkpt lat="47.34694" lon="-2.32428">
        <ele>2.4000000953674</ele>
        <time>2020-02-23T09:22:23.000Z</time>
      </trkpt>
      <trkpt lat="47.3469" lon="-2.32441">
        <ele>2.4000000953674</ele>
        <time>2020-02-23T09:22:25.000Z</time>
      </trkpt>
      <trkpt lat="47.34687" lon="-2.32454">
        <ele>2.4000000953674</ele>
        <time>2020-02-23T09:22:27.000Z</time>
      </trkpt>
      <trkpt lat="47.34681" lon="-2.32473">
        <ele>2.4000000953674</ele>
        <time>2020-02-23T09:22:30.000Z</time>
      </trkpt>
      <trkpt lat="47.34663" lon="-2.32522">
        <ele>2.4000000953674</ele>
        <time>2020-02-23T09:22:37.000Z</time>
      </trkpt>
      <trkpt lat="47.34656" lon="-2.3254">
        <ele>2.4000000953674</ele>
        <time>2020-02-23T09:22:40.000Z</time>
      </trkpt>
      <trkpt lat="47.34651" lon="-2.32552">
        <ele>2.4000000953674</ele>
        <time>2020-02-23T09:22:42.000Z</time>
      </trkpt>
      <trkpt lat="47.34638" lon="-2.32581">
        <ele>2.4000000953674</ele>
        <time>2020-02-23T09:22:47.000Z</time>
      </trkpt>
      <trkpt lat="47.34628" lon="-2.326">
        <ele>2.4000000953674</ele>
        <time>2020-02-23T09:22:50.000Z</time>
      </trkpt>
      <trkpt lat="47.34621" lon="-2.32613">
        <ele>2.4000000953674</ele>
        <time>2020-02-23T09:22:52.000Z</time>
      </trkpt>
      <trkpt lat="47.34607" lon="-2.3263">
        <ele>2.4000000953674</ele>
        <time>2020-02-23T09:22:55.000Z</time>
      </trkpt>
      <trkpt lat="47.34596" lon="-2.32644">
        <ele>2.4000000953674</ele>
        <time>2020-02-23T09:22:58.000Z</time>
      </trkpt>
      <trkpt lat="47.34585" lon="-2.32655">
        <ele>2.4000000953674</ele>
        <time>2020-02-23T09:23:03.000Z</time>
      </trkpt>
      <trkpt lat="47.34564" lon="-2.32675">
        <ele>2.4000000953674</ele>
        <time>2020-02-23T09:23:09.000Z</time>
      </trkpt>
      <trkpt lat="47.34538" lon="-2.32695">
        <ele>2.7999999523163</ele>
        <time>2020-02-23T09:23:16.000Z</time>
      </trkpt>
      <trkpt lat="47.34534" lon="-2.32698">
        <ele>3.2000000476837</ele>
        <time>2020-02-23T09:23:17.000Z</time>
      </trkpt>
      <trkpt lat="47.3453" lon="-2.327">
        <ele>3.7999999523163</ele>
        <time>2020-02-23T09:23:18.000Z</time>
      </trkpt>
      <trkpt lat="47.34527" lon="-2.32703">
        <ele>4.1999998092651</ele>
        <time>2020-02-23T09:23:19.000Z</time>
      </trkpt>
      <trkpt lat="47.34523" lon="-2.32705">
        <ele>4.5999999046326</ele>
        <time>2020-02-23T09:23:20.000Z</time>
      </trkpt>
      <trkpt lat="47.34503" lon="-2.32719">
        <ele>4.5999999046326</ele>
        <time>2020-02-23T09:23:25.000Z</time>
      </trkpt>
      <trkpt lat="47.34477" lon="-2.32734">
        <ele>4.5999999046326</ele>
        <time>2020-02-23T09:23:32.000Z</time>
      </trkpt>
      <trkpt lat="47.34461" lon="-2.32749">
        <ele>4.5999999046326</ele>
        <time>2020-02-23T09:23:37.000Z</time>
      </trkpt>
      <trkpt lat="47.34459" lon="-2.32755">
        <ele>4.5999999046326</ele>
        <time>2020-02-23T09:23:38.000Z</time>
      </trkpt>
      <trkpt lat="47.34457" lon="-2.32772">
        <ele>4.5999999046326</ele>
        <time>2020-02-23T09:23:41.000Z</time>
      </trkpt>
      <trkpt lat="47.34457" lon="-2.32779">
        <ele>4.5999999046326</ele>
        <time>2020-02-23T09:23:42.000Z</time>
      </trkpt>
      <trkpt lat="47.34458" lon="-2.32796">
        <ele>4.5999999046326</ele>
        <time>2020-02-23T09:23:44.000Z</time>
      </trkpt>
      <trkpt lat="47.34459" lon="-2.32804">
        <ele>4.5999999046326</ele>
        <time>2020-02-23T09:23:45.000Z</time>
      </trkpt>
      <trkpt lat="47.34456" lon="-2.3282">
        <ele>4</ele>
        <time>2020-02-23T09:23:48.000Z</time>
      </trkpt>
      <trkpt lat="47.34454" lon="-2.32822">
        <ele>3</ele>
        <time>2020-02-23T09:23:49.000Z</time>
      </trkpt>
      <trkpt lat="47.34451" lon="-2.32824">
        <ele>2.5999999046326</ele>
        <time>2020-02-23T09:23:50.000Z</time>
      </trkpt>
      <trkpt lat="47.34448" lon="-2.32826">
        <ele>2</ele>
        <time>2020-02-23T09:23:51.000Z</time>
      </trkpt>
      <trkpt lat="47.34444" lon="-2.32827">
        <ele>2</ele>
        <time>2020-02-23T09:23:52.000Z</time>
      </trkpt>
      <trkpt lat="47.34425" lon="-2.3284">
        <ele>2</ele>
        <time>2020-02-23T09:23:56.000Z</time>
      </trkpt>
      <trkpt lat="47.34398" lon="-2.32859">
        <ele>2</ele>
        <time>2020-02-23T09:24:01.000Z</time>
      </trkpt>
      <trkpt lat="47.34392" lon="-2.32864">
        <ele>2</ele>
        <time>2020-02-23T09:24:02.000Z</time>
      </trkpt>
      <trkpt lat="47.34367" lon="-2.32886">
        <ele>2</ele>
        <time>2020-02-23T09:24:07.000Z</time>
      </trkpt>
      <trkpt lat="47.34362" lon="-2.32891">
        <ele>2</ele>
        <time>2020-02-23T09:24:08.000Z</time>
      </trkpt>
      <trkpt lat="47.34358" lon="-2.32896">
        <ele>2</ele>
        <time>2020-02-23T09:24:09.000Z</time>
      </trkpt>
      <trkpt lat="47.34355" lon="-2.32908">
        <ele>2</ele>
        <time>2020-02-23T09:24:11.000Z</time>
      </trkpt>
      <trkpt lat="47.34359" lon="-2.3294">
        <ele>2</ele>
        <time>2020-02-23T09:24:15.000Z</time>
      </trkpt>
      <trkpt lat="47.34361" lon="-2.3295">
        <ele>2</ele>
        <time>2020-02-23T09:24:16.000Z</time>
      </trkpt>
      <trkpt lat="47.34368" lon="-2.32988">
        <ele>2</ele>
        <time>2020-02-23T09:24:20.000Z</time>
      </trkpt>
      <trkpt lat="47.34368" lon="-2.32998">
        <ele>2</ele>
        <time>2020-02-23T09:24:21.000Z</time>
      </trkpt>
      <trkpt lat="47.34367" lon="-2.33015">
        <ele>1.6000000238419</ele>
        <time>2020-02-23T09:24:23.000Z</time>
      </trkpt>
      <trkpt lat="47.34366" lon="-2.33021">
        <ele>1.2000000476837</ele>
        <time>2020-02-23T09:24:24.000Z</time>
      </trkpt>
      <trkpt lat="47.34363" lon="-2.33027">
        <ele>0.80000001192093</ele>
        <time>2020-02-23T09:24:25.000Z</time>
      </trkpt>
      <trkpt lat="47.3436" lon="-2.3303">
        <ele>0.40000000596046</ele>
        <time>2020-02-23T09:24:26.000Z</time>
      </trkpt>
      <trkpt lat="47.34357" lon="-2.33032">
        <ele>-0.20000000298023</ele>
        <time>2020-02-23T09:24:27.000Z</time>
      </trkpt>
      <trkpt lat="47.34349" lon="-2.33036">
        <ele>-0.20000000298023</ele>
        <time>2020-02-23T09:24:29.000Z</time>
      </trkpt>
      <trkpt lat="47.3433" lon="-2.33043">
        <ele>-0.20000000298023</ele>
        <time>2020-02-23T09:24:33.000Z</time>
      </trkpt>
      <trkpt lat="47.34301" lon="-2.33053">
        <ele>-0.20000000298023</ele>
        <time>2020-02-23T09:24:39.000Z</time>
      </trkpt>
      <trkpt lat="47.34273" lon="-2.33064">
        <ele>-0.20000000298023</ele>
        <time>2020-02-23T09:24:44.000Z</time>
      </trkpt>
      <trkpt lat="47.34259" lon="-2.33084">
        <ele>-0.20000000298023</ele>
        <time>2020-02-23T09:24:48.000Z</time>
      </trkpt>
      <trkpt lat="47.34256" lon="-2.33091">
        <ele>-0.20000000298023</ele>
        <time>2020-02-23T09:24:49.000Z</time>
      </trkpt>
      <trkpt lat="47.34247" lon="-2.33125">
        <ele>-0.20000000298023</ele>
        <time>2020-02-23T09:24:53.000Z</time>
      </trkpt>
      <trkpt lat="47.34232" lon="-2.33174">
        <ele>0.40000000596046</ele>
        <time>2020-02-23T09:24:59.000Z</time>
      </trkpt>
      <trkpt lat="47.34229" lon="-2.33182">
        <ele>0.80000001192093</ele>
        <time>2020-02-23T09:25:00.000Z</time>
      </trkpt>
      <trkpt lat="47.34227" lon="-2.33189">
        <ele>1.3999999761581</ele>
        <time>2020-02-23T09:25:01.000Z</time>
      </trkpt>
      <trkpt lat="47.34225" lon="-2.33196">
        <ele>1.7999999523163</ele>
        <time>2020-02-23T09:25:02.000Z</time>
      </trkpt>
      <trkpt lat="47.34223" lon="-2.33203">
        <ele>2.2000000476837</ele>
        <time>2020-02-23T09:25:03.000Z</time>
      </trkpt>
      <trkpt lat="47.34218" lon="-2.33219">
        <ele>2.2000000476837</ele>
        <time>2020-02-23T09:25:05.000Z</time>
      </trkpt>
      <trkpt lat="47.34202" lon="-2.33264">
        <ele>2.2000000476837</ele>
        <time>2020-02-23T09:25:11.000Z</time>
      </trkpt>
      <trkpt lat="47.3419" lon="-2.33303">
        <ele>2.5999999046326</ele>
        <time>2020-02-23T09:25:16.000Z</time>
      </trkpt>
      <trkpt lat="47.34188" lon="-2.33311">
        <ele>3</ele>
        <time>2020-02-23T09:25:17.000Z</time>
      </trkpt>
      <trkpt lat="47.34186" lon="-2.33318">
        <ele>3.5999999046326</ele>
        <time>2020-02-23T09:25:18.000Z</time>
      </trkpt>
      <trkpt lat="47.34183" lon="-2.33325">
        <ele>4</ele>
        <time>2020-02-23T09:25:19.000Z</time>
      </trkpt>
      <trkpt lat="47.34181" lon="-2.33333">
        <ele>4.4000000953674</ele>
        <time>2020-02-23T09:25:20.000Z</time>
      </trkpt>
      <trkpt lat="47.34176" lon="-2.33348">
        <ele>4.4000000953674</ele>
        <time>2020-02-23T09:25:22.000Z</time>
      </trkpt>
      <trkpt lat="47.3417" lon="-2.33369">
        <ele>4.4000000953674</ele>
        <time>2020-02-23T09:25:25.000Z</time>
      </trkpt>
      <trkpt lat="47.34163" lon="-2.3339">
        <ele>4.4000000953674</ele>
        <time>2020-02-23T09:25:28.000Z</time>
      </trkpt>
      <trkpt lat="47.34149" lon="-2.33415">
        <ele>4.4000000953674</ele>
        <time>2020-02-23T09:25:33.000Z</time>
      </trkpt>
      <trkpt lat="47.34127" lon="-2.33446">
        <ele>4.4000000953674</ele>
        <time>2020-02-23T09:25:40.000Z</time>
      </trkpt>
      <trkpt lat="47.34116" lon="-2.33463">
        <ele>4.4000000953674</ele>
        <time>2020-02-23T09:25:45.000Z</time>
      </trkpt>
      <trkpt lat="47.34114" lon="-2.33468">
        <ele>4.4000000953674</ele>
        <time>2020-02-23T09:25:48.000Z</time>
      </trkpt>
      <trkpt lat="47.34111" lon="-2.33473">
        <ele>4.4000000953674</ele>
        <time>2020-02-23T09:25:54.000Z</time>
      </trkpt>
      <trkpt lat="47.34102" lon="-2.33488">
        <ele>4.4000000953674</ele>
        <time>2020-02-23T09:25:58.000Z</time>
      </trkpt>
      <trkpt lat="47.34085" lon="-2.33517">
        <ele>4.4000000953674</ele>
        <time>2020-02-23T09:26:05.000Z</time>
      </trkpt>
      <trkpt lat="47.34083" lon="-2.33522">
        <ele>4.8000001907349</ele>
        <time>2020-02-23T09:26:06.000Z</time>
      </trkpt>
      <trkpt lat="47.3408" lon="-2.33527">
        <ele>5.1999998092651</ele>
        <time>2020-02-23T09:26:07.000Z</time>
      </trkpt>
      <trkpt lat="47.34078" lon="-2.33532">
        <ele>5.5999999046326</ele>
        <time>2020-02-23T09:26:08.000Z</time>
      </trkpt>
      <trkpt lat="47.34076" lon="-2.33537">
        <ele>6</ele>
        <time>2020-02-23T09:26:09.000Z</time>
      </trkpt>
      <trkpt lat="47.34073" lon="-2.33543">
        <ele>6.4000000953674</ele>
        <time>2020-02-23T09:26:10.000Z</time>
      </trkpt>
      <trkpt lat="47.3407" lon="-2.33547">
        <ele>6.4000000953674</ele>
        <time>2020-02-23T09:26:11.000Z</time>
      </trkpt>
      <trkpt lat="47.34062" lon="-2.33561">
        <ele>6.4000000953674</ele>
        <time>2020-02-23T09:26:14.000Z</time>
      </trkpt>
      <trkpt lat="47.34052" lon="-2.33577">
        <ele>6.4000000953674</ele>
        <time>2020-02-23T09:26:17.000Z</time>
      </trkpt>
      <trkpt lat="47.34034" lon="-2.33609">
        <ele>6.4000000953674</ele>
        <time>2020-02-23T09:26:22.000Z</time>
      </trkpt>
      <trkpt lat="47.3403" lon="-2.33615">
        <ele>6.8000001907349</ele>
        <time>2020-02-23T09:26:23.000Z</time>
      </trkpt>
      <trkpt lat="47.34027" lon="-2.33621">
        <ele>7.1999998092651</ele>
        <time>2020-02-23T09:26:24.000Z</time>
      </trkpt>
      <trkpt lat="47.34023" lon="-2.33627">
        <ele>7.5999999046326</ele>
        <time>2020-02-23T09:26:25.000Z</time>
      </trkpt>
      <trkpt lat="47.3402" lon="-2.33633">
        <ele>8</ele>
        <time>2020-02-23T09:26:26.000Z</time>
      </trkpt>
      <trkpt lat="47.34017" lon="-2.33639">
        <ele>8.6000003814697</ele>
        <time>2020-02-23T09:26:27.000Z</time>
      </trkpt>
      <trkpt lat="47.34013" lon="-2.33646">
        <ele>8.6000003814697</ele>
        <time>2020-02-23T09:26:28.000Z</time>
      </trkpt>
      <trkpt lat="47.34006" lon="-2.33658">
        <ele>8.6000003814697</ele>
        <time>2020-02-23T09:26:30.000Z</time>
      </trkpt>
      <trkpt lat="47.34" lon="-2.33671">
        <ele>8.6000003814697</ele>
        <time>2020-02-23T09:26:32.000Z</time>
      </trkpt>
      <trkpt lat="47.33996" lon="-2.33677">
        <ele>8.6000003814697</ele>
        <time>2020-02-23T09:26:33.000Z</time>
      </trkpt>
      <trkpt lat="47.33984" lon="-2.33695">
        <ele>8.6000003814697</ele>
        <time>2020-02-23T09:26:36.000Z</time>
      </trkpt>
      <trkpt lat="47.33973" lon="-2.33712">
        <ele>8.6000003814697</ele>
        <time>2020-02-23T09:26:39.000Z</time>
      </trkpt>
      <trkpt lat="47.33951" lon="-2.33746">
        <ele>8.6000003814697</ele>
        <time>2020-02-23T09:26:44.000Z</time>
      </trkpt>
      <trkpt lat="47.33937" lon="-2.33768">
        <ele>9</ele>
        <time>2020-02-23T09:26:47.000Z</time>
      </trkpt>
      <trkpt lat="47.33933" lon="-2.33775">
        <ele>9.3999996185303</ele>
        <time>2020-02-23T09:26:48.000Z</time>
      </trkpt>
      <trkpt lat="47.33929" lon="-2.33782">
        <ele>9.8000001907349</ele>
        <time>2020-02-23T09:26:49.000Z</time>
      </trkpt>
      <trkpt lat="47.33925" lon="-2.3379">
        <ele>10.199999809265</ele>
        <time>2020-02-23T09:26:50.000Z</time>
      </trkpt>
      <trkpt lat="47.33922" lon="-2.33796">
        <ele>10.60000038147</ele>
        <time>2020-02-23T09:26:51.000Z</time>
      </trkpt>
      <trkpt lat="47.33911" lon="-2.33814">
        <ele>10.60000038147</ele>
        <time>2020-02-23T09:26:54.000Z</time>
      </trkpt>
      <trkpt lat="47.33897" lon="-2.33839">
        <ele>10.60000038147</ele>
        <time>2020-02-23T09:26:59.000Z</time>
      </trkpt>
      <trkpt lat="47.33889" lon="-2.33852">
        <ele>10.60000038147</ele>
        <time>2020-02-23T09:27:04.000Z</time>
      </trkpt>
      <trkpt lat="47.33879" lon="-2.33867">
        <ele>10.60000038147</ele>
        <time>2020-02-23T09:27:10.000Z</time>
      </trkpt>
      <trkpt lat="47.33865" lon="-2.33886">
        <ele>10.60000038147</ele>
        <time>2020-02-23T09:27:17.000Z</time>
      </trkpt>
      <trkpt lat="47.33847" lon="-2.339">
        <ele>10.60000038147</ele>
        <time>2020-02-23T09:27:22.000Z</time>
      </trkpt>
      <trkpt lat="47.33831" lon="-2.33914">
        <ele>10.60000038147</ele>
        <time>2020-02-23T09:27:26.000Z</time>
      </trkpt>
      <trkpt lat="47.33801" lon="-2.33937">
        <ele>10.60000038147</ele>
        <time>2020-02-23T09:27:32.000Z</time>
      </trkpt>
      <trkpt lat="47.33792" lon="-2.33944">
        <ele>11</ele>
        <time>2020-02-23T09:27:34.000Z</time>
      </trkpt>
      <trkpt lat="47.33787" lon="-2.33947">
        <ele>11.39999961853</ele>
        <time>2020-02-23T09:27:35.000Z</time>
      </trkpt>
      <trkpt lat="47.33783" lon="-2.33949">
        <ele>11.800000190735</ele>
        <time>2020-02-23T09:27:36.000Z</time>
      </trkpt>
      <trkpt lat="47.33779" lon="-2.33952">
        <ele>12.199999809265</ele>
        <time>2020-02-23T09:27:37.000Z</time>
      </trkpt>
      <trkpt lat="47.33775" lon="-2.33955">
        <ele>12.60000038147</ele>
        <time>2020-02-23T09:27:38.000Z</time>
      </trkpt>
      <trkpt lat="47.33772" lon="-2.33957">
        <ele>12.60000038147</ele>
        <time>2020-02-23T09:27:39.000Z</time>
      </trkpt>
      <trkpt lat="47.33746" lon="-2.33978">
        <ele>12.60000038147</ele>
        <time>2020-02-23T09:27:45.000Z</time>
      </trkpt>
      <trkpt lat="47.3371" lon="-2.34008">
        <ele>12.60000038147</ele>
        <time>2020-02-23T09:27:52.000Z</time>
      </trkpt>
      <trkpt lat="47.33701" lon="-2.34016">
        <ele>12.60000038147</ele>
        <time>2020-02-23T09:27:54.000Z</time>
      </trkpt>
      <trkpt lat="47.33686" lon="-2.34028">
        <ele>12.60000038147</ele>
        <time>2020-02-23T09:27:57.000Z</time>
      </trkpt>
      <trkpt lat="47.33682" lon="-2.34032">
        <ele>13</ele>
        <time>2020-02-23T09:27:58.000Z</time>
      </trkpt>
      <trkpt lat="47.33677" lon="-2.34036">
        <ele>13.39999961853</ele>
        <time>2020-02-23T09:27:59.000Z</time>
      </trkpt>
      <trkpt lat="47.33673" lon="-2.3404">
        <ele>13.800000190735</ele>
        <time>2020-02-23T09:28:00.000Z</time>
      </trkpt>
      <trkpt lat="47.33668" lon="-2.34045">
        <ele>14.199999809265</ele>
        <time>2020-02-23T09:28:01.000Z</time>
      </trkpt>
      <trkpt lat="47.33664" lon="-2.34048">
        <ele>14.60000038147</ele>
        <time>2020-02-23T09:28:02.000Z</time>
      </trkpt>
      <trkpt lat="47.33629" lon="-2.34076">
        <ele>14.60000038147</ele>
        <time>2020-02-23T09:28:09.000Z</time>
      </trkpt>
      <trkpt lat="47.33598" lon="-2.34103">
        <ele>14.60000038147</ele>
        <time>2020-02-23T09:28:16.000Z</time>
      </trkpt>
      <trkpt lat="47.33565" lon="-2.34129">
        <ele>14.60000038147</ele>
        <time>2020-02-23T09:28:23.000Z</time>
      </trkpt>
      <trkpt lat="47.33532" lon="-2.34151">
        <ele>14.60000038147</ele>
        <time>2020-02-23T09:28:30.000Z</time>
      </trkpt>
      <trkpt lat="47.33502" lon="-2.34174">
        <ele>14.60000038147</ele>
        <time>2020-02-23T09:28:37.000Z</time>
      </trkpt>
      <trkpt lat="47.3347" lon="-2.342">
        <ele>14.60000038147</ele>
        <time>2020-02-23T09:28:44.000Z</time>
      </trkpt>
      <trkpt lat="47.33466" lon="-2.34205">
        <ele>15</ele>
        <time>2020-02-23T09:28:45.000Z</time>
      </trkpt>
      <trkpt lat="47.33462" lon="-2.34209">
        <ele>15.39999961853</ele>
        <time>2020-02-23T09:28:46.000Z</time>
      </trkpt>
      <trkpt lat="47.33459" lon="-2.34213">
        <ele>16</ele>
        <time>2020-02-23T09:28:47.000Z</time>
      </trkpt>
      <trkpt lat="47.33455" lon="-2.34218">
        <ele>16.39999961853</ele>
        <time>2020-02-23T09:28:48.000Z</time>
      </trkpt>
      <trkpt lat="47.33452" lon="-2.34223">
        <ele>16.799999237061</ele>
        <time>2020-02-23T09:28:49.000Z</time>
      </trkpt>
      <trkpt lat="47.33449" lon="-2.34228">
        <ele>16.799999237061</ele>
        <time>2020-02-23T09:28:50.000Z</time>
      </trkpt>
      <trkpt lat="47.33441" lon="-2.34241">
        <ele>16.799999237061</ele>
        <time>2020-02-23T09:28:53.000Z</time>
      </trkpt>
      <trkpt lat="47.33435" lon="-2.34252">
        <ele>16.799999237061</ele>
        <time>2020-02-23T09:28:55.000Z</time>
      </trkpt>
      <trkpt lat="47.33433" lon="-2.34258">
        <ele>16.799999237061</ele>
        <time>2020-02-23T09:28:56.000Z</time>
      </trkpt>
      <trkpt lat="47.3342" lon="-2.34296">
        <ele>16.799999237061</ele>
        <time>2020-02-23T09:29:02.000Z</time>
      </trkpt>
      <trkpt lat="47.33419" lon="-2.34303">
        <ele>16.799999237061</ele>
        <time>2020-02-23T09:29:03.000Z</time>
      </trkpt>
      <trkpt lat="47.33404" lon="-2.34347">
        <ele>16.799999237061</ele>
        <time>2020-02-23T09:29:09.000Z</time>
      </trkpt>
      <trkpt lat="47.33402" lon="-2.34355">
        <ele>17.60000038147</ele>
        <time>2020-02-23T09:29:10.000Z</time>
      </trkpt>
      <trkpt lat="47.33399" lon="-2.34362">
        <ele>18</ele>
        <time>2020-02-23T09:29:11.000Z</time>
      </trkpt>
      <trkpt lat="47.33396" lon="-2.34369">
        <ele>18.39999961853</ele>
        <time>2020-02-23T09:29:12.000Z</time>
      </trkpt>
      <trkpt lat="47.33394" lon="-2.34377">
        <ele>19</ele>
        <time>2020-02-23T09:29:13.000Z</time>
      </trkpt>
      <trkpt lat="47.33383" lon="-2.34406">
        <ele>19</ele>
        <time>2020-02-23T09:29:17.000Z</time>
      </trkpt>
      <trkpt lat="47.33366" lon="-2.34455">
        <ele>19</ele>
        <time>2020-02-23T09:29:24.000Z</time>
      </trkpt>
      <trkpt lat="47.33364" lon="-2.34468">
        <ele>19</ele>
        <time>2020-02-23T09:29:26.000Z</time>
      </trkpt>
      <trkpt lat="47.33367" lon="-2.34482">
        <ele>19</ele>
        <time>2020-02-23T09:29:28.000Z</time>
      </trkpt>
      <trkpt lat="47.33377" lon="-2.34501">
        <ele>19</ele>
        <time>2020-02-23T09:29:31.000Z</time>
      </trkpt>
      <trkpt lat="47.3338" lon="-2.34507">
        <ele>19</ele>
        <time>2020-02-23T09:29:32.000Z</time>
      </trkpt>
      <trkpt lat="47.33403" lon="-2.34551">
        <ele>19</ele>
        <time>2020-02-23T09:29:39.000Z</time>
      </trkpt>
      <trkpt lat="47.33421" lon="-2.34588">
        <ele>19</ele>
        <time>2020-02-23T09:29:45.000Z</time>
      </trkpt>
      <trkpt lat="47.3344" lon="-2.34624">
        <ele>19.39999961853</ele>
        <time>2020-02-23T09:29:51.000Z</time>
      </trkpt>
      <trkpt lat="47.33443" lon="-2.34631">
        <ele>19.799999237061</ele>
        <time>2020-02-23T09:29:52.000Z</time>
      </trkpt>
      <trkpt lat="47.33447" lon="-2.34637">
        <ele>20.200000762939</ele>
        <time>2020-02-23T09:29:53.000Z</time>
      </trkpt>
      <trkpt lat="47.3345" lon="-2.34643">
        <ele>20.60000038147</ele>
        <time>2020-02-23T09:29:54.000Z</time>
      </trkpt>
      <trkpt lat="47.33453" lon="-2.34649">
        <ele>21</ele>
        <time>2020-02-23T09:29:55.000Z</time>
      </trkpt>
      <trkpt lat="47.3346" lon="-2.34659">
        <ele>21</ele>
        <time>2020-02-23T09:29:57.000Z</time>
      </trkpt>
      <trkpt lat="47.33476" lon="-2.34686">
        <ele>21</ele>
        <time>2020-02-23T09:30:02.000Z</time>
      </trkpt>
      <trkpt lat="47.33482" lon="-2.34696">
        <ele>21</ele>
        <time>2020-02-23T09:30:04.000Z</time>
      </trkpt>
      <trkpt lat="47.33494" lon="-2.3471">
        <ele>21.39999961853</ele>
        <time>2020-02-23T09:30:07.000Z</time>
      </trkpt>
      <trkpt lat="47.33497" lon="-2.34715">
        <ele>21.799999237061</ele>
        <time>2020-02-23T09:30:08.000Z</time>
      </trkpt>
      <trkpt lat="47.33501" lon="-2.3472">
        <ele>22.200000762939</ele>
        <time>2020-02-23T09:30:09.000Z</time>
      </trkpt>
      <trkpt lat="47.33505" lon="-2.34725">
        <ele>22.60000038147</ele>
        <time>2020-02-23T09:30:10.000Z</time>
      </trkpt>
      <trkpt lat="47.33508" lon="-2.3473">
        <ele>23.200000762939</ele>
        <time>2020-02-23T09:30:11.000Z</time>
      </trkpt>
      <trkpt lat="47.33515" lon="-2.3474">
        <ele>23.200000762939</ele>
        <time>2020-02-23T09:30:13.000Z</time>
      </trkpt>
      <trkpt lat="47.33533" lon="-2.34766">
        <ele>23.200000762939</ele>
        <time>2020-02-23T09:30:18.000Z</time>
      </trkpt>
      <trkpt lat="47.3355" lon="-2.34791">
        <ele>23.200000762939</ele>
        <time>2020-02-23T09:30:23.000Z</time>
      </trkpt>
      <trkpt lat="47.33577" lon="-2.34826">
        <ele>23.200000762939</ele>
        <time>2020-02-23T09:30:29.000Z</time>
      </trkpt>
      <trkpt lat="47.33609" lon="-2.34868">
        <ele>23.200000762939</ele>
        <time>2020-02-23T09:30:36.000Z</time>
      </trkpt>
      <trkpt lat="47.33638" lon="-2.34905">
        <ele>23.200000762939</ele>
        <time>2020-02-23T09:30:42.000Z</time>
      </trkpt>
      <trkpt lat="47.33668" lon="-2.34942">
        <ele>23.200000762939</ele>
        <time>2020-02-23T09:30:48.000Z</time>
      </trkpt>
      <trkpt lat="47.33706" lon="-2.35003">
        <ele>23.200000762939</ele>
        <time>2020-02-23T09:30:56.000Z</time>
      </trkpt>
      <trkpt lat="47.3371" lon="-2.3501">
        <ele>22.60000038147</ele>
        <time>2020-02-23T09:30:57.000Z</time>
      </trkpt>
      <trkpt lat="47.33714" lon="-2.35016">
        <ele>22.200000762939</ele>
        <time>2020-02-23T09:30:58.000Z</time>
      </trkpt>
      <trkpt lat="47.33717" lon="-2.35023">
        <ele>21.799999237061</ele>
        <time>2020-02-23T09:30:59.000Z</time>
      </trkpt>
      <trkpt lat="47.33721" lon="-2.35029">
        <ele>21.39999961853</ele>
        <time>2020-02-23T09:31:00.000Z</time>
      </trkpt>
      <trkpt lat="47.33725" lon="-2.35035">
        <ele>20.799999237061</ele>
        <time>2020-02-23T09:31:01.000Z</time>
      </trkpt>
      <trkpt lat="47.33732" lon="-2.35046">
        <ele>20.799999237061</ele>
        <time>2020-02-23T09:31:03.000Z</time>
      </trkpt>
      <trkpt lat="47.33736" lon="-2.3505">
        <ele>20.799999237061</ele>
        <time>2020-02-23T09:31:04.000Z</time>
      </trkpt>
      <trkpt lat="47.33752" lon="-2.35065">
        <ele>20.799999237061</ele>
        <time>2020-02-23T09:31:08.000Z</time>
      </trkpt>
      <trkpt lat="47.33756" lon="-2.35068">
        <ele>20.799999237061</ele>
        <time>2020-02-23T09:31:09.000Z</time>
      </trkpt>
      <trkpt lat="47.33782" lon="-2.35082">
        <ele>20.799999237061</ele>
        <time>2020-02-23T09:31:16.000Z</time>
      </trkpt>
      <trkpt lat="47.3381" lon="-2.35099">
        <ele>20.799999237061</ele>
        <time>2020-02-23T09:31:23.000Z</time>
      </trkpt>
      <trkpt lat="47.3384" lon="-2.35119">
        <ele>20.799999237061</ele>
        <time>2020-02-23T09:31:30.000Z</time>
      </trkpt>
      <trkpt lat="47.33865" lon="-2.35136">
        <ele>21.39999961853</ele>
        <time>2020-02-23T09:31:36.000Z</time>
      </trkpt>
      <trkpt lat="47.33869" lon="-2.3514">
        <ele>21.799999237061</ele>
        <time>2020-02-23T09:31:37.000Z</time>
      </trkpt>
      <trkpt lat="47.33873" lon="-2.35144">
        <ele>22.60000038147</ele>
        <time>2020-02-23T09:31:38.000Z</time>
      </trkpt>
      <trkpt lat="47.33877" lon="-2.35148">
        <ele>23.200000762939</ele>
        <time>2020-02-23T09:31:39.000Z</time>
      </trkpt>
      <trkpt lat="47.33884" lon="-2.35155">
        <ele>23.200000762939</ele>
        <time>2020-02-23T09:31:41.000Z</time>
      </trkpt>
      <trkpt lat="47.33888" lon="-2.35158">
        <ele>23.200000762939</ele>
        <time>2020-02-23T09:31:42.000Z</time>
      </trkpt>
      <trkpt lat="47.33908" lon="-2.35176">
        <ele>23.200000762939</ele>
        <time>2020-02-23T09:31:47.000Z</time>
      </trkpt>
      <trkpt lat="47.33912" lon="-2.3518">
        <ele>23.200000762939</ele>
        <time>2020-02-23T09:31:48.000Z</time>
      </trkpt>
      <trkpt lat="47.33937" lon="-2.35215">
        <ele>23.200000762939</ele>
        <time>2020-02-23T09:31:55.000Z</time>
      </trkpt>
      <trkpt lat="47.33944" lon="-2.35233">
        <ele>23.200000762939</ele>
        <time>2020-02-23T09:31:58.000Z</time>
      </trkpt>
      <trkpt lat="47.3395" lon="-2.35252">
        <ele>23.200000762939</ele>
        <time>2020-02-23T09:32:01.000Z</time>
      </trkpt>
      <trkpt lat="47.33952" lon="-2.35258">
        <ele>23.200000762939</ele>
        <time>2020-02-23T09:32:02.000Z</time>
      </trkpt>
      <trkpt lat="47.33963" lon="-2.35274">
        <ele>23.200000762939</ele>
        <time>2020-02-23T09:32:05.000Z</time>
      </trkpt>
      <trkpt lat="47.33967" lon="-2.35278">
        <ele>23.200000762939</ele>
        <time>2020-02-23T09:32:06.000Z</time>
      </trkpt>
      <trkpt lat="47.33993" lon="-2.35305">
        <ele>23.200000762939</ele>
        <time>2020-02-23T09:32:11.000Z</time>
      </trkpt>
      <trkpt lat="47.34003" lon="-2.35315">
        <ele>23.200000762939</ele>
        <time>2020-02-23T09:32:13.000Z</time>
      </trkpt>
      <trkpt lat="47.34009" lon="-2.35319">
        <ele>22.60000038147</ele>
        <time>2020-02-23T09:32:14.000Z</time>
      </trkpt>
      <trkpt lat="47.34014" lon="-2.35323">
        <ele>22.200000762939</ele>
        <time>2020-02-23T09:32:15.000Z</time>
      </trkpt>
      <trkpt lat="47.34019" lon="-2.35328">
        <ele>21.799999237061</ele>
        <time>2020-02-23T09:32:16.000Z</time>
      </trkpt>
      <trkpt lat="47.34024" lon="-2.35333">
        <ele>21.39999961853</ele>
        <time>2020-02-23T09:32:17.000Z</time>
      </trkpt>
      <trkpt lat="47.34029" lon="-2.35338">
        <ele>20.799999237061</ele>
        <time>2020-02-23T09:32:18.000Z</time>
      </trkpt>
      <trkpt lat="47.34049" lon="-2.35361">
        <ele>20.799999237061</ele>
        <time>2020-02-23T09:32:23.000Z</time>
      </trkpt>
      <trkpt lat="47.34062" lon="-2.35384">
        <ele>20.799999237061</ele>
        <time>2020-02-23T09:32:27.000Z</time>
      </trkpt>
      <trkpt lat="47.34068" lon="-2.35399">
        <ele>20.799999237061</ele>
        <time>2020-02-23T09:32:29.000Z</time>
      </trkpt>
      <trkpt lat="47.34074" lon="-2.35414">
        <ele>20.39999961853</ele>
        <time>2020-02-23T09:32:31.000Z</time>
      </trkpt>
      <trkpt lat="47.34077" lon="-2.35421">
        <ele>20</ele>
        <time>2020-02-23T09:32:32.000Z</time>
      </trkpt>
      <trkpt lat="47.3408" lon="-2.35428">
        <ele>19.39999961853</ele>
        <time>2020-02-23T09:32:33.000Z</time>
      </trkpt>
      <trkpt lat="47.34082" lon="-2.35435">
        <ele>19</ele>
        <time>2020-02-23T09:32:34.000Z</time>
      </trkpt>
      <trkpt lat="47.34085" lon="-2.35443">
        <ele>18.60000038147</ele>
        <time>2020-02-23T09:32:35.000Z</time>
      </trkpt>
      <trkpt lat="47.3409" lon="-2.35457">
        <ele>18.60000038147</ele>
        <time>2020-02-23T09:32:37.000Z</time>
      </trkpt>
      <trkpt lat="47.34106" lon="-2.355">
        <ele>18.60000038147</ele>
        <time>2020-02-23T09:32:43.000Z</time>
      </trkpt>
      <trkpt lat="47.34125" lon="-2.35559">
        <ele>18.60000038147</ele>
        <time>2020-02-23T09:32:51.000Z</time>
      </trkpt>
      <trkpt lat="47.34139" lon="-2.35602">
        <ele>18.60000038147</ele>
        <time>2020-02-23T09:32:57.000Z</time>
      </trkpt>
      <trkpt lat="47.34142" lon="-2.35607">
        <ele>18.60000038147</ele>
        <time>2020-02-23T09:32:58.000Z</time>
      </trkpt>
      <trkpt lat="47.34155" lon="-2.35629">
        <ele>18.60000038147</ele>
        <time>2020-02-23T09:33:03.000Z</time>
      </trkpt>
      <trkpt lat="47.34163" lon="-2.35641">
        <ele>18.200000762939</ele>
        <time>2020-02-23T09:33:07.000Z</time>
      </trkpt>
      <trkpt lat="47.34164" lon="-2.35644">
        <ele>17.799999237061</ele>
        <time>2020-02-23T09:33:08.000Z</time>
      </trkpt>
      <trkpt lat="47.34166" lon="-2.35646">
        <ele>17.39999961853</ele>
        <time>2020-02-23T09:33:09.000Z</time>
      </trkpt>
      <trkpt lat="47.34167" lon="-2.35649">
        <ele>17</ele>
        <time>2020-02-23T09:33:10.000Z</time>
      </trkpt>
      <trkpt lat="47.34168" lon="-2.3565">
        <ele>16.60000038147</ele>
        <time>2020-02-23T09:33:11.000Z</time>
      </trkpt>
      <trkpt lat="47.34171" lon="-2.35652">
        <ele>16.60000038147</ele>
        <time>2020-02-23T09:33:15.000Z</time>
      </trkpt>
      <trkpt lat="47.34174" lon="-2.35654">
        <ele>16.60000038147</ele>
        <time>2020-02-23T09:33:19.000Z</time>
      </trkpt>
      <trkpt lat="47.34179" lon="-2.35663">
        <ele>16.60000038147</ele>
        <time>2020-02-23T09:33:30.000Z</time>
      </trkpt>
      <trkpt lat="47.3418" lon="-2.35665">
        <ele>16.60000038147</ele>
        <time>2020-02-23T09:33:31.000Z</time>
      </trkpt>
      <trkpt lat="47.34184" lon="-2.35673">
        <ele>16.200000762939</ele>
        <time>2020-02-23T09:33:34.000Z</time>
      </trkpt>
      <trkpt lat="47.34186" lon="-2.35676">
        <ele>15.60000038147</ele>
        <time>2020-02-23T09:33:35.000Z</time>
      </trkpt>
      <trkpt lat="47.34188" lon="-2.3568">
        <ele>15.199999809265</ele>
        <time>2020-02-23T09:33:36.000Z</time>
      </trkpt>
      <trkpt lat="47.3419" lon="-2.35683">
        <ele>14.800000190735</ele>
        <time>2020-02-23T09:33:37.000Z</time>
      </trkpt>
      <trkpt lat="47.34193" lon="-2.35687">
        <ele>14.39999961853</ele>
        <time>2020-02-23T09:33:38.000Z</time>
      </trkpt>
      <trkpt lat="47.342" lon="-2.35696">
        <ele>14</ele>
        <time>2020-02-23T09:33:42.000Z</time>
      </trkpt>
      <trkpt lat="47.34201" lon="-2.35698">
        <ele>13.60000038147</ele>
        <time>2020-02-23T09:33:43.000Z</time>
      </trkpt>
      <trkpt lat="47.34203" lon="-2.357">
        <ele>13.199999809265</ele>
        <time>2020-02-23T09:33:44.000Z</time>
      </trkpt>
      <trkpt lat="47.34203" lon="-2.35702">
        <ele>12.800000190735</ele>
        <time>2020-02-23T09:33:45.000Z</time>
      </trkpt>
      <trkpt lat="47.34204" lon="-2.35704">
        <ele>12.39999961853</ele>
        <time>2020-02-23T09:33:46.000Z</time>
      </trkpt>
      <trkpt lat="47.34204" lon="-2.35709">
        <ele>12.39999961853</ele>
        <time>2020-02-23T09:33:48.000Z</time>
      </trkpt>
      <trkpt lat="47.34208" lon="-2.3572">
        <ele>11.800000190735</ele>
        <time>2020-02-23T09:33:51.000Z</time>
      </trkpt>
      <trkpt lat="47.3421" lon="-2.35723">
        <ele>11.39999961853</ele>
        <time>2020-02-23T09:33:52.000Z</time>
      </trkpt>
      <trkpt lat="47.34213" lon="-2.35726">
        <ele>11</ele>
        <time>2020-02-23T09:33:53.000Z</time>
      </trkpt>
      <trkpt lat="47.34215" lon="-2.35729">
        <ele>10.60000038147</ele>
        <time>2020-02-23T09:33:54.000Z</time>
      </trkpt>
      <trkpt lat="47.34218" lon="-2.35732">
        <ele>10.199999809265</ele>
        <time>2020-02-23T09:33:55.000Z</time>
      </trkpt>
      <trkpt lat="47.34223" lon="-2.35747">
        <ele>10.199999809265</ele>
        <time>2020-02-23T09:33:58.000Z</time>
      </trkpt>
      <trkpt lat="47.34234" lon="-2.35788">
        <ele>10.199999809265</ele>
        <time>2020-02-23T09:34:04.000Z</time>
      </trkpt>
      <trkpt lat="47.34249" lon="-2.35846">
        <ele>10.199999809265</ele>
        <time>2020-02-23T09:34:12.000Z</time>
      </trkpt>
      <trkpt lat="47.34249" lon="-2.35872">
        <ele>10.199999809265</ele>
        <time>2020-02-23T09:34:16.000Z</time>
      </trkpt>
      <trkpt lat="47.34248" lon="-2.35885">
        <ele>10.199999809265</ele>
        <time>2020-02-23T09:34:18.000Z</time>
      </trkpt>
      <trkpt lat="47.34241" lon="-2.35936">
        <ele>10.199999809265</ele>
        <time>2020-02-23T09:34:26.000Z</time>
      </trkpt>
      <trkpt lat="47.34245" lon="-2.35944">
        <ele>10.199999809265</ele>
        <time>2020-02-23T09:34:28.000Z</time>
      </trkpt>
      <trkpt lat="47.34248" lon="-2.35946">
        <ele>10.199999809265</ele>
        <time>2020-02-23T09:34:29.000Z</time>
      </trkpt>
      <trkpt lat="47.34259" lon="-2.35948">
        <ele>10.199999809265</ele>
        <time>2020-02-23T09:34:32.000Z</time>
      </trkpt>
      <trkpt lat="47.34263" lon="-2.35947">
        <ele>10.199999809265</ele>
        <time>2020-02-23T09:34:33.000Z</time>
      </trkpt>
      <trkpt lat="47.34288" lon="-2.35947">
        <ele>10.800000190735</ele>
        <time>2020-02-23T09:34:40.000Z</time>
      </trkpt>
      <trkpt lat="47.34291" lon="-2.35947">
        <ele>11.199999809265</ele>
        <time>2020-02-23T09:34:41.000Z</time>
      </trkpt>
      <trkpt lat="47.34295" lon="-2.35948">
        <ele>11.60000038147</ele>
        <time>2020-02-23T09:34:42.000Z</time>
      </trkpt>
      <trkpt lat="47.34298" lon="-2.35949">
        <ele>12</ele>
        <time>2020-02-23T09:34:43.000Z</time>
      </trkpt>
      <trkpt lat="47.34302" lon="-2.3595">
        <ele>12.39999961853</ele>
        <time>2020-02-23T09:34:44.000Z</time>
      </trkpt>
      <trkpt lat="47.3431" lon="-2.35952">
        <ele>12.39999961853</ele>
        <time>2020-02-23T09:34:46.000Z</time>
      </trkpt>
      <trkpt lat="47.34318" lon="-2.35955">
        <ele>12.39999961853</ele>
        <time>2020-02-23T09:34:48.000Z</time>
      </trkpt>
      <trkpt lat="47.34327" lon="-2.35958">
        <ele>13</ele>
        <time>2020-02-23T09:34:50.000Z</time>
      </trkpt>
      <trkpt lat="47.34331" lon="-2.3596">
        <ele>13.39999961853</ele>
        <time>2020-02-23T09:34:51.000Z</time>
      </trkpt>
      <trkpt lat="47.34336" lon="-2.35961">
        <ele>13.800000190735</ele>
        <time>2020-02-23T09:34:52.000Z</time>
      </trkpt>
      <trkpt lat="47.3434" lon="-2.35964">
        <ele>14.39999961853</ele>
        <time>2020-02-23T09:34:53.000Z</time>
      </trkpt>
      <trkpt lat="47.34344" lon="-2.35966">
        <ele>14.800000190735</ele>
        <time>2020-02-23T09:34:54.000Z</time>
      </trkpt>
      <trkpt lat="47.34357" lon="-2.35973">
        <ele>15.199999809265</ele>
        <time>2020-02-23T09:34:57.000Z</time>
      </trkpt>
      <trkpt lat="47.34361" lon="-2.35975">
        <ele>15.60000038147</ele>
        <time>2020-02-23T09:34:58.000Z</time>
      </trkpt>
      <trkpt lat="47.34365" lon="-2.35977">
        <ele>16</ele>
        <time>2020-02-23T09:34:59.000Z</time>
      </trkpt>
      <trkpt lat="47.34369" lon="-2.35979">
        <ele>16.39999961853</ele>
        <time>2020-02-23T09:35:00.000Z</time>
      </trkpt>
      <trkpt lat="47.34373" lon="-2.35981">
        <ele>16.799999237061</ele>
        <time>2020-02-23T09:35:01.000Z</time>
      </trkpt>
      <trkpt lat="47.34385" lon="-2.35986">
        <ele>16.799999237061</ele>
        <time>2020-02-23T09:35:04.000Z</time>
      </trkpt>
      <trkpt lat="47.34403" lon="-2.35998">
        <ele>16.799999237061</ele>
        <time>2020-02-23T09:35:08.000Z</time>
      </trkpt>
      <trkpt lat="47.34406" lon="-2.36003">
        <ele>16.799999237061</ele>
        <time>2020-02-23T09:35:09.000Z</time>
      </trkpt>
      <trkpt lat="47.34417" lon="-2.36024">
        <ele>16.799999237061</ele>
        <time>2020-02-23T09:35:13.000Z</time>
      </trkpt>
      <trkpt lat="47.34418" lon="-2.3603">
        <ele>16.799999237061</ele>
        <time>2020-02-23T09:35:14.000Z</time>
      </trkpt>
      <trkpt lat="47.34424" lon="-2.36058">
        <ele>16.799999237061</ele>
        <time>2020-02-23T09:35:18.000Z</time>
      </trkpt>
      <trkpt lat="47.3444" lon="-2.36107">
        <ele>16.799999237061</ele>
        <time>2020-02-23T09:35:25.000Z</time>
      </trkpt>
      <trkpt lat="47.34443" lon="-2.36114">
        <ele>16.39999961853</ele>
        <time>2020-02-23T09:35:26.000Z</time>
      </trkpt>
      <trkpt lat="47.34446" lon="-2.36122">
        <ele>16</ele>
        <time>2020-02-23T09:35:27.000Z</time>
      </trkpt>
      <trkpt lat="47.34449" lon="-2.3613">
        <ele>15.60000038147</ele>
        <time>2020-02-23T09:35:28.000Z</time>
      </trkpt>
      <trkpt lat="47.34453" lon="-2.36137">
        <ele>15.199999809265</ele>
        <time>2020-02-23T09:35:29.000Z</time>
      </trkpt>
      <trkpt lat="47.34456" lon="-2.36146">
        <ele>14.800000190735</ele>
        <time>2020-02-23T09:35:30.000Z</time>
      </trkpt>
      <trkpt lat="47.34459" lon="-2.36153">
        <ele>14.800000190735</ele>
        <time>2020-02-23T09:35:31.000Z</time>
      </trkpt>
      <trkpt lat="47.34463" lon="-2.3616">
        <ele>14.800000190735</ele>
        <time>2020-02-23T09:35:32.000Z</time>
      </trkpt>
      <trkpt lat="47.34476" lon="-2.3618">
        <ele>14.800000190735</ele>
        <time>2020-02-23T09:35:35.000Z</time>
      </trkpt>
      <trkpt lat="47.34493" lon="-2.36209">
        <ele>14.39999961853</ele>
        <time>2020-02-23T09:35:39.000Z</time>
      </trkpt>
      <trkpt lat="47.34497" lon="-2.36216">
        <ele>14</ele>
        <time>2020-02-23T09:35:40.000Z</time>
      </trkpt>
      <trkpt lat="47.34501" lon="-2.36222">
        <ele>13.60000038147</ele>
        <time>2020-02-23T09:35:41.000Z</time>
      </trkpt>
      <trkpt lat="47.34504" lon="-2.3623">
        <ele>13.199999809265</ele>
        <time>2020-02-23T09:35:42.000Z</time>
      </trkpt>
      <trkpt lat="47.34507" lon="-2.36239">
        <ele>12.60000038147</ele>
        <time>2020-02-23T09:35:43.000Z</time>
      </trkpt>
      <trkpt lat="47.34514" lon="-2.36263">
        <ele>12.60000038147</ele>
        <time>2020-02-23T09:35:46.000Z</time>
      </trkpt>
      <trkpt lat="47.34528" lon="-2.36306">
        <ele>12.60000038147</ele>
        <time>2020-02-23T09:35:52.000Z</time>
      </trkpt>
      <trkpt lat="47.34532" lon="-2.3632">
        <ele>12.60000038147</ele>
        <time>2020-02-23T09:35:54.000Z</time>
      </trkpt>
      <trkpt lat="47.34539" lon="-2.36342">
        <ele>12.60000038147</ele>
        <time>2020-02-23T09:35:57.000Z</time>
      </trkpt>
      <trkpt lat="47.34547" lon="-2.36363">
        <ele>12.60000038147</ele>
        <time>2020-02-23T09:36:00.000Z</time>
      </trkpt>
      <trkpt lat="47.34557" lon="-2.36381">
        <ele>12.60000038147</ele>
        <time>2020-02-23T09:36:03.000Z</time>
      </trkpt>
      <trkpt lat="47.34578" lon="-2.3641">
        <ele>12.60000038147</ele>
        <time>2020-02-23T09:36:09.000Z</time>
      </trkpt>
      <trkpt lat="47.34581" lon="-2.36415">
        <ele>12.60000038147</ele>
        <time>2020-02-23T09:36:10.000Z</time>
      </trkpt>
      <trkpt lat="47.34589" lon="-2.36431">
        <ele>12.60000038147</ele>
        <time>2020-02-23T09:36:14.000Z</time>
      </trkpt>
      <trkpt lat="47.3459" lon="-2.36436">
        <ele>13.199999809265</ele>
        <time>2020-02-23T09:36:15.000Z</time>
      </trkpt>
      <trkpt lat="47.3459" lon="-2.36442">
        <ele>13.60000038147</ele>
        <time>2020-02-23T09:36:16.000Z</time>
      </trkpt>
      <trkpt lat="47.34587" lon="-2.36446">
        <ele>14</ele>
        <time>2020-02-23T09:36:17.000Z</time>
      </trkpt>
      <trkpt lat="47.34585" lon="-2.36451">
        <ele>14.39999961853</ele>
        <time>2020-02-23T09:36:18.000Z</time>
      </trkpt>
      <trkpt lat="47.34583" lon="-2.36456">
        <ele>14.800000190735</ele>
        <time>2020-02-23T09:36:19.000Z</time>
      </trkpt>
      <trkpt lat="47.34581" lon="-2.36463">
        <ele>14.800000190735</ele>
        <time>2020-02-23T09:36:20.000Z</time>
      </trkpt>
      <trkpt lat="47.34573" lon="-2.36487">
        <ele>14.800000190735</ele>
        <time>2020-02-23T09:36:24.000Z</time>
      </trkpt>
      <trkpt lat="47.34558" lon="-2.3653">
        <ele>14.800000190735</ele>
        <time>2020-02-23T09:36:31.000Z</time>
      </trkpt>
      <trkpt lat="47.34544" lon="-2.36564">
        <ele>14.800000190735</ele>
        <time>2020-02-23T09:36:37.000Z</time>
      </trkpt>
      <trkpt lat="47.34531" lon="-2.36598">
        <ele>15.39999961853</ele>
        <time>2020-02-23T09:36:43.000Z</time>
      </trkpt>
      <trkpt lat="47.34529" lon="-2.36604">
        <ele>15.800000190735</ele>
        <time>2020-02-23T09:36:44.000Z</time>
      </trkpt>
      <trkpt lat="47.34527" lon="-2.3661">
        <ele>16.39999961853</ele>
        <time>2020-02-23T09:36:45.000Z</time>
      </trkpt>
      <trkpt lat="47.34526" lon="-2.36616">
        <ele>16.799999237061</ele>
        <time>2020-02-23T09:36:46.000Z</time>
      </trkpt>
      <trkpt lat="47.34525" lon="-2.36622">
        <ele>17.200000762939</ele>
        <time>2020-02-23T09:36:47.000Z</time>
      </trkpt>
      <trkpt lat="47.34523" lon="-2.36628">
        <ele>17.200000762939</ele>
        <time>2020-02-23T09:36:48.000Z</time>
      </trkpt>
      <trkpt lat="47.3452" lon="-2.36634">
        <ele>17.200000762939</ele>
        <time>2020-02-23T09:36:49.000Z</time>
      </trkpt>
      <trkpt lat="47.34499" lon="-2.36684">
        <ele>17.200000762939</ele>
        <time>2020-02-23T09:36:57.000Z</time>
      </trkpt>
      <trkpt lat="47.34492" lon="-2.367">
        <ele>17.200000762939</ele>
        <time>2020-02-23T09:37:00.000Z</time>
      </trkpt>
      <trkpt lat="47.34486" lon="-2.36711">
        <ele>17.799999237061</ele>
        <time>2020-02-23T09:37:02.000Z</time>
      </trkpt>
      <trkpt lat="47.34483" lon="-2.36716">
        <ele>18.200000762939</ele>
        <time>2020-02-23T09:37:03.000Z</time>
      </trkpt>
      <trkpt lat="47.3448" lon="-2.36722">
        <ele>18.60000038147</ele>
        <time>2020-02-23T09:37:04.000Z</time>
      </trkpt>
      <trkpt lat="47.34477" lon="-2.36727">
        <ele>19</ele>
        <time>2020-02-23T09:37:05.000Z</time>
      </trkpt>
      <trkpt lat="47.34473" lon="-2.36733">
        <ele>19.39999961853</ele>
        <time>2020-02-23T09:37:06.000Z</time>
      </trkpt>
      <trkpt lat="47.34464" lon="-2.36749">
        <ele>19.39999961853</ele>
        <time>2020-02-23T09:37:09.000Z</time>
      </trkpt>
      <trkpt lat="47.34452" lon="-2.36768">
        <ele>19.39999961853</ele>
        <time>2020-02-23T09:37:13.000Z</time>
      </trkpt>
      <trkpt lat="47.34445" lon="-2.36778">
        <ele>19.799999237061</ele>
        <time>2020-02-23T09:37:15.000Z</time>
      </trkpt>
      <trkpt lat="47.34442" lon="-2.36783">
        <ele>20.200000762939</ele>
        <time>2020-02-23T09:37:16.000Z</time>
      </trkpt>
      <trkpt lat="47.34439" lon="-2.36788">
        <ele>20.60000038147</ele>
        <time>2020-02-23T09:37:17.000Z</time>
      </trkpt>
      <trkpt lat="47.34436" lon="-2.36793">
        <ele>21</ele>
        <time>2020-02-23T09:37:18.000Z</time>
      </trkpt>
      <trkpt lat="47.34433" lon="-2.36798">
        <ele>21.39999961853</ele>
        <time>2020-02-23T09:37:19.000Z</time>
      </trkpt>
      <trkpt lat="47.3443" lon="-2.36805">
        <ele>21.39999961853</ele>
        <time>2020-02-23T09:37:20.000Z</time>
      </trkpt>
      <trkpt lat="47.34427" lon="-2.36811">
        <ele>21.39999961853</ele>
        <time>2020-02-23T09:37:21.000Z</time>
      </trkpt>
      <trkpt lat="47.3441" lon="-2.36838">
        <ele>21.799999237061</ele>
        <time>2020-02-23T09:37:26.000Z</time>
      </trkpt>
      <trkpt lat="47.34407" lon="-2.36843">
        <ele>22.200000762939</ele>
        <time>2020-02-23T09:37:27.000Z</time>
      </trkpt>
      <trkpt lat="47.34404" lon="-2.36849">
        <ele>22.60000038147</ele>
        <time>2020-02-23T09:37:28.000Z</time>
      </trkpt>
      <trkpt lat="47.34401" lon="-2.36855">
        <ele>23.200000762939</ele>
        <time>2020-02-23T09:37:29.000Z</time>
      </trkpt>
      <trkpt lat="47.34398" lon="-2.3686">
        <ele>23.60000038147</ele>
        <time>2020-02-23T09:37:30.000Z</time>
      </trkpt>
      <trkpt lat="47.34381" lon="-2.36889">
        <ele>23.60000038147</ele>
        <time>2020-02-23T09:37:35.000Z</time>
      </trkpt>
      <trkpt lat="47.3435" lon="-2.36939">
        <ele>23.60000038147</ele>
        <time>2020-02-23T09:37:43.000Z</time>
      </trkpt>
      <trkpt lat="47.34341" lon="-2.36952">
        <ele>23.60000038147</ele>
        <time>2020-02-23T09:37:45.000Z</time>
      </trkpt>
      <trkpt lat="47.34329" lon="-2.36967">
        <ele>23.60000038147</ele>
        <time>2020-02-23T09:37:48.000Z</time>
      </trkpt>
      <trkpt lat="47.34305" lon="-2.37">
        <ele>23.60000038147</ele>
        <time>2020-02-23T09:37:54.000Z</time>
      </trkpt>
      <trkpt lat="47.34281" lon="-2.37028">
        <ele>23.60000038147</ele>
        <time>2020-02-23T09:38:00.000Z</time>
      </trkpt>
      <trkpt lat="47.34256" lon="-2.37051">
        <ele>23.60000038147</ele>
        <time>2020-02-23T09:38:06.000Z</time>
      </trkpt>
      <trkpt lat="47.34243" lon="-2.3706">
        <ele>23.60000038147</ele>
        <time>2020-02-23T09:38:09.000Z</time>
      </trkpt>
      <trkpt lat="47.34235" lon="-2.37059">
        <ele>23.60000038147</ele>
        <time>2020-02-23T09:38:11.000Z</time>
      </trkpt>
      <trkpt lat="47.34222" lon="-2.37039">
        <ele>23.60000038147</ele>
        <time>2020-02-23T09:38:14.000Z</time>
      </trkpt>
      <trkpt lat="47.34213" lon="-2.37024">
        <ele>23.200000762939</ele>
        <time>2020-02-23T09:38:16.000Z</time>
      </trkpt>
      <trkpt lat="47.34208" lon="-2.37016">
        <ele>22.799999237061</ele>
        <time>2020-02-23T09:38:17.000Z</time>
      </trkpt>
      <trkpt lat="47.34203" lon="-2.37008">
        <ele>22.39999961853</ele>
        <time>2020-02-23T09:38:18.000Z</time>
      </trkpt>
      <trkpt lat="47.34198" lon="-2.37">
        <ele>22</ele>
        <time>2020-02-23T09:38:19.000Z</time>
      </trkpt>
      <trkpt lat="47.34193" lon="-2.36993">
        <ele>21.39999961853</ele>
        <time>2020-02-23T09:38:20.000Z</time>
      </trkpt>
      <trkpt lat="47.34166" lon="-2.36958">
        <ele>21</ele>
        <time>2020-02-23T09:38:25.000Z</time>
      </trkpt>
      <trkpt lat="47.34161" lon="-2.36951">
        <ele>20.60000038147</ele>
        <time>2020-02-23T09:38:26.000Z</time>
      </trkpt>
      <trkpt lat="47.34156" lon="-2.36944">
        <ele>20</ele>
        <time>2020-02-23T09:38:27.000Z</time>
      </trkpt>
      <trkpt lat="47.34151" lon="-2.36935">
        <ele>19.60000038147</ele>
        <time>2020-02-23T09:38:28.000Z</time>
      </trkpt>
      <trkpt lat="47.34147" lon="-2.36927">
        <ele>19</ele>
        <time>2020-02-23T09:38:29.000Z</time>
      </trkpt>
      <trkpt lat="47.34135" lon="-2.36902">
        <ele>18.60000038147</ele>
        <time>2020-02-23T09:38:32.000Z</time>
      </trkpt>
      <trkpt lat="47.3413" lon="-2.36893">
        <ele>18.200000762939</ele>
        <time>2020-02-23T09:38:33.000Z</time>
      </trkpt>
      <trkpt lat="47.34125" lon="-2.36885">
        <ele>17.60000038147</ele>
        <time>2020-02-23T09:38:34.000Z</time>
      </trkpt>
      <trkpt lat="47.3412" lon="-2.36876">
        <ele>17.200000762939</ele>
        <time>2020-02-23T09:38:35.000Z</time>
      </trkpt>
      <trkpt lat="47.34116" lon="-2.36868">
        <ele>16.799999237061</ele>
        <time>2020-02-23T09:38:36.000Z</time>
      </trkpt>
      <trkpt lat="47.34109" lon="-2.3685">
        <ele>16.799999237061</ele>
        <time>2020-02-23T09:38:38.000Z</time>
      </trkpt>
      <trkpt lat="47.34101" lon="-2.36814">
        <ele>16.799999237061</ele>
        <time>2020-02-23T09:38:42.000Z</time>
      </trkpt>
      <trkpt lat="47.34093" lon="-2.36768">
        <ele>16.799999237061</ele>
        <time>2020-02-23T09:38:48.000Z</time>
      </trkpt>
      <trkpt lat="47.34092" lon="-2.3676">
        <ele>16.799999237061</ele>
        <time>2020-02-23T09:38:49.000Z</time>
      </trkpt>
      <trkpt lat="47.34085" lon="-2.36724">
        <ele>16.799999237061</ele>
        <time>2020-02-23T09:38:53.000Z</time>
      </trkpt>
      <trkpt lat="47.34079" lon="-2.36704">
        <ele>16.799999237061</ele>
        <time>2020-02-23T09:38:56.000Z</time>
      </trkpt>
      <trkpt lat="47.34074" lon="-2.36702">
        <ele>16.799999237061</ele>
        <time>2020-02-23T09:38:57.000Z</time>
      </trkpt>
      <trkpt lat="47.34059" lon="-2.36709">
        <ele>16.799999237061</ele>
        <time>2020-02-23T09:39:00.000Z</time>
      </trkpt>
      <trkpt lat="47.34049" lon="-2.36716">
        <ele>17.200000762939</ele>
        <time>2020-02-23T09:39:02.000Z</time>
      </trkpt>
      <trkpt lat="47.34044" lon="-2.36719">
        <ele>17.60000038147</ele>
        <time>2020-02-23T09:39:03.000Z</time>
      </trkpt>
      <trkpt lat="47.34039" lon="-2.36723">
        <ele>18.39999961853</ele>
        <time>2020-02-23T09:39:04.000Z</time>
      </trkpt>
      <trkpt lat="47.34034" lon="-2.36725">
        <ele>18.799999237061</ele>
        <time>2020-02-23T09:39:05.000Z</time>
      </trkpt>
      <trkpt lat="47.34005" lon="-2.36739">
        <ele>19.200000762939</ele>
        <time>2020-02-23T09:39:11.000Z</time>
      </trkpt>
      <trkpt lat="47.34" lon="-2.3674">
        <ele>19.60000038147</ele>
        <time>2020-02-23T09:39:12.000Z</time>
      </trkpt>
      <trkpt lat="47.33995" lon="-2.36741">
        <ele>20</ele>
        <time>2020-02-23T09:39:13.000Z</time>
      </trkpt>
      <trkpt lat="47.3399" lon="-2.36743">
        <ele>20.39999961853</ele>
        <time>2020-02-23T09:39:14.000Z</time>
      </trkpt>
      <trkpt lat="47.33984" lon="-2.36744">
        <ele>20.799999237061</ele>
        <time>2020-02-23T09:39:15.000Z</time>
      </trkpt>
      <trkpt lat="47.33979" lon="-2.36746">
        <ele>20.799999237061</ele>
        <time>2020-02-23T09:39:16.000Z</time>
      </trkpt>
      <trkpt lat="47.3395" lon="-2.3676">
        <ele>21.200000762939</ele>
        <time>2020-02-23T09:39:22.000Z</time>
      </trkpt>
      <trkpt lat="47.33945" lon="-2.36763">
        <ele>21.60000038147</ele>
        <time>2020-02-23T09:39:23.000Z</time>
      </trkpt>
      <trkpt lat="47.33941" lon="-2.36764">
        <ele>22</ele>
        <time>2020-02-23T09:39:24.000Z</time>
      </trkpt>
      <trkpt lat="47.33938" lon="-2.36767">
        <ele>22.39999961853</ele>
        <time>2020-02-23T09:39:25.000Z</time>
      </trkpt>
      <trkpt lat="47.33935" lon="-2.3677">
        <ele>22.799999237061</ele>
        <time>2020-02-23T09:39:26.000Z</time>
      </trkpt>
      <trkpt lat="47.33933" lon="-2.36773">
        <ele>22.799999237061</ele>
        <time>2020-02-23T09:39:27.000Z</time>
      </trkpt>
      <trkpt lat="47.33925" lon="-2.36782">
        <ele>22.799999237061</ele>
        <time>2020-02-23T09:39:32.000Z</time>
      </trkpt>
      <trkpt lat="47.33919" lon="-2.36779">
        <ele>22.799999237061</ele>
        <time>2020-02-23T09:39:37.000Z</time>
      </trkpt>
      <trkpt lat="47.33918" lon="-2.36777">
        <ele>22.799999237061</ele>
        <time>2020-02-23T09:39:38.000Z</time>
      </trkpt>
      <trkpt lat="47.33916" lon="-2.36764">
        <ele>22.799999237061</ele>
        <time>2020-02-23T09:39:42.000Z</time>
      </trkpt>
      <trkpt lat="47.33914" lon="-2.36761">
        <ele>22.799999237061</ele>
        <time>2020-02-23T09:39:43.000Z</time>
      </trkpt>
      <trkpt lat="47.33912" lon="-2.3676">
        <ele>22.799999237061</ele>
        <time>2020-02-23T09:39:44.000Z</time>
      </trkpt>
      <trkpt lat="47.33905" lon="-2.36757">
        <ele>22.799999237061</ele>
        <time>2020-02-23T09:39:47.000Z</time>
      </trkpt>
      <trkpt lat="47.33896" lon="-2.36761">
        <ele>22.799999237061</ele>
        <time>2020-02-23T09:39:50.000Z</time>
      </trkpt>
      <trkpt lat="47.33892" lon="-2.36762">
        <ele>22.799999237061</ele>
        <time>2020-02-23T09:39:51.000Z</time>
      </trkpt>
      <trkpt lat="47.33869" lon="-2.36768">
        <ele>22.799999237061</ele>
        <time>2020-02-23T09:39:57.000Z</time>
      </trkpt>
      <trkpt lat="47.33831" lon="-2.36777">
        <ele>22.799999237061</ele>
        <time>2020-02-23T09:40:06.000Z</time>
      </trkpt>
      <trkpt lat="47.33798" lon="-2.36787">
        <ele>22.799999237061</ele>
        <time>2020-02-23T09:40:13.000Z</time>
      </trkpt>
      <trkpt lat="47.33784" lon="-2.36791">
        <ele>22.799999237061</ele>
        <time>2020-02-23T09:40:16.000Z</time>
      </trkpt>
      <trkpt lat="47.33776" lon="-2.36794">
        <ele>22.799999237061</ele>
        <time>2020-02-23T09:40:18.000Z</time>
      </trkpt>
      <trkpt lat="47.33759" lon="-2.36802">
        <ele>23.200000762939</ele>
        <time>2020-02-23T09:40:22.000Z</time>
      </trkpt>
      <trkpt lat="47.33755" lon="-2.36804">
        <ele>23.60000038147</ele>
        <time>2020-02-23T09:40:23.000Z</time>
      </trkpt>
      <trkpt lat="47.33752" lon="-2.36804">
        <ele>24</ele>
        <time>2020-02-23T09:40:24.000Z</time>
      </trkpt>
      <trkpt lat="47.33748" lon="-2.36806">
        <ele>24.39999961853</ele>
        <time>2020-02-23T09:40:25.000Z</time>
      </trkpt>
      <trkpt lat="47.33744" lon="-2.36808">
        <ele>24.799999237061</ele>
        <time>2020-02-23T09:40:26.000Z</time>
      </trkpt>
      <trkpt lat="47.33729" lon="-2.36814">
        <ele>24.799999237061</ele>
        <time>2020-02-23T09:40:30.000Z</time>
      </trkpt>
      <trkpt lat="47.337" lon="-2.36832">
        <ele>24.799999237061</ele>
        <time>2020-02-23T09:40:37.000Z</time>
      </trkpt>
      <trkpt lat="47.33671" lon="-2.36865">
        <ele>24.799999237061</ele>
        <time>2020-02-23T09:40:43.000Z</time>
      </trkpt>
      <trkpt lat="47.33639" lon="-2.36901">
        <ele>24.799999237061</ele>
        <time>2020-02-23T09:40:50.000Z</time>
      </trkpt>
      <trkpt lat="47.33618" lon="-2.36931">
        <ele>24.799999237061</ele>
        <time>2020-02-23T09:40:55.000Z</time>
      </trkpt>
      <trkpt lat="47.3361" lon="-2.36943">
        <ele>24.799999237061</ele>
        <time>2020-02-23T09:40:57.000Z</time>
      </trkpt>
      <trkpt lat="47.33602" lon="-2.36968">
        <ele>24.799999237061</ele>
        <time>2020-02-23T09:41:00.000Z</time>
      </trkpt>
      <trkpt lat="47.336" lon="-2.36983">
        <ele>24.799999237061</ele>
        <time>2020-02-23T09:41:02.000Z</time>
      </trkpt>
      <trkpt lat="47.336" lon="-2.37">
        <ele>24.799999237061</ele>
        <time>2020-02-23T09:41:04.000Z</time>
      </trkpt>
      <trkpt lat="47.33603" lon="-2.37074">
        <ele>24.799999237061</ele>
        <time>2020-02-23T09:41:13.000Z</time>
      </trkpt>
      <trkpt lat="47.33604" lon="-2.37135">
        <ele>24.799999237061</ele>
        <time>2020-02-23T09:41:20.000Z</time>
      </trkpt>
      <trkpt lat="47.33601" lon="-2.37172">
        <ele>24.799999237061</ele>
        <time>2020-02-23T09:41:25.000Z</time>
      </trkpt>
      <trkpt lat="47.33599" lon="-2.37187">
        <ele>24.799999237061</ele>
        <time>2020-02-23T09:41:27.000Z</time>
      </trkpt>
      <trkpt lat="47.33598" lon="-2.37195">
        <ele>24.799999237061</ele>
        <time>2020-02-23T09:41:28.000Z</time>
      </trkpt>
      <trkpt lat="47.33598" lon="-2.37212">
        <ele>24.799999237061</ele>
        <time>2020-02-23T09:41:30.000Z</time>
      </trkpt>
      <trkpt lat="47.33601" lon="-2.37228">
        <ele>24.799999237061</ele>
        <time>2020-02-23T09:41:32.000Z</time>
      </trkpt>
      <trkpt lat="47.33605" lon="-2.37245">
        <ele>24.799999237061</ele>
        <time>2020-02-23T09:41:34.000Z</time>
      </trkpt>
      <trkpt lat="47.33615" lon="-2.37287">
        <ele>24.799999237061</ele>
        <time>2020-02-23T09:41:39.000Z</time>
      </trkpt>
      <trkpt lat="47.33616" lon="-2.37296">
        <ele>24.799999237061</ele>
        <time>2020-02-23T09:41:40.000Z</time>
      </trkpt>
      <trkpt lat="47.33615" lon="-2.37318">
        <ele>24.799999237061</ele>
        <time>2020-02-23T09:41:43.000Z</time>
      </trkpt>
      <trkpt lat="47.33607" lon="-2.37324">
        <ele>24.799999237061</ele>
        <time>2020-02-23T09:41:45.000Z</time>
      </trkpt>
      <trkpt lat="47.33601" lon="-2.37326">
        <ele>24.799999237061</ele>
        <time>2020-02-23T09:41:46.000Z</time>
      </trkpt>
      <trkpt lat="47.33583" lon="-2.3733">
        <ele>24.799999237061</ele>
        <time>2020-02-23T09:41:49.000Z</time>
      </trkpt>
      <trkpt lat="47.33567" lon="-2.37334">
        <ele>24.799999237061</ele>
        <time>2020-02-23T09:41:52.000Z</time>
      </trkpt>
      <trkpt lat="47.33553" lon="-2.37342">
        <ele>24.799999237061</ele>
        <time>2020-02-23T09:41:55.000Z</time>
      </trkpt>
      <trkpt lat="47.3354" lon="-2.37366">
        <ele>25.200000762939</ele>
        <time>2020-02-23T09:41:59.000Z</time>
      </trkpt>
      <trkpt lat="47.33539" lon="-2.37373">
        <ele>25.799999237061</ele>
        <time>2020-02-23T09:42:00.000Z</time>
      </trkpt>
      <trkpt lat="47.33538" lon="-2.37379">
        <ele>26.200000762939</ele>
        <time>2020-02-23T09:42:01.000Z</time>
      </trkpt>
      <trkpt lat="47.33538" lon="-2.37387">
        <ele>26.60000038147</ele>
        <time>2020-02-23T09:42:02.000Z</time>
      </trkpt>
      <trkpt lat="47.33538" lon="-2.37394">
        <ele>27</ele>
        <time>2020-02-23T09:42:03.000Z</time>
      </trkpt>
      <trkpt lat="47.33538" lon="-2.37402">
        <ele>27</ele>
        <time>2020-02-23T09:42:04.000Z</time>
      </trkpt>
      <trkpt lat="47.33537" lon="-2.37447">
        <ele>27</ele>
        <time>2020-02-23T09:42:10.000Z</time>
      </trkpt>
      <trkpt lat="47.33532" lon="-2.37468">
        <ele>27</ele>
        <time>2020-02-23T09:42:13.000Z</time>
      </trkpt>
      <trkpt lat="47.3353" lon="-2.37474">
        <ele>27.39999961853</ele>
        <time>2020-02-23T09:42:14.000Z</time>
      </trkpt>
      <trkpt lat="47.33527" lon="-2.37481">
        <ele>27.799999237061</ele>
        <time>2020-02-23T09:42:15.000Z</time>
      </trkpt>
      <trkpt lat="47.33524" lon="-2.37487">
        <ele>28.200000762939</ele>
        <time>2020-02-23T09:42:16.000Z</time>
      </trkpt>
      <trkpt lat="47.33522" lon="-2.37494">
        <ele>28.60000038147</ele>
        <time>2020-02-23T09:42:17.000Z</time>
      </trkpt>
      <trkpt lat="47.33519" lon="-2.375">
        <ele>29.200000762939</ele>
        <time>2020-02-23T09:42:18.000Z</time>
      </trkpt>
      <trkpt lat="47.33509" lon="-2.37517">
        <ele>29.200000762939</ele>
        <time>2020-02-23T09:42:21.000Z</time>
      </trkpt>
      <trkpt lat="47.33496" lon="-2.37538">
        <ele>29.60000038147</ele>
        <time>2020-02-23T09:42:25.000Z</time>
      </trkpt>
      <trkpt lat="47.33493" lon="-2.37543">
        <ele>30</ele>
        <time>2020-02-23T09:42:26.000Z</time>
      </trkpt>
      <trkpt lat="47.3349" lon="-2.37547">
        <ele>30.39999961853</ele>
        <time>2020-02-23T09:42:27.000Z</time>
      </trkpt>
      <trkpt lat="47.33487" lon="-2.37552">
        <ele>30.799999237061</ele>
        <time>2020-02-23T09:42:28.000Z</time>
      </trkpt>
      <trkpt lat="47.33484" lon="-2.37557">
        <ele>31.39999961853</ele>
        <time>2020-02-23T09:42:29.000Z</time>
      </trkpt>
      <trkpt lat="47.3346" lon="-2.37584">
        <ele>31.39999961853</ele>
        <time>2020-02-23T09:42:35.000Z</time>
      </trkpt>
      <trkpt lat="47.33449" lon="-2.37596">
        <ele>31.39999961853</ele>
        <time>2020-02-23T09:42:38.000Z</time>
      </trkpt>
      <trkpt lat="47.33441" lon="-2.37603">
        <ele>31.39999961853</ele>
        <time>2020-02-23T09:42:40.000Z</time>
      </trkpt>
      <trkpt lat="47.33419" lon="-2.37621">
        <ele>31.39999961853</ele>
        <time>2020-02-23T09:42:45.000Z</time>
      </trkpt>
      <trkpt lat="47.3341" lon="-2.37629">
        <ele>31.39999961853</ele>
        <time>2020-02-23T09:42:47.000Z</time>
      </trkpt>
      <trkpt lat="47.33398" lon="-2.37643">
        <ele>31.39999961853</ele>
        <time>2020-02-23T09:42:50.000Z</time>
      </trkpt>
      <trkpt lat="47.33392" lon="-2.37657">
        <ele>31.39999961853</ele>
        <time>2020-02-23T09:42:52.000Z</time>
      </trkpt>
      <trkpt lat="47.33386" lon="-2.37686">
        <ele>31.39999961853</ele>
        <time>2020-02-23T09:42:56.000Z</time>
      </trkpt>
      <trkpt lat="47.33386" lon="-2.37692">
        <ele>31.39999961853</ele>
        <time>2020-02-23T09:42:57.000Z</time>
      </trkpt>
      <trkpt lat="47.33386" lon="-2.37699">
        <ele>31.799999237061</ele>
        <time>2020-02-23T09:42:58.000Z</time>
      </trkpt>
      <trkpt lat="47.33386" lon="-2.37706">
        <ele>32.200000762939</ele>
        <time>2020-02-23T09:42:59.000Z</time>
      </trkpt>
      <trkpt lat="47.33385" lon="-2.37713">
        <ele>32.599998474121</ele>
        <time>2020-02-23T09:43:00.000Z</time>
      </trkpt>
      <trkpt lat="47.33385" lon="-2.3772">
        <ele>33</ele>
        <time>2020-02-23T09:43:01.000Z</time>
      </trkpt>
      <trkpt lat="47.33385" lon="-2.37727">
        <ele>33.599998474121</ele>
        <time>2020-02-23T09:43:02.000Z</time>
      </trkpt>
      <trkpt lat="47.33385" lon="-2.37755">
        <ele>33.599998474121</ele>
        <time>2020-02-23T09:43:06.000Z</time>
      </trkpt>
      <trkpt lat="47.33385" lon="-2.37794">
        <ele>33.599998474121</ele>
        <time>2020-02-23T09:43:11.000Z</time>
      </trkpt>
      <trkpt lat="47.33384" lon="-2.378">
        <ele>33.599998474121</ele>
        <time>2020-02-23T09:43:12.000Z</time>
      </trkpt>
      <trkpt lat="47.33382" lon="-2.37807">
        <ele>33.599998474121</ele>
        <time>2020-02-23T09:43:13.000Z</time>
      </trkpt>
      <trkpt lat="47.33373" lon="-2.37834">
        <ele>33.599998474121</ele>
        <time>2020-02-23T09:43:17.000Z</time>
      </trkpt>
      <trkpt lat="47.3337" lon="-2.3784">
        <ele>33.599998474121</ele>
        <time>2020-02-23T09:43:18.000Z</time>
      </trkpt>
      <trkpt lat="47.33366" lon="-2.3785">
        <ele>33.599998474121</ele>
        <time>2020-02-23T09:43:20.000Z</time>
      </trkpt>
      <trkpt lat="47.33363" lon="-2.37852">
        <ele>33.599998474121</ele>
        <time>2020-02-23T09:43:21.000Z</time>
      </trkpt>
      <trkpt lat="47.33359" lon="-2.37852">
        <ele>33</ele>
        <time>2020-02-23T09:43:23.000Z</time>
      </trkpt>
      <trkpt lat="47.33358" lon="-2.37852">
        <ele>32.400001525879</ele>
        <time>2020-02-23T09:43:24.000Z</time>
      </trkpt>
      <trkpt lat="47.33357" lon="-2.37851">
        <ele>32</ele>
        <time>2020-02-23T09:43:25.000Z</time>
      </trkpt>
      <trkpt lat="47.33355" lon="-2.37851">
        <ele>31.39999961853</ele>
        <time>2020-02-23T09:43:26.000Z</time>
      </trkpt>
      <trkpt lat="47.33354" lon="-2.37851">
        <ele>31</ele>
        <time>2020-02-23T09:43:27.000Z</time>
      </trkpt>
      <trkpt lat="47.33348" lon="-2.37849">
        <ele>31</ele>
        <time>2020-02-23T09:43:30.000Z</time>
      </trkpt>
      <trkpt lat="47.33332" lon="-2.37849">
        <ele>31</ele>
        <time>2020-02-23T09:43:37.000Z</time>
      </trkpt>
      <trkpt lat="47.33316" lon="-2.37854">
        <ele>30.60000038147</ele>
        <time>2020-02-23T09:43:43.000Z</time>
      </trkpt>
      <trkpt lat="47.33314" lon="-2.37854">
        <ele>30.200000762939</ele>
        <time>2020-02-23T09:43:44.000Z</time>
      </trkpt>
      <trkpt lat="47.33312" lon="-2.37855">
        <ele>29.799999237061</ele>
        <time>2020-02-23T09:43:45.000Z</time>
      </trkpt>
      <trkpt lat="47.33311" lon="-2.37855">
        <ele>29.200000762939</ele>
        <time>2020-02-23T09:43:46.000Z</time>
      </trkpt>
      <trkpt lat="47.3331" lon="-2.37856">
        <ele>28.799999237061</ele>
        <time>2020-02-23T09:43:47.000Z</time>
      </trkpt>
      <trkpt lat="47.33307" lon="-2.37858">
        <ele>28.799999237061</ele>
        <time>2020-02-23T09:43:50.000Z</time>
      </trkpt>
      <trkpt lat="47.33301" lon="-2.37861">
        <ele>28.799999237061</ele>
        <time>2020-02-23T09:43:56.000Z</time>
      </trkpt>
      <trkpt lat="47.33288" lon="-2.37864">
        <ele>28.799999237061</ele>
        <time>2020-02-23T09:44:01.000Z</time>
      </trkpt>
      <trkpt lat="47.3328" lon="-2.37865">
        <ele>28.39999961853</ele>
        <time>2020-02-23T09:44:03.000Z</time>
      </trkpt>
      <trkpt lat="47.33276" lon="-2.37867">
        <ele>28</ele>
        <time>2020-02-23T09:44:04.000Z</time>
      </trkpt>
      <trkpt lat="47.3327" lon="-2.37867">
        <ele>27.60000038147</ele>
        <time>2020-02-23T09:44:05.000Z</time>
      </trkpt>
      <trkpt lat="47.33262" lon="-2.37866">
        <ele>27.200000762939</ele>
        <time>2020-02-23T09:44:06.000Z</time>
      </trkpt>
      <trkpt lat="47.33255" lon="-2.37863">
        <ele>26.799999237061</ele>
        <time>2020-02-23T09:44:07.000Z</time>
      </trkpt>
      <trkpt lat="47.33249" lon="-2.3786">
        <ele>26.799999237061</ele>
        <time>2020-02-23T09:44:08.000Z</time>
      </trkpt>
      <trkpt lat="47.33242" lon="-2.37856">
        <ele>26.39999961853</ele>
        <time>2020-02-23T09:44:09.000Z</time>
      </trkpt>
      <trkpt lat="47.33237" lon="-2.37852">
        <ele>26</ele>
        <time>2020-02-23T09:44:10.000Z</time>
      </trkpt>
      <trkpt lat="47.33231" lon="-2.37847">
        <ele>25.39999961853</ele>
        <time>2020-02-23T09:44:11.000Z</time>
      </trkpt>
      <trkpt lat="47.33225" lon="-2.37842">
        <ele>25</ele>
        <time>2020-02-23T09:44:12.000Z</time>
      </trkpt>
      <trkpt lat="47.3322" lon="-2.37836">
        <ele>24.60000038147</ele>
        <time>2020-02-23T09:44:13.000Z</time>
      </trkpt>
      <trkpt lat="47.33215" lon="-2.37829">
        <ele>24.60000038147</ele>
        <time>2020-02-23T09:44:14.000Z</time>
      </trkpt>
      <trkpt lat="47.33194" lon="-2.37798">
        <ele>24.60000038147</ele>
        <time>2020-02-23T09:44:19.000Z</time>
      </trkpt>
      <trkpt lat="47.33184" lon="-2.37781">
        <ele>24.200000762939</ele>
        <time>2020-02-23T09:44:22.000Z</time>
      </trkpt>
      <trkpt lat="47.3318" lon="-2.37774">
        <ele>23.799999237061</ele>
        <time>2020-02-23T09:44:23.000Z</time>
      </trkpt>
      <trkpt lat="47.33177" lon="-2.37768">
        <ele>23</ele>
        <time>2020-02-23T09:44:24.000Z</time>
      </trkpt>
      <trkpt lat="47.33174" lon="-2.37763">
        <ele>22.39999961853</ele>
        <time>2020-02-23T09:44:25.000Z</time>
      </trkpt>
      <trkpt lat="47.33171" lon="-2.37757">
        <ele>22</ele>
        <time>2020-02-23T09:44:26.000Z</time>
      </trkpt>
      <trkpt lat="47.33168" lon="-2.37752">
        <ele>21.39999961853</ele>
        <time>2020-02-23T09:44:27.000Z</time>
      </trkpt>
      <trkpt lat="47.33166" lon="-2.37746">
        <ele>21</ele>
        <time>2020-02-23T09:44:28.000Z</time>
      </trkpt>
      <trkpt lat="47.33163" lon="-2.37741">
        <ele>20.39999961853</ele>
        <time>2020-02-23T09:44:29.000Z</time>
      </trkpt>
      <trkpt lat="47.33153" lon="-2.37732">
        <ele>20.39999961853</ele>
        <time>2020-02-23T09:44:32.000Z</time>
      </trkpt>
      <trkpt lat="47.33138" lon="-2.37734">
        <ele>20.39999961853</ele>
        <time>2020-02-23T09:44:36.000Z</time>
      </trkpt>
      <trkpt lat="47.3312" lon="-2.3775">
        <ele>20.39999961853</ele>
        <time>2020-02-23T09:44:41.000Z</time>
      </trkpt>
      <trkpt lat="47.33102" lon="-2.37767">
        <ele>20.39999961853</ele>
        <time>2020-02-23T09:44:46.000Z</time>
      </trkpt>
      <trkpt lat="47.33092" lon="-2.37777">
        <ele>20.39999961853</ele>
        <time>2020-02-23T09:44:49.000Z</time>
      </trkpt>
      <trkpt lat="47.33088" lon="-2.3778">
        <ele>20.39999961853</ele>
        <time>2020-02-23T09:44:50.000Z</time>
      </trkpt>
      <trkpt lat="47.33063" lon="-2.37804">
        <ele>20.39999961853</ele>
        <time>2020-02-23T09:44:57.000Z</time>
      </trkpt>
      <trkpt lat="47.3304" lon="-2.3783">
        <ele>20.799999237061</ele>
        <time>2020-02-23T09:45:04.000Z</time>
      </trkpt>
      <trkpt lat="47.33037" lon="-2.37834">
        <ele>21.200000762939</ele>
        <time>2020-02-23T09:45:05.000Z</time>
      </trkpt>
      <trkpt lat="47.33033" lon="-2.37838">
        <ele>21.799999237061</ele>
        <time>2020-02-23T09:45:06.000Z</time>
      </trkpt>
      <trkpt lat="47.3303" lon="-2.37843">
        <ele>22.200000762939</ele>
        <time>2020-02-23T09:45:07.000Z</time>
      </trkpt>
      <trkpt lat="47.33027" lon="-2.37848">
        <ele>22.60000038147</ele>
        <time>2020-02-23T09:45:08.000Z</time>
      </trkpt>
      <trkpt lat="47.33023" lon="-2.3786">
        <ele>22.60000038147</ele>
        <time>2020-02-23T09:45:10.000Z</time>
      </trkpt>
      <trkpt lat="47.33009" lon="-2.37886">
        <ele>22.60000038147</ele>
        <time>2020-02-23T09:45:15.000Z</time>
      </trkpt>
      <trkpt lat="47.32985" lon="-2.37926">
        <ele>22.60000038147</ele>
        <time>2020-02-23T09:45:23.000Z</time>
      </trkpt>
      <trkpt lat="47.32956" lon="-2.3797">
        <ele>22.60000038147</ele>
        <time>2020-02-23T09:45:32.000Z</time>
      </trkpt>
      <trkpt lat="47.32949" lon="-2.37981">
        <ele>23</ele>
        <time>2020-02-23T09:45:34.000Z</time>
      </trkpt>
      <trkpt lat="47.32945" lon="-2.37986">
        <ele>23.39999961853</ele>
        <time>2020-02-23T09:45:35.000Z</time>
      </trkpt>
      <trkpt lat="47.32941" lon="-2.37991">
        <ele>23.799999237061</ele>
        <time>2020-02-23T09:45:36.000Z</time>
      </trkpt>
      <trkpt lat="47.32937" lon="-2.37996">
        <ele>24.200000762939</ele>
        <time>2020-02-23T09:45:37.000Z</time>
      </trkpt>
      <trkpt lat="47.32933" lon="-2.38001">
        <ele>24.799999237061</ele>
        <time>2020-02-23T09:45:38.000Z</time>
      </trkpt>
      <trkpt lat="47.32919" lon="-2.38017">
        <ele>24.799999237061</ele>
        <time>2020-02-23T09:45:42.000Z</time>
      </trkpt>
      <trkpt lat="47.32914" lon="-2.38027">
        <ele>24.799999237061</ele>
        <time>2020-02-23T09:45:44.000Z</time>
      </trkpt>
      <trkpt lat="47.32906" lon="-2.38045">
        <ele>24.799999237061</ele>
        <time>2020-02-23T09:45:47.000Z</time>
      </trkpt>
      <trkpt lat="47.32901" lon="-2.38055">
        <ele>24.799999237061</ele>
        <time>2020-02-23T09:45:49.000Z</time>
      </trkpt>
      <trkpt lat="47.32898" lon="-2.38061">
        <ele>24.799999237061</ele>
        <time>2020-02-23T09:45:50.000Z</time>
      </trkpt>
      <trkpt lat="47.32887" lon="-2.38081">
        <ele>24.799999237061</ele>
        <time>2020-02-23T09:45:54.000Z</time>
      </trkpt>
      <trkpt lat="47.32879" lon="-2.38096">
        <ele>24.799999237061</ele>
        <time>2020-02-23T09:45:57.000Z</time>
      </trkpt>
      <trkpt lat="47.32873" lon="-2.38105">
        <ele>24.799999237061</ele>
        <time>2020-02-23T09:45:59.000Z</time>
      </trkpt>
      <trkpt lat="47.32857" lon="-2.3813">
        <ele>24.799999237061</ele>
        <time>2020-02-23T09:46:04.000Z</time>
      </trkpt>
      <trkpt lat="47.32852" lon="-2.3814">
        <ele>24.799999237061</ele>
        <time>2020-02-23T09:46:06.000Z</time>
      </trkpt>
      <trkpt lat="47.32841" lon="-2.38162">
        <ele>25.200000762939</ele>
        <time>2020-02-23T09:46:10.000Z</time>
      </trkpt>
      <trkpt lat="47.32839" lon="-2.38167">
        <ele>25.60000038147</ele>
        <time>2020-02-23T09:46:11.000Z</time>
      </trkpt>
      <trkpt lat="47.32837" lon="-2.38173">
        <ele>26</ele>
        <time>2020-02-23T09:46:12.000Z</time>
      </trkpt>
      <trkpt lat="47.32834" lon="-2.38179">
        <ele>26.39999961853</ele>
        <time>2020-02-23T09:46:13.000Z</time>
      </trkpt>
      <trkpt lat="47.32832" lon="-2.38184">
        <ele>26.799999237061</ele>
        <time>2020-02-23T09:46:14.000Z</time>
      </trkpt>
      <trkpt lat="47.32829" lon="-2.3819">
        <ele>26.799999237061</ele>
        <time>2020-02-23T09:46:15.000Z</time>
      </trkpt>
      <trkpt lat="47.32824" lon="-2.38207">
        <ele>26.799999237061</ele>
        <time>2020-02-23T09:46:18.000Z</time>
      </trkpt>
      <trkpt lat="47.3282" lon="-2.38218">
        <ele>27.200000762939</ele>
        <time>2020-02-23T09:46:20.000Z</time>
      </trkpt>
      <trkpt lat="47.32818" lon="-2.38223">
        <ele>27.60000038147</ele>
        <time>2020-02-23T09:46:21.000Z</time>
      </trkpt>
      <trkpt lat="47.32816" lon="-2.38228">
        <ele>28</ele>
        <time>2020-02-23T09:46:22.000Z</time>
      </trkpt>
      <trkpt lat="47.32814" lon="-2.38233">
        <ele>28.39999961853</ele>
        <time>2020-02-23T09:46:23.000Z</time>
      </trkpt>
      <trkpt lat="47.32813" lon="-2.38238">
        <ele>28.799999237061</ele>
        <time>2020-02-23T09:46:24.000Z</time>
      </trkpt>
      <trkpt lat="47.32806" lon="-2.3826">
        <ele>28.799999237061</ele>
        <time>2020-02-23T09:46:29.000Z</time>
      </trkpt>
      <trkpt lat="47.32805" lon="-2.38264">
        <ele>29.200000762939</ele>
        <time>2020-02-23T09:46:30.000Z</time>
      </trkpt>
      <trkpt lat="47.32804" lon="-2.38269">
        <ele>29.60000038147</ele>
        <time>2020-02-23T09:46:31.000Z</time>
      </trkpt>
      <trkpt lat="47.32803" lon="-2.38274">
        <ele>30</ele>
        <time>2020-02-23T09:46:32.000Z</time>
      </trkpt>
      <trkpt lat="47.32802" lon="-2.38279">
        <ele>30.39999961853</ele>
        <time>2020-02-23T09:46:33.000Z</time>
      </trkpt>
      <trkpt lat="47.32801" lon="-2.38283">
        <ele>30.799999237061</ele>
        <time>2020-02-23T09:46:34.000Z</time>
      </trkpt>
      <trkpt lat="47.32798" lon="-2.38298">
        <ele>30.799999237061</ele>
        <time>2020-02-23T09:46:37.000Z</time>
      </trkpt>
      <trkpt lat="47.32795" lon="-2.38315">
        <ele>31.200000762939</ele>
        <time>2020-02-23T09:46:41.000Z</time>
      </trkpt>
      <trkpt lat="47.32793" lon="-2.38319">
        <ele>31.799999237061</ele>
        <time>2020-02-23T09:46:42.000Z</time>
      </trkpt>
      <trkpt lat="47.32792" lon="-2.38323">
        <ele>32.200000762939</ele>
        <time>2020-02-23T09:46:43.000Z</time>
      </trkpt>
      <trkpt lat="47.32792" lon="-2.38328">
        <ele>32.599998474121</ele>
        <time>2020-02-23T09:46:44.000Z</time>
      </trkpt>
      <trkpt lat="47.32791" lon="-2.38332">
        <ele>33</ele>
        <time>2020-02-23T09:46:45.000Z</time>
      </trkpt>
      <trkpt lat="47.3279" lon="-2.38337">
        <ele>33</ele>
        <time>2020-02-23T09:46:46.000Z</time>
      </trkpt>
      <trkpt lat="47.32787" lon="-2.38359">
        <ele>33.400001525879</ele>
        <time>2020-02-23T09:46:50.000Z</time>
      </trkpt>
      <trkpt lat="47.32786" lon="-2.38364">
        <ele>34</ele>
        <time>2020-02-23T09:46:51.000Z</time>
      </trkpt>
      <trkpt lat="47.32786" lon="-2.38369">
        <ele>34.400001525879</ele>
        <time>2020-02-23T09:46:52.000Z</time>
      </trkpt>
      <trkpt lat="47.32785" lon="-2.38373">
        <ele>35.200000762939</ele>
        <time>2020-02-23T09:46:53.000Z</time>
      </trkpt>
      <trkpt lat="47.32781" lon="-2.3839">
        <ele>35.200000762939</ele>
        <time>2020-02-23T09:46:59.000Z</time>
      </trkpt>
      <trkpt lat="47.32779" lon="-2.38393">
        <ele>35.200000762939</ele>
        <time>2020-02-23T09:47:01.000Z</time>
      </trkpt>
      <trkpt lat="47.32776" lon="-2.38393">
        <ele>35.200000762939</ele>
        <time>2020-02-23T09:47:59.000Z</time>
      </trkpt>
      <trkpt lat="47.32774" lon="-2.38393">
        <ele>35.200000762939</ele>
        <time>2020-02-23T09:48:00.000Z</time>
      </trkpt>
      <trkpt lat="47.3276" lon="-2.38395">
        <ele>35.200000762939</ele>
        <time>2020-02-23T09:48:05.000Z</time>
      </trkpt>
      <trkpt lat="47.32736" lon="-2.38403">
        <ele>35.200000762939</ele>
        <time>2020-02-23T09:48:12.000Z</time>
      </trkpt>
      <trkpt lat="47.3271" lon="-2.38405">
        <ele>35.200000762939</ele>
        <time>2020-02-23T09:48:18.000Z</time>
      </trkpt>
      <trkpt lat="47.32705" lon="-2.38404">
        <ele>34.799999237061</ele>
        <time>2020-02-23T09:48:19.000Z</time>
      </trkpt>
      <trkpt lat="47.327" lon="-2.38402">
        <ele>34.400001525879</ele>
        <time>2020-02-23T09:48:20.000Z</time>
      </trkpt>
      <trkpt lat="47.32695" lon="-2.38399">
        <ele>34</ele>
        <time>2020-02-23T09:48:21.000Z</time>
      </trkpt>
      <trkpt lat="47.32691" lon="-2.38395">
        <ele>33.599998474121</ele>
        <time>2020-02-23T09:48:22.000Z</time>
      </trkpt>
      <trkpt lat="47.32687" lon="-2.3839">
        <ele>33</ele>
        <time>2020-02-23T09:48:23.000Z</time>
      </trkpt>
      <trkpt lat="47.32682" lon="-2.38385">
        <ele>33</ele>
        <time>2020-02-23T09:48:24.000Z</time>
      </trkpt>
      <trkpt lat="47.32664" lon="-2.38364">
        <ele>32.599998474121</ele>
        <time>2020-02-23T09:48:27.000Z</time>
      </trkpt>
      <trkpt lat="47.32659" lon="-2.38357">
        <ele>32.200000762939</ele>
        <time>2020-02-23T09:48:28.000Z</time>
      </trkpt>
      <trkpt lat="47.32653" lon="-2.3835">
        <ele>31.799999237061</ele>
        <time>2020-02-23T09:48:29.000Z</time>
      </trkpt>
      <trkpt lat="47.32647" lon="-2.38343">
        <ele>31.200000762939</ele>
        <time>2020-02-23T09:48:30.000Z</time>
      </trkpt>
      <trkpt lat="47.32641" lon="-2.38335">
        <ele>30.799999237061</ele>
        <time>2020-02-23T09:48:31.000Z</time>
      </trkpt>
      <trkpt lat="47.32622" lon="-2.3831">
        <ele>30.799999237061</ele>
        <time>2020-02-23T09:48:34.000Z</time>
      </trkpt>
      <trkpt lat="47.32608" lon="-2.38298">
        <ele>30.39999961853</ele>
        <time>2020-02-23T09:48:36.000Z</time>
      </trkpt>
      <trkpt lat="47.326" lon="-2.38295">
        <ele>30</ele>
        <time>2020-02-23T09:48:37.000Z</time>
      </trkpt>
      <trkpt lat="47.32592" lon="-2.38295">
        <ele>29</ele>
        <time>2020-02-23T09:48:38.000Z</time>
      </trkpt>
      <trkpt lat="47.32585" lon="-2.38297">
        <ele>28.60000038147</ele>
        <time>2020-02-23T09:48:39.000Z</time>
      </trkpt>
      <trkpt lat="47.32571" lon="-2.38302">
        <ele>28.60000038147</ele>
        <time>2020-02-23T09:48:41.000Z</time>
      </trkpt>
      <trkpt lat="47.32564" lon="-2.38305">
        <ele>28.200000762939</ele>
        <time>2020-02-23T09:48:42.000Z</time>
      </trkpt>
      <trkpt lat="47.32558" lon="-2.38307">
        <ele>27.799999237061</ele>
        <time>2020-02-23T09:48:43.000Z</time>
      </trkpt>
      <trkpt lat="47.32552" lon="-2.38309">
        <ele>27.200000762939</ele>
        <time>2020-02-23T09:48:44.000Z</time>
      </trkpt>
      <trkpt lat="47.32546" lon="-2.38311">
        <ele>26.799999237061</ele>
        <time>2020-02-23T09:48:45.000Z</time>
      </trkpt>
      <trkpt lat="47.32542" lon="-2.38312">
        <ele>26.39999961853</ele>
        <time>2020-02-23T09:48:46.000Z</time>
      </trkpt>
      <trkpt lat="47.32534" lon="-2.38317">
        <ele>26.39999961853</ele>
        <time>2020-02-23T09:48:49.000Z</time>
      </trkpt>
      <trkpt lat="47.32531" lon="-2.38319">
        <ele>26.39999961853</ele>
        <time>2020-02-23T09:48:50.000Z</time>
      </trkpt>
      <trkpt lat="47.32528" lon="-2.38335">
        <ele>26.39999961853</ele>
        <time>2020-02-23T09:48:55.000Z</time>
      </trkpt>
      <trkpt lat="47.32527" lon="-2.38357">
        <ele>26.799999237061</ele>
        <time>2020-02-23T09:48:59.000Z</time>
      </trkpt>
      <trkpt lat="47.32527" lon="-2.38362">
        <ele>27.200000762939</ele>
        <time>2020-02-23T09:49:00.000Z</time>
      </trkpt>
      <trkpt lat="47.32527" lon="-2.38368">
        <ele>27.60000038147</ele>
        <time>2020-02-23T09:49:01.000Z</time>
      </trkpt>
      <trkpt lat="47.32527" lon="-2.38373">
        <ele>28.39999961853</ele>
        <time>2020-02-23T09:49:02.000Z</time>
      </trkpt>
      <trkpt lat="47.32524" lon="-2.38377">
        <ele>28.39999961853</ele>
        <time>2020-02-23T09:49:03.000Z</time>
      </trkpt>
      <trkpt lat="47.3252" lon="-2.38381">
        <ele>28.39999961853</ele>
        <time>2020-02-23T09:49:04.000Z</time>
      </trkpt>
      <trkpt lat="47.32505" lon="-2.3838">
        <ele>28.39999961853</ele>
        <time>2020-02-23T09:49:07.000Z</time>
      </trkpt>
      <trkpt lat="47.32489" lon="-2.38372">
        <ele>28.39999961853</ele>
        <time>2020-02-23T09:49:10.000Z</time>
      </trkpt>
      <trkpt lat="47.32484" lon="-2.38371">
        <ele>28.39999961853</ele>
        <time>2020-02-23T09:49:11.000Z</time>
      </trkpt>
      <trkpt lat="47.32474" lon="-2.38368">
        <ele>28.39999961853</ele>
        <time>2020-02-23T09:49:13.000Z</time>
      </trkpt>
      <trkpt lat="47.3246" lon="-2.38362">
        <ele>28.39999961853</ele>
        <time>2020-02-23T09:49:16.000Z</time>
      </trkpt>
      <trkpt lat="47.32451" lon="-2.38358">
        <ele>28.39999961853</ele>
        <time>2020-02-23T09:49:18.000Z</time>
      </trkpt>
      <trkpt lat="47.32431" lon="-2.38349">
        <ele>28.39999961853</ele>
        <time>2020-02-23T09:49:22.000Z</time>
      </trkpt>
      <trkpt lat="47.32403" lon="-2.38336">
        <ele>28.39999961853</ele>
        <time>2020-02-23T09:49:28.000Z</time>
      </trkpt>
      <trkpt lat="47.32398" lon="-2.38333">
        <ele>28.39999961853</ele>
        <time>2020-02-23T09:49:29.000Z</time>
      </trkpt>
      <trkpt lat="47.32363" lon="-2.38318">
        <ele>28.39999961853</ele>
        <time>2020-02-23T09:49:36.000Z</time>
      </trkpt>
      <trkpt lat="47.32319" lon="-2.38299">
        <ele>28.39999961853</ele>
        <time>2020-02-23T09:49:44.000Z</time>
      </trkpt>
      <trkpt lat="47.32289" lon="-2.38288">
        <ele>28</ele>
        <time>2020-02-23T09:49:49.000Z</time>
      </trkpt>
      <trkpt lat="47.32283" lon="-2.38287">
        <ele>27.60000038147</ele>
        <time>2020-02-23T09:49:50.000Z</time>
      </trkpt>
      <trkpt lat="47.32277" lon="-2.38287">
        <ele>27.200000762939</ele>
        <time>2020-02-23T09:49:51.000Z</time>
      </trkpt>
      <trkpt lat="47.32271" lon="-2.38287">
        <ele>26.799999237061</ele>
        <time>2020-02-23T09:49:52.000Z</time>
      </trkpt>
      <trkpt lat="47.32265" lon="-2.38287">
        <ele>26.39999961853</ele>
        <time>2020-02-23T09:49:53.000Z</time>
      </trkpt>
      <trkpt lat="47.32254" lon="-2.38289">
        <ele>26.39999961853</ele>
        <time>2020-02-23T09:49:55.000Z</time>
      </trkpt>
      <trkpt lat="47.32231" lon="-2.38293">
        <ele>26.39999961853</ele>
        <time>2020-02-23T09:49:59.000Z</time>
      </trkpt>
      <trkpt lat="47.32222" lon="-2.38292">
        <ele>26.39999961853</ele>
        <time>2020-02-23T09:50:01.000Z</time>
      </trkpt>
      <trkpt lat="47.32218" lon="-2.38293">
        <ele>26</ele>
        <time>2020-02-23T09:50:02.000Z</time>
      </trkpt>
      <trkpt lat="47.32214" lon="-2.38295">
        <ele>25.60000038147</ele>
        <time>2020-02-23T09:50:03.000Z</time>
      </trkpt>
      <trkpt lat="47.32212" lon="-2.38298">
        <ele>25.200000762939</ele>
        <time>2020-02-23T09:50:04.000Z</time>
      </trkpt>
      <trkpt lat="47.3221" lon="-2.38301">
        <ele>24.200000762939</ele>
        <time>2020-02-23T09:50:05.000Z</time>
      </trkpt>
      <trkpt lat="47.32204" lon="-2.38308">
        <ele>24.200000762939</ele>
        <time>2020-02-23T09:50:09.000Z</time>
      </trkpt>
      <trkpt lat="47.32192" lon="-2.38325">
        <ele>24.200000762939</ele>
        <time>2020-02-23T09:50:16.000Z</time>
      </trkpt>
      <trkpt lat="47.32187" lon="-2.38334">
        <ele>24.200000762939</ele>
        <time>2020-02-23T09:50:22.000Z</time>
      </trkpt>
      <trkpt lat="47.32181" lon="-2.38344">
        <ele>24.200000762939</ele>
        <time>2020-02-23T09:50:27.000Z</time>
      </trkpt>
      <trkpt lat="47.32175" lon="-2.38354">
        <ele>24.200000762939</ele>
        <time>2020-02-23T09:50:33.000Z</time>
      </trkpt>
      <trkpt lat="47.32167" lon="-2.38361">
        <ele>24.200000762939</ele>
        <time>2020-02-23T09:50:38.000Z</time>
      </trkpt>
      <trkpt lat="47.32159" lon="-2.3838">
        <ele>24.200000762939</ele>
        <time>2020-02-23T09:50:45.000Z</time>
      </trkpt>
      <trkpt lat="47.32145" lon="-2.38398">
        <ele>24.200000762939</ele>
        <time>2020-02-23T09:50:52.000Z</time>
      </trkpt>
      <trkpt lat="47.32132" lon="-2.38409">
        <ele>24.200000762939</ele>
        <time>2020-02-23T09:50:57.000Z</time>
      </trkpt>
      <trkpt lat="47.32121" lon="-2.38416">
        <ele>24.200000762939</ele>
        <time>2020-02-23T09:51:03.000Z</time>
      </trkpt>
      <trkpt lat="47.32106" lon="-2.38424">
        <ele>24.200000762939</ele>
        <time>2020-02-23T09:51:09.000Z</time>
      </trkpt>
      <trkpt lat="47.32095" lon="-2.3843">
        <ele>24.200000762939</ele>
        <time>2020-02-23T09:51:14.000Z</time>
      </trkpt>
      <trkpt lat="47.32075" lon="-2.3844">
        <ele>24.60000038147</ele>
        <time>2020-02-23T09:51:21.000Z</time>
      </trkpt>
      <trkpt lat="47.32073" lon="-2.38441">
        <ele>25</ele>
        <time>2020-02-23T09:51:22.000Z</time>
      </trkpt>
      <trkpt lat="47.32071" lon="-2.38441">
        <ele>25.39999961853</ele>
        <time>2020-02-23T09:51:23.000Z</time>
      </trkpt>
      <trkpt lat="47.32068" lon="-2.38441">
        <ele>25.799999237061</ele>
        <time>2020-02-23T09:51:24.000Z</time>
      </trkpt>
      <trkpt lat="47.32065" lon="-2.38442">
        <ele>26.200000762939</ele>
        <time>2020-02-23T09:51:25.000Z</time>
      </trkpt>
      <trkpt lat="47.32063" lon="-2.38443">
        <ele>26.200000762939</ele>
        <time>2020-02-23T09:51:26.000Z</time>
      </trkpt>
      <trkpt lat="47.32049" lon="-2.38449">
        <ele>26.200000762939</ele>
        <time>2020-02-23T09:51:31.000Z</time>
      </trkpt>
      <trkpt lat="47.32028" lon="-2.38456">
        <ele>26.200000762939</ele>
        <time>2020-02-23T09:51:38.000Z</time>
      </trkpt>
      <trkpt lat="47.32008" lon="-2.38464">
        <ele>26.200000762939</ele>
        <time>2020-02-23T09:51:45.000Z</time>
      </trkpt>
      <trkpt lat="47.31998" lon="-2.38468">
        <ele>26.799999237061</ele>
        <time>2020-02-23T09:51:49.000Z</time>
      </trkpt>
      <trkpt lat="47.31995" lon="-2.3847">
        <ele>27.200000762939</ele>
        <time>2020-02-23T09:51:50.000Z</time>
      </trkpt>
      <trkpt lat="47.31992" lon="-2.38471">
        <ele>27.60000038147</ele>
        <time>2020-02-23T09:51:51.000Z</time>
      </trkpt>
      <trkpt lat="47.31989" lon="-2.38472">
        <ele>28</ele>
        <time>2020-02-23T09:51:52.000Z</time>
      </trkpt>
      <trkpt lat="47.31987" lon="-2.38473">
        <ele>28.39999961853</ele>
        <time>2020-02-23T09:51:53.000Z</time>
      </trkpt>
      <trkpt lat="47.31976" lon="-2.38478">
        <ele>28.39999961853</ele>
        <time>2020-02-23T09:51:57.000Z</time>
      </trkpt>
      <trkpt lat="47.31963" lon="-2.38483">
        <ele>28.39999961853</ele>
        <time>2020-02-23T09:52:02.000Z</time>
      </trkpt>
      <trkpt lat="47.31944" lon="-2.38487">
        <ele>28.39999961853</ele>
        <time>2020-02-23T09:52:08.000Z</time>
      </trkpt>
      <trkpt lat="47.31926" lon="-2.38492">
        <ele>28.799999237061</ele>
        <time>2020-02-23T09:52:14.000Z</time>
      </trkpt>
      <trkpt lat="47.31924" lon="-2.38493">
        <ele>29.200000762939</ele>
        <time>2020-02-23T09:52:15.000Z</time>
      </trkpt>
      <trkpt lat="47.31921" lon="-2.38494">
        <ele>29.60000038147</ele>
        <time>2020-02-23T09:52:16.000Z</time>
      </trkpt>
      <trkpt lat="47.31919" lon="-2.38496">
        <ele>30</ele>
        <time>2020-02-23T09:52:17.000Z</time>
      </trkpt>
      <trkpt lat="47.31916" lon="-2.38497">
        <ele>30.39999961853</ele>
        <time>2020-02-23T09:52:18.000Z</time>
      </trkpt>
      <trkpt lat="47.31907" lon="-2.38502">
        <ele>30.39999961853</ele>
        <time>2020-02-23T09:52:21.000Z</time>
      </trkpt>
      <trkpt lat="47.31891" lon="-2.3851">
        <ele>30.39999961853</ele>
        <time>2020-02-23T09:52:27.000Z</time>
      </trkpt>
      <trkpt lat="47.31877" lon="-2.38516">
        <ele>30.39999961853</ele>
        <time>2020-02-23T09:52:33.000Z</time>
      </trkpt>
      <trkpt lat="47.31874" lon="-2.38517">
        <ele>30.799999237061</ele>
        <time>2020-02-23T09:52:34.000Z</time>
      </trkpt>
      <trkpt lat="47.31872" lon="-2.38518">
        <ele>31.39999961853</ele>
        <time>2020-02-23T09:52:35.000Z</time>
      </trkpt>
      <trkpt lat="47.3187" lon="-2.38518">
        <ele>31.799999237061</ele>
        <time>2020-02-23T09:52:36.000Z</time>
      </trkpt>
      <trkpt lat="47.31868" lon="-2.38519">
        <ele>32.200000762939</ele>
        <time>2020-02-23T09:52:37.000Z</time>
      </trkpt>
      <trkpt lat="47.31867" lon="-2.3852">
        <ele>32.599998474121</ele>
        <time>2020-02-23T09:52:38.000Z</time>
      </trkpt>
      <trkpt lat="47.31867" lon="-2.38519">
        <ele>32.599998474121</ele>
        <time>2020-02-23T09:52:39.000Z</time>
      </trkpt>
      <trkpt lat="47.31865" lon="-2.3852">
        <ele>32.599998474121</ele>
        <time>2020-02-23T09:52:42.000Z</time>
      </trkpt>
      <trkpt lat="47.31863" lon="-2.38521">
        <ele>32.599998474121</ele>
        <time>2020-02-23T09:52:44.000Z</time>
      </trkpt>
      <trkpt lat="47.31855" lon="-2.38525">
        <ele>32.599998474121</ele>
        <time>2020-02-23T09:52:49.000Z</time>
      </trkpt>
      <trkpt lat="47.31842" lon="-2.3853">
        <ele>32.599998474121</ele>
        <time>2020-02-23T09:52:55.000Z</time>
      </trkpt>
      <trkpt lat="47.31837" lon="-2.38531">
        <ele>33</ele>
        <time>2020-02-23T09:52:57.000Z</time>
      </trkpt>
      <trkpt lat="47.31835" lon="-2.38532">
        <ele>33.400001525879</ele>
        <time>2020-02-23T09:52:58.000Z</time>
      </trkpt>
      <trkpt lat="47.31833" lon="-2.38532">
        <ele>33.799999237061</ele>
        <time>2020-02-23T09:52:59.000Z</time>
      </trkpt>
      <trkpt lat="47.3183" lon="-2.38533">
        <ele>34.200000762939</ele>
        <time>2020-02-23T09:53:00.000Z</time>
      </trkpt>
      <trkpt lat="47.31828" lon="-2.38534">
        <ele>34.599998474121</ele>
        <time>2020-02-23T09:53:01.000Z</time>
      </trkpt>
      <trkpt lat="47.31813" lon="-2.38535">
        <ele>34.599998474121</ele>
        <time>2020-02-23T09:53:07.000Z</time>
      </trkpt>
      <trkpt lat="47.31808" lon="-2.38538">
        <ele>35.200000762939</ele>
        <time>2020-02-23T09:53:10.000Z</time>
      </trkpt>
      <trkpt lat="47.31808" lon="-2.38539">
        <ele>35.599998474121</ele>
        <time>2020-02-23T09:53:11.000Z</time>
      </trkpt>
      <trkpt lat="47.31807" lon="-2.3854">
        <ele>36</ele>
        <time>2020-02-23T09:53:12.000Z</time>
      </trkpt>
      <trkpt lat="47.31807" lon="-2.3854">
        <ele>36.400001525879</ele>
        <time>2020-02-23T09:53:13.000Z</time>
      </trkpt>
      <trkpt lat="47.31805" lon="-2.38542">
        <ele>36.799999237061</ele>
        <time>2020-02-23T09:54:28.000Z</time>
      </trkpt>
      <trkpt lat="47.31802" lon="-2.3854">
        <ele>36.799999237061</ele>
        <time>2020-02-23T09:54:30.000Z</time>
      </trkpt>
      <trkpt lat="47.31797" lon="-2.3854">
        <ele>36.799999237061</ele>
        <time>2020-02-23T09:54:32.000Z</time>
      </trkpt>
      <trkpt lat="47.31792" lon="-2.38543">
        <ele>36.799999237061</ele>
        <time>2020-02-23T09:54:34.000Z</time>
      </trkpt>
      <trkpt lat="47.3177" lon="-2.38553">
        <ele>36.799999237061</ele>
        <time>2020-02-23T09:54:41.000Z</time>
      </trkpt>
      <trkpt lat="47.31744" lon="-2.38566">
        <ele>36.799999237061</ele>
        <time>2020-02-23T09:54:48.000Z</time>
      </trkpt>
      <trkpt lat="47.31713" lon="-2.38585">
        <ele>36.799999237061</ele>
        <time>2020-02-23T09:54:56.000Z</time>
      </trkpt>
      <trkpt lat="47.31681" lon="-2.38602">
        <ele>36.799999237061</ele>
        <time>2020-02-23T09:55:04.000Z</time>
      </trkpt>
      <trkpt lat="47.31673" lon="-2.38608">
        <ele>36.799999237061</ele>
        <time>2020-02-23T09:55:06.000Z</time>
      </trkpt>
      <trkpt lat="47.31647" lon="-2.38628">
        <ele>36.799999237061</ele>
        <time>2020-02-23T09:55:12.000Z</time>
      </trkpt>
      <trkpt lat="47.31624" lon="-2.38657">
        <ele>37.200000762939</ele>
        <time>2020-02-23T09:55:18.000Z</time>
      </trkpt>
      <trkpt lat="47.31621" lon="-2.38662">
        <ele>37.599998474121</ele>
        <time>2020-02-23T09:55:19.000Z</time>
      </trkpt>
      <trkpt lat="47.31617" lon="-2.38668">
        <ele>38</ele>
        <time>2020-02-23T09:55:20.000Z</time>
      </trkpt>
      <trkpt lat="47.31614" lon="-2.38673">
        <ele>38.599998474121</ele>
        <time>2020-02-23T09:55:21.000Z</time>
      </trkpt>
      <trkpt lat="47.3161" lon="-2.38679">
        <ele>39</ele>
        <time>2020-02-23T09:55:22.000Z</time>
      </trkpt>
      <trkpt lat="47.31597" lon="-2.38701">
        <ele>39</ele>
        <time>2020-02-23T09:55:26.000Z</time>
      </trkpt>
      <trkpt lat="47.31573" lon="-2.38737">
        <ele>39</ele>
        <time>2020-02-23T09:55:33.000Z</time>
      </trkpt>
      <trkpt lat="47.31547" lon="-2.38778">
        <ele>39</ele>
        <time>2020-02-23T09:55:41.000Z</time>
      </trkpt>
      <trkpt lat="47.31535" lon="-2.388">
        <ele>39</ele>
        <time>2020-02-23T09:55:45.000Z</time>
      </trkpt>
      <trkpt lat="47.3153" lon="-2.3881">
        <ele>39</ele>
        <time>2020-02-23T09:55:47.000Z</time>
      </trkpt>
      <trkpt lat="47.31521" lon="-2.38826">
        <ele>39</ele>
        <time>2020-02-23T09:55:50.000Z</time>
      </trkpt>
      <trkpt lat="47.31515" lon="-2.38838">
        <ele>39</ele>
        <time>2020-02-23T09:55:52.000Z</time>
      </trkpt>
      <trkpt lat="47.31508" lon="-2.38854">
        <ele>39</ele>
        <time>2020-02-23T09:55:55.000Z</time>
      </trkpt>
      <trkpt lat="47.31503" lon="-2.38865">
        <ele>39</ele>
        <time>2020-02-23T09:55:57.000Z</time>
      </trkpt>
      <trkpt lat="47.31481" lon="-2.38907">
        <ele>39</ele>
        <time>2020-02-23T09:56:04.000Z</time>
      </trkpt>
      <trkpt lat="47.31456" lon="-2.38955">
        <ele>39</ele>
        <time>2020-02-23T09:56:12.000Z</time>
      </trkpt>
      <trkpt lat="47.31438" lon="-2.38989">
        <ele>39</ele>
        <time>2020-02-23T09:56:18.000Z</time>
      </trkpt>
      <trkpt lat="47.31433" lon="-2.39002">
        <ele>39.400001525879</ele>
        <time>2020-02-23T09:56:20.000Z</time>
      </trkpt>
      <trkpt lat="47.31431" lon="-2.39008">
        <ele>39.799999237061</ele>
        <time>2020-02-23T09:56:21.000Z</time>
      </trkpt>
      <trkpt lat="47.31428" lon="-2.39014">
        <ele>40.200000762939</ele>
        <time>2020-02-23T09:56:22.000Z</time>
      </trkpt>
      <trkpt lat="47.31426" lon="-2.3902">
        <ele>40.599998474121</ele>
        <time>2020-02-23T09:56:23.000Z</time>
      </trkpt>
      <trkpt lat="47.31424" lon="-2.39027">
        <ele>41</ele>
        <time>2020-02-23T09:56:24.000Z</time>
      </trkpt>
      <trkpt lat="47.31419" lon="-2.39038">
        <ele>41</ele>
        <time>2020-02-23T09:56:26.000Z</time>
      </trkpt>
      <trkpt lat="47.31414" lon="-2.39048">
        <ele>41.400001525879</ele>
        <time>2020-02-23T09:56:28.000Z</time>
      </trkpt>
      <trkpt lat="47.31411" lon="-2.39052">
        <ele>41.799999237061</ele>
        <time>2020-02-23T09:56:29.000Z</time>
      </trkpt>
      <trkpt lat="47.31407" lon="-2.39057">
        <ele>42.200000762939</ele>
        <time>2020-02-23T09:56:30.000Z</time>
      </trkpt>
      <trkpt lat="47.31404" lon="-2.39062">
        <ele>42.599998474121</ele>
        <time>2020-02-23T09:56:31.000Z</time>
      </trkpt>
      <trkpt lat="47.31401" lon="-2.39066">
        <ele>43</ele>
        <time>2020-02-23T09:56:32.000Z</time>
      </trkpt>
      <trkpt lat="47.31399" lon="-2.39071">
        <ele>43</ele>
        <time>2020-02-23T09:56:33.000Z</time>
      </trkpt>
      <trkpt lat="47.31389" lon="-2.39085">
        <ele>43</ele>
        <time>2020-02-23T09:56:36.000Z</time>
      </trkpt>
      <trkpt lat="47.31368" lon="-2.39109">
        <ele>43</ele>
        <time>2020-02-23T09:56:42.000Z</time>
      </trkpt>
      <trkpt lat="47.31342" lon="-2.39137">
        <ele>43</ele>
        <time>2020-02-23T09:56:49.000Z</time>
      </trkpt>
      <trkpt lat="47.31316" lon="-2.39165">
        <ele>43</ele>
        <time>2020-02-23T09:56:56.000Z</time>
      </trkpt>
      <trkpt lat="47.31286" lon="-2.39199">
        <ele>43</ele>
        <time>2020-02-23T09:57:04.000Z</time>
      </trkpt>
      <trkpt lat="47.31271" lon="-2.39217">
        <ele>43</ele>
        <time>2020-02-23T09:57:08.000Z</time>
      </trkpt>
      <trkpt lat="47.31261" lon="-2.39231">
        <ele>43</ele>
        <time>2020-02-23T09:57:11.000Z</time>
      </trkpt>
      <trkpt lat="47.31241" lon="-2.39262">
        <ele>43</ele>
        <time>2020-02-23T09:57:18.000Z</time>
      </trkpt>
      <trkpt lat="47.31232" lon="-2.39277">
        <ele>43</ele>
        <time>2020-02-23T09:57:22.000Z</time>
      </trkpt>
      <trkpt lat="47.31218" lon="-2.3929">
        <ele>43</ele>
        <time>2020-02-23T09:57:26.000Z</time>
      </trkpt>
      <trkpt lat="47.31208" lon="-2.39298">
        <ele>43</ele>
        <time>2020-02-23T09:57:28.000Z</time>
      </trkpt>
      <trkpt lat="47.31177" lon="-2.39319">
        <ele>43</ele>
        <time>2020-02-23T09:57:34.000Z</time>
      </trkpt>
      <trkpt lat="47.31148" lon="-2.39339">
        <ele>42.599998474121</ele>
        <time>2020-02-23T09:57:39.000Z</time>
      </trkpt>
      <trkpt lat="47.31143" lon="-2.39344">
        <ele>42.200000762939</ele>
        <time>2020-02-23T09:57:40.000Z</time>
      </trkpt>
      <trkpt lat="47.31138" lon="-2.39349">
        <ele>41.799999237061</ele>
        <time>2020-02-23T09:57:41.000Z</time>
      </trkpt>
      <trkpt lat="47.31134" lon="-2.39355">
        <ele>41.400001525879</ele>
        <time>2020-02-23T09:57:42.000Z</time>
      </trkpt>
      <trkpt lat="47.31129" lon="-2.3936">
        <ele>41</ele>
        <time>2020-02-23T09:57:43.000Z</time>
      </trkpt>
      <trkpt lat="47.31105" lon="-2.39394">
        <ele>41</ele>
        <time>2020-02-23T09:57:49.000Z</time>
      </trkpt>
      <trkpt lat="47.3109" lon="-2.39412">
        <ele>40</ele>
        <time>2020-02-23T09:57:52.000Z</time>
      </trkpt>
      <trkpt lat="47.31085" lon="-2.39418">
        <ele>39.599998474121</ele>
        <time>2020-02-23T09:57:53.000Z</time>
      </trkpt>
      <trkpt lat="47.31081" lon="-2.39424">
        <ele>39.200000762939</ele>
        <time>2020-02-23T09:57:54.000Z</time>
      </trkpt>
      <trkpt lat="47.31077" lon="-2.39429">
        <ele>38.799999237061</ele>
        <time>2020-02-23T09:57:55.000Z</time>
      </trkpt>
      <trkpt lat="47.31056" lon="-2.39453">
        <ele>38.799999237061</ele>
        <time>2020-02-23T09:58:00.000Z</time>
      </trkpt>
      <trkpt lat="47.31053" lon="-2.39458">
        <ele>38.799999237061</ele>
        <time>2020-02-23T09:58:01.000Z</time>
      </trkpt>
      <trkpt lat="47.31049" lon="-2.39476">
        <ele>38.799999237061</ele>
        <time>2020-02-23T09:58:04.000Z</time>
      </trkpt>
      <trkpt lat="47.31055" lon="-2.39495">
        <ele>38.799999237061</ele>
        <time>2020-02-23T09:58:07.000Z</time>
      </trkpt>
      <trkpt lat="47.31056" lon="-2.39501">
        <ele>38.799999237061</ele>
        <time>2020-02-23T09:58:08.000Z</time>
      </trkpt>
      <trkpt lat="47.31072" lon="-2.39553">
        <ele>38.799999237061</ele>
        <time>2020-02-23T09:58:17.000Z</time>
      </trkpt>
      <trkpt lat="47.3108" lon="-2.39576">
        <ele>39.200000762939</ele>
        <time>2020-02-23T09:58:21.000Z</time>
      </trkpt>
      <trkpt lat="47.31083" lon="-2.39582">
        <ele>39.599998474121</ele>
        <time>2020-02-23T09:58:22.000Z</time>
      </trkpt>
      <trkpt lat="47.31084" lon="-2.39588">
        <ele>40</ele>
        <time>2020-02-23T09:58:23.000Z</time>
      </trkpt>
      <trkpt lat="47.31086" lon="-2.39595">
        <ele>40.400001525879</ele>
        <time>2020-02-23T09:58:24.000Z</time>
      </trkpt>
      <trkpt lat="47.31088" lon="-2.39601">
        <ele>40.799999237061</ele>
        <time>2020-02-23T09:58:25.000Z</time>
      </trkpt>
      <trkpt lat="47.31101" lon="-2.39642">
        <ele>40.799999237061</ele>
        <time>2020-02-23T09:58:31.000Z</time>
      </trkpt>
      <trkpt lat="47.31117" lon="-2.39686">
        <ele>40.799999237061</ele>
        <time>2020-02-23T09:58:37.000Z</time>
      </trkpt>
      <trkpt lat="47.31144" lon="-2.39761">
        <ele>40.799999237061</ele>
        <time>2020-02-23T09:58:47.000Z</time>
      </trkpt>
      <trkpt lat="47.31147" lon="-2.39769">
        <ele>40.400001525879</ele>
        <time>2020-02-23T09:58:48.000Z</time>
      </trkpt>
      <trkpt lat="47.3115" lon="-2.39777">
        <ele>40</ele>
        <time>2020-02-23T09:58:49.000Z</time>
      </trkpt>
      <trkpt lat="47.31152" lon="-2.39785">
        <ele>39.599998474121</ele>
        <time>2020-02-23T09:58:50.000Z</time>
      </trkpt>
      <trkpt lat="47.31155" lon="-2.39794">
        <ele>39.200000762939</ele>
        <time>2020-02-23T09:58:51.000Z</time>
      </trkpt>
      <trkpt lat="47.31158" lon="-2.39802">
        <ele>38.799999237061</ele>
        <time>2020-02-23T09:58:52.000Z</time>
      </trkpt>
      <trkpt lat="47.31167" lon="-2.39824">
        <ele>38.799999237061</ele>
        <time>2020-02-23T09:58:55.000Z</time>
      </trkpt>
      <trkpt lat="47.31178" lon="-2.39852">
        <ele>38.799999237061</ele>
        <time>2020-02-23T09:58:59.000Z</time>
      </trkpt>
      <trkpt lat="47.31181" lon="-2.39867">
        <ele>38.400001525879</ele>
        <time>2020-02-23T09:59:01.000Z</time>
      </trkpt>
      <trkpt lat="47.31183" lon="-2.39873">
        <ele>37.799999237061</ele>
        <time>2020-02-23T09:59:02.000Z</time>
      </trkpt>
      <trkpt lat="47.31184" lon="-2.39878">
        <ele>37.400001525879</ele>
        <time>2020-02-23T09:59:03.000Z</time>
      </trkpt>
      <trkpt lat="47.31186" lon="-2.39881">
        <ele>37</ele>
        <time>2020-02-23T09:59:04.000Z</time>
      </trkpt>
      <trkpt lat="47.31187" lon="-2.39884">
        <ele>36.599998474121</ele>
        <time>2020-02-23T09:59:05.000Z</time>
      </trkpt>
      <trkpt lat="47.31192" lon="-2.39904">
        <ele>36.599998474121</ele>
        <time>2020-02-23T09:59:09.000Z</time>
      </trkpt>
      <trkpt lat="47.31201" lon="-2.39933">
        <ele>36.599998474121</ele>
        <time>2020-02-23T09:59:14.000Z</time>
      </trkpt>
      <trkpt lat="47.31203" lon="-2.39938">
        <ele>36.200000762939</ele>
        <time>2020-02-23T09:59:15.000Z</time>
      </trkpt>
      <trkpt lat="47.31205" lon="-2.39943">
        <ele>35.799999237061</ele>
        <time>2020-02-23T09:59:16.000Z</time>
      </trkpt>
      <trkpt lat="47.31207" lon="-2.39947">
        <ele>35.400001525879</ele>
        <time>2020-02-23T09:59:17.000Z</time>
      </trkpt>
      <trkpt lat="47.31209" lon="-2.39952">
        <ele>35</ele>
        <time>2020-02-23T09:59:18.000Z</time>
      </trkpt>
      <trkpt lat="47.31211" lon="-2.39957">
        <ele>34.400001525879</ele>
        <time>2020-02-23T09:59:19.000Z</time>
      </trkpt>
      <trkpt lat="47.31212" lon="-2.39962">
        <ele>34.400001525879</ele>
        <time>2020-02-23T09:59:20.000Z</time>
      </trkpt>
      <trkpt lat="47.31218" lon="-2.39978">
        <ele>34.400001525879</ele>
        <time>2020-02-23T09:59:23.000Z</time>
      </trkpt>
      <trkpt lat="47.31223" lon="-2.3999">
        <ele>34.400001525879</ele>
        <time>2020-02-23T09:59:25.000Z</time>
      </trkpt>
      <trkpt lat="47.31225" lon="-2.39995">
        <ele>34</ele>
        <time>2020-02-23T09:59:26.000Z</time>
      </trkpt>
      <trkpt lat="47.31227" lon="-2.40001">
        <ele>33.599998474121</ele>
        <time>2020-02-23T09:59:27.000Z</time>
      </trkpt>
      <trkpt lat="47.31229" lon="-2.40007">
        <ele>33.200000762939</ele>
        <time>2020-02-23T09:59:28.000Z</time>
      </trkpt>
      <trkpt lat="47.3123" lon="-2.40013">
        <ele>32.799999237061</ele>
        <time>2020-02-23T09:59:29.000Z</time>
      </trkpt>
      <trkpt lat="47.31232" lon="-2.40018">
        <ele>32.400001525879</ele>
        <time>2020-02-23T09:59:30.000Z</time>
      </trkpt>
      <trkpt lat="47.31233" lon="-2.40022">
        <ele>32.400001525879</ele>
        <time>2020-02-23T09:59:31.000Z</time>
      </trkpt>
      <trkpt lat="47.31234" lon="-2.40027">
        <ele>32</ele>
        <time>2020-02-23T09:59:32.000Z</time>
      </trkpt>
      <trkpt lat="47.31235" lon="-2.40031">
        <ele>31.60000038147</ele>
        <time>2020-02-23T09:59:33.000Z</time>
      </trkpt>
      <trkpt lat="47.31236" lon="-2.40034">
        <ele>31.200000762939</ele>
        <time>2020-02-23T09:59:34.000Z</time>
      </trkpt>
      <trkpt lat="47.31238" lon="-2.40036">
        <ele>30.799999237061</ele>
        <time>2020-02-23T09:59:35.000Z</time>
      </trkpt>
      <trkpt lat="47.31239" lon="-2.40037">
        <ele>30.200000762939</ele>
        <time>2020-02-23T09:59:36.000Z</time>
      </trkpt>
      <trkpt lat="47.31242" lon="-2.40039">
        <ele>30.200000762939</ele>
        <time>2020-02-23T09:59:39.000Z</time>
      </trkpt>
      <trkpt lat="47.31249" lon="-2.40052">
        <ele>30.200000762939</ele>
        <time>2020-02-23T09:59:43.000Z</time>
      </trkpt>
      <trkpt lat="47.31255" lon="-2.40055">
        <ele>30.200000762939</ele>
        <time>2020-02-23T09:59:44.000Z</time>
      </trkpt>
      <trkpt lat="47.31265" lon="-2.40058">
        <ele>30.200000762939</ele>
        <time>2020-02-23T09:59:46.000Z</time>
      </trkpt>
      <trkpt lat="47.3129" lon="-2.40064">
        <ele>30.200000762939</ele>
        <time>2020-02-23T09:59:52.000Z</time>
      </trkpt>
      <trkpt lat="47.31308" lon="-2.40073">
        <ele>30.200000762939</ele>
        <time>2020-02-23T09:59:57.000Z</time>
      </trkpt>
      <trkpt lat="47.31331" lon="-2.40082">
        <ele>30.200000762939</ele>
        <time>2020-02-23T10:00:03.000Z</time>
      </trkpt>
      <trkpt lat="47.31354" lon="-2.40096">
        <ele>30.200000762939</ele>
        <time>2020-02-23T10:00:09.000Z</time>
      </trkpt>
      <trkpt lat="47.31383" lon="-2.40112">
        <ele>30.200000762939</ele>
        <time>2020-02-23T10:00:16.000Z</time>
      </trkpt>
      <trkpt lat="47.31408" lon="-2.40126">
        <ele>30.200000762939</ele>
        <time>2020-02-23T10:00:22.000Z</time>
      </trkpt>
      <trkpt lat="47.31412" lon="-2.40129">
        <ele>30.60000038147</ele>
        <time>2020-02-23T10:00:23.000Z</time>
      </trkpt>
      <trkpt lat="47.31416" lon="-2.40131">
        <ele>31</ele>
        <time>2020-02-23T10:00:24.000Z</time>
      </trkpt>
      <trkpt lat="47.3142" lon="-2.40134">
        <ele>31.39999961853</ele>
        <time>2020-02-23T10:00:25.000Z</time>
      </trkpt>
      <trkpt lat="47.31424" lon="-2.40137">
        <ele>31.799999237061</ele>
        <time>2020-02-23T10:00:26.000Z</time>
      </trkpt>
      <trkpt lat="47.31429" lon="-2.4014">
        <ele>32.400001525879</ele>
        <time>2020-02-23T10:00:27.000Z</time>
      </trkpt>
      <trkpt lat="47.31442" lon="-2.40148">
        <ele>32.400001525879</ele>
        <time>2020-02-23T10:00:30.000Z</time>
      </trkpt>
      <trkpt lat="47.31463" lon="-2.40163">
        <ele>32.400001525879</ele>
        <time>2020-02-23T10:00:36.000Z</time>
      </trkpt>
      <trkpt lat="47.31482" lon="-2.40176">
        <ele>32.400001525879</ele>
        <time>2020-02-23T10:00:41.000Z</time>
      </trkpt>
      <trkpt lat="47.31513" lon="-2.40197">
        <ele>32.400001525879</ele>
        <time>2020-02-23T10:00:50.000Z</time>
      </trkpt>
      <trkpt lat="47.31537" lon="-2.40216">
        <ele>32.400001525879</ele>
        <time>2020-02-23T10:00:57.000Z</time>
      </trkpt>
      <trkpt lat="47.31551" lon="-2.40226">
        <ele>32.799999237061</ele>
        <time>2020-02-23T10:01:01.000Z</time>
      </trkpt>
      <trkpt lat="47.31555" lon="-2.40229">
        <ele>33.200000762939</ele>
        <time>2020-02-23T10:01:02.000Z</time>
      </trkpt>
      <trkpt lat="47.31558" lon="-2.40232">
        <ele>33.599998474121</ele>
        <time>2020-02-23T10:01:03.000Z</time>
      </trkpt>
      <trkpt lat="47.31562" lon="-2.40236">
        <ele>34</ele>
        <time>2020-02-23T10:01:04.000Z</time>
      </trkpt>
      <trkpt lat="47.31565" lon="-2.40239">
        <ele>34.400001525879</ele>
        <time>2020-02-23T10:01:05.000Z</time>
      </trkpt>
      <trkpt lat="47.31575" lon="-2.40252">
        <ele>34.400001525879</ele>
        <time>2020-02-23T10:01:09.000Z</time>
      </trkpt>
      <trkpt lat="47.31593" lon="-2.40265">
        <ele>34.400001525879</ele>
        <time>2020-02-23T10:01:13.000Z</time>
      </trkpt>
      <trkpt lat="47.31603" lon="-2.4027">
        <ele>34.400001525879</ele>
        <time>2020-02-23T10:01:15.000Z</time>
      </trkpt>
      <trkpt lat="47.31626" lon="-2.40283">
        <ele>34.400001525879</ele>
        <time>2020-02-23T10:01:21.000Z</time>
      </trkpt>
      <trkpt lat="47.31642" lon="-2.40295">
        <ele>34.400001525879</ele>
        <time>2020-02-23T10:01:26.000Z</time>
      </trkpt>
      <trkpt lat="47.31659" lon="-2.40308">
        <ele>34.400001525879</ele>
        <time>2020-02-23T10:01:32.000Z</time>
      </trkpt>
      <trkpt lat="47.31665" lon="-2.40313">
        <ele>34.799999237061</ele>
        <time>2020-02-23T10:01:35.000Z</time>
      </trkpt>
      <trkpt lat="47.31667" lon="-2.40315">
        <ele>35.200000762939</ele>
        <time>2020-02-23T10:01:36.000Z</time>
      </trkpt>
      <trkpt lat="47.31669" lon="-2.40316">
        <ele>35.599998474121</ele>
        <time>2020-02-23T10:01:37.000Z</time>
      </trkpt>
      <trkpt lat="47.3167" lon="-2.40317">
        <ele>36.200000762939</ele>
        <time>2020-02-23T10:01:38.000Z</time>
      </trkpt>
      <trkpt lat="47.3167" lon="-2.40318">
        <ele>36.599998474121</ele>
        <time>2020-02-23T10:01:39.000Z</time>
      </trkpt>
      <trkpt lat="47.31671" lon="-2.40319">
        <ele>36.599998474121</ele>
        <time>2020-02-23T10:01:41.000Z</time>
      </trkpt>
      <trkpt lat="47.31671" lon="-2.40327">
        <ele>36.599998474121</ele>
        <time>2020-02-23T10:14:31.000Z</time>
      </trkpt>
      <trkpt lat="47.31667" lon="-2.40328">
        <ele>36.599998474121</ele>
        <time>2020-02-23T10:14:33.000Z</time>
      </trkpt>
      <trkpt lat="47.31651" lon="-2.40336">
        <ele>36.599998474121</ele>
        <time>2020-02-23T10:14:38.000Z</time>
      </trkpt>
      <trkpt lat="47.31637" lon="-2.40345">
        <ele>36.599998474121</ele>
        <time>2020-02-23T10:14:42.000Z</time>
      </trkpt>
      <trkpt lat="47.31632" lon="-2.40348">
        <ele>37</ele>
        <time>2020-02-23T10:14:43.000Z</time>
      </trkpt>
      <trkpt lat="47.31628" lon="-2.4035">
        <ele>37.400001525879</ele>
        <time>2020-02-23T10:14:44.000Z</time>
      </trkpt>
      <trkpt lat="47.31623" lon="-2.40352">
        <ele>38.200000762939</ele>
        <time>2020-02-23T10:14:45.000Z</time>
      </trkpt>
      <trkpt lat="47.31618" lon="-2.40354">
        <ele>38.599998474121</ele>
        <time>2020-02-23T10:14:46.000Z</time>
      </trkpt>
      <trkpt lat="47.31613" lon="-2.40357">
        <ele>38.599998474121</ele>
        <time>2020-02-23T10:14:47.000Z</time>
      </trkpt>
      <trkpt lat="47.31586" lon="-2.4037">
        <ele>38.599998474121</ele>
        <time>2020-02-23T10:14:53.000Z</time>
      </trkpt>
      <trkpt lat="47.31581" lon="-2.40372">
        <ele>38.599998474121</ele>
        <time>2020-02-23T10:14:54.000Z</time>
      </trkpt>
      <trkpt lat="47.31555" lon="-2.40382">
        <ele>38.599998474121</ele>
        <time>2020-02-23T10:14:59.000Z</time>
      </trkpt>
      <trkpt lat="47.3155" lon="-2.40385">
        <ele>38.599998474121</ele>
        <time>2020-02-23T10:15:00.000Z</time>
      </trkpt>
      <trkpt lat="47.31526" lon="-2.404">
        <ele>38.599998474121</ele>
        <time>2020-02-23T10:15:05.000Z</time>
      </trkpt>
      <trkpt lat="47.31501" lon="-2.40421">
        <ele>38.599998474121</ele>
        <time>2020-02-23T10:15:11.000Z</time>
      </trkpt>
      <trkpt lat="47.31476" lon="-2.40444">
        <ele>38.599998474121</ele>
        <time>2020-02-23T10:15:17.000Z</time>
      </trkpt>
      <trkpt lat="47.31465" lon="-2.40454">
        <ele>38.200000762939</ele>
        <time>2020-02-23T10:15:19.000Z</time>
      </trkpt>
      <trkpt lat="47.31459" lon="-2.4046">
        <ele>37.799999237061</ele>
        <time>2020-02-23T10:15:20.000Z</time>
      </trkpt>
      <trkpt lat="47.31453" lon="-2.40466">
        <ele>37.400001525879</ele>
        <time>2020-02-23T10:15:21.000Z</time>
      </trkpt>
      <trkpt lat="47.31447" lon="-2.40472">
        <ele>37</ele>
        <time>2020-02-23T10:15:22.000Z</time>
      </trkpt>
      <trkpt lat="47.3144" lon="-2.40479">
        <ele>36.599998474121</ele>
        <time>2020-02-23T10:15:23.000Z</time>
      </trkpt>
      <trkpt lat="47.31417" lon="-2.40496">
        <ele>36</ele>
        <time>2020-02-23T10:15:26.000Z</time>
      </trkpt>
      <trkpt lat="47.3141" lon="-2.40501">
        <ele>35.599998474121</ele>
        <time>2020-02-23T10:15:27.000Z</time>
      </trkpt>
      <trkpt lat="47.31402" lon="-2.40504">
        <ele>35</ele>
        <time>2020-02-23T10:15:28.000Z</time>
      </trkpt>
      <trkpt lat="47.31394" lon="-2.40508">
        <ele>34.599998474121</ele>
        <time>2020-02-23T10:15:29.000Z</time>
      </trkpt>
      <trkpt lat="47.31386" lon="-2.40512">
        <ele>34.200000762939</ele>
        <time>2020-02-23T10:15:30.000Z</time>
      </trkpt>
      <trkpt lat="47.31378" lon="-2.40515">
        <ele>33.599998474121</ele>
        <time>2020-02-23T10:15:31.000Z</time>
      </trkpt>
      <trkpt lat="47.3137" lon="-2.40519">
        <ele>33.200000762939</ele>
        <time>2020-02-23T10:15:32.000Z</time>
      </trkpt>
      <trkpt lat="47.31363" lon="-2.40523">
        <ele>32.799999237061</ele>
        <time>2020-02-23T10:15:33.000Z</time>
      </trkpt>
      <trkpt lat="47.31358" lon="-2.40528">
        <ele>32.200000762939</ele>
        <time>2020-02-23T10:15:34.000Z</time>
      </trkpt>
      <trkpt lat="47.31353" lon="-2.40533">
        <ele>31.799999237061</ele>
        <time>2020-02-23T10:15:35.000Z</time>
      </trkpt>
      <trkpt lat="47.31339" lon="-2.40539">
        <ele>31.799999237061</ele>
        <time>2020-02-23T10:15:38.000Z</time>
      </trkpt>
      <trkpt lat="47.31334" lon="-2.40528">
        <ele>31.799999237061</ele>
        <time>2020-02-23T10:15:40.000Z</time>
      </trkpt>
      <trkpt lat="47.31333" lon="-2.40521">
        <ele>31.799999237061</ele>
        <time>2020-02-23T10:15:41.000Z</time>
      </trkpt>
      <trkpt lat="47.31333" lon="-2.40505">
        <ele>31.799999237061</ele>
        <time>2020-02-23T10:15:43.000Z</time>
      </trkpt>
      <trkpt lat="47.3133" lon="-2.40489">
        <ele>31.799999237061</ele>
        <time>2020-02-23T10:15:45.000Z</time>
      </trkpt>
      <trkpt lat="47.31321" lon="-2.40442">
        <ele>31.799999237061</ele>
        <time>2020-02-23T10:15:52.000Z</time>
      </trkpt>
      <trkpt lat="47.31313" lon="-2.40401">
        <ele>31.799999237061</ele>
        <time>2020-02-23T10:15:59.000Z</time>
      </trkpt>
      <trkpt lat="47.31304" lon="-2.40373">
        <ele>31.799999237061</ele>
        <time>2020-02-23T10:16:05.000Z</time>
      </trkpt>
      <trkpt lat="47.31291" lon="-2.40332">
        <ele>31.799999237061</ele>
        <time>2020-02-23T10:16:12.000Z</time>
      </trkpt>
      <trkpt lat="47.31274" lon="-2.40282">
        <ele>31.799999237061</ele>
        <time>2020-02-23T10:16:18.000Z</time>
      </trkpt>
      <trkpt lat="47.31261" lon="-2.40247">
        <ele>31.39999961853</ele>
        <time>2020-02-23T10:16:22.000Z</time>
      </trkpt>
      <trkpt lat="47.31258" lon="-2.40238">
        <ele>31</ele>
        <time>2020-02-23T10:16:23.000Z</time>
      </trkpt>
      <trkpt lat="47.31255" lon="-2.40228">
        <ele>30.200000762939</ele>
        <time>2020-02-23T10:16:24.000Z</time>
      </trkpt>
      <trkpt lat="47.31252" lon="-2.40219">
        <ele>29.799999237061</ele>
        <time>2020-02-23T10:16:25.000Z</time>
      </trkpt>
      <trkpt lat="47.31243" lon="-2.4019">
        <ele>29.799999237061</ele>
        <time>2020-02-23T10:16:28.000Z</time>
      </trkpt>
      <trkpt lat="47.31236" lon="-2.40172">
        <ele>29.39999961853</ele>
        <time>2020-02-23T10:16:30.000Z</time>
      </trkpt>
      <trkpt lat="47.31233" lon="-2.40163">
        <ele>29</ele>
        <time>2020-02-23T10:16:31.000Z</time>
      </trkpt>
      <trkpt lat="47.3123" lon="-2.40153">
        <ele>28.60000038147</ele>
        <time>2020-02-23T10:16:32.000Z</time>
      </trkpt>
      <trkpt lat="47.31227" lon="-2.40144">
        <ele>28.200000762939</ele>
        <time>2020-02-23T10:16:33.000Z</time>
      </trkpt>
      <trkpt lat="47.31224" lon="-2.40135">
        <ele>27.799999237061</ele>
        <time>2020-02-23T10:16:34.000Z</time>
      </trkpt>
      <trkpt lat="47.31214" lon="-2.40099">
        <ele>27.799999237061</ele>
        <time>2020-02-23T10:16:38.000Z</time>
      </trkpt>
      <trkpt lat="47.31206" lon="-2.40076">
        <ele>27.799999237061</ele>
        <time>2020-02-23T10:16:41.000Z</time>
      </trkpt>
      <trkpt lat="47.312" lon="-2.40065">
        <ele>27.799999237061</ele>
        <time>2020-02-23T10:16:43.000Z</time>
      </trkpt>
      <trkpt lat="47.31183" lon="-2.40058">
        <ele>27.799999237061</ele>
        <time>2020-02-23T10:16:47.000Z</time>
      </trkpt>
      <trkpt lat="47.31174" lon="-2.40058">
        <ele>27.799999237061</ele>
        <time>2020-02-23T10:16:49.000Z</time>
      </trkpt>
      <trkpt lat="47.31157" lon="-2.40059">
        <ele>27.799999237061</ele>
        <time>2020-02-23T10:16:53.000Z</time>
      </trkpt>
      <trkpt lat="47.31137" lon="-2.40063">
        <ele>27.799999237061</ele>
        <time>2020-02-23T10:16:59.000Z</time>
      </trkpt>
      <trkpt lat="47.3112" lon="-2.4007">
        <ele>27.799999237061</ele>
        <time>2020-02-23T10:17:04.000Z</time>
      </trkpt>
      <trkpt lat="47.31092" lon="-2.40079">
        <ele>27.799999237061</ele>
        <time>2020-02-23T10:17:09.000Z</time>
      </trkpt>
      <trkpt lat="47.31041" lon="-2.40095">
        <ele>27.799999237061</ele>
        <time>2020-02-23T10:17:18.000Z</time>
      </trkpt>
      <trkpt lat="47.30987" lon="-2.40112">
        <ele>27.799999237061</ele>
        <time>2020-02-23T10:17:27.000Z</time>
      </trkpt>
      <trkpt lat="47.30968" lon="-2.40117">
        <ele>27.39999961853</ele>
        <time>2020-02-23T10:17:30.000Z</time>
      </trkpt>
      <trkpt lat="47.30962" lon="-2.40118">
        <ele>26.799999237061</ele>
        <time>2020-02-23T10:17:31.000Z</time>
      </trkpt>
      <trkpt lat="47.30955" lon="-2.4012">
        <ele>26.39999961853</ele>
        <time>2020-02-23T10:17:32.000Z</time>
      </trkpt>
      <trkpt lat="47.30949" lon="-2.40121">
        <ele>26</ele>
        <time>2020-02-23T10:17:33.000Z</time>
      </trkpt>
      <trkpt lat="47.30943" lon="-2.40123">
        <ele>25.60000038147</ele>
        <time>2020-02-23T10:17:34.000Z</time>
      </trkpt>
      <trkpt lat="47.30937" lon="-2.40124">
        <ele>25.60000038147</ele>
        <time>2020-02-23T10:17:35.000Z</time>
      </trkpt>
      <trkpt lat="47.30895" lon="-2.40127">
        <ele>25.60000038147</ele>
        <time>2020-02-23T10:17:42.000Z</time>
      </trkpt>
      <trkpt lat="47.30856" lon="-2.40123">
        <ele>25.200000762939</ele>
        <time>2020-02-23T10:17:48.000Z</time>
      </trkpt>
      <trkpt lat="47.3085" lon="-2.40122">
        <ele>24.799999237061</ele>
        <time>2020-02-23T10:17:49.000Z</time>
      </trkpt>
      <trkpt lat="47.30843" lon="-2.40121">
        <ele>24.39999961853</ele>
        <time>2020-02-23T10:17:50.000Z</time>
      </trkpt>
      <trkpt lat="47.30837" lon="-2.4012">
        <ele>24</ele>
        <time>2020-02-23T10:17:51.000Z</time>
      </trkpt>
      <trkpt lat="47.30831" lon="-2.40118">
        <ele>23.39999961853</ele>
        <time>2020-02-23T10:17:52.000Z</time>
      </trkpt>
      <trkpt lat="47.30793" lon="-2.40105">
        <ele>23.39999961853</ele>
        <time>2020-02-23T10:17:58.000Z</time>
      </trkpt>
      <trkpt lat="47.30745" lon="-2.40081">
        <ele>23.39999961853</ele>
        <time>2020-02-23T10:18:06.000Z</time>
      </trkpt>
      <trkpt lat="47.30727" lon="-2.40071">
        <ele>23</ele>
        <time>2020-02-23T10:18:09.000Z</time>
      </trkpt>
      <trkpt lat="47.30721" lon="-2.40067">
        <ele>22.60000038147</ele>
        <time>2020-02-23T10:18:10.000Z</time>
      </trkpt>
      <trkpt lat="47.30715" lon="-2.40063">
        <ele>22.200000762939</ele>
        <time>2020-02-23T10:18:11.000Z</time>
      </trkpt>
      <trkpt lat="47.30709" lon="-2.40059">
        <ele>21.799999237061</ele>
        <time>2020-02-23T10:18:12.000Z</time>
      </trkpt>
      <trkpt lat="47.30703" lon="-2.40054">
        <ele>21.39999961853</ele>
        <time>2020-02-23T10:18:13.000Z</time>
      </trkpt>
      <trkpt lat="47.30673" lon="-2.40029">
        <ele>21.39999961853</ele>
        <time>2020-02-23T10:18:19.000Z</time>
      </trkpt>
      <trkpt lat="47.30648" lon="-2.40005">
        <ele>21</ele>
        <time>2020-02-23T10:18:24.000Z</time>
      </trkpt>
      <trkpt lat="47.30643" lon="-2.39999">
        <ele>20.60000038147</ele>
        <time>2020-02-23T10:18:25.000Z</time>
      </trkpt>
      <trkpt lat="47.30638" lon="-2.39994">
        <ele>19.799999237061</ele>
        <time>2020-02-23T10:18:26.000Z</time>
      </trkpt>
      <trkpt lat="47.30633" lon="-2.39989">
        <ele>19.39999961853</ele>
        <time>2020-02-23T10:18:27.000Z</time>
      </trkpt>
      <trkpt lat="47.30593" lon="-2.39944">
        <ele>19.39999961853</ele>
        <time>2020-02-23T10:18:35.000Z</time>
      </trkpt>
      <trkpt lat="47.30554" lon="-2.399">
        <ele>19.39999961853</ele>
        <time>2020-02-23T10:18:43.000Z</time>
      </trkpt>
      <trkpt lat="47.30549" lon="-2.39894">
        <ele>19</ele>
        <time>2020-02-23T10:18:44.000Z</time>
      </trkpt>
      <trkpt lat="47.30544" lon="-2.39888">
        <ele>18.60000038147</ele>
        <time>2020-02-23T10:18:45.000Z</time>
      </trkpt>
      <trkpt lat="47.30539" lon="-2.39881">
        <ele>18.200000762939</ele>
        <time>2020-02-23T10:18:46.000Z</time>
      </trkpt>
      <trkpt lat="47.30534" lon="-2.39876">
        <ele>17.799999237061</ele>
        <time>2020-02-23T10:18:47.000Z</time>
      </trkpt>
      <trkpt lat="47.30528" lon="-2.3987">
        <ele>17.200000762939</ele>
        <time>2020-02-23T10:18:48.000Z</time>
      </trkpt>
      <trkpt lat="47.30512" lon="-2.39851">
        <ele>17.200000762939</ele>
        <time>2020-02-23T10:18:51.000Z</time>
      </trkpt>
      <trkpt lat="47.30469" lon="-2.39802">
        <ele>17.200000762939</ele>
        <time>2020-02-23T10:18:59.000Z</time>
      </trkpt>
      <trkpt lat="47.30458" lon="-2.3979">
        <ele>16.799999237061</ele>
        <time>2020-02-23T10:19:01.000Z</time>
      </trkpt>
      <trkpt lat="47.30452" lon="-2.39784">
        <ele>16.39999961853</ele>
        <time>2020-02-23T10:19:02.000Z</time>
      </trkpt>
      <trkpt lat="47.30447" lon="-2.39779">
        <ele>16</ele>
        <time>2020-02-23T10:19:03.000Z</time>
      </trkpt>
      <trkpt lat="47.30441" lon="-2.39774">
        <ele>15.60000038147</ele>
        <time>2020-02-23T10:19:04.000Z</time>
      </trkpt>
      <trkpt lat="47.30435" lon="-2.39768">
        <ele>15.199999809265</ele>
        <time>2020-02-23T10:19:05.000Z</time>
      </trkpt>
      <trkpt lat="47.30418" lon="-2.39752">
        <ele>15.199999809265</ele>
        <time>2020-02-23T10:19:08.000Z</time>
      </trkpt>
      <trkpt lat="47.30372" lon="-2.39722">
        <ele>15.199999809265</ele>
        <time>2020-02-23T10:19:15.000Z</time>
      </trkpt>
      <trkpt lat="47.30365" lon="-2.39718">
        <ele>14.60000038147</ele>
        <time>2020-02-23T10:19:16.000Z</time>
      </trkpt>
      <trkpt lat="47.30358" lon="-2.39714">
        <ele>14.199999809265</ele>
        <time>2020-02-23T10:19:17.000Z</time>
      </trkpt>
      <trkpt lat="47.30352" lon="-2.39711">
        <ele>13.800000190735</ele>
        <time>2020-02-23T10:19:18.000Z</time>
      </trkpt>
      <trkpt lat="47.30345" lon="-2.39708">
        <ele>13.39999961853</ele>
        <time>2020-02-23T10:19:19.000Z</time>
      </trkpt>
      <trkpt lat="47.30339" lon="-2.39705">
        <ele>13</ele>
        <time>2020-02-23T10:19:20.000Z</time>
      </trkpt>
      <trkpt lat="47.30326" lon="-2.397">
        <ele>13</ele>
        <time>2020-02-23T10:19:22.000Z</time>
      </trkpt>
      <trkpt lat="47.30283" lon="-2.39686">
        <ele>13</ele>
        <time>2020-02-23T10:19:29.000Z</time>
      </trkpt>
      <trkpt lat="47.30238" lon="-2.39677">
        <ele>12.60000038147</ele>
        <time>2020-02-23T10:19:37.000Z</time>
      </trkpt>
      <trkpt lat="47.30232" lon="-2.39676">
        <ele>12.199999809265</ele>
        <time>2020-02-23T10:19:38.000Z</time>
      </trkpt>
      <trkpt lat="47.30226" lon="-2.39674">
        <ele>11.800000190735</ele>
        <time>2020-02-23T10:19:39.000Z</time>
      </trkpt>
      <trkpt lat="47.3022" lon="-2.39673">
        <ele>11.39999961853</ele>
        <time>2020-02-23T10:19:40.000Z</time>
      </trkpt>
      <trkpt lat="47.30215" lon="-2.39672">
        <ele>11</ele>
        <time>2020-02-23T10:19:41.000Z</time>
      </trkpt>
      <trkpt lat="47.30188" lon="-2.39666">
        <ele>11</ele>
        <time>2020-02-23T10:19:46.000Z</time>
      </trkpt>
      <trkpt lat="47.30161" lon="-2.39658">
        <ele>11</ele>
        <time>2020-02-23T10:19:52.000Z</time>
      </trkpt>
      <trkpt lat="47.30155" lon="-2.39657">
        <ele>10.60000038147</ele>
        <time>2020-02-23T10:19:54.000Z</time>
      </trkpt>
      <trkpt lat="47.30153" lon="-2.39657">
        <ele>10.199999809265</ele>
        <time>2020-02-23T10:19:55.000Z</time>
      </trkpt>
      <trkpt lat="47.30151" lon="-2.39658">
        <ele>9.8000001907349</ele>
        <time>2020-02-23T10:19:56.000Z</time>
      </trkpt>
      <trkpt lat="47.30149" lon="-2.39659">
        <ele>9.3999996185303</ele>
        <time>2020-02-23T10:19:57.000Z</time>
      </trkpt>
      <trkpt lat="47.30148" lon="-2.39661">
        <ele>9</ele>
        <time>2020-02-23T10:19:58.000Z</time>
      </trkpt>
      <trkpt lat="47.30146" lon="-2.3967">
        <ele>9</ele>
        <time>2020-02-23T10:20:02.000Z</time>
      </trkpt>
      <trkpt lat="47.30147" lon="-2.39671">
        <ele>9</ele>
        <time>2020-02-23T10:20:04.000Z</time>
      </trkpt>
      <trkpt lat="47.30152" lon="-2.39672">
        <ele>9</ele>
        <time>2020-02-23T10:20:06.000Z</time>
      </trkpt>
      <trkpt lat="47.30159" lon="-2.39672">
        <ele>9</ele>
        <time>2020-02-23T10:20:08.000Z</time>
      </trkpt>
      <trkpt lat="47.30172" lon="-2.39675">
        <ele>9</ele>
        <time>2020-02-23T10:20:11.000Z</time>
      </trkpt>
      <trkpt lat="47.30189" lon="-2.39692">
        <ele>9</ele>
        <time>2020-02-23T10:20:15.000Z</time>
      </trkpt>
      <trkpt lat="47.30194" lon="-2.39708">
        <ele>9</ele>
        <time>2020-02-23T10:20:17.000Z</time>
      </trkpt>
      <trkpt lat="47.30199" lon="-2.39724">
        <ele>9</ele>
        <time>2020-02-23T10:20:19.000Z</time>
      </trkpt>
      <trkpt lat="47.30221" lon="-2.39789">
        <ele>9</ele>
        <time>2020-02-23T10:20:27.000Z</time>
      </trkpt>
      <trkpt lat="47.3024" lon="-2.39848">
        <ele>9</ele>
        <time>2020-02-23T10:20:34.000Z</time>
      </trkpt>
      <trkpt lat="47.30265" lon="-2.39927">
        <ele>9</ele>
        <time>2020-02-23T10:20:43.000Z</time>
      </trkpt>
      <trkpt lat="47.30287" lon="-2.39999">
        <ele>9</ele>
        <time>2020-02-23T10:20:51.000Z</time>
      </trkpt>
      <trkpt lat="47.30306" lon="-2.40057">
        <ele>9</ele>
        <time>2020-02-23T10:20:58.000Z</time>
      </trkpt>
      <trkpt lat="47.30321" lon="-2.40105">
        <ele>9</ele>
        <time>2020-02-23T10:21:04.000Z</time>
      </trkpt>
      <trkpt lat="47.30337" lon="-2.40168">
        <ele>9</ele>
        <time>2020-02-23T10:21:12.000Z</time>
      </trkpt>
      <trkpt lat="47.30339" lon="-2.40175">
        <ele>9</ele>
        <time>2020-02-23T10:21:13.000Z</time>
      </trkpt>
      <trkpt lat="47.30352" lon="-2.40194">
        <ele>9</ele>
        <time>2020-02-23T10:21:16.000Z</time>
      </trkpt>
      <trkpt lat="47.3036" lon="-2.40206">
        <ele>9</ele>
        <time>2020-02-23T10:21:18.000Z</time>
      </trkpt>
      <trkpt lat="47.30368" lon="-2.40226">
        <ele>9</ele>
        <time>2020-02-23T10:21:21.000Z</time>
      </trkpt>
      <trkpt lat="47.30372" lon="-2.4024">
        <ele>9</ele>
        <time>2020-02-23T10:21:23.000Z</time>
      </trkpt>
      <trkpt lat="47.30384" lon="-2.40273">
        <ele>9</ele>
        <time>2020-02-23T10:21:28.000Z</time>
      </trkpt>
      <trkpt lat="47.30401" lon="-2.40318">
        <ele>9</ele>
        <time>2020-02-23T10:21:35.000Z</time>
      </trkpt>
      <trkpt lat="47.30423" lon="-2.40371">
        <ele>9</ele>
        <time>2020-02-23T10:21:42.000Z</time>
      </trkpt>
      <trkpt lat="47.30437" lon="-2.40408">
        <ele>8.6000003814697</ele>
        <time>2020-02-23T10:21:46.000Z</time>
      </trkpt>
      <trkpt lat="47.3044" lon="-2.40417">
        <ele>8</ele>
        <time>2020-02-23T10:21:47.000Z</time>
      </trkpt>
      <trkpt lat="47.30444" lon="-2.40427">
        <ele>7.5999999046326</ele>
        <time>2020-02-23T10:21:48.000Z</time>
      </trkpt>
      <trkpt lat="47.30448" lon="-2.40436">
        <ele>7.1999998092651</ele>
        <time>2020-02-23T10:21:49.000Z</time>
      </trkpt>
      <trkpt lat="47.30452" lon="-2.40446">
        <ele>6.8000001907349</ele>
        <time>2020-02-23T10:21:50.000Z</time>
      </trkpt>
      <trkpt lat="47.30467" lon="-2.40484">
        <ele>6.4000000953674</ele>
        <time>2020-02-23T10:21:54.000Z</time>
      </trkpt>
      <trkpt lat="47.30471" lon="-2.40493">
        <ele>5.8000001907349</ele>
        <time>2020-02-23T10:21:55.000Z</time>
      </trkpt>
      <trkpt lat="47.30474" lon="-2.40503">
        <ele>5.4000000953674</ele>
        <time>2020-02-23T10:21:56.000Z</time>
      </trkpt>
      <trkpt lat="47.30478" lon="-2.40512">
        <ele>5</ele>
        <time>2020-02-23T10:21:57.000Z</time>
      </trkpt>
      <trkpt lat="47.30482" lon="-2.40522">
        <ele>4.4000000953674</ele>
        <time>2020-02-23T10:21:58.000Z</time>
      </trkpt>
      <trkpt lat="47.30489" lon="-2.4054">
        <ele>4.4000000953674</ele>
        <time>2020-02-23T10:22:00.000Z</time>
      </trkpt>
      <trkpt lat="47.30511" lon="-2.40593">
        <ele>4.4000000953674</ele>
        <time>2020-02-23T10:22:06.000Z</time>
      </trkpt>
      <trkpt lat="47.30528" lon="-2.40634">
        <ele>4</ele>
        <time>2020-02-23T10:22:11.000Z</time>
      </trkpt>
      <trkpt lat="47.30531" lon="-2.40643">
        <ele>3.5999999046326</ele>
        <time>2020-02-23T10:22:12.000Z</time>
      </trkpt>
      <trkpt lat="47.30534" lon="-2.40651">
        <ele>3.2000000476837</ele>
        <time>2020-02-23T10:22:13.000Z</time>
      </trkpt>
      <trkpt lat="47.30538" lon="-2.40659">
        <ele>2.7999999523163</ele>
        <time>2020-02-23T10:22:14.000Z</time>
      </trkpt>
      <trkpt lat="47.3054" lon="-2.40668">
        <ele>2.4000000953674</ele>
        <time>2020-02-23T10:22:15.000Z</time>
      </trkpt>
      <trkpt lat="47.30546" lon="-2.40684">
        <ele>2.4000000953674</ele>
        <time>2020-02-23T10:22:17.000Z</time>
      </trkpt>
      <trkpt lat="47.3057" lon="-2.40743">
        <ele>2.4000000953674</ele>
        <time>2020-02-23T10:22:25.000Z</time>
      </trkpt>
      <trkpt lat="47.30592" lon="-2.408">
        <ele>2.4000000953674</ele>
        <time>2020-02-23T10:22:33.000Z</time>
      </trkpt>
      <trkpt lat="47.30599" lon="-2.40825">
        <ele>2.4000000953674</ele>
        <time>2020-02-23T10:22:38.000Z</time>
      </trkpt>
      <trkpt lat="47.30597" lon="-2.40834">
        <ele>2.4000000953674</ele>
        <time>2020-02-23T10:22:41.000Z</time>
      </trkpt>
      <trkpt lat="47.30595" lon="-2.40836">
        <ele>2.4000000953674</ele>
        <time>2020-02-23T10:22:42.000Z</time>
      </trkpt>
      <trkpt lat="47.30581" lon="-2.40839">
        <ele>2.4000000953674</ele>
        <time>2020-02-23T10:22:47.000Z</time>
      </trkpt>
      <trkpt lat="47.30578" lon="-2.40839">
        <ele>2.4000000953674</ele>
        <time>2020-02-23T10:22:48.000Z</time>
      </trkpt>
      <trkpt lat="47.30568" lon="-2.40839">
        <ele>2.4000000953674</ele>
        <time>2020-02-23T10:22:53.000Z</time>
      </trkpt>
      <trkpt lat="47.30551" lon="-2.40843">
        <ele>2.4000000953674</ele>
        <time>2020-02-23T10:22:58.000Z</time>
      </trkpt>
      <trkpt lat="47.30516" lon="-2.40853">
        <ele>2.4000000953674</ele>
        <time>2020-02-23T10:23:06.000Z</time>
      </trkpt>
      <trkpt lat="47.30502" lon="-2.40846">
        <ele>2</ele>
        <time>2020-02-23T10:23:09.000Z</time>
      </trkpt>
      <trkpt lat="47.30498" lon="-2.40845">
        <ele>1.6000000238419</ele>
        <time>2020-02-23T10:23:10.000Z</time>
      </trkpt>
      <trkpt lat="47.30493" lon="-2.40846">
        <ele>1.2000000476837</ele>
        <time>2020-02-23T10:23:11.000Z</time>
      </trkpt>
      <trkpt lat="47.30487" lon="-2.40847">
        <ele>0.80000001192093</ele>
        <time>2020-02-23T10:23:12.000Z</time>
      </trkpt>
      <trkpt lat="47.30483" lon="-2.40849">
        <ele>0.40000000596046</ele>
        <time>2020-02-23T10:23:13.000Z</time>
      </trkpt>
      <trkpt lat="47.30456" lon="-2.40856">
        <ele>0.40000000596046</ele>
        <time>2020-02-23T10:23:19.000Z</time>
      </trkpt>
      <trkpt lat="47.30427" lon="-2.40861">
        <ele>0.40000000596046</ele>
        <time>2020-02-23T10:23:25.000Z</time>
      </trkpt>
      <trkpt lat="47.30423" lon="-2.40861">
        <ele>0.40000000596046</ele>
        <time>2020-02-23T10:23:26.000Z</time>
      </trkpt>
      <trkpt lat="47.30411" lon="-2.40864">
        <ele>0.40000000596046</ele>
        <time>2020-02-23T10:23:29.000Z</time>
      </trkpt>
      <trkpt lat="47.30409" lon="-2.40867">
        <ele>0.40000000596046</ele>
        <time>2020-02-23T10:23:30.000Z</time>
      </trkpt>
      <trkpt lat="47.30398" lon="-2.40889">
        <ele>0.40000000596046</ele>
        <time>2020-02-23T10:23:37.000Z</time>
      </trkpt>
      <trkpt lat="47.30397" lon="-2.40893">
        <ele>-0.20000000298023</ele>
        <time>2020-02-23T10:23:40.000Z</time>
      </trkpt>
      <trkpt lat="47.30397" lon="-2.40895">
        <ele>-2</ele>
        <time>2020-02-23T10:23:46.000Z</time>
      </trkpt>
      <trkpt lat="47.30393" lon="-2.40905">
        <ele>-2</ele>
        <time>2020-02-23T10:23:49.000Z</time>
      </trkpt>
      <trkpt lat="47.3039" lon="-2.40908">
        <ele>-2</ele>
        <time>2020-02-23T10:23:50.000Z</time>
      </trkpt>
      <trkpt lat="47.30372" lon="-2.40915">
        <ele>-2</ele>
        <time>2020-02-23T10:23:54.000Z</time>
      </trkpt>
      <trkpt lat="47.30361" lon="-2.40918">
        <ele>-2</ele>
        <time>2020-02-23T10:23:56.000Z</time>
      </trkpt>
      <trkpt lat="47.3034" lon="-2.40924">
        <ele>-2</ele>
        <time>2020-02-23T10:24:00.000Z</time>
      </trkpt>
      <trkpt lat="47.30301" lon="-2.40934">
        <ele>-2</ele>
        <time>2020-02-23T10:24:08.000Z</time>
      </trkpt>
      <trkpt lat="47.30265" lon="-2.40937">
        <ele>-2</ele>
        <time>2020-02-23T10:24:15.000Z</time>
      </trkpt>
      <trkpt lat="47.30235" lon="-2.40938">
        <ele>-2</ele>
        <time>2020-02-23T10:24:21.000Z</time>
      </trkpt>
      <trkpt lat="47.30231" lon="-2.4094">
        <ele>-2</ele>
        <time>2020-02-23T10:24:22.000Z</time>
      </trkpt>
      <trkpt lat="47.30221" lon="-2.40958">
        <ele>-2</ele>
        <time>2020-02-23T10:24:26.000Z</time>
      </trkpt>
      <trkpt lat="47.30229" lon="-2.40976">
        <ele>-2</ele>
        <time>2020-02-23T10:24:30.000Z</time>
      </trkpt>
      <trkpt lat="47.3024" lon="-2.40988">
        <ele>-2</ele>
        <time>2020-02-23T10:24:33.000Z</time>
      </trkpt>
      <trkpt lat="47.30252" lon="-2.41002">
        <ele>-2</ele>
        <time>2020-02-23T10:24:36.000Z</time>
      </trkpt>
      <trkpt lat="47.30264" lon="-2.41018">
        <ele>-2</ele>
        <time>2020-02-23T10:24:39.000Z</time>
      </trkpt>
      <trkpt lat="47.30269" lon="-2.41032">
        <ele>-2</ele>
        <time>2020-02-23T10:24:41.000Z</time>
      </trkpt>
      <trkpt lat="47.30271" lon="-2.41065">
        <ele>-2</ele>
        <time>2020-02-23T10:24:45.000Z</time>
      </trkpt>
      <trkpt lat="47.30271" lon="-2.41073">
        <ele>-1.6000000238419</ele>
        <time>2020-02-23T10:24:46.000Z</time>
      </trkpt>
      <trkpt lat="47.30272" lon="-2.41081">
        <ele>-1.2000000476837</ele>
        <time>2020-02-23T10:24:47.000Z</time>
      </trkpt>
      <trkpt lat="47.30273" lon="-2.41089">
        <ele>-0.80000001192093</ele>
        <time>2020-02-23T10:24:48.000Z</time>
      </trkpt>
      <trkpt lat="47.30276" lon="-2.41096">
        <ele>-0.40000000596046</ele>
        <time>2020-02-23T10:24:49.000Z</time>
      </trkpt>
      <trkpt lat="47.30278" lon="-2.41102">
        <ele>0.20000000298023</ele>
        <time>2020-02-23T10:24:50.000Z</time>
      </trkpt>
      <trkpt lat="47.30282" lon="-2.41109">
        <ele>-0.40000000596046</ele>
        <time>2020-02-23T10:24:51.000Z</time>
      </trkpt>
      <trkpt lat="47.30285" lon="-2.41114">
        <ele>-0.80000001192093</ele>
        <time>2020-02-23T10:24:52.000Z</time>
      </trkpt>
      <trkpt lat="47.30288" lon="-2.4112">
        <ele>-1.2000000476837</ele>
        <time>2020-02-23T10:24:53.000Z</time>
      </trkpt>
      <trkpt lat="47.30291" lon="-2.41125">
        <ele>-1.6000000238419</ele>
        <time>2020-02-23T10:24:54.000Z</time>
      </trkpt>
      <trkpt lat="47.30294" lon="-2.4113">
        <ele>-2</ele>
        <time>2020-02-23T10:24:55.000Z</time>
      </trkpt>
      <trkpt lat="47.30295" lon="-2.41136">
        <ele>-2</ele>
        <time>2020-02-23T10:24:56.000Z</time>
      </trkpt>
      <trkpt lat="47.30289" lon="-2.41151">
        <ele>-2</ele>
        <time>2020-02-23T10:24:59.000Z</time>
      </trkpt>
      <trkpt lat="47.30286" lon="-2.41156">
        <ele>-2</ele>
        <time>2020-02-23T10:25:00.000Z</time>
      </trkpt>
      <trkpt lat="47.30283" lon="-2.41161">
        <ele>-2</ele>
        <time>2020-02-23T10:25:01.000Z</time>
      </trkpt>
      <trkpt lat="47.30273" lon="-2.41181">
        <ele>-2</ele>
        <time>2020-02-23T10:25:05.000Z</time>
      </trkpt>
      <trkpt lat="47.30257" lon="-2.41218">
        <ele>-2</ele>
        <time>2020-02-23T10:25:12.000Z</time>
      </trkpt>
      <trkpt lat="47.30243" lon="-2.41244">
        <ele>-2</ele>
        <time>2020-02-23T10:25:17.000Z</time>
      </trkpt>
      <trkpt lat="47.30236" lon="-2.41253">
        <ele>-2</ele>
        <time>2020-02-23T10:25:19.000Z</time>
      </trkpt>
      <trkpt lat="47.302" lon="-2.41298">
        <ele>-2</ele>
        <time>2020-02-23T10:25:29.000Z</time>
      </trkpt>
      <trkpt lat="47.30183" lon="-2.41331">
        <ele>-2</ele>
        <time>2020-02-23T10:25:35.000Z</time>
      </trkpt>
      <trkpt lat="47.30159" lon="-2.41387">
        <ele>-2</ele>
        <time>2020-02-23T10:25:44.000Z</time>
      </trkpt>
      <trkpt lat="47.30139" lon="-2.41432">
        <ele>-2</ele>
        <time>2020-02-23T10:25:52.000Z</time>
      </trkpt>
      <trkpt lat="47.30134" lon="-2.41443">
        <ele>-2</ele>
        <time>2020-02-23T10:25:54.000Z</time>
      </trkpt>
      <trkpt lat="47.30122" lon="-2.41454">
        <ele>-2</ele>
        <time>2020-02-23T10:25:57.000Z</time>
      </trkpt>
      <trkpt lat="47.30117" lon="-2.41457">
        <ele>-2</ele>
        <time>2020-02-23T10:25:58.000Z</time>
      </trkpt>
      <trkpt lat="47.30084" lon="-2.41475">
        <ele>-2</ele>
        <time>2020-02-23T10:26:05.000Z</time>
      </trkpt>
      <trkpt lat="47.30045" lon="-2.41498">
        <ele>-2</ele>
        <time>2020-02-23T10:26:13.000Z</time>
      </trkpt>
      <trkpt lat="47.30007" lon="-2.41517">
        <ele>-2</ele>
        <time>2020-02-23T10:26:21.000Z</time>
      </trkpt>
      <trkpt lat="47.29976" lon="-2.41524">
        <ele>-2</ele>
        <time>2020-02-23T10:26:27.000Z</time>
      </trkpt>
      <trkpt lat="47.29942" lon="-2.41523">
        <ele>-2</ele>
        <time>2020-02-23T10:26:35.000Z</time>
      </trkpt>
      <trkpt lat="47.29929" lon="-2.4153">
        <ele>-2</ele>
        <time>2020-02-23T10:26:39.000Z</time>
      </trkpt>
      <trkpt lat="47.29924" lon="-2.4154">
        <ele>-2</ele>
        <time>2020-02-23T10:26:41.000Z</time>
      </trkpt>
      <trkpt lat="47.29921" lon="-2.41551">
        <ele>-2</ele>
        <time>2020-02-23T10:26:43.000Z</time>
      </trkpt>
      <trkpt lat="47.29922" lon="-2.41578">
        <ele>-2</ele>
        <time>2020-02-23T10:26:47.000Z</time>
      </trkpt>
      <trkpt lat="47.29923" lon="-2.41585">
        <ele>-2</ele>
        <time>2020-02-23T10:26:48.000Z</time>
      </trkpt>
      <trkpt lat="47.29926" lon="-2.41607">
        <ele>-2</ele>
        <time>2020-02-23T10:26:51.000Z</time>
      </trkpt>
      <trkpt lat="47.29926" lon="-2.41614">
        <ele>-2.4000000953674</ele>
        <time>2020-02-23T10:26:52.000Z</time>
      </trkpt>
      <trkpt lat="47.29925" lon="-2.41621">
        <ele>-2.7999999523163</ele>
        <time>2020-02-23T10:26:53.000Z</time>
      </trkpt>
      <trkpt lat="47.29924" lon="-2.41629">
        <ele>-3.2000000476837</ele>
        <time>2020-02-23T10:26:54.000Z</time>
      </trkpt>
      <trkpt lat="47.29924" lon="-2.41636">
        <ele>-3.5999999046326</ele>
        <time>2020-02-23T10:26:55.000Z</time>
      </trkpt>
      <trkpt lat="47.29924" lon="-2.41644">
        <ele>-4.1999998092651</ele>
        <time>2020-02-23T10:26:56.000Z</time>
      </trkpt>
      <trkpt lat="47.29927" lon="-2.4166">
        <ele>-4.1999998092651</ele>
        <time>2020-02-23T10:26:58.000Z</time>
      </trkpt>
      <trkpt lat="47.29938" lon="-2.41707">
        <ele>-4.1999998092651</ele>
        <time>2020-02-23T10:27:05.000Z</time>
      </trkpt>
      <trkpt lat="47.29937" lon="-2.41728">
        <ele>-4.1999998092651</ele>
        <time>2020-02-23T10:27:09.000Z</time>
      </trkpt>
      <trkpt lat="47.29927" lon="-2.41737">
        <ele>-4.1999998092651</ele>
        <time>2020-02-23T10:27:12.000Z</time>
      </trkpt>
      <trkpt lat="47.29907" lon="-2.41752">
        <ele>-4.1999998092651</ele>
        <time>2020-02-23T10:27:17.000Z</time>
      </trkpt>
      <trkpt lat="47.299" lon="-2.41759">
        <ele>-4.1999998092651</ele>
        <time>2020-02-23T10:27:19.000Z</time>
      </trkpt>
      <trkpt lat="47.29888" lon="-2.41768">
        <ele>-4.1999998092651</ele>
        <time>2020-02-23T10:27:22.000Z</time>
      </trkpt>
      <trkpt lat="47.29879" lon="-2.41769">
        <ele>-4.1999998092651</ele>
        <time>2020-02-23T10:27:24.000Z</time>
      </trkpt>
      <trkpt lat="47.29863" lon="-2.41764">
        <ele>-4.1999998092651</ele>
        <time>2020-02-23T10:27:27.000Z</time>
      </trkpt>
      <trkpt lat="47.29853" lon="-2.41761">
        <ele>-4.1999998092651</ele>
        <time>2020-02-23T10:27:29.000Z</time>
      </trkpt>
      <trkpt lat="47.29839" lon="-2.41767">
        <ele>-4.1999998092651</ele>
        <time>2020-02-23T10:27:32.000Z</time>
      </trkpt>
      <trkpt lat="47.29824" lon="-2.41786">
        <ele>-4.1999998092651</ele>
        <time>2020-02-23T10:27:36.000Z</time>
      </trkpt>
      <trkpt lat="47.2982" lon="-2.41791">
        <ele>-4.1999998092651</ele>
        <time>2020-02-23T10:27:37.000Z</time>
      </trkpt>
      <trkpt lat="47.29817" lon="-2.41795">
        <ele>-4.1999998092651</ele>
        <time>2020-02-23T10:27:38.000Z</time>
      </trkpt>
      <trkpt lat="47.29805" lon="-2.41806">
        <ele>-4.1999998092651</ele>
        <time>2020-02-23T10:27:41.000Z</time>
      </trkpt>
      <trkpt lat="47.29777" lon="-2.41825">
        <ele>-4.1999998092651</ele>
        <time>2020-02-23T10:27:49.000Z</time>
      </trkpt>
      <trkpt lat="47.29767" lon="-2.41846">
        <ele>-4.1999998092651</ele>
        <time>2020-02-23T10:27:54.000Z</time>
      </trkpt>
      <trkpt lat="47.29767" lon="-2.41876">
        <ele>-4.1999998092651</ele>
        <time>2020-02-23T10:27:58.000Z</time>
      </trkpt>
      <trkpt lat="47.29775" lon="-2.41929">
        <ele>-4.1999998092651</ele>
        <time>2020-02-23T10:28:04.000Z</time>
      </trkpt>
      <trkpt lat="47.29777" lon="-2.41938">
        <ele>-3.5999999046326</ele>
        <time>2020-02-23T10:28:05.000Z</time>
      </trkpt>
      <trkpt lat="47.29779" lon="-2.41948">
        <ele>-3.2000000476837</ele>
        <time>2020-02-23T10:28:06.000Z</time>
      </trkpt>
      <trkpt lat="47.29781" lon="-2.41957">
        <ele>-2.7999999523163</ele>
        <time>2020-02-23T10:28:07.000Z</time>
      </trkpt>
      <trkpt lat="47.29783" lon="-2.41966">
        <ele>-2.4000000953674</ele>
        <time>2020-02-23T10:28:08.000Z</time>
      </trkpt>
      <trkpt lat="47.29785" lon="-2.41975">
        <ele>-1.7999999523163</ele>
        <time>2020-02-23T10:28:09.000Z</time>
      </trkpt>
      <trkpt lat="47.29788" lon="-2.41992">
        <ele>-1.7999999523163</ele>
        <time>2020-02-23T10:28:11.000Z</time>
      </trkpt>
      <trkpt lat="47.29789" lon="-2.42">
        <ele>-1.7999999523163</ele>
        <time>2020-02-23T10:28:12.000Z</time>
      </trkpt>
      <trkpt lat="47.29787" lon="-2.42025">
        <ele>-1.7999999523163</ele>
        <time>2020-02-23T10:28:15.000Z</time>
      </trkpt>
      <trkpt lat="47.29778" lon="-2.42044">
        <ele>-2.2000000476837</ele>
        <time>2020-02-23T10:28:18.000Z</time>
      </trkpt>
      <trkpt lat="47.29774" lon="-2.4205">
        <ele>-2.5999999046326</ele>
        <time>2020-02-23T10:28:19.000Z</time>
      </trkpt>
      <trkpt lat="47.29771" lon="-2.42056">
        <ele>-3</ele>
        <time>2020-02-23T10:28:20.000Z</time>
      </trkpt>
      <trkpt lat="47.29767" lon="-2.42062">
        <ele>-3.5999999046326</ele>
        <time>2020-02-23T10:28:21.000Z</time>
      </trkpt>
      <trkpt lat="47.29764" lon="-2.42068">
        <ele>-4</ele>
        <time>2020-02-23T10:28:22.000Z</time>
      </trkpt>
      <trkpt lat="47.29743" lon="-2.42104">
        <ele>-4</ele>
        <time>2020-02-23T10:28:28.000Z</time>
      </trkpt>
      <trkpt lat="47.29706" lon="-2.42169">
        <ele>-4</ele>
        <time>2020-02-23T10:28:38.000Z</time>
      </trkpt>
      <trkpt lat="47.29681" lon="-2.4221">
        <ele>-4</ele>
        <time>2020-02-23T10:28:45.000Z</time>
      </trkpt>
      <trkpt lat="47.29668" lon="-2.42242">
        <ele>-4</ele>
        <time>2020-02-23T10:28:50.000Z</time>
      </trkpt>
      <trkpt lat="47.29666" lon="-2.42249">
        <ele>-4</ele>
        <time>2020-02-23T10:28:51.000Z</time>
      </trkpt>
      <trkpt lat="47.29655" lon="-2.423">
        <ele>-4</ele>
        <time>2020-02-23T10:28:58.000Z</time>
      </trkpt>
      <trkpt lat="47.2964" lon="-2.42364">
        <ele>-4</ele>
        <time>2020-02-23T10:29:07.000Z</time>
      </trkpt>
      <trkpt lat="47.2963" lon="-2.42405">
        <ele>-4</ele>
        <time>2020-02-23T10:29:14.000Z</time>
      </trkpt>
      <trkpt lat="47.29629" lon="-2.42406">
        <ele>-4</ele>
        <time>2020-02-23T10:29:16.000Z</time>
      </trkpt>
      <trkpt lat="47.29631" lon="-2.42411">
        <ele>-6</ele>
        <time>2020-02-23T10:33:26.000Z</time>
      </trkpt>
      <trkpt lat="47.29623" lon="-2.42432">
        <ele>-6</ele>
        <time>2020-02-23T10:33:33.000Z</time>
      </trkpt>
      <trkpt lat="47.29615" lon="-2.42431">
        <ele>-6</ele>
        <time>2020-02-23T10:33:36.000Z</time>
      </trkpt>
      <trkpt lat="47.29594" lon="-2.42422">
        <ele>-6</ele>
        <time>2020-02-23T10:33:42.000Z</time>
      </trkpt>
      <trkpt lat="47.29581" lon="-2.42422">
        <ele>-6</ele>
        <time>2020-02-23T10:33:46.000Z</time>
      </trkpt>
      <trkpt lat="47.29565" lon="-2.42424">
        <ele>-6</ele>
        <time>2020-02-23T10:33:51.000Z</time>
      </trkpt>
      <trkpt lat="47.29548" lon="-2.42439">
        <ele>-6</ele>
        <time>2020-02-23T10:33:58.000Z</time>
      </trkpt>
      <trkpt lat="47.29538" lon="-2.42459">
        <ele>-6</ele>
        <time>2020-02-23T10:34:03.000Z</time>
      </trkpt>
      <trkpt lat="47.29523" lon="-2.42476">
        <ele>-6</ele>
        <time>2020-02-23T10:34:09.000Z</time>
      </trkpt>
      <trkpt lat="47.29504" lon="-2.42492">
        <ele>-6</ele>
        <time>2020-02-23T10:34:16.000Z</time>
      </trkpt>
      <trkpt lat="47.29486" lon="-2.42512">
        <ele>-6</ele>
        <time>2020-02-23T10:34:24.000Z</time>
      </trkpt>
      <trkpt lat="47.29469" lon="-2.4253">
        <ele>-6</ele>
        <time>2020-02-23T10:34:30.000Z</time>
      </trkpt>
      <trkpt lat="47.29457" lon="-2.42545">
        <ele>-6</ele>
        <time>2020-02-23T10:34:35.000Z</time>
      </trkpt>
      <trkpt lat="47.2944" lon="-2.42561">
        <ele>-6</ele>
        <time>2020-02-23T10:34:41.000Z</time>
      </trkpt>
      <trkpt lat="47.29424" lon="-2.42584">
        <ele>-6</ele>
        <time>2020-02-23T10:34:47.000Z</time>
      </trkpt>
      <trkpt lat="47.2942" lon="-2.42604">
        <ele>-6</ele>
        <time>2020-02-23T10:34:51.000Z</time>
      </trkpt>
      <trkpt lat="47.29418" lon="-2.42642">
        <ele>-6</ele>
        <time>2020-02-23T10:34:58.000Z</time>
      </trkpt>
      <trkpt lat="47.29416" lon="-2.42665">
        <ele>-6</ele>
        <time>2020-02-23T10:35:04.000Z</time>
      </trkpt>
      <trkpt lat="47.29411" lon="-2.42687">
        <ele>-6</ele>
        <time>2020-02-23T10:35:09.000Z</time>
      </trkpt>
      <trkpt lat="47.29398" lon="-2.42715">
        <ele>-6</ele>
        <time>2020-02-23T10:35:16.000Z</time>
      </trkpt>
      <trkpt lat="47.29388" lon="-2.42743">
        <ele>-6</ele>
        <time>2020-02-23T10:35:22.000Z</time>
      </trkpt>
      <trkpt lat="47.29383" lon="-2.42768">
        <ele>-6</ele>
        <time>2020-02-23T10:35:27.000Z</time>
      </trkpt>
      <trkpt lat="47.29371" lon="-2.42804">
        <ele>-6</ele>
        <time>2020-02-23T10:35:34.000Z</time>
      </trkpt>
      <trkpt lat="47.29353" lon="-2.42822">
        <ele>-6</ele>
        <time>2020-02-23T10:35:39.000Z</time>
      </trkpt>
      <trkpt lat="47.2935" lon="-2.42826">
        <ele>-6</ele>
        <time>2020-02-23T10:35:40.000Z</time>
      </trkpt>
      <trkpt lat="47.29341" lon="-2.42841">
        <ele>-6</ele>
        <time>2020-02-23T10:35:43.000Z</time>
      </trkpt>
      <trkpt lat="47.29338" lon="-2.42847">
        <ele>-6</ele>
        <time>2020-02-23T10:35:44.000Z</time>
      </trkpt>
      <trkpt lat="47.29327" lon="-2.42871">
        <ele>-6</ele>
        <time>2020-02-23T10:35:46.000Z</time>
      </trkpt>
      <trkpt lat="47.29323" lon="-2.42884">
        <ele>-6</ele>
        <time>2020-02-23T10:35:50.000Z</time>
      </trkpt>
      <trkpt lat="47.29321" lon="-2.4289">
        <ele>-6</ele>
        <time>2020-02-23T10:35:51.000Z</time>
      </trkpt>
      <trkpt lat="47.29312" lon="-2.42932">
        <ele>-6</ele>
        <time>2020-02-23T10:35:58.000Z</time>
      </trkpt>
      <trkpt lat="47.2931" lon="-2.42944">
        <ele>-6</ele>
        <time>2020-02-23T10:36:00.000Z</time>
      </trkpt>
      <trkpt lat="47.29312" lon="-2.42957">
        <ele>-6</ele>
        <time>2020-02-23T10:36:02.000Z</time>
      </trkpt>
      <trkpt lat="47.29312" lon="-2.42991">
        <ele>-6</ele>
        <time>2020-02-23T10:36:07.000Z</time>
      </trkpt>
      <trkpt lat="47.29311" lon="-2.42998">
        <ele>-6</ele>
        <time>2020-02-23T10:36:08.000Z</time>
      </trkpt>
      <trkpt lat="47.29306" lon="-2.43032">
        <ele>-6</ele>
        <time>2020-02-23T10:36:13.000Z</time>
      </trkpt>
      <trkpt lat="47.29305" lon="-2.43061">
        <ele>-6</ele>
        <time>2020-02-23T10:36:17.000Z</time>
      </trkpt>
      <trkpt lat="47.29309" lon="-2.43071">
        <ele>-6</ele>
        <time>2020-02-23T10:36:19.000Z</time>
      </trkpt>
      <trkpt lat="47.2932" lon="-2.4308">
        <ele>-6</ele>
        <time>2020-02-23T10:36:22.000Z</time>
      </trkpt>
      <trkpt lat="47.29325" lon="-2.4308">
        <ele>-6</ele>
        <time>2020-02-23T10:36:23.000Z</time>
      </trkpt>
      <trkpt lat="47.29341" lon="-2.43092">
        <ele>-6</ele>
        <time>2020-02-23T10:36:27.000Z</time>
      </trkpt>
      <trkpt lat="47.29345" lon="-2.43097">
        <ele>-6</ele>
        <time>2020-02-23T10:36:28.000Z</time>
      </trkpt>
      <trkpt lat="47.29356" lon="-2.43119">
        <ele>-6</ele>
        <time>2020-02-23T10:36:32.000Z</time>
      </trkpt>
      <trkpt lat="47.29358" lon="-2.43125">
        <ele>-6</ele>
        <time>2020-02-23T10:36:33.000Z</time>
      </trkpt>
      <trkpt lat="47.29364" lon="-2.4314">
        <ele>-6</ele>
        <time>2020-02-23T10:36:36.000Z</time>
      </trkpt>
      <trkpt lat="47.29366" lon="-2.43146">
        <ele>-6</ele>
        <time>2020-02-23T10:36:37.000Z</time>
      </trkpt>
      <trkpt lat="47.29374" lon="-2.43182">
        <ele>-6</ele>
        <time>2020-02-23T10:36:43.000Z</time>
      </trkpt>
      <trkpt lat="47.29375" lon="-2.43194">
        <ele>-6</ele>
        <time>2020-02-23T10:36:45.000Z</time>
      </trkpt>
      <trkpt lat="47.29373" lon="-2.43217">
        <ele>-6</ele>
        <time>2020-02-23T10:36:49.000Z</time>
      </trkpt>
      <trkpt lat="47.29369" lon="-2.43226">
        <ele>-6</ele>
        <time>2020-02-23T10:36:51.000Z</time>
      </trkpt>
      <trkpt lat="47.29363" lon="-2.43232">
        <ele>-6</ele>
        <time>2020-02-23T10:36:53.000Z</time>
      </trkpt>
      <trkpt lat="47.29359" lon="-2.43252">
        <ele>-6</ele>
        <time>2020-02-23T10:36:57.000Z</time>
      </trkpt>
      <trkpt lat="47.29359" lon="-2.43257">
        <ele>-6</ele>
        <time>2020-02-23T10:36:58.000Z</time>
      </trkpt>
      <trkpt lat="47.29361" lon="-2.43284">
        <ele>-6</ele>
        <time>2020-02-23T10:37:03.000Z</time>
      </trkpt>
      <trkpt lat="47.29365" lon="-2.43295">
        <ele>-6</ele>
        <time>2020-02-23T10:37:05.000Z</time>
      </trkpt>
      <trkpt lat="47.29372" lon="-2.43305">
        <ele>-6</ele>
        <time>2020-02-23T10:37:07.000Z</time>
      </trkpt>
      <trkpt lat="47.29382" lon="-2.43318">
        <ele>-6</ele>
        <time>2020-02-23T10:37:10.000Z</time>
      </trkpt>
      <trkpt lat="47.29388" lon="-2.43326">
        <ele>-6</ele>
        <time>2020-02-23T10:37:12.000Z</time>
      </trkpt>
      <trkpt lat="47.294" lon="-2.43341">
        <ele>-6</ele>
        <time>2020-02-23T10:37:16.000Z</time>
      </trkpt>
      <trkpt lat="47.29407" lon="-2.43354">
        <ele>-6</ele>
        <time>2020-02-23T10:37:19.000Z</time>
      </trkpt>
      <trkpt lat="47.2941" lon="-2.4338">
        <ele>-6</ele>
        <time>2020-02-23T10:37:24.000Z</time>
      </trkpt>
      <trkpt lat="47.29412" lon="-2.43386">
        <ele>-6</ele>
        <time>2020-02-23T10:37:26.000Z</time>
      </trkpt>
      <trkpt lat="47.29416" lon="-2.43387">
        <ele>-6</ele>
        <time>2020-02-23T10:37:28.000Z</time>
      </trkpt>
      <trkpt lat="47.29428" lon="-2.43397">
        <ele>-6</ele>
        <time>2020-02-23T10:37:32.000Z</time>
      </trkpt>
      <trkpt lat="47.29433" lon="-2.4342">
        <ele>-6</ele>
        <time>2020-02-23T10:37:36.000Z</time>
      </trkpt>
      <trkpt lat="47.29434" lon="-2.43426">
        <ele>-6</ele>
        <time>2020-02-23T10:37:37.000Z</time>
      </trkpt>
      <trkpt lat="47.29443" lon="-2.43458">
        <ele>-6</ele>
        <time>2020-02-23T10:37:43.000Z</time>
      </trkpt>
      <trkpt lat="47.29446" lon="-2.43468">
        <ele>-6</ele>
        <time>2020-02-23T10:37:47.000Z</time>
      </trkpt>
      <trkpt lat="47.29446" lon="-2.43469">
        <ele>-6</ele>
        <time>2020-02-23T10:37:48.000Z</time>
      </trkpt>
      <trkpt lat="47.29446" lon="-2.4347">
        <ele>-6</ele>
        <time>2020-02-23T10:37:50.000Z</time>
      </trkpt>
      <trkpt lat="47.29446" lon="-2.43473">
        <ele>-6</ele>
        <time>2020-02-23T10:37:56.000Z</time>
      </trkpt>
      <trkpt lat="47.29446" lon="-2.43478">
        <ele>-6</ele>
        <time>2020-02-23T10:37:58.000Z</time>
      </trkpt>
      <trkpt lat="47.29443" lon="-2.43484">
        <ele>-6</ele>
        <time>2020-02-23T10:38:00.000Z</time>
      </trkpt>
      <trkpt lat="47.29438" lon="-2.43492">
        <ele>-6</ele>
        <time>2020-02-23T10:38:02.000Z</time>
      </trkpt>
      <trkpt lat="47.29429" lon="-2.4351">
        <ele>-6</ele>
        <time>2020-02-23T10:38:06.000Z</time>
      </trkpt>
      <trkpt lat="47.2941" lon="-2.43545">
        <ele>-6</ele>
        <time>2020-02-23T10:38:14.000Z</time>
      </trkpt>
      <trkpt lat="47.29394" lon="-2.43572">
        <ele>-6</ele>
        <time>2020-02-23T10:38:21.000Z</time>
      </trkpt>
      <trkpt lat="47.29382" lon="-2.43592">
        <ele>-6</ele>
        <time>2020-02-23T10:38:28.000Z</time>
      </trkpt>
      <trkpt lat="47.29371" lon="-2.43606">
        <ele>-6</ele>
        <time>2020-02-23T10:38:34.000Z</time>
      </trkpt>
      <trkpt lat="47.29357" lon="-2.43628">
        <ele>-6</ele>
        <time>2020-02-23T10:38:40.000Z</time>
      </trkpt>
      <trkpt lat="47.29342" lon="-2.4365">
        <ele>-6</ele>
        <time>2020-02-23T10:38:44.000Z</time>
      </trkpt>
      <trkpt lat="47.29338" lon="-2.43657">
        <ele>-6</ele>
        <time>2020-02-23T10:38:45.000Z</time>
      </trkpt>
      <trkpt lat="47.29328" lon="-2.43668">
        <ele>-6</ele>
        <time>2020-02-23T10:38:47.000Z</time>
      </trkpt>
      <trkpt lat="47.29314" lon="-2.43683">
        <ele>-6</ele>
        <time>2020-02-23T10:38:50.000Z</time>
      </trkpt>
      <trkpt lat="47.293" lon="-2.43695">
        <ele>-6</ele>
        <time>2020-02-23T10:38:54.000Z</time>
      </trkpt>
      <trkpt lat="47.29278" lon="-2.43711">
        <ele>-6</ele>
        <time>2020-02-23T10:39:00.000Z</time>
      </trkpt>
      <trkpt lat="47.2924" lon="-2.43744">
        <ele>-6</ele>
        <time>2020-02-23T10:39:10.000Z</time>
      </trkpt>
      <trkpt lat="47.29207" lon="-2.43773">
        <ele>-6</ele>
        <time>2020-02-23T10:39:18.000Z</time>
      </trkpt>
      <trkpt lat="47.2917" lon="-2.43806">
        <ele>-6</ele>
        <time>2020-02-23T10:39:27.000Z</time>
      </trkpt>
      <trkpt lat="47.29137" lon="-2.43835">
        <ele>-6</ele>
        <time>2020-02-23T10:39:35.000Z</time>
      </trkpt>
      <trkpt lat="47.29105" lon="-2.43858">
        <ele>-6</ele>
        <time>2020-02-23T10:39:42.000Z</time>
      </trkpt>
      <trkpt lat="47.29086" lon="-2.43866">
        <ele>-6</ele>
        <time>2020-02-23T10:39:46.000Z</time>
      </trkpt>
      <trkpt lat="47.29078" lon="-2.43873">
        <ele>-6</ele>
        <time>2020-02-23T10:39:48.000Z</time>
      </trkpt>
      <trkpt lat="47.2906" lon="-2.43886">
        <ele>-6</ele>
        <time>2020-02-23T10:39:53.000Z</time>
      </trkpt>
      <trkpt lat="47.29049" lon="-2.43873">
        <ele>-6</ele>
        <time>2020-02-23T10:39:56.000Z</time>
      </trkpt>
      <trkpt lat="47.29042" lon="-2.4386">
        <ele>-6</ele>
        <time>2020-02-23T10:39:58.000Z</time>
      </trkpt>
      <trkpt lat="47.29038" lon="-2.43855">
        <ele>-6</ele>
        <time>2020-02-23T10:39:59.000Z</time>
      </trkpt>
      <trkpt lat="47.2903" lon="-2.43845">
        <ele>-6</ele>
        <time>2020-02-23T10:40:01.000Z</time>
      </trkpt>
      <trkpt lat="47.29026" lon="-2.43841">
        <ele>-6</ele>
        <time>2020-02-23T10:40:02.000Z</time>
      </trkpt>
      <trkpt lat="47.29007" lon="-2.43827">
        <ele>-6</ele>
        <time>2020-02-23T10:40:06.000Z</time>
      </trkpt>
      <trkpt lat="47.28965" lon="-2.43806">
        <ele>-6</ele>
        <time>2020-02-23T10:40:15.000Z</time>
      </trkpt>
      <trkpt lat="47.28949" lon="-2.43802">
        <ele>-6</ele>
        <time>2020-02-23T10:40:18.000Z</time>
      </trkpt>
      <trkpt lat="47.28933" lon="-2.43802">
        <ele>-6</ele>
        <time>2020-02-23T10:40:21.000Z</time>
      </trkpt>
      <trkpt lat="47.28928" lon="-2.43803">
        <ele>-6</ele>
        <time>2020-02-23T10:40:22.000Z</time>
      </trkpt>
      <trkpt lat="47.28913" lon="-2.43807">
        <ele>-6</ele>
        <time>2020-02-23T10:40:25.000Z</time>
      </trkpt>
      <trkpt lat="47.28898" lon="-2.43814">
        <ele>-6</ele>
        <time>2020-02-23T10:40:28.000Z</time>
      </trkpt>
      <trkpt lat="47.28882" lon="-2.43821">
        <ele>-6</ele>
        <time>2020-02-23T10:40:31.000Z</time>
      </trkpt>
      <trkpt lat="47.28852" lon="-2.43834">
        <ele>-6</ele>
        <time>2020-02-23T10:40:37.000Z</time>
      </trkpt>
      <trkpt lat="47.28837" lon="-2.43837">
        <ele>-6</ele>
        <time>2020-02-23T10:40:40.000Z</time>
      </trkpt>
      <trkpt lat="47.28828" lon="-2.43834">
        <ele>-6</ele>
        <time>2020-02-23T10:40:42.000Z</time>
      </trkpt>
      <trkpt lat="47.28807" lon="-2.43824">
        <ele>-6</ele>
        <time>2020-02-23T10:40:46.000Z</time>
      </trkpt>
      <trkpt lat="47.28802" lon="-2.4382">
        <ele>-6</ele>
        <time>2020-02-23T10:40:47.000Z</time>
      </trkpt>
      <trkpt lat="47.28766" lon="-2.43791">
        <ele>-6</ele>
        <time>2020-02-23T10:40:54.000Z</time>
      </trkpt>
      <trkpt lat="47.28728" lon="-2.43764">
        <ele>-6</ele>
        <time>2020-02-23T10:41:01.000Z</time>
      </trkpt>
      <trkpt lat="47.28717" lon="-2.43756">
        <ele>-6</ele>
        <time>2020-02-23T10:41:03.000Z</time>
      </trkpt>
      <trkpt lat="47.28695" lon="-2.43738">
        <ele>-6</ele>
        <time>2020-02-23T10:41:07.000Z</time>
      </trkpt>
      <trkpt lat="47.28689" lon="-2.43734">
        <ele>-6.4000000953674</ele>
        <time>2020-02-23T10:41:08.000Z</time>
      </trkpt>
      <trkpt lat="47.28683" lon="-2.4373">
        <ele>-6.8000001907349</ele>
        <time>2020-02-23T10:41:09.000Z</time>
      </trkpt>
      <trkpt lat="47.28678" lon="-2.43725">
        <ele>-7.1999998092651</ele>
        <time>2020-02-23T10:41:10.000Z</time>
      </trkpt>
      <trkpt lat="47.28672" lon="-2.43721">
        <ele>-7.5999999046326</ele>
        <time>2020-02-23T10:41:11.000Z</time>
      </trkpt>
      <trkpt lat="47.28667" lon="-2.43717">
        <ele>-8</ele>
        <time>2020-02-23T10:41:12.000Z</time>
      </trkpt>
      <trkpt lat="47.28644" lon="-2.43699">
        <ele>-8</ele>
        <time>2020-02-23T10:41:16.000Z</time>
      </trkpt>
      <trkpt lat="47.28614" lon="-2.43676">
        <ele>-8</ele>
        <time>2020-02-23T10:41:22.000Z</time>
      </trkpt>
      <trkpt lat="47.28585" lon="-2.43653">
        <ele>-8</ele>
        <time>2020-02-23T10:41:28.000Z</time>
      </trkpt>
      <trkpt lat="47.28534" lon="-2.43613">
        <ele>-8</ele>
        <time>2020-02-23T10:41:38.000Z</time>
      </trkpt>
      <trkpt lat="47.28495" lon="-2.43581">
        <ele>-8</ele>
        <time>2020-02-23T10:41:46.000Z</time>
      </trkpt>
      <trkpt lat="47.28459" lon="-2.43553">
        <ele>-8</ele>
        <time>2020-02-23T10:41:53.000Z</time>
      </trkpt>
      <trkpt lat="47.28425" lon="-2.43526">
        <ele>-8</ele>
        <time>2020-02-23T10:42:00.000Z</time>
      </trkpt>
      <trkpt lat="47.28388" lon="-2.43497">
        <ele>-8</ele>
        <time>2020-02-23T10:42:08.000Z</time>
      </trkpt>
      <trkpt lat="47.2836" lon="-2.43474">
        <ele>-8</ele>
        <time>2020-02-23T10:42:14.000Z</time>
      </trkpt>
      <trkpt lat="47.28327" lon="-2.43448">
        <ele>-8</ele>
        <time>2020-02-23T10:42:21.000Z</time>
      </trkpt>
      <trkpt lat="47.28295" lon="-2.4342">
        <ele>-8</ele>
        <time>2020-02-23T10:42:29.000Z</time>
      </trkpt>
      <trkpt lat="47.28259" lon="-2.4339">
        <ele>-8</ele>
        <time>2020-02-23T10:42:37.000Z</time>
      </trkpt>
      <trkpt lat="47.28233" lon="-2.43366">
        <ele>-8</ele>
        <time>2020-02-23T10:42:43.000Z</time>
      </trkpt>
      <trkpt lat="47.28225" lon="-2.43355">
        <ele>-8</ele>
        <time>2020-02-23T10:42:45.000Z</time>
      </trkpt>
      <trkpt lat="47.28215" lon="-2.43335">
        <ele>-8</ele>
        <time>2020-02-23T10:42:48.000Z</time>
      </trkpt>
      <trkpt lat="47.28208" lon="-2.43325">
        <ele>-8</ele>
        <time>2020-02-23T10:42:50.000Z</time>
      </trkpt>
      <trkpt lat="47.28198" lon="-2.43321">
        <ele>-8</ele>
        <time>2020-02-23T10:42:52.000Z</time>
      </trkpt>
      <trkpt lat="47.28184" lon="-2.43315">
        <ele>-8</ele>
        <time>2020-02-23T10:42:55.000Z</time>
      </trkpt>
      <trkpt lat="47.28178" lon="-2.43305">
        <ele>-8</ele>
        <time>2020-02-23T10:42:57.000Z</time>
      </trkpt>
      <trkpt lat="47.28176" lon="-2.43286">
        <ele>-8</ele>
        <time>2020-02-23T10:43:00.000Z</time>
      </trkpt>
      <trkpt lat="47.28176" lon="-2.4328">
        <ele>-8</ele>
        <time>2020-02-23T10:43:01.000Z</time>
      </trkpt>
      <trkpt lat="47.28175" lon="-2.43274">
        <ele>-8</ele>
        <time>2020-02-23T10:43:02.000Z</time>
      </trkpt>
      <trkpt lat="47.2817" lon="-2.43262">
        <ele>-8</ele>
        <time>2020-02-23T10:43:05.000Z</time>
      </trkpt>
      <trkpt lat="47.28165" lon="-2.43255">
        <ele>-8</ele>
        <time>2020-02-23T10:43:08.000Z</time>
      </trkpt>
      <trkpt lat="47.28157" lon="-2.43234">
        <ele>-8</ele>
        <time>2020-02-23T10:43:12.000Z</time>
      </trkpt>
      <trkpt lat="47.2815" lon="-2.43224">
        <ele>-8</ele>
        <time>2020-02-23T10:43:14.000Z</time>
      </trkpt>
      <trkpt lat="47.28135" lon="-2.43201">
        <ele>-8</ele>
        <time>2020-02-23T10:43:18.000Z</time>
      </trkpt>
      <trkpt lat="47.28104" lon="-2.43151">
        <ele>-8</ele>
        <time>2020-02-23T10:43:27.000Z</time>
      </trkpt>
      <trkpt lat="47.28089" lon="-2.43126">
        <ele>-8</ele>
        <time>2020-02-23T10:43:33.000Z</time>
      </trkpt>
      <trkpt lat="47.28085" lon="-2.43114">
        <ele>-8</ele>
        <time>2020-02-23T10:43:36.000Z</time>
      </trkpt>
      <trkpt lat="47.28086" lon="-2.4311">
        <ele>-8</ele>
        <time>2020-02-23T10:43:37.000Z</time>
      </trkpt>
      <trkpt lat="47.28096" lon="-2.43101">
        <ele>-8</ele>
        <time>2020-02-23T10:43:40.000Z</time>
      </trkpt>
      <trkpt lat="47.281" lon="-2.43098">
        <ele>-8</ele>
        <time>2020-02-23T10:43:41.000Z</time>
      </trkpt>
      <trkpt lat="47.28103" lon="-2.43094">
        <ele>-8</ele>
        <time>2020-02-23T10:43:42.000Z</time>
      </trkpt>
      <trkpt lat="47.28108" lon="-2.43076">
        <ele>-8</ele>
        <time>2020-02-23T10:43:45.000Z</time>
      </trkpt>
      <trkpt lat="47.28109" lon="-2.43062">
        <ele>-8</ele>
        <time>2020-02-23T10:43:47.000Z</time>
      </trkpt>
      <trkpt lat="47.2811" lon="-2.43028">
        <ele>-8</ele>
        <time>2020-02-23T10:43:52.000Z</time>
      </trkpt>
      <trkpt lat="47.28109" lon="-2.43021">
        <ele>-8</ele>
        <time>2020-02-23T10:43:53.000Z</time>
      </trkpt>
      <trkpt lat="47.28105" lon="-2.42989">
        <ele>-8</ele>
        <time>2020-02-23T10:43:58.000Z</time>
      </trkpt>
      <trkpt lat="47.28102" lon="-2.42971">
        <ele>-8</ele>
        <time>2020-02-23T10:44:01.000Z</time>
      </trkpt>
      <trkpt lat="47.281" lon="-2.42953">
        <ele>-8</ele>
        <time>2020-02-23T10:44:04.000Z</time>
      </trkpt>
      <trkpt lat="47.28095" lon="-2.42922">
        <ele>-8.3999996185303</ele>
        <time>2020-02-23T10:44:09.000Z</time>
      </trkpt>
      <trkpt lat="47.28093" lon="-2.42916">
        <ele>-8.8000001907349</ele>
        <time>2020-02-23T10:44:10.000Z</time>
      </trkpt>
      <trkpt lat="47.28092" lon="-2.4291">
        <ele>-9.1999998092651</ele>
        <time>2020-02-23T10:44:11.000Z</time>
      </trkpt>
      <trkpt lat="47.28091" lon="-2.42904">
        <ele>-9.6000003814697</ele>
        <time>2020-02-23T10:44:12.000Z</time>
      </trkpt>
      <trkpt lat="47.28089" lon="-2.42898">
        <ele>-10</ele>
        <time>2020-02-23T10:44:13.000Z</time>
      </trkpt>
      <trkpt lat="47.28087" lon="-2.4289">
        <ele>-10</ele>
        <time>2020-02-23T10:44:14.000Z</time>
      </trkpt>
      <trkpt lat="47.28082" lon="-2.42878">
        <ele>-10</ele>
        <time>2020-02-23T10:44:16.000Z</time>
      </trkpt>
      <trkpt lat="47.28074" lon="-2.42866">
        <ele>-10</ele>
        <time>2020-02-23T10:44:18.000Z</time>
      </trkpt>
      <trkpt lat="47.28057" lon="-2.42843">
        <ele>-10</ele>
        <time>2020-02-23T10:44:22.000Z</time>
      </trkpt>
      <trkpt lat="47.28025" lon="-2.42808">
        <ele>-10</ele>
        <time>2020-02-23T10:44:29.000Z</time>
      </trkpt>
      <trkpt lat="47.2802" lon="-2.42805">
        <ele>-10</ele>
        <time>2020-02-23T10:44:30.000Z</time>
      </trkpt>
      <trkpt lat="47.28005" lon="-2.42801">
        <ele>-10</ele>
        <time>2020-02-23T10:44:33.000Z</time>
      </trkpt>
      <trkpt lat="47.27993" lon="-2.42802">
        <ele>-10</ele>
        <time>2020-02-23T10:44:35.000Z</time>
      </trkpt>
      <trkpt lat="47.27971" lon="-2.42807">
        <ele>-10</ele>
        <time>2020-02-23T10:44:39.000Z</time>
      </trkpt>
      <trkpt lat="47.27938" lon="-2.42813">
        <ele>-10</ele>
        <time>2020-02-23T10:44:46.000Z</time>
      </trkpt>
      <trkpt lat="47.27916" lon="-2.42817">
        <ele>-10</ele>
        <time>2020-02-23T10:44:51.000Z</time>
      </trkpt>
      <trkpt lat="47.27891" lon="-2.42818">
        <ele>-10</ele>
        <time>2020-02-23T10:44:56.000Z</time>
      </trkpt>
      <trkpt lat="47.27878" lon="-2.4282">
        <ele>-10</ele>
        <time>2020-02-23T10:44:59.000Z</time>
      </trkpt>
      <trkpt lat="47.2787" lon="-2.42821">
        <ele>-10</ele>
        <time>2020-02-23T10:45:01.000Z</time>
      </trkpt>
      <trkpt lat="47.2785" lon="-2.42823">
        <ele>-10</ele>
        <time>2020-02-23T10:45:07.000Z</time>
      </trkpt>
      <trkpt lat="47.27835" lon="-2.42826">
        <ele>-10</ele>
        <time>2020-02-23T10:45:11.000Z</time>
      </trkpt>
      <trkpt lat="47.27831" lon="-2.42825">
        <ele>-10</ele>
        <time>2020-02-23T10:45:12.000Z</time>
      </trkpt>
      <trkpt lat="47.27829" lon="-2.4282">
        <ele>-10</ele>
        <time>2020-02-23T10:45:13.000Z</time>
      </trkpt>
      <trkpt lat="47.27829" lon="-2.42809">
        <ele>-10</ele>
        <time>2020-02-23T10:45:15.000Z</time>
      </trkpt>
      <trkpt lat="47.27826" lon="-2.42765">
        <ele>-10</ele>
        <time>2020-02-23T10:45:22.000Z</time>
      </trkpt>
      <trkpt lat="47.27825" lon="-2.42694">
        <ele>-10</ele>
        <time>2020-02-23T10:45:32.000Z</time>
      </trkpt>
      <trkpt lat="47.27822" lon="-2.42651">
        <ele>-10</ele>
        <time>2020-02-23T10:45:37.000Z</time>
      </trkpt>
      <trkpt lat="47.2781" lon="-2.42589">
        <ele>-10</ele>
        <time>2020-02-23T10:45:44.000Z</time>
      </trkpt>
      <trkpt lat="47.27792" lon="-2.42539">
        <ele>-10</ele>
        <time>2020-02-23T10:45:50.000Z</time>
      </trkpt>
      <trkpt lat="47.27767" lon="-2.42469">
        <ele>-10</ele>
        <time>2020-02-23T10:45:58.000Z</time>
      </trkpt>
      <trkpt lat="47.27752" lon="-2.42404">
        <ele>-10</ele>
        <time>2020-02-23T10:46:05.000Z</time>
      </trkpt>
      <trkpt lat="47.27743" lon="-2.42348">
        <ele>-10</ele>
        <time>2020-02-23T10:46:11.000Z</time>
      </trkpt>
      <trkpt lat="47.27738" lon="-2.4227">
        <ele>-10</ele>
        <time>2020-02-23T10:46:19.000Z</time>
      </trkpt>
      <trkpt lat="47.27738" lon="-2.42243">
        <ele>-10</ele>
        <time>2020-02-23T10:46:22.000Z</time>
      </trkpt>
      <trkpt lat="47.27737" lon="-2.42215">
        <ele>-10</ele>
        <time>2020-02-23T10:46:25.000Z</time>
      </trkpt>
      <trkpt lat="47.27736" lon="-2.42161">
        <ele>-10</ele>
        <time>2020-02-23T10:46:31.000Z</time>
      </trkpt>
      <trkpt lat="47.27741" lon="-2.42097">
        <ele>-10</ele>
        <time>2020-02-23T10:46:38.000Z</time>
      </trkpt>
      <trkpt lat="47.27749" lon="-2.42036">
        <ele>-10</ele>
        <time>2020-02-23T10:46:45.000Z</time>
      </trkpt>
      <trkpt lat="47.27765" lon="-2.41978">
        <ele>-10</ele>
        <time>2020-02-23T10:46:52.000Z</time>
      </trkpt>
      <trkpt lat="47.27781" lon="-2.41921">
        <ele>-10</ele>
        <time>2020-02-23T10:46:59.000Z</time>
      </trkpt>
      <trkpt lat="47.27802" lon="-2.41863">
        <ele>-10</ele>
        <time>2020-02-23T10:47:06.000Z</time>
      </trkpt>
      <trkpt lat="47.27821" lon="-2.41815">
        <ele>-10</ele>
        <time>2020-02-23T10:47:12.000Z</time>
      </trkpt>
      <trkpt lat="47.27834" lon="-2.41787">
        <ele>-9.6000003814697</ele>
        <time>2020-02-23T10:47:16.000Z</time>
      </trkpt>
      <trkpt lat="47.27837" lon="-2.41779">
        <ele>-9.1999998092651</ele>
        <time>2020-02-23T10:47:17.000Z</time>
      </trkpt>
      <trkpt lat="47.2784" lon="-2.41771">
        <ele>-8.8000001907349</ele>
        <time>2020-02-23T10:47:18.000Z</time>
      </trkpt>
      <trkpt lat="47.27843" lon="-2.41762">
        <ele>-8.3999996185303</ele>
        <time>2020-02-23T10:47:19.000Z</time>
      </trkpt>
      <trkpt lat="47.27846" lon="-2.41754">
        <ele>-8</ele>
        <time>2020-02-23T10:47:20.000Z</time>
      </trkpt>
      <trkpt lat="47.27851" lon="-2.41746">
        <ele>-8</ele>
        <time>2020-02-23T10:47:21.000Z</time>
      </trkpt>
      <trkpt lat="47.27859" lon="-2.41731">
        <ele>-8</ele>
        <time>2020-02-23T10:47:23.000Z</time>
      </trkpt>
      <trkpt lat="47.27865" lon="-2.41717">
        <ele>-8</ele>
        <time>2020-02-23T10:47:25.000Z</time>
      </trkpt>
      <trkpt lat="47.27877" lon="-2.41693">
        <ele>-8</ele>
        <time>2020-02-23T10:47:28.000Z</time>
      </trkpt>
      <trkpt lat="47.27907" lon="-2.4163">
        <ele>-8</ele>
        <time>2020-02-23T10:47:36.000Z</time>
      </trkpt>
      <trkpt lat="47.27934" lon="-2.41575">
        <ele>-8</ele>
        <time>2020-02-23T10:47:43.000Z</time>
      </trkpt>
      <trkpt lat="47.27955" lon="-2.41521">
        <ele>-8</ele>
        <time>2020-02-23T10:47:50.000Z</time>
      </trkpt>
      <trkpt lat="47.27958" lon="-2.41513">
        <ele>-8</ele>
        <time>2020-02-23T10:47:51.000Z</time>
      </trkpt>
      <trkpt lat="47.2796" lon="-2.41504">
        <ele>-7.5999999046326</ele>
        <time>2020-02-23T10:47:52.000Z</time>
      </trkpt>
      <trkpt lat="47.27963" lon="-2.41495">
        <ele>-7.1999998092651</ele>
        <time>2020-02-23T10:47:53.000Z</time>
      </trkpt>
      <trkpt lat="47.27965" lon="-2.41487">
        <ele>-6.8000001907349</ele>
        <time>2020-02-23T10:47:54.000Z</time>
      </trkpt>
      <trkpt lat="47.27968" lon="-2.41478">
        <ele>-6.4000000953674</ele>
        <time>2020-02-23T10:47:55.000Z</time>
      </trkpt>
      <trkpt lat="47.2797" lon="-2.4147">
        <ele>-6</ele>
        <time>2020-02-23T10:47:56.000Z</time>
      </trkpt>
      <trkpt lat="47.27981" lon="-2.41435">
        <ele>-6</ele>
        <time>2020-02-23T10:48:00.000Z</time>
      </trkpt>
      <trkpt lat="47.27984" lon="-2.41426">
        <ele>-6</ele>
        <time>2020-02-23T10:48:01.000Z</time>
      </trkpt>
      <trkpt lat="47.27994" lon="-2.4137">
        <ele>-6</ele>
        <time>2020-02-23T10:48:07.000Z</time>
      </trkpt>
      <trkpt lat="47.28006" lon="-2.41296">
        <ele>-6</ele>
        <time>2020-02-23T10:48:15.000Z</time>
      </trkpt>
      <trkpt lat="47.2802" lon="-2.4124">
        <ele>-6</ele>
        <time>2020-02-23T10:48:21.000Z</time>
      </trkpt>
      <trkpt lat="47.28033" lon="-2.41184">
        <ele>-6</ele>
        <time>2020-02-23T10:48:27.000Z</time>
      </trkpt>
      <trkpt lat="47.2804" lon="-2.41147">
        <ele>-6</ele>
        <time>2020-02-23T10:48:31.000Z</time>
      </trkpt>
      <trkpt lat="47.28044" lon="-2.41128">
        <ele>-6</ele>
        <time>2020-02-23T10:48:33.000Z</time>
      </trkpt>
      <trkpt lat="47.28057" lon="-2.41056">
        <ele>-6</ele>
        <time>2020-02-23T10:48:41.000Z</time>
      </trkpt>
      <trkpt lat="47.28072" lon="-2.40985">
        <ele>-6</ele>
        <time>2020-02-23T10:48:49.000Z</time>
      </trkpt>
      <trkpt lat="47.28083" lon="-2.40937">
        <ele>-6</ele>
        <time>2020-02-23T10:48:55.000Z</time>
      </trkpt>
      <trkpt lat="47.28079" lon="-2.40907">
        <ele>-6</ele>
        <time>2020-02-23T10:48:59.000Z</time>
      </trkpt>
      <trkpt lat="47.28072" lon="-2.40893">
        <ele>-6</ele>
        <time>2020-02-23T10:49:01.000Z</time>
      </trkpt>
      <trkpt lat="47.28056" lon="-2.40858">
        <ele>-6</ele>
        <time>2020-02-23T10:49:06.000Z</time>
      </trkpt>
      <trkpt lat="47.28043" lon="-2.40824">
        <ele>-6</ele>
        <time>2020-02-23T10:49:11.000Z</time>
      </trkpt>
      <trkpt lat="47.2804" lon="-2.40819">
        <ele>-6</ele>
        <time>2020-02-23T10:49:12.000Z</time>
      </trkpt>
      <trkpt lat="47.28038" lon="-2.40813">
        <ele>-6</ele>
        <time>2020-02-23T10:49:13.000Z</time>
      </trkpt>
      <trkpt lat="47.28037" lon="-2.40801">
        <ele>-5.5999999046326</ele>
        <time>2020-02-23T10:49:15.000Z</time>
      </trkpt>
      <trkpt lat="47.28038" lon="-2.40795">
        <ele>-5</ele>
        <time>2020-02-23T10:49:16.000Z</time>
      </trkpt>
      <trkpt lat="47.2804" lon="-2.40788">
        <ele>-4.5999999046326</ele>
        <time>2020-02-23T10:49:17.000Z</time>
      </trkpt>
      <trkpt lat="47.28041" lon="-2.40782">
        <ele>-4.1999998092651</ele>
        <time>2020-02-23T10:49:18.000Z</time>
      </trkpt>
      <trkpt lat="47.28043" lon="-2.40775">
        <ele>-3.7999999523163</ele>
        <time>2020-02-23T10:49:19.000Z</time>
      </trkpt>
      <trkpt lat="47.28046" lon="-2.40762">
        <ele>-3.7999999523163</ele>
        <time>2020-02-23T10:49:21.000Z</time>
      </trkpt>
      <trkpt lat="47.28057" lon="-2.40713">
        <ele>-3.7999999523163</ele>
        <time>2020-02-23T10:49:28.000Z</time>
      </trkpt>
      <trkpt lat="47.28058" lon="-2.40707">
        <ele>-3.7999999523163</ele>
        <time>2020-02-23T10:49:29.000Z</time>
      </trkpt>
      <trkpt lat="47.28058" lon="-2.40679">
        <ele>-3.7999999523163</ele>
        <time>2020-02-23T10:49:33.000Z</time>
      </trkpt>
      <trkpt lat="47.28054" lon="-2.40651">
        <ele>-3.7999999523163</ele>
        <time>2020-02-23T10:49:37.000Z</time>
      </trkpt>
      <trkpt lat="47.28053" lon="-2.40645">
        <ele>-3.7999999523163</ele>
        <time>2020-02-23T10:49:38.000Z</time>
      </trkpt>
      <trkpt lat="47.28048" lon="-2.40621">
        <ele>-3.7999999523163</ele>
        <time>2020-02-23T10:49:42.000Z</time>
      </trkpt>
      <trkpt lat="47.28049" lon="-2.40608">
        <ele>-3.7999999523163</ele>
        <time>2020-02-23T10:49:44.000Z</time>
      </trkpt>
      <trkpt lat="47.28058" lon="-2.40559">
        <ele>-3.7999999523163</ele>
        <time>2020-02-23T10:49:52.000Z</time>
      </trkpt>
      <trkpt lat="47.28069" lon="-2.40507">
        <ele>-3.7999999523163</ele>
        <time>2020-02-23T10:49:59.000Z</time>
      </trkpt>
      <trkpt lat="47.28075" lon="-2.40483">
        <ele>-3.7999999523163</ele>
        <time>2020-02-23T10:50:02.000Z</time>
      </trkpt>
      <trkpt lat="47.28081" lon="-2.40469">
        <ele>-3.7999999523163</ele>
        <time>2020-02-23T10:50:04.000Z</time>
      </trkpt>
      <trkpt lat="47.28101" lon="-2.40435">
        <ele>-3.7999999523163</ele>
        <time>2020-02-23T10:50:09.000Z</time>
      </trkpt>
      <trkpt lat="47.28104" lon="-2.40427">
        <ele>-3.7999999523163</ele>
        <time>2020-02-23T10:50:10.000Z</time>
      </trkpt>
      <trkpt lat="47.28112" lon="-2.40381">
        <ele>-3.7999999523163</ele>
        <time>2020-02-23T10:50:15.000Z</time>
      </trkpt>
      <trkpt lat="47.2812" lon="-2.40312">
        <ele>-3.7999999523163</ele>
        <time>2020-02-23T10:50:22.000Z</time>
      </trkpt>
      <trkpt lat="47.28131" lon="-2.40231">
        <ele>-3.7999999523163</ele>
        <time>2020-02-23T10:50:30.000Z</time>
      </trkpt>
      <trkpt lat="47.28133" lon="-2.40221">
        <ele>-3.7999999523163</ele>
        <time>2020-02-23T10:50:31.000Z</time>
      </trkpt>
      <trkpt lat="47.2814" lon="-2.40149">
        <ele>-3.7999999523163</ele>
        <time>2020-02-23T10:50:38.000Z</time>
      </trkpt>
      <trkpt lat="47.28147" lon="-2.40066">
        <ele>-3.7999999523163</ele>
        <time>2020-02-23T10:50:46.000Z</time>
      </trkpt>
      <trkpt lat="47.28147" lon="-2.40056">
        <ele>-3.7999999523163</ele>
        <time>2020-02-23T10:50:47.000Z</time>
      </trkpt>
      <trkpt lat="47.28148" lon="-2.40046">
        <ele>-4.1999998092651</ele>
        <time>2020-02-23T10:50:48.000Z</time>
      </trkpt>
      <trkpt lat="47.2815" lon="-2.40037">
        <ele>-4.5999999046326</ele>
        <time>2020-02-23T10:50:49.000Z</time>
      </trkpt>
      <trkpt lat="47.28151" lon="-2.40027">
        <ele>-5</ele>
        <time>2020-02-23T10:50:50.000Z</time>
      </trkpt>
      <trkpt lat="47.28152" lon="-2.40017">
        <ele>-5.4000000953674</ele>
        <time>2020-02-23T10:50:51.000Z</time>
      </trkpt>
      <trkpt lat="47.28153" lon="-2.40007">
        <ele>-5.8000001907349</ele>
        <time>2020-02-23T10:50:52.000Z</time>
      </trkpt>
      <trkpt lat="47.28156" lon="-2.39976">
        <ele>-5.8000001907349</ele>
        <time>2020-02-23T10:50:55.000Z</time>
      </trkpt>
      <trkpt lat="47.28159" lon="-2.39913">
        <ele>-5.8000001907349</ele>
        <time>2020-02-23T10:51:01.000Z</time>
      </trkpt>
      <trkpt lat="47.28166" lon="-2.3984">
        <ele>-5.8000001907349</ele>
        <time>2020-02-23T10:51:08.000Z</time>
      </trkpt>
      <trkpt lat="47.2817" lon="-2.39755">
        <ele>-5.8000001907349</ele>
        <time>2020-02-23T10:51:16.000Z</time>
      </trkpt>
      <trkpt lat="47.28173" lon="-2.39666">
        <ele>-5.8000001907349</ele>
        <time>2020-02-23T10:51:24.000Z</time>
      </trkpt>
      <trkpt lat="47.28174" lon="-2.39656">
        <ele>-5.8000001907349</ele>
        <time>2020-02-23T10:51:25.000Z</time>
      </trkpt>
      <trkpt lat="47.28177" lon="-2.39575">
        <ele>-5.8000001907349</ele>
        <time>2020-02-23T10:51:32.000Z</time>
      </trkpt>
      <trkpt lat="47.28178" lon="-2.3954">
        <ele>-5.8000001907349</ele>
        <time>2020-02-23T10:51:35.000Z</time>
      </trkpt>
      <trkpt lat="47.2818" lon="-2.39456">
        <ele>-5.8000001907349</ele>
        <time>2020-02-23T10:51:42.000Z</time>
      </trkpt>
      <trkpt lat="47.28179" lon="-2.39444">
        <ele>-5.8000001907349</ele>
        <time>2020-02-23T10:51:43.000Z</time>
      </trkpt>
      <trkpt lat="47.28178" lon="-2.39357">
        <ele>-5.8000001907349</ele>
        <time>2020-02-23T10:51:50.000Z</time>
      </trkpt>
      <trkpt lat="47.28177" lon="-2.3932">
        <ele>-5.8000001907349</ele>
        <time>2020-02-23T10:51:53.000Z</time>
      </trkpt>
      <trkpt lat="47.28174" lon="-2.39234">
        <ele>-5.8000001907349</ele>
        <time>2020-02-23T10:52:00.000Z</time>
      </trkpt>
      <trkpt lat="47.28173" lon="-2.39196">
        <ele>-5.8000001907349</ele>
        <time>2020-02-23T10:52:03.000Z</time>
      </trkpt>
      <trkpt lat="47.28169" lon="-2.39109">
        <ele>-5.8000001907349</ele>
        <time>2020-02-23T10:52:10.000Z</time>
      </trkpt>
      <trkpt lat="47.28168" lon="-2.39097">
        <ele>-5.8000001907349</ele>
        <time>2020-02-23T10:52:11.000Z</time>
      </trkpt>
      <trkpt lat="47.28161" lon="-2.39012">
        <ele>-5.8000001907349</ele>
        <time>2020-02-23T10:52:18.000Z</time>
      </trkpt>
      <trkpt lat="47.2815" lon="-2.38939">
        <ele>-5.8000001907349</ele>
        <time>2020-02-23T10:52:24.000Z</time>
      </trkpt>
      <trkpt lat="47.28147" lon="-2.38927">
        <ele>-5.8000001907349</ele>
        <time>2020-02-23T10:52:25.000Z</time>
      </trkpt>
      <trkpt lat="47.28135" lon="-2.38865">
        <ele>-5.8000001907349</ele>
        <time>2020-02-23T10:52:30.000Z</time>
      </trkpt>
      <trkpt lat="47.28126" lon="-2.38775">
        <ele>-5.8000001907349</ele>
        <time>2020-02-23T10:52:37.000Z</time>
      </trkpt>
      <trkpt lat="47.28119" lon="-2.387">
        <ele>-6.1999998092651</ele>
        <time>2020-02-23T10:52:43.000Z</time>
      </trkpt>
      <trkpt lat="47.28118" lon="-2.38688">
        <ele>-6.8000001907349</ele>
        <time>2020-02-23T10:52:44.000Z</time>
      </trkpt>
      <trkpt lat="47.28117" lon="-2.38676">
        <ele>-7.1999998092651</ele>
        <time>2020-02-23T10:52:45.000Z</time>
      </trkpt>
      <trkpt lat="47.28115" lon="-2.38663">
        <ele>-7.5999999046326</ele>
        <time>2020-02-23T10:52:46.000Z</time>
      </trkpt>
      <trkpt lat="47.28114" lon="-2.38651">
        <ele>-8</ele>
        <time>2020-02-23T10:52:47.000Z</time>
      </trkpt>
      <trkpt lat="47.28106" lon="-2.38568">
        <ele>-8</ele>
        <time>2020-02-23T10:52:54.000Z</time>
      </trkpt>
      <trkpt lat="47.28105" lon="-2.38555">
        <ele>-8</ele>
        <time>2020-02-23T10:52:55.000Z</time>
      </trkpt>
      <trkpt lat="47.28093" lon="-2.3847">
        <ele>-8</ele>
        <time>2020-02-23T10:53:02.000Z</time>
      </trkpt>
      <trkpt lat="47.28091" lon="-2.38458">
        <ele>-8</ele>
        <time>2020-02-23T10:53:03.000Z</time>
      </trkpt>
      <trkpt lat="47.28074" lon="-2.38371">
        <ele>-8</ele>
        <time>2020-02-23T10:53:10.000Z</time>
      </trkpt>
      <trkpt lat="47.28067" lon="-2.38333">
        <ele>-8</ele>
        <time>2020-02-23T10:53:13.000Z</time>
      </trkpt>
      <trkpt lat="47.2805" lon="-2.38247">
        <ele>-7.4000000953674</ele>
        <time>2020-02-23T10:53:20.000Z</time>
      </trkpt>
      <trkpt lat="47.28048" lon="-2.38235">
        <ele>-6.5999999046326</ele>
        <time>2020-02-23T10:53:21.000Z</time>
      </trkpt>
      <trkpt lat="47.28046" lon="-2.38222">
        <ele>-5.4000000953674</ele>
        <time>2020-02-23T10:53:22.000Z</time>
      </trkpt>
      <trkpt lat="47.28043" lon="-2.38209">
        <ele>-4.1999998092651</ele>
        <time>2020-02-23T10:53:23.000Z</time>
      </trkpt>
      <trkpt lat="47.28041" lon="-2.38196">
        <ele>-3</ele>
        <time>2020-02-23T10:53:24.000Z</time>
      </trkpt>
      <trkpt lat="47.28039" lon="-2.38184">
        <ele>-1.7999999523163</ele>
        <time>2020-02-23T10:53:25.000Z</time>
      </trkpt>
      <trkpt lat="47.28037" lon="-2.38172">
        <ele>-0.60000002384186</ele>
        <time>2020-02-23T10:53:26.000Z</time>
      </trkpt>
      <trkpt lat="47.28022" lon="-2.38098">
        <ele>-0.60000002384186</ele>
        <time>2020-02-23T10:53:32.000Z</time>
      </trkpt>
      <trkpt lat="47.28005" lon="-2.38014">
        <ele>-0.60000002384186</ele>
        <time>2020-02-23T10:53:39.000Z</time>
      </trkpt>
      <trkpt lat="47.28003" lon="-2.38001">
        <ele>-0.20000000298023</ele>
        <time>2020-02-23T10:53:40.000Z</time>
      </trkpt>
      <trkpt lat="47.28001" lon="-2.37989">
        <ele>0.20000000298023</ele>
        <time>2020-02-23T10:53:41.000Z</time>
      </trkpt>
      <trkpt lat="47.27998" lon="-2.37977">
        <ele>0.60000002384186</ele>
        <time>2020-02-23T10:53:42.000Z</time>
      </trkpt>
      <trkpt lat="47.27996" lon="-2.37965">
        <ele>1</ele>
        <time>2020-02-23T10:53:43.000Z</time>
      </trkpt>
      <trkpt lat="47.27993" lon="-2.37953">
        <ele>1.3999999761581</ele>
        <time>2020-02-23T10:53:44.000Z</time>
      </trkpt>
      <trkpt lat="47.27979" lon="-2.37882">
        <ele>1.3999999761581</ele>
        <time>2020-02-23T10:53:50.000Z</time>
      </trkpt>
      <trkpt lat="47.27971" lon="-2.37826">
        <ele>1.3999999761581</ele>
        <time>2020-02-23T10:53:55.000Z</time>
      </trkpt>
      <trkpt lat="47.27968" lon="-2.37816">
        <ele>1.3999999761581</ele>
        <time>2020-02-23T10:53:56.000Z</time>
      </trkpt>
      <trkpt lat="47.27961" lon="-2.37775">
        <ele>1.3999999761581</ele>
        <time>2020-02-23T10:54:00.000Z</time>
      </trkpt>
      <trkpt lat="47.27955" lon="-2.37754">
        <ele>1.3999999761581</ele>
        <time>2020-02-23T10:54:02.000Z</time>
      </trkpt>
      <trkpt lat="47.2795" lon="-2.37732">
        <ele>1.3999999761581</ele>
        <time>2020-02-23T10:54:04.000Z</time>
      </trkpt>
      <trkpt lat="47.2793" lon="-2.37651">
        <ele>1.3999999761581</ele>
        <time>2020-02-23T10:54:11.000Z</time>
      </trkpt>
      <trkpt lat="47.27928" lon="-2.3764">
        <ele>1.3999999761581</ele>
        <time>2020-02-23T10:54:12.000Z</time>
      </trkpt>
      <trkpt lat="47.27909" lon="-2.37561">
        <ele>1.3999999761581</ele>
        <time>2020-02-23T10:54:19.000Z</time>
      </trkpt>
      <trkpt lat="47.27904" lon="-2.37541">
        <ele>1.3999999761581</ele>
        <time>2020-02-23T10:54:21.000Z</time>
      </trkpt>
      <trkpt lat="47.27887" lon="-2.37468">
        <ele>1.3999999761581</ele>
        <time>2020-02-23T10:54:28.000Z</time>
      </trkpt>
      <trkpt lat="47.27868" lon="-2.37391">
        <ele>1.3999999761581</ele>
        <time>2020-02-23T10:54:35.000Z</time>
      </trkpt>
      <trkpt lat="47.27848" lon="-2.37313">
        <ele>1.3999999761581</ele>
        <time>2020-02-23T10:54:42.000Z</time>
      </trkpt>
      <trkpt lat="47.27842" lon="-2.37291">
        <ele>1.3999999761581</ele>
        <time>2020-02-23T10:54:44.000Z</time>
      </trkpt>
      <trkpt lat="47.27823" lon="-2.37214">
        <ele>1.3999999761581</ele>
        <time>2020-02-23T10:54:51.000Z</time>
      </trkpt>
      <trkpt lat="47.27811" lon="-2.37158">
        <ele>1.3999999761581</ele>
        <time>2020-02-23T10:54:56.000Z</time>
      </trkpt>
      <trkpt lat="47.27795" lon="-2.37102">
        <ele>1.3999999761581</ele>
        <time>2020-02-23T10:55:01.000Z</time>
      </trkpt>
      <trkpt lat="47.27773" lon="-2.3702">
        <ele>1.3999999761581</ele>
        <time>2020-02-23T10:55:08.000Z</time>
      </trkpt>
      <trkpt lat="47.2777" lon="-2.37008">
        <ele>1.3999999761581</ele>
        <time>2020-02-23T10:55:09.000Z</time>
      </trkpt>
      <trkpt lat="47.27745" lon="-2.36928">
        <ele>1.3999999761581</ele>
        <time>2020-02-23T10:55:16.000Z</time>
      </trkpt>
      <trkpt lat="47.27735" lon="-2.36893">
        <ele>1.3999999761581</ele>
        <time>2020-02-23T10:55:19.000Z</time>
      </trkpt>
      <trkpt lat="47.27711" lon="-2.36811">
        <ele>1.3999999761581</ele>
        <time>2020-02-23T10:55:26.000Z</time>
      </trkpt>
      <trkpt lat="47.277" lon="-2.36776">
        <ele>1.3999999761581</ele>
        <time>2020-02-23T10:55:29.000Z</time>
      </trkpt>
      <trkpt lat="47.27674" lon="-2.36698">
        <ele>1.3999999761581</ele>
        <time>2020-02-23T10:55:36.000Z</time>
      </trkpt>
      <trkpt lat="47.27646" lon="-2.36619">
        <ele>1.3999999761581</ele>
        <time>2020-02-23T10:55:43.000Z</time>
      </trkpt>
      <trkpt lat="47.27639" lon="-2.36597">
        <ele>1.3999999761581</ele>
        <time>2020-02-23T10:55:45.000Z</time>
      </trkpt>
      <trkpt lat="47.27612" lon="-2.36517">
        <ele>1.3999999761581</ele>
        <time>2020-02-23T10:55:52.000Z</time>
      </trkpt>
      <trkpt lat="47.27608" lon="-2.36506">
        <ele>1.3999999761581</ele>
        <time>2020-02-23T10:55:53.000Z</time>
      </trkpt>
      <trkpt lat="47.27579" lon="-2.36429">
        <ele>1.3999999761581</ele>
        <time>2020-02-23T10:56:00.000Z</time>
      </trkpt>
      <trkpt lat="47.27576" lon="-2.36418">
        <ele>1.3999999761581</ele>
        <time>2020-02-23T10:56:01.000Z</time>
      </trkpt>
      <trkpt lat="47.27546" lon="-2.36341">
        <ele>1.3999999761581</ele>
        <time>2020-02-23T10:56:08.000Z</time>
      </trkpt>
      <trkpt lat="47.27516" lon="-2.36265">
        <ele>1.3999999761581</ele>
        <time>2020-02-23T10:56:15.000Z</time>
      </trkpt>
      <trkpt lat="47.27512" lon="-2.36254">
        <ele>1.3999999761581</ele>
        <time>2020-02-23T10:56:16.000Z</time>
      </trkpt>
      <trkpt lat="47.27483" lon="-2.36181">
        <ele>1.3999999761581</ele>
        <time>2020-02-23T10:56:23.000Z</time>
      </trkpt>
      <trkpt lat="47.27475" lon="-2.3616">
        <ele>1.3999999761581</ele>
        <time>2020-02-23T10:56:25.000Z</time>
      </trkpt>
      <trkpt lat="47.27457" lon="-2.36105">
        <ele>1.3999999761581</ele>
        <time>2020-02-23T10:56:30.000Z</time>
      </trkpt>
      <trkpt lat="47.27437" lon="-2.36055">
        <ele>1.3999999761581</ele>
        <time>2020-02-23T10:56:35.000Z</time>
      </trkpt>
      <trkpt lat="47.27412" lon="-2.35994">
        <ele>1.3999999761581</ele>
        <time>2020-02-23T10:56:41.000Z</time>
      </trkpt>
      <trkpt lat="47.27382" lon="-2.35919">
        <ele>1.3999999761581</ele>
        <time>2020-02-23T10:56:48.000Z</time>
      </trkpt>
      <trkpt lat="47.27374" lon="-2.35896">
        <ele>1.3999999761581</ele>
        <time>2020-02-23T10:56:50.000Z</time>
      </trkpt>
      <trkpt lat="47.27343" lon="-2.35818">
        <ele>1.3999999761581</ele>
        <time>2020-02-23T10:56:57.000Z</time>
      </trkpt>
      <trkpt lat="47.27338" lon="-2.35807">
        <ele>1.3999999761581</ele>
        <time>2020-02-23T10:56:58.000Z</time>
      </trkpt>
      <trkpt lat="47.27318" lon="-2.35753">
        <ele>1.3999999761581</ele>
        <time>2020-02-23T10:57:03.000Z</time>
      </trkpt>
      <trkpt lat="47.27301" lon="-2.35712">
        <ele>1.3999999761581</ele>
        <time>2020-02-23T10:57:07.000Z</time>
      </trkpt>
      <trkpt lat="47.27288" lon="-2.35683">
        <ele>1</ele>
        <time>2020-02-23T10:57:10.000Z</time>
      </trkpt>
      <trkpt lat="47.27283" lon="-2.35674">
        <ele>0.60000002384186</ele>
        <time>2020-02-23T10:57:11.000Z</time>
      </trkpt>
      <trkpt lat="47.27279" lon="-2.35663">
        <ele>6.1</ele>
        <time>2020-02-23T10:57:12.000Z</time>
      </trkpt>
      <trkpt lat="47.27275" lon="-2.35653">
        <ele>-0.40000000596046</ele>
        <time>2020-02-23T10:57:13.000Z</time>
      </trkpt>
      <trkpt lat="47.2727" lon="-2.35643">
        <ele>-0.80000001192093</ele>
        <time>2020-02-23T10:57:14.000Z</time>
      </trkpt>
      <trkpt lat="47.27244" lon="-2.35585">
        <ele>-0.80000001192093</ele>
        <time>2020-02-23T10:57:20.000Z</time>
      </trkpt>
      <trkpt lat="47.27214" lon="-2.35518">
        <ele>-0.80000001192093</ele>
        <time>2020-02-23T10:57:27.000Z</time>
      </trkpt>
      <trkpt lat="47.2721" lon="-2.35508">
        <ele>-0.80000001192093</ele>
        <time>2020-02-23T10:57:28.000Z</time>
      </trkpt>
      <trkpt lat="47.27176" lon="-2.35441">
        <ele>-0.80000001192093</ele>
        <time>2020-02-23T10:57:35.000Z</time>
      </trkpt>
      <trkpt lat="47.27171" lon="-2.35432">
        <ele>-0.80000001192093</ele>
        <time>2020-02-23T10:57:36.000Z</time>
      </trkpt>
      <trkpt lat="47.27135" lon="-2.35365">
        <ele>-0.80000001192093</ele>
        <time>2020-02-23T10:57:43.000Z</time>
      </trkpt>
      <trkpt lat="47.27129" lon="-2.35356">
        <ele>-0.80000001192093</ele>
        <time>2020-02-23T10:57:44.000Z</time>
      </trkpt>
      <trkpt lat="47.27089" lon="-2.35293">
        <ele>-0.80000001192093</ele>
        <time>2020-02-23T10:57:51.000Z</time>
      </trkpt>
      <trkpt lat="47.27084" lon="-2.35285">
        <ele>-0.80000001192093</ele>
        <time>2020-02-23T10:57:52.000Z</time>
      </trkpt>
      <trkpt lat="47.27043" lon="-2.35222">
        <ele>-0.80000001192093</ele>
        <time>2020-02-23T10:57:59.000Z</time>
      </trkpt>
      <trkpt lat="47.27031" lon="-2.35204">
        <ele>-0.80000001192093</ele>
        <time>2020-02-23T10:58:01.000Z</time>
      </trkpt>
      <trkpt lat="47.26989" lon="-2.35138">
        <ele>-0.80000001192093</ele>
        <time>2020-02-23T10:58:08.000Z</time>
      </trkpt>
      <trkpt lat="47.26977" lon="-2.3512">
        <ele>-0.80000001192093</ele>
        <time>2020-02-23T10:58:10.000Z</time>
      </trkpt>
      <trkpt lat="47.26933" lon="-2.35053">
        <ele>-0.80000001192093</ele>
        <time>2020-02-23T10:58:17.000Z</time>
      </trkpt>
      <trkpt lat="47.26891" lon="-2.34992">
        <ele>-0.80000001192093</ele>
        <time>2020-02-23T10:58:24.000Z</time>
      </trkpt>
      <trkpt lat="47.2688" lon="-2.34975">
        <ele>-0.80000001192093</ele>
        <time>2020-02-23T10:58:26.000Z</time>
      </trkpt>
      <trkpt lat="47.26839" lon="-2.34914">
        <ele>-0.80000001192093</ele>
        <time>2020-02-23T10:58:33.000Z</time>
      </trkpt>
      <trkpt lat="47.26822" lon="-2.34888">
        <ele>-0.80000001192093</ele>
        <time>2020-02-23T10:58:36.000Z</time>
      </trkpt>
      <trkpt lat="47.26791" lon="-2.3484">
        <ele>-0.80000001192093</ele>
        <time>2020-02-23T10:58:42.000Z</time>
      </trkpt>
      <trkpt lat="47.2678" lon="-2.34826">
        <ele>-0.80000001192093</ele>
        <time>2020-02-23T10:58:45.000Z</time>
      </trkpt>
      <trkpt lat="47.26768" lon="-2.34812">
        <ele>-0.80000001192093</ele>
        <time>2020-02-23T10:58:48.000Z</time>
      </trkpt>
      <trkpt lat="47.26759" lon="-2.34801">
        <ele>-0.80000001192093</ele>
        <time>2020-02-23T10:58:50.000Z</time>
      </trkpt>
      <trkpt lat="47.26734" lon="-2.34767">
        <ele>-0.80000001192093</ele>
        <time>2020-02-23T10:58:55.000Z</time>
      </trkpt>
      <trkpt lat="47.26695" lon="-2.34719">
        <ele>-0.80000001192093</ele>
        <time>2020-02-23T10:59:02.000Z</time>
      </trkpt>
      <trkpt lat="47.2665" lon="-2.34663">
        <ele>-0.80000001192093</ele>
        <time>2020-02-23T10:59:10.000Z</time>
      </trkpt>
      <trkpt lat="47.26608" lon="-2.3461">
        <ele>-0.80000001192093</ele>
        <time>2020-02-23T10:59:18.000Z</time>
      </trkpt>
      <trkpt lat="47.26579" lon="-2.34576">
        <ele>-0.80000001192093</ele>
        <time>2020-02-23T10:59:24.000Z</time>
      </trkpt>
      <trkpt lat="47.26536" lon="-2.34533">
        <ele>-0.80000001192093</ele>
        <time>2020-02-23T10:59:32.000Z</time>
      </trkpt>
      <trkpt lat="47.26495" lon="-2.34502">
        <ele>-0.80000001192093</ele>
        <time>2020-02-23T10:59:39.000Z</time>
      </trkpt>
      <trkpt lat="47.26442" lon="-2.34464">
        <ele>-0.80000001192093</ele>
        <time>2020-02-23T10:59:47.000Z</time>
      </trkpt>
      <trkpt lat="47.2639" lon="-2.34425">
        <ele>-0.80000001192093</ele>
        <time>2020-02-23T10:59:55.000Z</time>
      </trkpt>
      <trkpt lat="47.26347" lon="-2.34386">
        <ele>-0.80000001192093</ele>
        <time>2020-02-23T11:00:02.000Z</time>
      </trkpt>
      <trkpt lat="47.26341" lon="-2.34382">
        <ele>-0.80000001192093</ele>
        <time>2020-02-23T11:00:03.000Z</time>
      </trkpt>
      <trkpt lat="47.26322" lon="-2.3437">
        <ele>-0.80000001192093</ele>
        <time>2020-02-23T11:00:06.000Z</time>
      </trkpt>
      <trkpt lat="47.26312" lon="-2.34356">
        <ele>-0.80000001192093</ele>
        <time>2020-02-23T11:00:08.000Z</time>
      </trkpt>
      <trkpt lat="47.26307" lon="-2.34349">
        <ele>-0.80000001192093</ele>
        <time>2020-02-23T11:00:09.000Z</time>
      </trkpt>
      <trkpt lat="47.26301" lon="-2.34343">
        <ele>-0.80000001192093</ele>
        <time>2020-02-23T11:00:10.000Z</time>
      </trkpt>
      <trkpt lat="47.26268" lon="-2.34308">
        <ele>-0.80000001192093</ele>
        <time>2020-02-23T11:00:16.000Z</time>
      </trkpt>
      <trkpt lat="47.26223" lon="-2.3426">
        <ele>-0.80000001192093</ele>
        <time>2020-02-23T11:00:24.000Z</time>
      </trkpt>
      <trkpt lat="47.26217" lon="-2.34254">
        <ele>-0.80000001192093</ele>
        <time>2020-02-23T11:00:25.000Z</time>
      </trkpt>
      <trkpt lat="47.26175" lon="-2.34213">
        <ele>-0.80000001192093</ele>
        <time>2020-02-23T11:00:32.000Z</time>
      </trkpt>
      <trkpt lat="47.26146" lon="-2.34187">
        <ele>-0.80000001192093</ele>
        <time>2020-02-23T11:00:37.000Z</time>
      </trkpt>
      <trkpt lat="47.2613" lon="-2.34179">
        <ele>-0.80000001192093</ele>
        <time>2020-02-23T11:00:40.000Z</time>
      </trkpt>
      <trkpt lat="47.26126" lon="-2.34174">
        <ele>-0.80000001192093</ele>
        <time>2020-02-23T11:00:41.000Z</time>
      </trkpt>
      <trkpt lat="47.26117" lon="-2.34164">
        <ele>-0.80000001192093</ele>
        <time>2020-02-23T11:00:43.000Z</time>
      </trkpt>
      <trkpt lat="47.26105" lon="-2.34157">
        <ele>-0.80000001192093</ele>
        <time>2020-02-23T11:00:45.000Z</time>
      </trkpt>
      <trkpt lat="47.26068" lon="-2.34138">
        <ele>-0.80000001192093</ele>
        <time>2020-02-23T11:00:52.000Z</time>
      </trkpt>
      <trkpt lat="47.26028" lon="-2.34118">
        <ele>-0.80000001192093</ele>
        <time>2020-02-23T11:00:59.000Z</time>
      </trkpt>
      <trkpt lat="47.25982" lon="-2.34096">
        <ele>-0.80000001192093</ele>
        <time>2020-02-23T11:01:07.000Z</time>
      </trkpt>
      <trkpt lat="47.25944" lon="-2.34079">
        <ele>-0.80000001192093</ele>
        <time>2020-02-23T11:01:14.000Z</time>
      </trkpt>
      <trkpt lat="47.25923" lon="-2.34073">
        <ele>-0.80000001192093</ele>
        <time>2020-02-23T11:01:18.000Z</time>
      </trkpt>
      <trkpt lat="47.25913" lon="-2.34077">
        <ele>-0.80000001192093</ele>
        <time>2020-02-23T11:01:20.000Z</time>
      </trkpt>
      <trkpt lat="47.25901" lon="-2.34094">
        <ele>-0.80000001192093</ele>
        <time>2020-02-23T11:01:23.000Z</time>
      </trkpt>
      <trkpt lat="47.25896" lon="-2.34107">
        <ele>-0.80000001192093</ele>
        <time>2020-02-23T11:01:25.000Z</time>
      </trkpt>
      <trkpt lat="47.25888" lon="-2.34127">
        <ele>-0.80000001192093</ele>
        <time>2020-02-23T11:01:28.000Z</time>
      </trkpt>
      <trkpt lat="47.25883" lon="-2.34139">
        <ele>-0.80000001192093</ele>
        <time>2020-02-23T11:01:30.000Z</time>
      </trkpt>
      <trkpt lat="47.25876" lon="-2.34153">
        <ele>-0.80000001192093</ele>
        <time>2020-02-23T11:01:33.000Z</time>
      </trkpt>
      <trkpt lat="47.25867" lon="-2.34163">
        <ele>-0.80000001192093</ele>
        <time>2020-02-23T11:01:37.000Z</time>
      </trkpt>
      <trkpt lat="47.25855" lon="-2.3416">
        <ele>-0.80000001192093</ele>
        <time>2020-02-23T11:01:42.000Z</time>
      </trkpt>
      <trkpt lat="47.2584" lon="-2.34158">
        <ele>-0.80000001192093</ele>
        <time>2020-02-23T11:01:47.000Z</time>
      </trkpt>
      <trkpt lat="47.25833" lon="-2.34172">
        <ele>-0.80000001192093</ele>
        <time>2020-02-23T11:01:50.000Z</time>
      </trkpt>
      <trkpt lat="47.25824" lon="-2.34179">
        <ele>-0.80000001192093</ele>
        <time>2020-02-23T11:01:53.000Z</time>
      </trkpt>
      <trkpt lat="47.25816" lon="-2.34178">
        <ele>-0.80000001192093</ele>
        <time>2020-02-23T11:01:55.000Z</time>
      </trkpt>
      <trkpt lat="47.25803" lon="-2.34175">
        <ele>-0.80000001192093</ele>
        <time>2020-02-23T11:01:58.000Z</time>
      </trkpt>
      <trkpt lat="47.25791" lon="-2.34172">
        <ele>-0.80000001192093</ele>
        <time>2020-02-23T11:02:02.000Z</time>
      </trkpt>
      <trkpt lat="47.25783" lon="-2.34171">
        <ele>-0.80000001192093</ele>
        <time>2020-02-23T11:02:04.000Z</time>
      </trkpt>
      <trkpt lat="47.25773" lon="-2.34171">
        <ele>-0.80000001192093</ele>
        <time>2020-02-23T11:02:06.000Z</time>
      </trkpt>
      <trkpt lat="47.25754" lon="-2.34175">
        <ele>-0.80000001192093</ele>
        <time>2020-02-23T11:02:10.000Z</time>
      </trkpt>
      <trkpt lat="47.25739" lon="-2.34178">
        <ele>-0.80000001192093</ele>
        <time>2020-02-23T11:02:13.000Z</time>
      </trkpt>
      <trkpt lat="47.25713" lon="-2.34185">
        <ele>-0.80000001192093</ele>
        <time>2020-02-23T11:02:19.000Z</time>
      </trkpt>
      <trkpt lat="47.25708" lon="-2.34185">
        <ele>-0.40000000596046</ele>
        <time>2020-02-23T11:02:20.000Z</time>
      </trkpt>
      <trkpt lat="47.25704" lon="-2.34186">
        <ele>5.7</ele>
        <time>2020-02-23T11:02:21.000Z</time>
      </trkpt>
      <trkpt lat="47.257" lon="-2.34187">
        <ele>0.40000000596046</ele>
        <time>2020-02-23T11:02:22.000Z</time>
      </trkpt>
      <trkpt lat="47.25696" lon="-2.34188">
        <ele>0.80000001192093</ele>
        <time>2020-02-23T11:02:23.000Z</time>
      </trkpt>
      <trkpt lat="47.25692" lon="-2.34189">
        <ele>1.2000000476837</ele>
        <time>2020-02-23T11:02:24.000Z</time>
      </trkpt>
      <trkpt lat="47.25688" lon="-2.34189">
        <ele>1.2000000476837</ele>
        <time>2020-02-23T11:02:25.000Z</time>
      </trkpt>
      <trkpt lat="47.25671" lon="-2.34186">
        <ele>1.2000000476837</ele>
        <time>2020-02-23T11:02:29.000Z</time>
      </trkpt>
      <trkpt lat="47.25667" lon="-2.34183">
        <ele>1.2000000476837</ele>
        <time>2020-02-23T11:02:30.000Z</time>
      </trkpt>
      <trkpt lat="47.25655" lon="-2.3416">
        <ele>1.2000000476837</ele>
        <time>2020-02-23T11:02:35.000Z</time>
      </trkpt>
      <trkpt lat="47.2565" lon="-2.3415">
        <ele>1.2000000476837</ele>
        <time>2020-02-23T11:02:37.000Z</time>
      </trkpt>
      <trkpt lat="47.25649" lon="-2.34144">
        <ele>1.2000000476837</ele>
        <time>2020-02-23T11:02:38.000Z</time>
      </trkpt>
      <trkpt lat="47.25646" lon="-2.34133">
        <ele>1.2000000476837</ele>
        <time>2020-02-23T11:02:40.000Z</time>
      </trkpt>
      <trkpt lat="47.25642" lon="-2.34123">
        <ele>0.80000001192093</ele>
        <time>2020-02-23T11:02:42.000Z</time>
      </trkpt>
      <trkpt lat="47.25641" lon="-2.34118">
        <ele>0.40000000596046</ele>
        <time>2020-02-23T11:02:43.000Z</time>
      </trkpt>
      <trkpt lat="47.2564" lon="-2.34112">
        <ele>7</ele>
        <time>2020-02-23T11:02:44.000Z</time>
      </trkpt>
      <trkpt lat="47.25639" lon="-2.34106">
        <ele>-0.40000000596046</ele>
        <time>2020-02-23T11:02:45.000Z</time>
      </trkpt>
      <trkpt lat="47.25639" lon="-2.34099">
        <ele>-0.80000001192093</ele>
        <time>2020-02-23T11:02:46.000Z</time>
      </trkpt>
      <trkpt lat="47.25639" lon="-2.34086">
        <ele>-0.80000001192093</ele>
        <time>2020-02-23T11:02:48.000Z</time>
      </trkpt>
      <trkpt lat="47.2564" lon="-2.34066">
        <ele>-0.80000001192093</ele>
        <time>2020-02-23T11:02:51.000Z</time>
      </trkpt>
      <trkpt lat="47.25649" lon="-2.34011">
        <ele>-0.80000001192093</ele>
        <time>2020-02-23T11:02:59.000Z</time>
      </trkpt>
      <trkpt lat="47.25654" lon="-2.3399">
        <ele>-0.80000001192093</ele>
        <time>2020-02-23T11:03:03.000Z</time>
      </trkpt>
      <trkpt lat="47.25655" lon="-2.33983">
        <ele>-0.80000001192093</ele>
        <time>2020-02-23T11:03:04.000Z</time>
      </trkpt>
      <trkpt lat="47.2566" lon="-2.33948">
        <ele>-0.80000001192093</ele>
        <time>2020-02-23T11:03:09.000Z</time>
      </trkpt>
      <trkpt lat="47.25659" lon="-2.33941">
        <ele>-0.80000001192093</ele>
        <time>2020-02-23T11:03:10.000Z</time>
      </trkpt>
      <trkpt lat="47.25648" lon="-2.33869">
        <ele>-0.80000001192093</ele>
        <time>2020-02-23T11:03:20.000Z</time>
      </trkpt>
      <trkpt lat="47.25642" lon="-2.33833">
        <ele>-0.80000001192093</ele>
        <time>2020-02-23T11:03:25.000Z</time>
      </trkpt>
      <trkpt lat="47.25641" lon="-2.33826">
        <ele>-0.80000001192093</ele>
        <time>2020-02-23T11:03:26.000Z</time>
      </trkpt>
      <trkpt lat="47.25637" lon="-2.33798">
        <ele>-0.80000001192093</ele>
        <time>2020-02-23T11:03:30.000Z</time>
      </trkpt>
      <trkpt lat="47.25634" lon="-2.33785">
        <ele>-0.80000001192093</ele>
        <time>2020-02-23T11:03:32.000Z</time>
      </trkpt>
      <trkpt lat="47.25625" lon="-2.33768">
        <ele>-0.40000000596046</ele>
        <time>2020-02-23T11:03:35.000Z</time>
      </trkpt>
      <trkpt lat="47.25621" lon="-2.33764">
        <ele>8.3</ele>
        <time>2020-02-23T11:03:36.000Z</time>
      </trkpt>
      <trkpt lat="47.25617" lon="-2.33762">
        <ele>0.60000002384186</ele>
        <time>2020-02-23T11:03:37.000Z</time>
      </trkpt>
      <trkpt lat="47.25613" lon="-2.3376">
        <ele>1</ele>
        <time>2020-02-23T11:03:38.000Z</time>
      </trkpt>
      <trkpt lat="47.25608" lon="-2.33758">
        <ele>1.3999999761581</ele>
        <time>2020-02-23T11:03:39.000Z</time>
      </trkpt>
      <trkpt lat="47.25597" lon="-2.33756">
        <ele>1.3999999761581</ele>
        <time>2020-02-23T11:03:41.000Z</time>
      </trkpt>
      <trkpt lat="47.2558" lon="-2.33756">
        <ele>1.3999999761581</ele>
        <time>2020-02-23T11:03:44.000Z</time>
      </trkpt>
      <trkpt lat="47.25542" lon="-2.33756">
        <ele>1.3999999761581</ele>
        <time>2020-02-23T11:03:51.000Z</time>
      </trkpt>
      <trkpt lat="47.25508" lon="-2.33756">
        <ele>1.3999999761581</ele>
        <time>2020-02-23T11:03:57.000Z</time>
      </trkpt>
      <trkpt lat="47.25496" lon="-2.33754">
        <ele>1.3999999761581</ele>
        <time>2020-02-23T11:03:59.000Z</time>
      </trkpt>
      <trkpt lat="47.2548" lon="-2.33749">
        <ele>1.3999999761581</ele>
        <time>2020-02-23T11:04:02.000Z</time>
      </trkpt>
      <trkpt lat="47.2546" lon="-2.33736">
        <ele>1.3999999761581</ele>
        <time>2020-02-23T11:04:06.000Z</time>
      </trkpt>
      <trkpt lat="47.25456" lon="-2.33729">
        <ele>1.3999999761581</ele>
        <time>2020-02-23T11:04:07.000Z</time>
      </trkpt>
      <trkpt lat="47.25453" lon="-2.33707">
        <ele>1.3999999761581</ele>
        <time>2020-02-23T11:04:10.000Z</time>
      </trkpt>
      <trkpt lat="47.25452" lon="-2.33699">
        <ele>1.3999999761581</ele>
        <time>2020-02-23T11:04:11.000Z</time>
      </trkpt>
      <trkpt lat="47.2545" lon="-2.33664">
        <ele>1.3999999761581</ele>
        <time>2020-02-23T11:04:16.000Z</time>
      </trkpt>
      <trkpt lat="47.25444" lon="-2.33625">
        <ele>1.3999999761581</ele>
        <time>2020-02-23T11:04:22.000Z</time>
      </trkpt>
      <trkpt lat="47.25444" lon="-2.33618">
        <ele>1.3999999761581</ele>
        <time>2020-02-23T11:04:23.000Z</time>
      </trkpt>
      <trkpt lat="47.25443" lon="-2.33599">
        <ele>1.3999999761581</ele>
        <time>2020-02-23T11:04:27.000Z</time>
      </trkpt>
      <trkpt lat="47.25448" lon="-2.33579">
        <ele>1.3999999761581</ele>
        <time>2020-02-23T11:04:32.000Z</time>
      </trkpt>
      <trkpt lat="47.25459" lon="-2.33572">
        <ele>1.3999999761581</ele>
        <time>2020-02-23T11:04:36.000Z</time>
      </trkpt>
      <trkpt lat="47.25459" lon="-2.33559">
        <ele>1.3999999761581</ele>
        <time>2020-02-23T11:04:39.000Z</time>
      </trkpt>
      <trkpt lat="47.25458" lon="-2.33555">
        <ele>1.3999999761581</ele>
        <time>2020-02-23T11:04:40.000Z</time>
      </trkpt>
      <trkpt lat="47.25453" lon="-2.33522">
        <ele>1.3999999761581</ele>
        <time>2020-02-23T11:04:47.000Z</time>
      </trkpt>
      <trkpt lat="47.25448" lon="-2.33493">
        <ele>1.3999999761581</ele>
        <time>2020-02-23T11:04:52.000Z</time>
      </trkpt>
      <trkpt lat="47.25436" lon="-2.33464">
        <ele>1.3999999761581</ele>
        <time>2020-02-23T11:04:57.000Z</time>
      </trkpt>
      <trkpt lat="47.25434" lon="-2.33443">
        <ele>1.3999999761581</ele>
        <time>2020-02-23T11:05:01.000Z</time>
      </trkpt>
      <trkpt lat="47.25434" lon="-2.33436">
        <ele>1.3999999761581</ele>
        <time>2020-02-23T11:05:02.000Z</time>
      </trkpt>
      <trkpt lat="47.25433" lon="-2.33369">
        <ele>1.3999999761581</ele>
        <time>2020-02-23T11:05:11.000Z</time>
      </trkpt>
      <trkpt lat="47.25434" lon="-2.33347">
        <ele>1.3999999761581</ele>
        <time>2020-02-23T11:05:14.000Z</time>
      </trkpt>
      <trkpt lat="47.25437" lon="-2.33333">
        <ele>1.3999999761581</ele>
        <time>2020-02-23T11:05:16.000Z</time>
      </trkpt>
      <trkpt lat="47.25441" lon="-2.3332">
        <ele>1.3999999761581</ele>
        <time>2020-02-23T11:05:18.000Z</time>
      </trkpt>
      <trkpt lat="47.25449" lon="-2.33287">
        <ele>1.3999999761581</ele>
        <time>2020-02-23T11:05:23.000Z</time>
      </trkpt>
      <trkpt lat="47.25445" lon="-2.33266">
        <ele>1.3999999761581</ele>
        <time>2020-02-23T11:05:26.000Z</time>
      </trkpt>
      <trkpt lat="47.25442" lon="-2.33259">
        <ele>1.3999999761581</ele>
        <time>2020-02-23T11:05:27.000Z</time>
      </trkpt>
      <trkpt lat="47.25425" lon="-2.33215">
        <ele>1.3999999761581</ele>
        <time>2020-02-23T11:05:34.000Z</time>
      </trkpt>
      <trkpt lat="47.25403" lon="-2.33162">
        <ele>1.3999999761581</ele>
        <time>2020-02-23T11:05:43.000Z</time>
      </trkpt>
      <trkpt lat="47.25388" lon="-2.33137">
        <ele>1.3999999761581</ele>
        <time>2020-02-23T11:05:49.000Z</time>
      </trkpt>
      <trkpt lat="47.25381" lon="-2.3312">
        <ele>1.3999999761581</ele>
        <time>2020-02-23T11:05:54.000Z</time>
      </trkpt>
      <trkpt lat="47.25376" lon="-2.3311">
        <ele>1.3999999761581</ele>
        <time>2020-02-23T11:06:00.000Z</time>
      </trkpt>
      <trkpt lat="47.25373" lon="-2.33105">
        <ele>3.5999999046326</ele>
        <time>2020-02-23T11:21:04.000Z</time>
      </trkpt>
      <trkpt lat="47.25369" lon="-2.33096">
        <ele>3.5999999046326</ele>
        <time>2020-02-23T11:21:07.000Z</time>
      </trkpt>
      <trkpt lat="47.25362" lon="-2.3308">
        <ele>3.5999999046326</ele>
        <time>2020-02-23T11:21:10.000Z</time>
      </trkpt>
      <trkpt lat="47.25359" lon="-2.33072">
        <ele>3.5999999046326</ele>
        <time>2020-02-23T11:21:11.000Z</time>
      </trkpt>
      <trkpt lat="47.25339" lon="-2.33017">
        <ele>3.5999999046326</ele>
        <time>2020-02-23T11:21:19.000Z</time>
      </trkpt>
      <trkpt lat="47.25311" lon="-2.32948">
        <ele>3.5999999046326</ele>
        <time>2020-02-23T11:21:28.000Z</time>
      </trkpt>
      <trkpt lat="47.25307" lon="-2.32933">
        <ele>3.5999999046326</ele>
        <time>2020-02-23T11:21:30.000Z</time>
      </trkpt>
      <trkpt lat="47.25311" lon="-2.32917">
        <ele>3.5999999046326</ele>
        <time>2020-02-23T11:21:32.000Z</time>
      </trkpt>
      <trkpt lat="47.25315" lon="-2.32911">
        <ele>3.5999999046326</ele>
        <time>2020-02-23T11:21:33.000Z</time>
      </trkpt>
      <trkpt lat="47.25325" lon="-2.32902">
        <ele>3.5999999046326</ele>
        <time>2020-02-23T11:21:35.000Z</time>
      </trkpt>
      <trkpt lat="47.25339" lon="-2.32888">
        <ele>4</ele>
        <time>2020-02-23T11:21:38.000Z</time>
      </trkpt>
      <trkpt lat="47.25344" lon="-2.32883">
        <ele>4.4000000953674</ele>
        <time>2020-02-23T11:21:39.000Z</time>
      </trkpt>
      <trkpt lat="47.25349" lon="-2.32879">
        <ele>4.8000001907349</ele>
        <time>2020-02-23T11:21:40.000Z</time>
      </trkpt>
      <trkpt lat="47.25354" lon="-2.32874">
        <ele>5.1999998092651</ele>
        <time>2020-02-23T11:21:41.000Z</time>
      </trkpt>
      <trkpt lat="47.25359" lon="-2.32869">
        <ele>5.5999999046326</ele>
        <time>2020-02-23T11:21:42.000Z</time>
      </trkpt>
      <trkpt lat="47.25389" lon="-2.32837">
        <ele>5.5999999046326</ele>
        <time>2020-02-23T11:21:48.000Z</time>
      </trkpt>
      <trkpt lat="47.25407" lon="-2.32814">
        <ele>5.5999999046326</ele>
        <time>2020-02-23T11:21:52.000Z</time>
      </trkpt>
      <trkpt lat="47.25415" lon="-2.32801">
        <ele>5.5999999046326</ele>
        <time>2020-02-23T11:21:54.000Z</time>
      </trkpt>
      <trkpt lat="47.25425" lon="-2.32783">
        <ele>5.5999999046326</ele>
        <time>2020-02-23T11:21:57.000Z</time>
      </trkpt>
      <trkpt lat="47.2543" lon="-2.3277">
        <ele>5.5999999046326</ele>
        <time>2020-02-23T11:21:59.000Z</time>
      </trkpt>
      <trkpt lat="47.25443" lon="-2.32754">
        <ele>5.5999999046326</ele>
        <time>2020-02-23T11:22:02.000Z</time>
      </trkpt>
      <trkpt lat="47.25446" lon="-2.32748">
        <ele>5.5999999046326</ele>
        <time>2020-02-23T11:22:03.000Z</time>
      </trkpt>
      <trkpt lat="47.2547" lon="-2.32715">
        <ele>5.5999999046326</ele>
        <time>2020-02-23T11:22:09.000Z</time>
      </trkpt>
      <trkpt lat="47.25478" lon="-2.32705">
        <ele>5.5999999046326</ele>
        <time>2020-02-23T11:22:11.000Z</time>
      </trkpt>
      <trkpt lat="47.25481" lon="-2.32698">
        <ele>5.5999999046326</ele>
        <time>2020-02-23T11:22:12.000Z</time>
      </trkpt>
      <trkpt lat="47.25486" lon="-2.32685">
        <ele>5.5999999046326</ele>
        <time>2020-02-23T11:22:14.000Z</time>
      </trkpt>
      <trkpt lat="47.25488" lon="-2.32677">
        <ele>6</ele>
        <time>2020-02-23T11:22:15.000Z</time>
      </trkpt>
      <trkpt lat="47.25488" lon="-2.32669">
        <ele>6.4000000953674</ele>
        <time>2020-02-23T11:22:16.000Z</time>
      </trkpt>
      <trkpt lat="47.25488" lon="-2.32661">
        <ele>6.8000001907349</ele>
        <time>2020-02-23T11:22:17.000Z</time>
      </trkpt>
      <trkpt lat="47.25488" lon="-2.32653">
        <ele>7.1999998092651</ele>
        <time>2020-02-23T11:22:18.000Z</time>
      </trkpt>
      <trkpt lat="47.25487" lon="-2.32645">
        <ele>7.5999999046326</ele>
        <time>2020-02-23T11:22:19.000Z</time>
      </trkpt>
      <trkpt lat="47.25486" lon="-2.32638">
        <ele>7.5999999046326</ele>
        <time>2020-02-23T11:22:20.000Z</time>
      </trkpt>
      <trkpt lat="47.25479" lon="-2.32578">
        <ele>7.5999999046326</ele>
        <time>2020-02-23T11:22:28.000Z</time>
      </trkpt>
      <trkpt lat="47.25479" lon="-2.32571">
        <ele>7.5999999046326</ele>
        <time>2020-02-23T11:22:29.000Z</time>
      </trkpt>
      <trkpt lat="47.25485" lon="-2.32559">
        <ele>7.5999999046326</ele>
        <time>2020-02-23T11:22:31.000Z</time>
      </trkpt>
      <trkpt lat="47.25494" lon="-2.3255">
        <ele>7.5999999046326</ele>
        <time>2020-02-23T11:22:33.000Z</time>
      </trkpt>
      <trkpt lat="47.25499" lon="-2.32545">
        <ele>7.5999999046326</ele>
        <time>2020-02-23T11:22:34.000Z</time>
      </trkpt>
      <trkpt lat="47.25536" lon="-2.32509">
        <ele>7.5999999046326</ele>
        <time>2020-02-23T11:22:41.000Z</time>
      </trkpt>
      <trkpt lat="47.25581" lon="-2.32467">
        <ele>7.5999999046326</ele>
        <time>2020-02-23T11:22:48.000Z</time>
      </trkpt>
      <trkpt lat="47.256" lon="-2.32447">
        <ele>7</ele>
        <time>2020-02-23T11:22:51.000Z</time>
      </trkpt>
      <trkpt lat="47.25607" lon="-2.3244">
        <ele>6.5999999046326</ele>
        <time>2020-02-23T11:22:52.000Z</time>
      </trkpt>
      <trkpt lat="47.25614" lon="-2.32432">
        <ele>6</ele>
        <time>2020-02-23T11:22:53.000Z</time>
      </trkpt>
      <trkpt lat="47.2562" lon="-2.32426">
        <ele>5.5999999046326</ele>
        <time>2020-02-23T11:22:54.000Z</time>
      </trkpt>
      <trkpt lat="47.25627" lon="-2.32418">
        <ele>5</ele>
        <time>2020-02-23T11:22:55.000Z</time>
      </trkpt>
      <trkpt lat="47.2564" lon="-2.32406">
        <ele>4.5999999046326</ele>
        <time>2020-02-23T11:22:57.000Z</time>
      </trkpt>
      <trkpt lat="47.25646" lon="-2.32403">
        <ele>4.1999998092651</ele>
        <time>2020-02-23T11:22:58.000Z</time>
      </trkpt>
      <trkpt lat="47.2565" lon="-2.32402">
        <ele>3.7999999523163</ele>
        <time>2020-02-23T11:22:59.000Z</time>
      </trkpt>
      <trkpt lat="47.25652" lon="-2.32401">
        <ele>3.2000000476837</ele>
        <time>2020-02-23T11:23:00.000Z</time>
      </trkpt>
      <trkpt lat="47.25652" lon="-2.32401">
        <ele>2.7999999523163</ele>
        <time>2020-02-23T11:23:01.000Z</time>
      </trkpt>
      <trkpt lat="47.25652" lon="-2.32401">
        <ele>1.6000000238419</ele>
        <time>2020-02-23T11:23:04.000Z</time>
      </trkpt>
      <trkpt lat="47.25653" lon="-2.324">
        <ele>1.2000000476837</ele>
        <time>2020-02-23T11:23:05.000Z</time>
      </trkpt>
      <trkpt lat="47.25656" lon="-2.32399">
        <ele>0.60000002384186</ele>
        <time>2020-02-23T11:23:06.000Z</time>
      </trkpt>
      <trkpt lat="47.25666" lon="-2.32403">
        <ele>0.60000002384186</ele>
        <time>2020-02-23T11:23:09.000Z</time>
      </trkpt>
      <trkpt lat="47.25674" lon="-2.32412">
        <ele>0.60000002384186</ele>
        <time>2020-02-23T11:23:11.000Z</time>
      </trkpt>
      <trkpt lat="47.25679" lon="-2.32416">
        <ele>0.60000002384186</ele>
        <time>2020-02-23T11:23:12.000Z</time>
      </trkpt>
      <trkpt lat="47.25685" lon="-2.32418">
        <ele>0.60000002384186</ele>
        <time>2020-02-23T11:23:13.000Z</time>
      </trkpt>
      <trkpt lat="47.25722" lon="-2.32425">
        <ele>0.60000002384186</ele>
        <time>2020-02-23T11:23:19.000Z</time>
      </trkpt>
      <trkpt lat="47.25737" lon="-2.32426">
        <ele>0.60000002384186</ele>
        <time>2020-02-23T11:23:22.000Z</time>
      </trkpt>
      <trkpt lat="47.25746" lon="-2.32425">
        <ele>0.60000002384186</ele>
        <time>2020-02-23T11:23:24.000Z</time>
      </trkpt>
      <trkpt lat="47.25762" lon="-2.32421">
        <ele>0.60000002384186</ele>
        <time>2020-02-23T11:23:28.000Z</time>
      </trkpt>
      <trkpt lat="47.25767" lon="-2.32419">
        <ele>0.60000002384186</ele>
        <time>2020-02-23T11:23:29.000Z</time>
      </trkpt>
      <trkpt lat="47.2578" lon="-2.32416">
        <ele>0.60000002384186</ele>
        <time>2020-02-23T11:23:32.000Z</time>
      </trkpt>
      <trkpt lat="47.2579" lon="-2.32431">
        <ele>0.60000002384186</ele>
        <time>2020-02-23T11:23:35.000Z</time>
      </trkpt>
      <trkpt lat="47.25794" lon="-2.32438">
        <ele>0.60000002384186</ele>
        <time>2020-02-23T11:23:36.000Z</time>
      </trkpt>
      <trkpt lat="47.25802" lon="-2.32449">
        <ele>1</ele>
        <time>2020-02-23T11:23:38.000Z</time>
      </trkpt>
      <trkpt lat="47.25807" lon="-2.32454">
        <ele>1.6000000238419</ele>
        <time>2020-02-23T11:23:39.000Z</time>
      </trkpt>
      <trkpt lat="47.25812" lon="-2.32458">
        <ele>2</ele>
        <time>2020-02-23T11:23:40.000Z</time>
      </trkpt>
      <trkpt lat="47.25817" lon="-2.32461">
        <ele>2.4000000953674</ele>
        <time>2020-02-23T11:23:41.000Z</time>
      </trkpt>
      <trkpt lat="47.25823" lon="-2.32465">
        <ele>2.7999999523163</ele>
        <time>2020-02-23T11:23:42.000Z</time>
      </trkpt>
      <trkpt lat="47.25845" lon="-2.32473">
        <ele>2.7999999523163</ele>
        <time>2020-02-23T11:23:46.000Z</time>
      </trkpt>
      <trkpt lat="47.2585" lon="-2.32474">
        <ele>2.7999999523163</ele>
        <time>2020-02-23T11:23:47.000Z</time>
      </trkpt>
      <trkpt lat="47.25872" lon="-2.32474">
        <ele>2.4000000953674</ele>
        <time>2020-02-23T11:23:51.000Z</time>
      </trkpt>
      <trkpt lat="47.25877" lon="-2.32473">
        <ele>2</ele>
        <time>2020-02-23T11:23:52.000Z</time>
      </trkpt>
      <trkpt lat="47.25882" lon="-2.32472">
        <ele>1.3999999761581</ele>
        <time>2020-02-23T11:23:53.000Z</time>
      </trkpt>
      <trkpt lat="47.25888" lon="-2.3247">
        <ele>0.60000002384186</ele>
        <time>2020-02-23T11:23:54.000Z</time>
      </trkpt>
      <trkpt lat="47.25899" lon="-2.32463">
        <ele>0.60000002384186</ele>
        <time>2020-02-23T11:23:56.000Z</time>
      </trkpt>
      <trkpt lat="47.25907" lon="-2.32453">
        <ele>0.60000002384186</ele>
        <time>2020-02-23T11:23:58.000Z</time>
      </trkpt>
      <trkpt lat="47.25913" lon="-2.32444">
        <ele>0.60000002384186</ele>
        <time>2020-02-23T11:24:00.000Z</time>
      </trkpt>
      <trkpt lat="47.25934" lon="-2.32417">
        <ele>0.60000002384186</ele>
        <time>2020-02-23T11:24:07.000Z</time>
      </trkpt>
      <trkpt lat="47.25953" lon="-2.32391">
        <ele>0.60000002384186</ele>
        <time>2020-02-23T11:24:12.000Z</time>
      </trkpt>
      <trkpt lat="47.25981" lon="-2.32354">
        <ele>0.60000002384186</ele>
        <time>2020-02-23T11:24:18.000Z</time>
      </trkpt>
      <trkpt lat="47.26019" lon="-2.32304">
        <ele>0.60000002384186</ele>
        <time>2020-02-23T11:24:26.000Z</time>
      </trkpt>
      <trkpt lat="47.26058" lon="-2.32258">
        <ele>0.60000002384186</ele>
        <time>2020-02-23T11:24:34.000Z</time>
      </trkpt>
      <trkpt lat="47.26095" lon="-2.32212">
        <ele>0.60000002384186</ele>
        <time>2020-02-23T11:24:42.000Z</time>
      </trkpt>
      <trkpt lat="47.26116" lon="-2.32168">
        <ele>0.60000002384186</ele>
        <time>2020-02-23T11:24:48.000Z</time>
      </trkpt>
      <trkpt lat="47.26135" lon="-2.3211">
        <ele>0.60000002384186</ele>
        <time>2020-02-23T11:24:55.000Z</time>
      </trkpt>
      <trkpt lat="47.26157" lon="-2.32036">
        <ele>0.60000002384186</ele>
        <time>2020-02-23T11:25:04.000Z</time>
      </trkpt>
      <trkpt lat="47.26162" lon="-2.32002">
        <ele>0.60000002384186</ele>
        <time>2020-02-23T11:25:08.000Z</time>
      </trkpt>
      <trkpt lat="47.26161" lon="-2.31984">
        <ele>0.60000002384186</ele>
        <time>2020-02-23T11:25:10.000Z</time>
      </trkpt>
      <trkpt lat="47.26154" lon="-2.31929">
        <ele>0.60000002384186</ele>
        <time>2020-02-23T11:25:16.000Z</time>
      </trkpt>
      <trkpt lat="47.26146" lon="-2.31867">
        <ele>0.60000002384186</ele>
        <time>2020-02-23T11:25:23.000Z</time>
      </trkpt>
      <trkpt lat="47.26139" lon="-2.31811">
        <ele>0.60000002384186</ele>
        <time>2020-02-23T11:25:29.000Z</time>
      </trkpt>
      <trkpt lat="47.26131" lon="-2.31745">
        <ele>0.60000002384186</ele>
        <time>2020-02-23T11:25:36.000Z</time>
      </trkpt>
      <trkpt lat="47.26127" lon="-2.31701">
        <ele>0.60000002384186</ele>
        <time>2020-02-23T11:25:41.000Z</time>
      </trkpt>
      <trkpt lat="47.26119" lon="-2.3164">
        <ele>0.60000002384186</ele>
        <time>2020-02-23T11:25:48.000Z</time>
      </trkpt>
      <trkpt lat="47.26119" lon="-2.31626">
        <ele>0.60000002384186</ele>
        <time>2020-02-23T11:25:50.000Z</time>
      </trkpt>
      <trkpt lat="47.2612" lon="-2.3162">
        <ele>0.60000002384186</ele>
        <time>2020-02-23T11:25:51.000Z</time>
      </trkpt>
      <trkpt lat="47.2613" lon="-2.3161">
        <ele>0.60000002384186</ele>
        <time>2020-02-23T11:25:54.000Z</time>
      </trkpt>
      <trkpt lat="47.26134" lon="-2.3161">
        <ele>0.60000002384186</ele>
        <time>2020-02-23T11:25:55.000Z</time>
      </trkpt>
      <trkpt lat="47.26144" lon="-2.31608">
        <ele>0.60000002384186</ele>
        <time>2020-02-23T11:25:57.000Z</time>
      </trkpt>
      <trkpt lat="47.26155" lon="-2.31605">
        <ele>0.60000002384186</ele>
        <time>2020-02-23T11:25:59.000Z</time>
      </trkpt>
      <trkpt lat="47.26177" lon="-2.31598">
        <ele>0.60000002384186</ele>
        <time>2020-02-23T11:26:03.000Z</time>
      </trkpt>
      <trkpt lat="47.26193" lon="-2.31593">
        <ele>0.60000002384186</ele>
        <time>2020-02-23T11:26:06.000Z</time>
      </trkpt>
      <trkpt lat="47.2621" lon="-2.3159">
        <ele>0.60000002384186</ele>
        <time>2020-02-23T11:26:09.000Z</time>
      </trkpt>
      <trkpt lat="47.2622" lon="-2.31592">
        <ele>0.60000002384186</ele>
        <time>2020-02-23T11:26:11.000Z</time>
      </trkpt>
      <trkpt lat="47.26229" lon="-2.31596">
        <ele>0.60000002384186</ele>
        <time>2020-02-23T11:26:13.000Z</time>
      </trkpt>
      <trkpt lat="47.26243" lon="-2.31607">
        <ele>0.60000002384186</ele>
        <time>2020-02-23T11:26:16.000Z</time>
      </trkpt>
      <trkpt lat="47.26255" lon="-2.31623">
        <ele>0.60000002384186</ele>
        <time>2020-02-23T11:26:19.000Z</time>
      </trkpt>
      <trkpt lat="47.26258" lon="-2.31629">
        <ele>0.60000002384186</ele>
        <time>2020-02-23T11:26:20.000Z</time>
      </trkpt>
      <trkpt lat="47.26279" lon="-2.31673">
        <ele>0.60000002384186</ele>
        <time>2020-02-23T11:26:27.000Z</time>
      </trkpt>
      <trkpt lat="47.26288" lon="-2.31691">
        <ele>0.60000002384186</ele>
        <time>2020-02-23T11:26:30.000Z</time>
      </trkpt>
      <trkpt lat="47.26296" lon="-2.31709">
        <ele>0.60000002384186</ele>
        <time>2020-02-23T11:26:33.000Z</time>
      </trkpt>
      <trkpt lat="47.26303" lon="-2.31714">
        <ele>0.60000002384186</ele>
        <time>2020-02-23T11:26:35.000Z</time>
      </trkpt>
      <trkpt lat="47.26308" lon="-2.31713">
        <ele>0.60000002384186</ele>
        <time>2020-02-23T11:26:36.000Z</time>
      </trkpt>
      <trkpt lat="47.26331" lon="-2.31699">
        <ele>0.60000002384186</ele>
        <time>2020-02-23T11:26:42.000Z</time>
      </trkpt>
      <trkpt lat="47.26339" lon="-2.31687">
        <ele>0.60000002384186</ele>
        <time>2020-02-23T11:26:45.000Z</time>
      </trkpt>
      <trkpt lat="47.26342" lon="-2.31685">
        <ele>0.60000002384186</ele>
        <time>2020-02-23T11:26:46.000Z</time>
      </trkpt>
      <trkpt lat="47.26356" lon="-2.31679">
        <ele>0.60000002384186</ele>
        <time>2020-02-23T11:26:50.000Z</time>
      </trkpt>
      <trkpt lat="47.26378" lon="-2.3167">
        <ele>0.60000002384186</ele>
        <time>2020-02-23T11:26:56.000Z</time>
      </trkpt>
      <trkpt lat="47.26402" lon="-2.31655">
        <ele>0.60000002384186</ele>
        <time>2020-02-23T11:27:03.000Z</time>
      </trkpt>
      <trkpt lat="47.26413" lon="-2.31645">
        <ele>0.60000002384186</ele>
        <time>2020-02-23T11:27:07.000Z</time>
      </trkpt>
      <trkpt lat="47.26412" lon="-2.31615">
        <ele>0.60000002384186</ele>
        <time>2020-02-23T11:27:13.000Z</time>
      </trkpt>
      <trkpt lat="47.26412" lon="-2.31599">
        <ele>0.60000002384186</ele>
        <time>2020-02-23T11:27:16.000Z</time>
      </trkpt>
      <trkpt lat="47.26412" lon="-2.31579">
        <ele>0.60000002384186</ele>
        <time>2020-02-23T11:27:20.000Z</time>
      </trkpt>
      <trkpt lat="47.26412" lon="-2.31554">
        <ele>0.60000002384186</ele>
        <time>2020-02-23T11:27:26.000Z</time>
      </trkpt>
      <trkpt lat="47.26413" lon="-2.31552">
        <ele>0.60000002384186</ele>
        <time>2020-02-23T11:27:27.000Z</time>
      </trkpt>
      <trkpt lat="47.26416" lon="-2.31551">
        <ele>0.60000002384186</ele>
        <time>2020-02-23T11:27:29.000Z</time>
      </trkpt>
      <trkpt lat="47.26417" lon="-2.31552">
        <ele>0.60000002384186</ele>
        <time>2020-02-23T11:27:32.000Z</time>
      </trkpt>
    </trkseg>
  </trk>
</gpx>